GFSMW_prec_precacc_021.txt.gz
Total_Precipitation_Accumulation
0.00 0.00 0.00 0.00 0.00 0.00 0.00 0.00 0.00 0.00 0.00 0.00 0.00 0.00 0.00 0.00 0.00 0.00 0.00 0.00 0.00 0.00 0.00 0.00 0.00 0.00 0.00 0.00 0.00 0.00 0.00 0.00 0.00 0.00 0.00 0.00 0.00 0.00 0.00 0.00 0.00 0.00 0.00
0.00 0.00 0.00 0.00 0.00 0.00 0.00 0.00 0.00 0.00 0.00 0.00 0.00 0.00 0.00 0.00 0.00 0.00 0.00 0.00 0.00 0.00 0.00 0.00 0.00 0.00 0.00 0.00 0.00 0.00 0.00 0.00 0.00 0.01 0.02 0.02 0.00 0.00 0.00 0.00 0.00 0.00 0.00
0.00 0.00 0.00 0.00 0.00 0.00 0.00 0.00 0.00 0.00 0.00 0.00 0.00 0.00 0.00 0.00 0.00 0.00 0.00 0.00 0.00 0.00 0.00 0.00 0.00 0.00 0.00 0.00 0.00 0.00 0.00 0.01 0.01 0.00 0.04 0.07 0.03 0.02 0.00 0.00 0.00 0.00 0.00
0.00 0.00 0.00 0.00 0.00 0.00 0.00 0.00 0.00 0.00 0.00 0.00 0.00 0.00 0.00 0.00 0.00 0.00 0.00 0.00 0.00 0.00 0.00 0.00 0.00 0.00 0.00 0.00 0.00 0.00 0.01 0.02 0.03 0.02 0.01 0.04 0.06 0.09 0.06 0.01 0.01 0.01 0.01
0.00 0.00 0.00 0.00 0.00 0.00 0.00 0.00 0.00 0.00 0.00 0.00 0.00 0.00 0.00 0.00 0.00 0.00 0.00 0.00 0.00 0.00 0.00 0.00 0.00 0.00 0.00 0.00 0.00 0.01 0.02 0.03 0.03 0.03 0.04 0.04 0.05 0.07 0.11 0.10 0.02 0.01 0.01
0.00 0.00 0.00 0.00 0.00 0.00 0.00 0.00 0.00 0.00 0.00 0.00 0.00 0.00 0.00 0.00 0.00 0.00 0.00 0.00 0.00 0.00 0.00 0.00 0.00 0.00 0.00 0.00 0.01 0.02 0.03 0.03 0.06 0.08 0.08 0.11 0.16 0.14 0.17 0.15 0.07 0.05 0.02
0.00 0.00 0.00 0.00 0.00 0.00 0.00 0.00 0.00 0.00 0.00 0.00 0.00 0.00 0.00 0.00 0.00 0.00 0.00 0.00 0.00 0.00 0.00 0.00 0.00 0.00 0.00 0.00 0.01 0.03 0.03 0.04 0.08 0.12 0.14 0.13 0.14 0.14 0.18 0.24 0.17 0.15 0.09
0.00 0.00 0.00 0.00 0.00 0.00 0.00 0.00 0.00 0.00 0.00 0.00 0.00 0.00 0.00 0.00 0.00 0.00 0.00 0.00 0.00 0.00 0.00 0.00 0.00 0.00 0.00 0.00 0.01 0.03 0.04 0.06 0.09 0.11 0.12 0.15 0.14 0.15 0.20 0.26 0.28 0.21 0.11
0.00 0.00 0.00 0.00 0.00 0.00 0.00 0.00 0.00 0.00 0.00 0.00 0.00 0.00 0.00 0.00 0.00 0.00 0.00 0.00 0.00 0.00 0.00 0.00 0.00 0.00 0.00 0.00 0.00 0.01 0.02 0.04 0.08 0.09 0.12 0.15 0.15 0.18 0.18 0.23 0.28 0.37 0.27
0.00 0.00 0.00 0.00 0.00 0.00 0.00 0.00 0.00 0.00 0.00 0.00 0.00 0.00 0.00 0.00 0.00 0.00 0.00 0.00 0.00 0.00 0.00 0.00 0.00 0.00 0.00 0.00 0.00 0.00 0.01 0.02 0.04 0.07 0.09 0.10 0.13 0.16 0.17 0.18 0.17 0.23 0.29
0.00 0.00 0.00 0.00 0.00 0.00 0.00 0.00 0.00 0.00 0.00 0.00 0.00 0.00 0.00 0.00 0.00 0.00 0.00 0.00 0.00 0.00 0.00 0.00 0.00 0.00 0.00 0.00 0.00 0.00 0.00 0.00 0.02 0.04 0.08 0.09 0.11 0.11 0.10 0.10 0.11 0.15 0.22
0.00 0.00 0.00 0.00 0.00 0.00 0.00 0.00 0.00 0.00 0.00 0.00 0.00 0.00 0.00 0.00 0.00 0.00 0.00 0.00 0.00 0.00 0.00 0.00 0.00 0.00 0.00 0.00 0.00 0.00 0.00 0.00 0.00 0.01 0.05 0.07 0.09 0.11 0.11 0.10 0.10 0.13 0.15
0.00 0.00 0.00 0.00 0.00 0.00 0.00 0.00 0.00 0.00 0.00 0.00 0.00 0.00 0.00 0.00 0.00 0.00 0.00 0.00 0.00 0.00 0.00 0.00 0.00 0.00 0.00 0.00 0.00 0.00 0.00 0.00 0.00 0.00 0.02 0.03 0.06 0.07 0.06 0.07 0.08 0.13 0.21
0.00 0.00 0.00 0.00 0.00 0.00 0.00 0.00 0.00 0.00 0.00 0.00 0.00 0.00 0.00 0.00 0.00 0.00 0.00 0.00 0.00 0.00 0.00 0.00 0.00 0.00 0.00 0.00 0.00 0.00 0.00 0.00 0.00 0.00 0.00 0.01 0.01 0.02 0.02 0.04 0.12 0.19 0.29
0.00 0.00 0.00 0.00 0.00 0.00 0.00 0.00 0.00 0.00 0.00 0.00 0.00 0.00 0.00 0.00 0.00 0.00 0.00 0.00 0.00 0.00 0.00 0.00 0.00 0.00 0.00 0.00 0.00 0.00 0.00 0.00 0.00 0.00 0.00 0.00 0.00 0.00 0.03 0.08 0.13 0.28 0.34
0.00 0.00 0.00 0.00 0.00 0.00 0.00 0.00 0.00 0.00 0.00 0.00 0.00 0.00 0.00 0.00 0.00 0.00 0.00 0.00 0.00 0.00 0.00 0.00 0.00 0.00 0.00 0.00 0.00 0.00 0.00 0.00 0.00 0.00 0.00 0.00 0.00 0.00 0.04 0.08 0.15 0.28 0.45
0.00 0.00 0.00 0.00 0.00 0.00 0.00 0.00 0.00 0.00 0.00 0.00 0.00 0.00 0.00 0.00 0.00 0.00 0.00 0.00 0.00 0.00 0.00 0.00 0.00 0.00 0.00 0.00 0.00 0.00 0.00 0.00 0.00 0.00 0.00 0.00 0.00 0.01 0.03 0.07 0.11 0.20 0.34
0.00 0.00 0.00 0.00 0.00 0.00 0.00 0.00 0.00 0.00 0.00 0.00 0.00 0.00 0.00 0.00 0.00 0.00 0.00 0.00 0.00 0.00 0.00 0.00 0.00 0.00 0.00 0.00 0.00 0.00 0.00 0.00 0.00 0.00 0.00 0.00 0.01 0.02 0.03 0.06 0.15 0.14 0.14
0.00 0.00 0.00 0.00 0.00 0.00 0.00 0.00 0.00 0.00 0.00 0.00 0.00 0.00 0.00 0.00 0.00 0.00 0.00 0.00 0.00 0.00 0.00 0.00 0.00 0.00 0.00 0.00 0.00 0.00 0.00 0.00 0.00 0.00 0.00 0.02 0.01 0.01 0.06 0.15 0.17 0.15 0.13
0.00 0.00 0.00 0.00 0.00 0.00 0.00 0.00 0.00 0.00 0.00 0.00 0.00 0.00 0.00 0.00 0.00 0.00 0.00 0.00 0.00 0.00 0.00 0.00 0.00 0.00 0.00 0.00 0.00 0.00 0.00 0.01 0.00 0.01 0.01 0.02 0.02 0.05 0.13 0.14 0.20 0.23 0.16
0.00 0.00 0.00 0.00 0.00 0.00 0.00 0.00 0.00 0.00 0.00 0.00 0.00 0.00 0.00 0.00 0.00 0.00 0.00 0.00 0.00 0.00 0.00 0.00 0.00 0.00 0.00 0.00 0.00 0.00 0.02 0.02 0.08 0.07 0.02 0.03 0.09 0.16 0.11 0.13 0.18 0.20 0.21
0.00 0.00 0.00 0.00 0.00 0.00 0.00 0.00 0.00 0.00 0.00 0.00 0.00 0.00 0.00 0.00 0.00 0.00 0.00 0.00 0.00 0.00 0.00 0.00 0.00 0.00 0.00 0.00 0.00 0.01 0.02 0.03 0.05 0.02 0.01 0.06 0.10 0.04 0.05 0.08 0.16 0.29 0.29
0.00 0.00 0.00 0.00 0.00 0.00 0.00 0.00 0.00 0.00 0.00 0.00 0.00 0.00 0.00 0.00 0.00 0.00 0.00 0.00 0.00 0.00 0.00 0.00 0.00 0.00 0.00 0.00 0.00 0.00 0.04 0.05 0.03 0.02 0.08 0.07 0.02 0.03 0.04 0.10 0.16 0.16 0.14
0.00 0.00 0.00 0.00 0.00 0.00 0.00 0.00 0.00 0.00 0.00 0.00 0.00 0.00 0.00 0.00 0.00 0.00 0.00 0.00 0.00 0.00 0.00 0.00 0.00 0.00 0.00 0.00 0.00 0.02 0.03 0.01 0.04 0.09 0.05 0.02 0.03 0.05 0.06 0.08 0.07 0.07 0.15
0.00 0.00 0.00 0.00 0.00 0.00 0.00 0.00 0.00 0.00 0.00 0.00 0.00 0.00 0.00 0.00 0.00 0.00 0.00 0.00 0.00 0.00 0.00 0.00 0.01 0.01 0.01 0.00 0.02 0.04 0.03 0.05 0.09 0.03 0.01 0.01 0.02 0.02 0.02 0.04 0.06 0.11 0.21
0.00 0.00 0.00 0.00 0.00 0.00 0.00 0.00 0.00 0.00 0.00 0.00 0.00 0.00 0.00 0.00 0.00 0.00 0.00 0.00 0.00 0.00 0.00 0.00 0.01 0.01 0.01 0.02 0.03 0.03 0.06 0.08 0.03 0.04 0.03 0.04 0.04 0.06 0.08 0.10 0.13 0.18 0.26

GFSMW_prec_precacc_027.txt.gz
Total_Precipitation_Accumulation
0.00 0.00 0.00 0.00 0.00 0.00 0.00 0.00 0.00 0.00 0.00 0.00 0.00 0.00 0.00 0.00 0.00 0.00 0.00 0.00 0.00 0.00 0.00 0.00 0.00 0.00 0.00 0.00 0.00 0.00 0.00 0.00 0.00 0.00 0.00 0.00 0.00 0.00 0.00 0.00 0.00 0.00 0.00
0.00 0.00 0.00 0.00 0.00 0.00 0.00 0.00 0.00 0.00 0.00 0.00 0.00 0.00 0.00 0.00 0.00 0.00 0.00 0.00 0.00 0.00 0.00 0.00 0.00 0.00 0.00 0.00 0.00 0.00 0.00 0.00 0.00 0.01 0.02 0.02 0.00 0.00 0.00 0.00 0.00 0.00 0.00
0.00 0.00 0.00 0.00 0.00 0.00 0.00 0.00 0.00 0.00 0.00 0.00 0.00 0.00 0.00 0.00 0.00 0.00 0.00 0.00 0.00 0.00 0.00 0.00 0.00 0.00 0.00 0.00 0.00 0.00 0.00 0.01 0.01 0.00 0.04 0.07 0.03 0.02 0.00 0.00 0.00 0.00 0.00
0.00 0.00 0.00 0.00 0.00 0.00 0.00 0.00 0.00 0.00 0.00 0.00 0.00 0.00 0.00 0.00 0.00 0.00 0.00 0.00 0.00 0.00 0.00 0.00 0.00 0.00 0.00 0.00 0.00 0.00 0.01 0.02 0.03 0.02 0.01 0.04 0.06 0.09 0.06 0.01 0.01 0.01 0.01
0.00 0.00 0.00 0.00 0.00 0.00 0.00 0.00 0.00 0.00 0.00 0.00 0.00 0.00 0.00 0.00 0.00 0.00 0.00 0.00 0.00 0.00 0.00 0.00 0.00 0.00 0.00 0.00 0.00 0.01 0.02 0.03 0.03 0.03 0.04 0.04 0.05 0.07 0.11 0.10 0.02 0.01 0.01
0.00 0.00 0.00 0.00 0.00 0.00 0.00 0.00 0.00 0.00 0.00 0.00 0.00 0.00 0.00 0.00 0.00 0.00 0.00 0.00 0.00 0.00 0.00 0.00 0.00 0.00 0.00 0.00 0.01 0.02 0.03 0.03 0.06 0.08 0.08 0.11 0.16 0.14 0.17 0.15 0.07 0.05 0.02
0.00 0.00 0.00 0.00 0.00 0.00 0.00 0.00 0.00 0.00 0.00 0.00 0.00 0.00 0.00 0.00 0.00 0.00 0.00 0.00 0.00 0.00 0.00 0.00 0.00 0.00 0.00 0.00 0.01 0.03 0.03 0.04 0.08 0.12 0.14 0.13 0.14 0.14 0.18 0.24 0.17 0.15 0.09
0.00 0.00 0.00 0.00 0.00 0.00 0.00 0.00 0.00 0.00 0.00 0.00 0.00 0.00 0.00 0.00 0.00 0.00 0.00 0.00 0.00 0.00 0.00 0.00 0.00 0.00 0.00 0.00 0.01 0.03 0.04 0.06 0.09 0.11 0.12 0.15 0.14 0.15 0.20 0.26 0.29 0.21 0.11
0.00 0.00 0.00 0.00 0.00 0.00 0.00 0.00 0.00 0.00 0.00 0.00 0.00 0.00 0.00 0.00 0.00 0.00 0.00 0.00 0.00 0.00 0.00 0.00 0.00 0.00 0.00 0.00 0.00 0.01 0.02 0.04 0.08 0.09 0.12 0.15 0.15 0.18 0.18 0.23 0.28 0.37 0.27
0.00 0.00 0.00 0.00 0.00 0.00 0.00 0.00 0.00 0.00 0.00 0.00 0.00 0.00 0.00 0.00 0.00 0.00 0.00 0.00 0.00 0.00 0.00 0.00 0.00 0.00 0.00 0.00 0.00 0.00 0.01 0.02 0.04 0.07 0.09 0.10 0.13 0.16 0.17 0.18 0.17 0.23 0.29
0.00 0.00 0.00 0.00 0.00 0.00 0.00 0.00 0.00 0.00 0.00 0.00 0.00 0.00 0.00 0.00 0.00 0.00 0.00 0.00 0.00 0.00 0.00 0.00 0.00 0.00 0.00 0.00 0.00 0.00 0.00 0.00 0.02 0.04 0.08 0.09 0.11 0.11 0.10 0.10 0.11 0.15 0.22
0.00 0.00 0.00 0.00 0.00 0.00 0.00 0.00 0.00 0.00 0.00 0.00 0.00 0.00 0.00 0.00 0.00 0.00 0.00 0.00 0.00 0.00 0.00 0.00 0.00 0.00 0.00 0.00 0.00 0.00 0.00 0.00 0.00 0.01 0.05 0.07 0.09 0.11 0.11 0.10 0.10 0.13 0.15
0.00 0.00 0.00 0.00 0.00 0.00 0.00 0.00 0.00 0.00 0.00 0.00 0.00 0.00 0.00 0.00 0.00 0.00 0.00 0.00 0.00 0.00 0.00 0.00 0.00 0.00 0.00 0.00 0.00 0.00 0.00 0.00 0.00 0.00 0.02 0.03 0.06 0.07 0.06 0.07 0.08 0.13 0.22
0.00 0.00 0.00 0.00 0.00 0.00 0.00 0.00 0.00 0.00 0.00 0.00 0.00 0.00 0.00 0.00 0.00 0.00 0.00 0.00 0.00 0.00 0.00 0.00 0.00 0.00 0.00 0.00 0.00 0.00 0.00 0.00 0.00 0.00 0.00 0.01 0.01 0.02 0.02 0.04 0.12 0.21 0.31
0.00 0.00 0.00 0.00 0.00 0.00 0.00 0.00 0.00 0.00 0.00 0.00 0.00 0.00 0.00 0.00 0.00 0.00 0.00 0.00 0.00 0.00 0.00 0.00 0.00 0.00 0.00 0.00 0.00 0.00 0.00 0.00 0.00 0.00 0.00 0.00 0.00 0.00 0.04 0.09 0.14 0.30 0.37
0.00 0.00 0.00 0.00 0.00 0.00 0.00 0.00 0.00 0.00 0.00 0.00 0.00 0.00 0.00 0.00 0.00 0.00 0.00 0.00 0.00 0.00 0.00 0.00 0.00 0.00 0.00 0.00 0.00 0.00 0.00 0.00 0.00 0.00 0.00 0.00 0.00 0.00 0.04 0.09 0.15 0.29 0.47
0.00 0.00 0.00 0.00 0.00 0.00 0.00 0.00 0.00 0.00 0.00 0.00 0.00 0.00 0.00 0.00 0.00 0.00 0.00 0.00 0.00 0.00 0.00 0.00 0.00 0.00 0.00 0.00 0.00 0.00 0.00 0.00 0.00 0.00 0.00 0.00 0.00 0.01 0.03 0.08 0.11 0.21 0.40
0.00 0.00 0.00 0.00 0.00 0.00 0.00 0.00 0.00 0.00 0.00 0.00 0.00 0.00 0.00 0.00 0.00 0.00 0.00 0.00 0.00 0.00 0.00 0.00 0.00 0.00 0.00 0.00 0.00 0.00 0.00 0.00 0.00 0.00 0.00 0.01 0.02 0.03 0.03 0.07 0.19 0.20 0.16
0.00 0.00 0.00 0.00 0.00 0.00 0.00 0.00 0.00 0.00 0.00 0.00 0.00 0.00 0.00 0.00 0.00 0.00 0.00 0.00 0.00 0.00 0.00 0.00 0.00 0.00 0.00 0.00 0.00 0.00 0.00 0.00 0.00 0.00 0.01 0.03 0.02 0.02 0.07 0.21 0.25 0.16 0.13
0.00 0.00 0.00 0.00 0.00 0.00 0.00 0.00 0.00 0.00 0.00 0.00 0.00 0.00 0.00 0.00 0.00 0.00 0.00 0.00 0.00 0.00 0.00 0.00 0.00 0.00 0.00 0.00 0.00 0.00 0.01 0.01 0.00 0.01 0.02 0.02 0.03 0.06 0.19 0.17 0.21 0.24 0.16
0.00 0.00 0.00 0.00 0.00 0.00 0.00 0.00 0.00 0.00 0.00 0.00 0.00 0.00 0.00 0.00 0.00 0.00 0.00 0.00 0.00 0.00 0.00 0.00 0.00 0.00 0.00 0.00 0.00 0.00 0.02 0.03 0.10 0.09 0.03 0.03 0.10 0.21 0.13 0.13 0.18 0.21 0.22
0.00 0.00 0.00 0.00 0.00 0.00 0.00 0.00 0.00 0.00 0.00 0.00 0.00 0.00 0.00 0.00 0.00 0.00 0.00 0.00 0.00 0.00 0.00 0.00 0.00 0.00 0.00 0.00 0.00 0.01 0.02 0.04 0.08 0.04 0.02 0.07 0.13 0.05 0.05 0.08 0.16 0.29 0.29
0.00 0.00 0.00 0.00 0.00 0.00 0.00 0.00 0.00 0.00 0.00 0.00 0.00 0.00 0.00 0.00 0.00 0.00 0.00 0.00 0.00 0.00 0.00 0.00 0.00 0.00 0.00 0.00 0.00 0.00 0.05 0.07 0.04 0.03 0.11 0.10 0.02 0.03 0.04 0.10 0.16 0.16 0.14
0.00 0.00 0.00 0.00 0.00 0.00 0.00 0.00 0.00 0.00 0.00 0.00 0.00 0.00 0.00 0.00 0.00 0.00 0.00 0.00 0.00 0.00 0.00 0.00 0.00 0.00 0.00 0.00 0.00 0.03 0.05 0.03 0.06 0.14 0.09 0.02 0.03 0.05 0.06 0.08 0.07 0.07 0.16
0.00 0.00 0.00 0.00 0.00 0.00 0.00 0.00 0.00 0.00 0.00 0.00 0.00 0.00 0.00 0.00 0.00 0.00 0.00 0.00 0.00 0.00 0.00 0.00 0.01 0.01 0.01 0.01 0.03 0.05 0.03 0.07 0.13 0.05 0.01 0.01 0.02 0.02 0.02 0.04 0.06 0.11 0.22
0.00 0.00 0.00 0.00 0.00 0.00 0.00 0.00 0.00 0.00 0.00 0.00 0.00 0.00 0.00 0.00 0.00 0.00 0.00 0.00 0.00 0.00 0.00 0.00 0.01 0.01 0.01 0.03 0.04 0.04 0.08 0.12 0.05 0.04 0.03 0.04 0.05 0.07 0.09 0.10 0.13 0.19 0.29

GFSMW_prec_precacc_030.txt.gz
Total_Precipitation_Accumulation
0.00 0.00 0.00 0.00 0.00 0.00 0.00 0.00 0.00 0.00 0.00 0.00 0.00 0.00 0.00 0.00 0.00 0.00 0.00 0.00 0.00 0.00 0.00 0.00 0.00 0.00 0.00 0.00 0.00 0.00 0.00 0.00 0.00 0.00 0.00 0.00 0.00 0.00 0.00 0.00 0.00 0.00 0.00
0.00 0.00 0.00 0.00 0.00 0.00 0.00 0.00 0.00 0.00 0.00 0.00 0.00 0.00 0.00 0.00 0.00 0.00 0.00 0.00 0.00 0.00 0.00 0.00 0.00 0.00 0.00 0.00 0.00 0.00 0.00 0.00 0.00 0.01 0.02 0.02 0.00 0.00 0.00 0.00 0.00 0.00 0.00
0.00 0.00 0.00 0.00 0.00 0.00 0.00 0.00 0.00 0.00 0.00 0.00 0.00 0.00 0.00 0.00 0.00 0.00 0.00 0.00 0.00 0.00 0.00 0.00 0.00 0.00 0.00 0.00 0.00 0.00 0.00 0.01 0.01 0.00 0.04 0.07 0.03 0.02 0.00 0.00 0.00 0.00 0.00
0.00 0.00 0.00 0.00 0.00 0.00 0.00 0.00 0.00 0.00 0.00 0.00 0.00 0.00 0.00 0.00 0.00 0.00 0.00 0.00 0.00 0.00 0.00 0.00 0.00 0.00 0.00 0.00 0.00 0.00 0.01 0.02 0.03 0.02 0.01 0.04 0.06 0.09 0.06 0.01 0.01 0.01 0.01
0.00 0.00 0.00 0.00 0.00 0.00 0.00 0.00 0.00 0.00 0.00 0.00 0.00 0.00 0.00 0.00 0.00 0.00 0.00 0.00 0.00 0.00 0.00 0.00 0.00 0.00 0.00 0.00 0.00 0.01 0.02 0.03 0.03 0.03 0.04 0.04 0.05 0.07 0.11 0.10 0.02 0.01 0.01
0.00 0.00 0.00 0.00 0.00 0.00 0.00 0.00 0.00 0.00 0.00 0.00 0.00 0.00 0.00 0.00 0.00 0.00 0.00 0.00 0.00 0.00 0.00 0.00 0.00 0.00 0.00 0.00 0.01 0.02 0.03 0.03 0.06 0.08 0.08 0.11 0.16 0.14 0.17 0.15 0.07 0.05 0.02
0.00 0.00 0.00 0.00 0.00 0.00 0.00 0.00 0.00 0.00 0.00 0.00 0.00 0.00 0.00 0.00 0.00 0.00 0.00 0.00 0.00 0.00 0.00 0.00 0.00 0.00 0.00 0.00 0.01 0.03 0.03 0.04 0.08 0.12 0.14 0.13 0.14 0.14 0.18 0.24 0.17 0.15 0.09
0.00 0.00 0.00 0.00 0.00 0.00 0.00 0.00 0.00 0.00 0.00 0.00 0.00 0.00 0.00 0.00 0.00 0.00 0.00 0.00 0.00 0.00 0.00 0.00 0.00 0.00 0.00 0.00 0.01 0.03 0.04 0.06 0.09 0.11 0.12 0.15 0.14 0.15 0.20 0.26 0.29 0.21 0.11
0.00 0.00 0.00 0.00 0.00 0.00 0.00 0.00 0.00 0.00 0.00 0.00 0.00 0.00 0.00 0.00 0.00 0.00 0.00 0.00 0.00 0.00 0.00 0.00 0.00 0.00 0.00 0.00 0.00 0.01 0.02 0.04 0.08 0.09 0.12 0.15 0.15 0.18 0.18 0.23 0.28 0.37 0.27
0.00 0.00 0.00 0.00 0.00 0.00 0.00 0.00 0.00 0.00 0.00 0.00 0.00 0.00 0.00 0.00 0.00 0.00 0.00 0.00 0.00 0.00 0.00 0.00 0.00 0.00 0.00 0.00 0.00 0.00 0.01 0.02 0.04 0.07 0.09 0.10 0.13 0.16 0.17 0.18 0.17 0.23 0.29
0.00 0.00 0.00 0.00 0.00 0.00 0.00 0.00 0.00 0.00 0.00 0.00 0.00 0.00 0.00 0.00 0.00 0.00 0.00 0.00 0.00 0.00 0.00 0.00 0.00 0.00 0.00 0.00 0.00 0.00 0.00 0.00 0.02 0.04 0.08 0.09 0.11 0.11 0.10 0.10 0.11 0.15 0.22
0.00 0.00 0.00 0.00 0.00 0.00 0.00 0.00 0.00 0.00 0.00 0.00 0.00 0.00 0.00 0.00 0.00 0.00 0.00 0.00 0.00 0.00 0.00 0.00 0.00 0.00 0.00 0.00 0.00 0.00 0.00 0.00 0.00 0.01 0.05 0.07 0.09 0.11 0.11 0.10 0.10 0.13 0.15
0.00 0.00 0.00 0.00 0.00 0.00 0.00 0.00 0.00 0.00 0.00 0.00 0.00 0.00 0.00 0.00 0.00 0.00 0.00 0.00 0.00 0.00 0.00 0.00 0.00 0.00 0.00 0.00 0.00 0.00 0.00 0.00 0.00 0.00 0.02 0.03 0.06 0.07 0.06 0.07 0.08 0.13 0.22
0.00 0.00 0.00 0.00 0.00 0.00 0.00 0.00 0.00 0.00 0.00 0.00 0.00 0.00 0.00 0.00 0.00 0.00 0.00 0.00 0.00 0.00 0.00 0.00 0.00 0.00 0.00 0.00 0.00 0.00 0.00 0.00 0.00 0.00 0.00 0.01 0.01 0.02 0.02 0.04 0.12 0.21 0.32
0.00 0.00 0.00 0.00 0.00 0.00 0.00 0.00 0.00 0.00 0.00 0.00 0.00 0.00 0.00 0.00 0.00 0.00 0.00 0.00 0.00 0.00 0.00 0.00 0.00 0.00 0.00 0.00 0.00 0.00 0.00 0.00 0.00 0.00 0.00 0.00 0.00 0.00 0.04 0.09 0.14 0.31 0.37
0.00 0.00 0.00 0.00 0.00 0.00 0.00 0.00 0.00 0.00 0.00 0.00 0.00 0.00 0.00 0.00 0.00 0.00 0.00 0.00 0.00 0.00 0.00 0.00 0.00 0.00 0.00 0.00 0.00 0.00 0.00 0.00 0.00 0.00 0.00 0.00 0.00 0.00 0.04 0.09 0.16 0.30 0.49
0.00 0.00 0.00 0.00 0.00 0.00 0.00 0.00 0.00 0.00 0.00 0.00 0.00 0.00 0.00 0.00 0.00 0.00 0.00 0.00 0.00 0.00 0.00 0.00 0.00 0.00 0.00 0.00 0.00 0.00 0.00 0.00 0.00 0.00 0.00 0.00 0.00 0.01 0.03 0.08 0.12 0.22 0.43
0.00 0.00 0.00 0.00 0.00 0.00 0.00 0.00 0.00 0.00 0.00 0.00 0.00 0.00 0.00 0.00 0.00 0.00 0.00 0.00 0.00 0.00 0.00 0.00 0.00 0.00 0.00 0.00 0.00 0.00 0.00 0.00 0.00 0.00 0.00 0.01 0.02 0.03 0.04 0.08 0.19 0.21 0.16
0.00 0.00 0.00 0.00 0.00 0.00 0.00 0.00 0.00 0.00 0.00 0.00 0.00 0.00 0.00 0.00 0.00 0.00 0.00 0.00 0.00 0.00 0.00 0.00 0.00 0.00 0.00 0.00 0.00 0.00 0.00 0.00 0.00 0.00 0.01 0.03 0.02 0.02 0.08 0.22 0.28 0.16 0.13
0.00 0.00 0.00 0.00 0.00 0.00 0.00 0.00 0.00 0.00 0.00 0.00 0.00 0.00 0.00 0.00 0.00 0.00 0.00 0.00 0.00 0.00 0.00 0.00 0.00 0.00 0.00 0.00 0.00 0.00 0.01 0.01 0.00 0.02 0.02 0.03 0.03 0.07 0.22 0.19 0.22 0.25 0.16
0.00 0.00 0.00 0.00 0.00 0.00 0.00 0.00 0.00 0.00 0.00 0.00 0.00 0.00 0.00 0.00 0.00 0.00 0.00 0.00 0.00 0.00 0.00 0.00 0.00 0.00 0.00 0.00 0.00 0.00 0.02 0.03 0.10 0.10 0.03 0.03 0.11 0.24 0.16 0.14 0.18 0.21 0.22
0.00 0.00 0.00 0.00 0.00 0.00 0.00 0.00 0.00 0.00 0.00 0.00 0.00 0.00 0.00 0.00 0.00 0.00 0.00 0.00 0.00 0.00 0.00 0.00 0.00 0.00 0.00 0.00 0.00 0.01 0.02 0.04 0.08 0.04 0.02 0.08 0.16 0.07 0.05 0.09 0.16 0.30 0.29
0.00 0.00 0.00 0.00 0.00 0.00 0.00 0.00 0.00 0.00 0.00 0.00 0.00 0.00 0.00 0.00 0.00 0.00 0.00 0.00 0.00 0.00 0.00 0.00 0.00 0.00 0.00 0.00 0.00 0.00 0.06 0.08 0.05 0.03 0.12 0.11 0.02 0.03 0.04 0.10 0.16 0.16 0.15
0.00 0.00 0.00 0.00 0.00 0.00 0.00 0.00 0.00 0.00 0.00 0.00 0.00 0.00 0.00 0.00 0.00 0.00 0.00 0.00 0.00 0.00 0.00 0.00 0.00 0.00 0.00 0.00 0.00 0.03 0.05 0.03 0.06 0.15 0.11 0.02 0.03 0.05 0.06 0.08 0.07 0.07 0.16
0.00 0.00 0.00 0.00 0.00 0.00 0.00 0.00 0.00 0.00 0.00 0.00 0.00 0.00 0.00 0.00 0.00 0.00 0.00 0.00 0.00 0.00 0.00 0.00 0.01 0.01 0.01 0.01 0.04 0.05 0.04 0.07 0.14 0.06 0.01 0.01 0.02 0.02 0.02 0.04 0.06 0.11 0.24
0.00 0.00 0.00 0.00 0.00 0.00 0.00 0.00 0.00 0.00 0.00 0.00 0.00 0.00 0.00 0.00 0.00 0.00 0.00 0.00 0.00 0.00 0.00 0.00 0.01 0.01 0.02 0.03 0.04 0.04 0.09 0.13 0.05 0.04 0.03 0.04 0.05 0.07 0.09 0.10 0.14 0.20 0.31

GFSMW_prec_precacc_033.txt.gz
Total_Precipitation_Accumulation
0.00 0.00 0.00 0.00 0.00 0.00 0.00 0.00 0.00 0.00 0.00 0.00 0.00 0.00 0.00 0.00 0.00 0.00 0.00 0.00 0.00 0.00 0.00 0.00 0.00 0.00 0.00 0.00 0.00 0.00 0.00 0.00 0.00 0.00 0.00 0.00 0.00 0.00 0.00 0.00 0.00 0.00 0.00
0.00 0.00 0.00 0.00 0.00 0.00 0.00 0.00 0.00 0.00 0.00 0.00 0.00 0.00 0.00 0.00 0.00 0.00 0.00 0.00 0.00 0.00 0.00 0.00 0.00 0.00 0.00 0.00 0.00 0.00 0.00 0.00 0.00 0.01 0.02 0.02 0.00 0.00 0.00 0.00 0.00 0.00 0.00
0.00 0.00 0.00 0.00 0.00 0.00 0.00 0.00 0.00 0.00 0.00 0.00 0.00 0.00 0.00 0.00 0.00 0.00 0.00 0.00 0.00 0.00 0.00 0.00 0.00 0.00 0.00 0.00 0.00 0.00 0.00 0.01 0.01 0.00 0.04 0.07 0.03 0.02 0.00 0.00 0.00 0.00 0.00
0.00 0.00 0.00 0.00 0.00 0.00 0.00 0.00 0.00 0.00 0.00 0.00 0.00 0.00 0.00 0.00 0.00 0.00 0.00 0.00 0.00 0.00 0.00 0.00 0.00 0.00 0.00 0.00 0.00 0.00 0.01 0.02 0.03 0.02 0.01 0.04 0.06 0.09 0.06 0.01 0.01 0.01 0.01
0.00 0.00 0.00 0.00 0.00 0.00 0.00 0.00 0.00 0.00 0.00 0.00 0.00 0.00 0.00 0.00 0.00 0.00 0.00 0.00 0.00 0.00 0.00 0.00 0.00 0.00 0.00 0.00 0.00 0.01 0.02 0.03 0.03 0.03 0.04 0.04 0.05 0.07 0.11 0.10 0.02 0.01 0.01
0.00 0.00 0.00 0.00 0.00 0.00 0.00 0.00 0.00 0.00 0.00 0.00 0.00 0.00 0.00 0.00 0.00 0.00 0.00 0.00 0.00 0.00 0.00 0.00 0.00 0.00 0.00 0.00 0.01 0.02 0.03 0.03 0.06 0.08 0.08 0.11 0.16 0.14 0.17 0.15 0.07 0.05 0.02
0.00 0.00 0.00 0.00 0.00 0.00 0.00 0.00 0.00 0.00 0.00 0.00 0.00 0.00 0.00 0.00 0.00 0.00 0.00 0.00 0.00 0.00 0.00 0.00 0.00 0.00 0.00 0.00 0.01 0.03 0.03 0.04 0.08 0.12 0.14 0.13 0.14 0.14 0.18 0.24 0.17 0.15 0.09
0.00 0.00 0.00 0.00 0.00 0.00 0.00 0.00 0.00 0.00 0.00 0.00 0.00 0.00 0.00 0.00 0.00 0.00 0.00 0.00 0.00 0.00 0.00 0.00 0.00 0.00 0.00 0.00 0.01 0.03 0.04 0.06 0.09 0.11 0.12 0.15 0.14 0.15 0.20 0.26 0.29 0.21 0.11
0.00 0.00 0.00 0.00 0.00 0.00 0.00 0.00 0.00 0.00 0.00 0.00 0.00 0.00 0.00 0.00 0.00 0.00 0.00 0.00 0.00 0.00 0.00 0.00 0.00 0.00 0.00 0.00 0.00 0.01 0.02 0.04 0.08 0.09 0.12 0.15 0.15 0.18 0.18 0.23 0.28 0.37 0.27
0.00 0.00 0.00 0.00 0.00 0.00 0.00 0.00 0.00 0.00 0.00 0.00 0.00 0.00 0.00 0.00 0.00 0.00 0.00 0.00 0.00 0.00 0.00 0.00 0.00 0.00 0.00 0.00 0.00 0.00 0.01 0.02 0.04 0.07 0.09 0.10 0.13 0.16 0.17 0.18 0.17 0.23 0.29
0.00 0.00 0.00 0.00 0.00 0.00 0.00 0.00 0.00 0.00 0.00 0.00 0.00 0.00 0.00 0.00 0.00 0.00 0.00 0.00 0.00 0.00 0.00 0.00 0.00 0.00 0.00 0.00 0.00 0.00 0.00 0.00 0.02 0.04 0.08 0.09 0.11 0.11 0.10 0.10 0.11 0.15 0.22
0.00 0.00 0.00 0.00 0.00 0.00 0.00 0.00 0.00 0.00 0.00 0.00 0.00 0.00 0.00 0.00 0.00 0.00 0.00 0.00 0.00 0.00 0.00 0.00 0.00 0.00 0.00 0.00 0.00 0.00 0.00 0.00 0.00 0.01 0.05 0.07 0.09 0.11 0.11 0.10 0.10 0.13 0.15
0.00 0.00 0.00 0.00 0.00 0.00 0.00 0.00 0.00 0.00 0.00 0.00 0.00 0.00 0.00 0.00 0.00 0.00 0.00 0.00 0.00 0.00 0.00 0.00 0.00 0.00 0.00 0.00 0.00 0.00 0.00 0.00 0.00 0.00 0.02 0.03 0.06 0.07 0.06 0.07 0.08 0.13 0.22
0.00 0.00 0.00 0.00 0.00 0.00 0.00 0.00 0.00 0.00 0.00 0.00 0.00 0.00 0.00 0.00 0.00 0.00 0.00 0.00 0.00 0.00 0.00 0.00 0.00 0.00 0.00 0.00 0.00 0.00 0.00 0.00 0.00 0.00 0.00 0.01 0.01 0.02 0.02 0.04 0.12 0.21 0.32
0.00 0.00 0.00 0.00 0.00 0.00 0.00 0.00 0.00 0.00 0.00 0.00 0.00 0.00 0.00 0.00 0.00 0.00 0.00 0.00 0.00 0.00 0.00 0.00 0.00 0.00 0.00 0.00 0.00 0.00 0.00 0.00 0.00 0.00 0.00 0.00 0.00 0.00 0.04 0.09 0.14 0.31 0.38
0.00 0.00 0.00 0.00 0.00 0.00 0.00 0.00 0.00 0.00 0.00 0.00 0.00 0.00 0.00 0.00 0.00 0.00 0.00 0.00 0.00 0.00 0.00 0.00 0.00 0.00 0.00 0.00 0.00 0.00 0.00 0.00 0.00 0.00 0.00 0.00 0.00 0.00 0.04 0.09 0.16 0.31 0.52
0.00 0.00 0.00 0.00 0.00 0.00 0.00 0.00 0.00 0.00 0.00 0.00 0.00 0.00 0.00 0.00 0.00 0.00 0.00 0.00 0.00 0.00 0.00 0.00 0.00 0.00 0.00 0.00 0.00 0.00 0.00 0.00 0.00 0.00 0.00 0.00 0.00 0.01 0.03 0.08 0.13 0.23 0.46
0.00 0.00 0.00 0.00 0.00 0.00 0.00 0.00 0.00 0.00 0.00 0.00 0.00 0.00 0.00 0.00 0.00 0.00 0.00 0.00 0.00 0.00 0.00 0.00 0.00 0.00 0.00 0.00 0.00 0.00 0.00 0.00 0.00 0.00 0.00 0.01 0.02 0.03 0.04 0.08 0.20 0.23 0.18
0.00 0.00 0.00 0.00 0.00 0.00 0.00 0.00 0.00 0.00 0.00 0.00 0.00 0.00 0.00 0.00 0.00 0.00 0.00 0.00 0.00 0.00 0.00 0.00 0.00 0.00 0.00 0.00 0.00 0.00 0.00 0.00 0.00 0.00 0.01 0.04 0.02 0.02 0.09 0.24 0.32 0.18 0.13
0.00 0.00 0.00 0.00 0.00 0.00 0.00 0.00 0.00 0.00 0.00 0.00 0.00 0.00 0.00 0.00 0.00 0.00 0.00 0.00 0.00 0.00 0.00 0.00 0.00 0.00 0.00 0.00 0.00 0.00 0.01 0.01 0.00 0.02 0.02 0.03 0.03 0.07 0.26 0.22 0.23 0.25 0.16
0.00 0.00 0.00 0.00 0.00 0.00 0.00 0.00 0.00 0.00 0.00 0.00 0.00 0.00 0.00 0.00 0.00 0.00 0.00 0.00 0.00 0.00 0.00 0.00 0.00 0.00 0.00 0.00 0.00 0.00 0.02 0.03 0.12 0.10 0.03 0.03 0.11 0.28 0.18 0.14 0.18 0.21 0.23
0.00 0.00 0.00 0.00 0.00 0.00 0.00 0.00 0.00 0.00 0.00 0.00 0.00 0.00 0.00 0.00 0.00 0.00 0.00 0.00 0.00 0.00 0.00 0.00 0.00 0.00 0.00 0.00 0.00 0.01 0.02 0.05 0.09 0.04 0.02 0.08 0.18 0.07 0.05 0.09 0.17 0.30 0.29
0.00 0.00 0.00 0.00 0.00 0.00 0.00 0.00 0.00 0.00 0.00 0.00 0.00 0.00 0.00 0.00 0.00 0.00 0.00 0.00 0.00 0.00 0.00 0.00 0.00 0.00 0.00 0.00 0.00 0.00 0.06 0.08 0.05 0.03 0.14 0.13 0.03 0.03 0.04 0.10 0.16 0.16 0.15
0.00 0.00 0.00 0.00 0.00 0.00 0.00 0.00 0.00 0.00 0.00 0.00 0.00 0.00 0.00 0.00 0.00 0.00 0.00 0.00 0.00 0.00 0.00 0.00 0.00 0.00 0.00 0.00 0.00 0.03 0.05 0.03 0.07 0.16 0.13 0.02 0.03 0.05 0.06 0.08 0.07 0.07 0.17
0.00 0.00 0.00 0.00 0.00 0.00 0.00 0.00 0.00 0.00 0.00 0.00 0.00 0.00 0.00 0.00 0.00 0.00 0.00 0.00 0.00 0.00 0.00 0.00 0.01 0.01 0.01 0.01 0.04 0.05 0.04 0.08 0.15 0.07 0.01 0.01 0.02 0.02 0.02 0.04 0.06 0.11 0.24
0.00 0.00 0.00 0.00 0.00 0.00 0.00 0.00 0.00 0.00 0.00 0.00 0.00 0.00 0.00 0.00 0.00 0.00 0.00 0.00 0.00 0.00 0.00 0.00 0.01 0.01 0.02 0.03 0.04 0.04 0.10 0.14 0.06 0.04 0.03 0.04 0.05 0.07 0.09 0.11 0.14 0.20 0.31

GFSMW_prec_precacc_036.txt.gz
Total_Precipitation_Accumulation
0.00 0.00 0.00 0.00 0.00 0.00 0.00 0.00 0.00 0.00 0.00 0.00 0.00 0.00 0.00 0.00 0.00 0.00 0.00 0.00 0.00 0.00 0.00 0.00 0.00 0.00 0.00 0.00 0.00 0.00 0.00 0.00 0.00 0.00 0.00 0.00 0.00 0.00 0.00 0.00 0.00 0.00 0.00
0.00 0.00 0.00 0.00 0.00 0.00 0.00 0.00 0.00 0.00 0.00 0.00 0.00 0.00 0.00 0.00 0.00 0.00 0.00 0.00 0.00 0.00 0.00 0.00 0.00 0.00 0.00 0.00 0.00 0.00 0.00 0.00 0.00 0.01 0.02 0.02 0.00 0.00 0.00 0.00 0.00 0.00 0.00
0.00 0.00 0.00 0.00 0.00 0.00 0.00 0.00 0.00 0.00 0.00 0.00 0.00 0.00 0.00 0.00 0.00 0.00 0.00 0.00 0.00 0.00 0.00 0.00 0.00 0.00 0.00 0.00 0.00 0.00 0.00 0.01 0.01 0.00 0.04 0.07 0.03 0.02 0.00 0.00 0.00 0.00 0.00
0.00 0.00 0.00 0.00 0.00 0.00 0.00 0.00 0.00 0.00 0.00 0.00 0.00 0.00 0.00 0.00 0.00 0.00 0.00 0.00 0.00 0.00 0.00 0.00 0.00 0.00 0.00 0.00 0.00 0.00 0.01 0.02 0.03 0.02 0.01 0.04 0.06 0.09 0.06 0.01 0.01 0.01 0.01
0.00 0.00 0.00 0.00 0.00 0.00 0.00 0.00 0.00 0.00 0.00 0.00 0.00 0.00 0.00 0.00 0.00 0.00 0.00 0.00 0.00 0.00 0.00 0.00 0.00 0.00 0.00 0.00 0.00 0.01 0.02 0.03 0.03 0.03 0.04 0.04 0.05 0.07 0.11 0.10 0.02 0.01 0.01
0.00 0.00 0.00 0.00 0.00 0.00 0.00 0.00 0.00 0.00 0.00 0.00 0.00 0.00 0.00 0.00 0.00 0.00 0.00 0.00 0.00 0.00 0.00 0.00 0.00 0.00 0.00 0.00 0.01 0.02 0.03 0.03 0.06 0.08 0.08 0.11 0.16 0.14 0.17 0.15 0.07 0.05 0.02
0.00 0.00 0.00 0.00 0.00 0.00 0.00 0.00 0.00 0.00 0.00 0.00 0.00 0.00 0.00 0.00 0.00 0.00 0.00 0.00 0.00 0.00 0.00 0.00 0.00 0.00 0.00 0.00 0.01 0.03 0.03 0.04 0.08 0.12 0.14 0.13 0.14 0.14 0.18 0.24 0.17 0.15 0.09
0.00 0.00 0.00 0.00 0.00 0.00 0.00 0.00 0.00 0.00 0.00 0.00 0.00 0.00 0.00 0.00 0.00 0.00 0.00 0.00 0.00 0.00 0.00 0.00 0.00 0.00 0.00 0.00 0.01 0.03 0.04 0.06 0.09 0.11 0.12 0.15 0.14 0.15 0.20 0.26 0.29 0.21 0.11
0.00 0.00 0.00 0.00 0.00 0.00 0.00 0.00 0.00 0.00 0.00 0.00 0.00 0.00 0.00 0.00 0.00 0.00 0.00 0.00 0.00 0.00 0.00 0.00 0.00 0.00 0.00 0.00 0.00 0.01 0.02 0.04 0.08 0.09 0.12 0.15 0.15 0.18 0.18 0.23 0.28 0.37 0.27
0.00 0.00 0.00 0.00 0.00 0.00 0.00 0.00 0.00 0.00 0.00 0.00 0.00 0.00 0.00 0.00 0.00 0.00 0.00 0.00 0.00 0.00 0.00 0.00 0.00 0.00 0.00 0.00 0.00 0.00 0.01 0.02 0.04 0.07 0.09 0.10 0.13 0.16 0.17 0.18 0.17 0.23 0.29
0.00 0.00 0.00 0.00 0.00 0.00 0.00 0.00 0.00 0.00 0.00 0.00 0.00 0.00 0.00 0.00 0.00 0.00 0.00 0.00 0.00 0.00 0.00 0.00 0.00 0.00 0.00 0.00 0.00 0.00 0.00 0.00 0.02 0.04 0.08 0.09 0.11 0.11 0.10 0.10 0.11 0.15 0.22
0.00 0.00 0.00 0.00 0.00 0.00 0.00 0.00 0.00 0.00 0.00 0.00 0.00 0.00 0.00 0.00 0.00 0.00 0.00 0.00 0.00 0.00 0.00 0.00 0.00 0.00 0.00 0.00 0.00 0.00 0.00 0.00 0.00 0.01 0.05 0.07 0.09 0.11 0.11 0.10 0.10 0.13 0.15
0.00 0.00 0.00 0.00 0.00 0.00 0.00 0.00 0.00 0.00 0.00 0.00 0.00 0.00 0.00 0.00 0.00 0.00 0.00 0.00 0.00 0.00 0.00 0.00 0.00 0.00 0.00 0.00 0.00 0.00 0.00 0.00 0.00 0.00 0.02 0.03 0.06 0.07 0.06 0.07 0.08 0.13 0.22
0.00 0.00 0.00 0.00 0.00 0.00 0.00 0.00 0.00 0.00 0.00 0.00 0.00 0.00 0.00 0.00 0.00 0.00 0.00 0.00 0.00 0.00 0.00 0.00 0.00 0.00 0.00 0.00 0.00 0.00 0.00 0.00 0.00 0.00 0.00 0.01 0.01 0.02 0.02 0.04 0.12 0.21 0.32
0.00 0.00 0.00 0.00 0.00 0.00 0.00 0.00 0.00 0.00 0.00 0.00 0.00 0.00 0.00 0.00 0.00 0.00 0.00 0.00 0.00 0.00 0.00 0.00 0.00 0.00 0.00 0.00 0.00 0.00 0.00 0.00 0.00 0.00 0.00 0.00 0.00 0.00 0.04 0.10 0.15 0.31 0.39
0.00 0.00 0.00 0.00 0.00 0.00 0.00 0.00 0.00 0.00 0.00 0.00 0.00 0.00 0.00 0.00 0.00 0.00 0.00 0.00 0.00 0.00 0.00 0.00 0.00 0.00 0.00 0.00 0.00 0.00 0.00 0.00 0.00 0.00 0.00 0.00 0.00 0.00 0.04 0.09 0.16 0.31 0.54
0.00 0.00 0.00 0.00 0.00 0.00 0.00 0.00 0.00 0.00 0.00 0.00 0.00 0.00 0.00 0.00 0.00 0.00 0.00 0.00 0.00 0.00 0.00 0.00 0.00 0.00 0.00 0.00 0.00 0.00 0.00 0.00 0.00 0.00 0.00 0.00 0.00 0.01 0.03 0.08 0.14 0.24 0.49
0.00 0.00 0.00 0.00 0.00 0.00 0.00 0.00 0.00 0.00 0.00 0.00 0.00 0.00 0.00 0.00 0.00 0.00 0.00 0.00 0.00 0.00 0.00 0.00 0.00 0.00 0.00 0.00 0.00 0.00 0.00 0.00 0.00 0.00 0.00 0.01 0.02 0.03 0.05 0.08 0.23 0.29 0.21
0.00 0.00 0.00 0.00 0.00 0.00 0.00 0.00 0.00 0.00 0.00 0.00 0.00 0.00 0.00 0.00 0.00 0.00 0.00 0.00 0.00 0.00 0.00 0.00 0.00 0.00 0.00 0.00 0.00 0.00 0.00 0.00 0.00 0.00 0.01 0.04 0.03 0.02 0.09 0.28 0.37 0.18 0.13
0.00 0.00 0.00 0.00 0.00 0.00 0.00 0.00 0.00 0.00 0.00 0.00 0.00 0.00 0.00 0.00 0.00 0.00 0.00 0.00 0.00 0.00 0.00 0.00 0.00 0.00 0.00 0.00 0.00 0.00 0.01 0.01 0.00 0.02 0.02 0.03 0.03 0.08 0.29 0.24 0.23 0.25 0.16
0.00 0.00 0.00 0.00 0.00 0.00 0.00 0.00 0.00 0.00 0.00 0.00 0.00 0.00 0.00 0.00 0.00 0.00 0.00 0.00 0.00 0.00 0.00 0.00 0.00 0.00 0.00 0.00 0.00 0.00 0.02 0.03 0.13 0.11 0.03 0.03 0.12 0.31 0.19 0.14 0.19 0.22 0.23
0.00 0.00 0.00 0.00 0.00 0.00 0.00 0.00 0.00 0.00 0.00 0.00 0.00 0.00 0.00 0.00 0.00 0.00 0.00 0.00 0.00 0.00 0.00 0.00 0.00 0.00 0.00 0.00 0.00 0.01 0.03 0.06 0.10 0.04 0.02 0.09 0.20 0.08 0.05 0.09 0.17 0.31 0.30
0.00 0.00 0.00 0.00 0.00 0.00 0.00 0.00 0.00 0.00 0.00 0.00 0.00 0.00 0.00 0.00 0.00 0.00 0.00 0.00 0.00 0.00 0.00 0.00 0.00 0.00 0.00 0.00 0.00 0.00 0.06 0.08 0.06 0.04 0.15 0.14 0.03 0.03 0.04 0.10 0.16 0.16 0.15
0.00 0.00 0.00 0.00 0.00 0.00 0.00 0.00 0.00 0.00 0.00 0.00 0.00 0.00 0.00 0.00 0.00 0.00 0.00 0.00 0.00 0.00 0.00 0.00 0.00 0.00 0.00 0.00 0.00 0.03 0.05 0.04 0.07 0.17 0.13 0.02 0.03 0.05 0.06 0.08 0.07 0.07 0.17
0.00 0.00 0.00 0.00 0.00 0.00 0.00 0.00 0.00 0.00 0.00 0.00 0.00 0.00 0.00 0.00 0.00 0.00 0.00 0.00 0.00 0.00 0.00 0.00 0.01 0.01 0.01 0.01 0.04 0.06 0.04 0.08 0.16 0.07 0.01 0.01 0.02 0.02 0.02 0.04 0.06 0.11 0.24
0.00 0.00 0.00 0.00 0.00 0.00 0.00 0.00 0.00 0.00 0.00 0.00 0.00 0.00 0.00 0.00 0.00 0.00 0.00 0.00 0.00 0.00 0.00 0.00 0.01 0.01 0.02 0.03 0.05 0.04 0.10 0.14 0.06 0.05 0.03 0.04 0.05 0.07 0.09 0.11 0.14 0.20 0.31

GFSMW_prec_precacc_039.txt.gz
Total_Precipitation_Accumulation
0.00 0.00 0.00 0.00 0.00 0.00 0.00 0.00 0.00 0.00 0.00 0.00 0.00 0.00 0.00 0.00 0.00 0.00 0.00 0.00 0.00 0.00 0.00 0.00 0.00 0.00 0.00 0.00 0.00 0.00 0.00 0.00 0.00 0.00 0.00 0.00 0.00 0.00 0.00 0.00 0.00 0.00 0.00
0.00 0.00 0.00 0.00 0.00 0.00 0.00 0.00 0.00 0.00 0.00 0.00 0.00 0.00 0.00 0.00 0.00 0.00 0.00 0.00 0.00 0.00 0.00 0.00 0.00 0.00 0.00 0.00 0.00 0.00 0.00 0.00 0.00 0.01 0.02 0.02 0.00 0.00 0.00 0.00 0.00 0.00 0.00
0.00 0.00 0.00 0.00 0.00 0.00 0.00 0.00 0.00 0.00 0.00 0.00 0.00 0.00 0.00 0.00 0.00 0.00 0.00 0.00 0.00 0.00 0.00 0.00 0.00 0.00 0.00 0.00 0.00 0.00 0.00 0.01 0.01 0.00 0.04 0.07 0.03 0.02 0.00 0.00 0.00 0.00 0.00
0.00 0.00 0.00 0.00 0.00 0.00 0.00 0.00 0.00 0.00 0.00 0.00 0.00 0.00 0.00 0.00 0.00 0.00 0.00 0.00 0.00 0.00 0.00 0.00 0.00 0.00 0.00 0.00 0.00 0.00 0.01 0.02 0.03 0.02 0.01 0.04 0.06 0.09 0.06 0.01 0.01 0.01 0.01
0.00 0.00 0.00 0.00 0.00 0.00 0.00 0.00 0.00 0.00 0.00 0.00 0.00 0.00 0.00 0.00 0.00 0.00 0.00 0.00 0.00 0.00 0.00 0.00 0.00 0.00 0.00 0.00 0.00 0.01 0.02 0.03 0.03 0.03 0.04 0.04 0.05 0.07 0.11 0.10 0.02 0.01 0.01
0.00 0.00 0.00 0.00 0.00 0.00 0.00 0.00 0.00 0.00 0.00 0.00 0.00 0.00 0.00 0.00 0.00 0.00 0.00 0.00 0.00 0.00 0.00 0.00 0.00 0.00 0.00 0.00 0.01 0.02 0.03 0.03 0.06 0.08 0.08 0.11 0.16 0.14 0.17 0.15 0.07 0.05 0.02
0.00 0.00 0.00 0.00 0.00 0.00 0.00 0.00 0.00 0.00 0.00 0.00 0.00 0.00 0.00 0.00 0.00 0.00 0.00 0.00 0.00 0.00 0.00 0.00 0.00 0.00 0.00 0.00 0.01 0.03 0.03 0.04 0.08 0.12 0.14 0.13 0.14 0.14 0.18 0.24 0.17 0.15 0.09
0.00 0.00 0.00 0.00 0.00 0.00 0.00 0.00 0.00 0.00 0.00 0.00 0.00 0.00 0.00 0.00 0.00 0.00 0.00 0.00 0.00 0.00 0.00 0.00 0.00 0.00 0.00 0.00 0.01 0.03 0.04 0.06 0.09 0.11 0.12 0.15 0.14 0.15 0.20 0.26 0.29 0.21 0.11
0.00 0.00 0.00 0.00 0.00 0.00 0.00 0.00 0.00 0.00 0.00 0.00 0.00 0.00 0.00 0.00 0.00 0.00 0.00 0.00 0.00 0.00 0.00 0.00 0.00 0.00 0.00 0.00 0.00 0.01 0.02 0.04 0.08 0.09 0.12 0.15 0.15 0.18 0.18 0.23 0.28 0.37 0.27
0.00 0.00 0.00 0.00 0.00 0.00 0.00 0.00 0.00 0.00 0.00 0.00 0.00 0.00 0.00 0.00 0.00 0.00 0.00 0.00 0.00 0.00 0.00 0.00 0.00 0.00 0.00 0.00 0.00 0.00 0.01 0.02 0.04 0.07 0.09 0.10 0.13 0.16 0.17 0.18 0.17 0.23 0.29
0.00 0.00 0.00 0.00 0.00 0.00 0.00 0.00 0.00 0.00 0.00 0.00 0.00 0.00 0.00 0.00 0.00 0.00 0.00 0.00 0.00 0.00 0.00 0.00 0.00 0.00 0.00 0.00 0.00 0.00 0.00 0.00 0.02 0.04 0.08 0.09 0.11 0.11 0.10 0.10 0.11 0.15 0.22
0.00 0.00 0.00 0.00 0.00 0.00 0.00 0.00 0.00 0.00 0.00 0.00 0.00 0.00 0.00 0.00 0.00 0.00 0.00 0.00 0.00 0.00 0.00 0.00 0.00 0.00 0.00 0.00 0.00 0.00 0.00 0.00 0.00 0.01 0.05 0.07 0.09 0.11 0.11 0.10 0.10 0.13 0.15
0.00 0.00 0.00 0.00 0.00 0.00 0.00 0.00 0.00 0.00 0.00 0.00 0.00 0.00 0.00 0.00 0.00 0.00 0.00 0.00 0.00 0.00 0.00 0.00 0.00 0.00 0.00 0.00 0.00 0.00 0.00 0.00 0.00 0.00 0.02 0.03 0.06 0.07 0.06 0.07 0.08 0.13 0.22
0.00 0.00 0.00 0.00 0.00 0.00 0.00 0.00 0.00 0.00 0.00 0.00 0.00 0.00 0.00 0.00 0.00 0.00 0.00 0.00 0.00 0.00 0.00 0.00 0.00 0.00 0.00 0.00 0.00 0.00 0.00 0.00 0.00 0.00 0.00 0.01 0.01 0.02 0.02 0.04 0.12 0.21 0.32
0.00 0.00 0.00 0.00 0.00 0.00 0.00 0.00 0.00 0.00 0.00 0.00 0.00 0.00 0.00 0.00 0.00 0.00 0.00 0.00 0.00 0.00 0.00 0.00 0.00 0.00 0.00 0.00 0.00 0.00 0.00 0.00 0.00 0.00 0.00 0.00 0.00 0.00 0.04 0.10 0.15 0.31 0.39
0.00 0.00 0.00 0.00 0.00 0.00 0.00 0.00 0.00 0.00 0.00 0.00 0.00 0.00 0.00 0.00 0.00 0.00 0.00 0.00 0.00 0.00 0.00 0.00 0.00 0.00 0.00 0.00 0.00 0.00 0.00 0.00 0.00 0.00 0.00 0.00 0.00 0.00 0.04 0.10 0.17 0.31 0.54
0.00 0.00 0.00 0.00 0.00 0.00 0.00 0.00 0.00 0.00 0.00 0.00 0.00 0.00 0.00 0.00 0.00 0.00 0.00 0.00 0.00 0.00 0.00 0.00 0.00 0.00 0.00 0.00 0.00 0.00 0.00 0.00 0.00 0.00 0.00 0.00 0.00 0.01 0.03 0.08 0.14 0.26 0.54
0.00 0.00 0.00 0.00 0.00 0.00 0.00 0.00 0.00 0.00 0.00 0.00 0.00 0.00 0.00 0.00 0.00 0.00 0.00 0.00 0.00 0.00 0.00 0.00 0.00 0.00 0.00 0.00 0.00 0.00 0.00 0.00 0.00 0.00 0.00 0.01 0.02 0.03 0.05 0.10 0.29 0.32 0.21
0.00 0.00 0.00 0.00 0.00 0.00 0.00 0.00 0.00 0.00 0.00 0.00 0.00 0.00 0.00 0.00 0.00 0.00 0.00 0.00 0.00 0.00 0.00 0.00 0.00 0.00 0.00 0.00 0.00 0.00 0.00 0.00 0.00 0.00 0.01 0.04 0.03 0.03 0.11 0.31 0.38 0.18 0.13
0.00 0.00 0.00 0.00 0.00 0.00 0.00 0.00 0.00 0.00 0.00 0.00 0.00 0.00 0.00 0.00 0.00 0.00 0.00 0.00 0.00 0.00 0.00 0.00 0.00 0.00 0.00 0.00 0.00 0.00 0.01 0.01 0.00 0.02 0.02 0.03 0.03 0.09 0.31 0.24 0.23 0.25 0.17
0.00 0.00 0.00 0.00 0.00 0.00 0.00 0.00 0.00 0.00 0.00 0.00 0.00 0.00 0.00 0.00 0.00 0.00 0.00 0.00 0.00 0.00 0.00 0.00 0.00 0.00 0.00 0.00 0.00 0.00 0.02 0.03 0.13 0.11 0.03 0.03 0.13 0.32 0.19 0.15 0.19 0.22 0.25
0.00 0.00 0.00 0.00 0.00 0.00 0.00 0.00 0.00 0.00 0.00 0.00 0.00 0.00 0.00 0.00 0.00 0.00 0.00 0.00 0.00 0.00 0.00 0.00 0.00 0.00 0.00 0.00 0.00 0.01 0.03 0.06 0.10 0.04 0.02 0.09 0.21 0.08 0.05 0.09 0.17 0.31 0.30
0.00 0.00 0.00 0.00 0.00 0.00 0.00 0.00 0.00 0.00 0.00 0.00 0.00 0.00 0.00 0.00 0.00 0.00 0.00 0.00 0.00 0.00 0.00 0.00 0.00 0.00 0.00 0.00 0.00 0.00 0.07 0.09 0.06 0.04 0.16 0.14 0.03 0.03 0.04 0.10 0.16 0.16 0.15
0.00 0.00 0.00 0.00 0.00 0.00 0.00 0.00 0.00 0.00 0.00 0.00 0.00 0.00 0.00 0.00 0.00 0.00 0.00 0.00 0.00 0.00 0.00 0.00 0.00 0.00 0.00 0.00 0.00 0.03 0.05 0.04 0.08 0.17 0.13 0.02 0.03 0.05 0.06 0.08 0.07 0.07 0.17
0.00 0.00 0.00 0.00 0.00 0.00 0.00 0.00 0.00 0.00 0.00 0.00 0.00 0.00 0.00 0.00 0.00 0.00 0.00 0.00 0.00 0.00 0.00 0.00 0.01 0.01 0.01 0.01 0.04 0.06 0.05 0.08 0.16 0.07 0.01 0.01 0.02 0.02 0.02 0.04 0.06 0.11 0.24
0.00 0.00 0.00 0.00 0.00 0.00 0.00 0.00 0.00 0.00 0.00 0.00 0.00 0.00 0.00 0.00 0.00 0.00 0.00 0.00 0.00 0.00 0.00 0.00 0.01 0.01 0.02 0.03 0.05 0.05 0.11 0.15 0.06 0.05 0.03 0.04 0.05 0.07 0.09 0.11 0.15 0.20 0.31

GFSMW_prec_precacc_042.txt.gz
Total_Precipitation_Accumulation
0.00 0.00 0.00 0.00 0.00 0.00 0.00 0.00 0.00 0.00 0.00 0.00 0.00 0.00 0.01 0.00 0.00 0.00 0.00 0.00 0.00 0.00 0.00 0.00 0.00 0.00 0.00 0.00 0.00 0.00 0.00 0.00 0.00 0.00 0.00 0.00 0.00 0.00 0.00 0.00 0.00 0.00 0.00
0.00 0.00 0.00 0.00 0.00 0.00 0.00 0.00 0.00 0.00 0.00 0.00 0.00 0.00 0.03 0.01 0.00 0.00 0.01 0.01 0.00 0.00 0.00 0.00 0.00 0.00 0.00 0.00 0.00 0.00 0.00 0.00 0.00 0.01 0.02 0.02 0.00 0.00 0.00 0.00 0.00 0.00 0.00
0.00 0.00 0.00 0.00 0.00 0.00 0.00 0.00 0.00 0.00 0.00 0.00 0.00 0.01 0.03 0.01 0.00 0.00 0.00 0.00 0.00 0.00 0.00 0.00 0.00 0.00 0.00 0.00 0.00 0.00 0.00 0.01 0.01 0.00 0.04 0.07 0.03 0.02 0.00 0.00 0.00 0.00 0.00
0.00 0.00 0.00 0.00 0.00 0.00 0.00 0.00 0.00 0.00 0.00 0.00 0.00 0.00 0.01 0.02 0.00 0.00 0.00 0.00 0.00 0.00 0.00 0.00 0.00 0.00 0.00 0.00 0.00 0.00 0.01 0.02 0.03 0.02 0.01 0.04 0.06 0.09 0.06 0.01 0.01 0.01 0.01
0.00 0.00 0.00 0.00 0.00 0.00 0.00 0.00 0.00 0.00 0.00 0.00 0.00 0.00 0.00 0.00 0.00 0.00 0.00 0.00 0.00 0.00 0.00 0.00 0.00 0.00 0.00 0.00 0.00 0.01 0.02 0.03 0.03 0.03 0.04 0.04 0.05 0.07 0.11 0.10 0.02 0.01 0.01
0.00 0.00 0.00 0.00 0.00 0.00 0.00 0.00 0.00 0.00 0.00 0.00 0.00 0.00 0.00 0.00 0.00 0.00 0.00 0.00 0.00 0.00 0.00 0.00 0.00 0.00 0.00 0.00 0.01 0.02 0.03 0.03 0.06 0.08 0.08 0.11 0.16 0.14 0.17 0.15 0.07 0.05 0.02
0.00 0.00 0.00 0.00 0.00 0.00 0.00 0.00 0.00 0.00 0.00 0.00 0.00 0.00 0.00 0.00 0.00 0.00 0.00 0.00 0.00 0.00 0.00 0.00 0.00 0.00 0.00 0.00 0.01 0.03 0.03 0.04 0.08 0.12 0.14 0.13 0.14 0.14 0.18 0.24 0.17 0.15 0.09
0.00 0.00 0.00 0.00 0.00 0.00 0.00 0.00 0.00 0.00 0.00 0.00 0.00 0.00 0.00 0.00 0.00 0.00 0.00 0.00 0.00 0.00 0.00 0.00 0.00 0.00 0.00 0.00 0.01 0.03 0.04 0.06 0.09 0.11 0.12 0.15 0.14 0.15 0.20 0.26 0.29 0.21 0.11
0.00 0.00 0.00 0.00 0.00 0.00 0.00 0.00 0.00 0.00 0.00 0.00 0.00 0.00 0.00 0.00 0.00 0.00 0.00 0.00 0.00 0.00 0.00 0.00 0.00 0.00 0.00 0.00 0.00 0.01 0.02 0.04 0.08 0.09 0.12 0.15 0.15 0.18 0.18 0.23 0.28 0.37 0.27
0.00 0.00 0.00 0.00 0.00 0.00 0.00 0.00 0.00 0.00 0.00 0.00 0.00 0.00 0.00 0.00 0.00 0.00 0.00 0.00 0.00 0.00 0.00 0.00 0.00 0.00 0.00 0.00 0.00 0.00 0.01 0.02 0.04 0.07 0.09 0.10 0.13 0.16 0.17 0.18 0.17 0.23 0.29
0.00 0.00 0.00 0.00 0.00 0.00 0.00 0.00 0.00 0.00 0.00 0.00 0.00 0.00 0.00 0.00 0.00 0.00 0.00 0.00 0.00 0.00 0.00 0.00 0.00 0.00 0.00 0.00 0.00 0.00 0.00 0.00 0.02 0.04 0.08 0.09 0.11 0.11 0.10 0.10 0.11 0.15 0.22
0.00 0.00 0.00 0.00 0.00 0.00 0.00 0.00 0.00 0.00 0.00 0.00 0.00 0.00 0.00 0.00 0.00 0.00 0.00 0.00 0.00 0.00 0.00 0.00 0.00 0.00 0.00 0.00 0.00 0.00 0.00 0.00 0.00 0.01 0.05 0.07 0.09 0.11 0.11 0.10 0.10 0.13 0.15
0.00 0.00 0.00 0.00 0.00 0.00 0.00 0.00 0.00 0.00 0.00 0.00 0.00 0.00 0.00 0.00 0.00 0.00 0.00 0.00 0.00 0.00 0.00 0.00 0.00 0.00 0.00 0.00 0.00 0.00 0.00 0.00 0.00 0.00 0.02 0.03 0.06 0.07 0.06 0.07 0.08 0.13 0.22
0.00 0.00 0.00 0.00 0.00 0.00 0.00 0.00 0.00 0.00 0.00 0.00 0.00 0.00 0.00 0.00 0.00 0.00 0.00 0.00 0.00 0.00 0.00 0.00 0.00 0.00 0.00 0.00 0.00 0.00 0.00 0.00 0.00 0.00 0.00 0.01 0.01 0.02 0.02 0.04 0.12 0.21 0.32
0.00 0.00 0.00 0.00 0.00 0.00 0.00 0.00 0.00 0.00 0.00 0.00 0.00 0.00 0.00 0.00 0.00 0.00 0.00 0.00 0.00 0.00 0.00 0.00 0.00 0.00 0.00 0.00 0.00 0.00 0.00 0.00 0.00 0.00 0.00 0.00 0.00 0.00 0.04 0.10 0.15 0.31 0.39
0.00 0.00 0.00 0.00 0.00 0.00 0.00 0.00 0.00 0.00 0.00 0.00 0.00 0.00 0.00 0.00 0.00 0.00 0.00 0.00 0.00 0.00 0.00 0.00 0.00 0.00 0.00 0.00 0.00 0.00 0.00 0.00 0.00 0.00 0.00 0.00 0.00 0.00 0.04 0.10 0.17 0.32 0.59
0.00 0.00 0.00 0.00 0.00 0.00 0.00 0.00 0.00 0.00 0.00 0.00 0.00 0.00 0.00 0.00 0.00 0.00 0.00 0.00 0.00 0.00 0.00 0.00 0.00 0.00 0.00 0.00 0.00 0.00 0.00 0.00 0.00 0.00 0.00 0.00 0.00 0.01 0.03 0.08 0.15 0.29 0.56
0.00 0.00 0.00 0.00 0.00 0.00 0.00 0.00 0.00 0.00 0.00 0.00 0.00 0.00 0.00 0.00 0.00 0.00 0.00 0.00 0.00 0.00 0.00 0.00 0.00 0.00 0.00 0.00 0.00 0.00 0.00 0.00 0.00 0.00 0.00 0.01 0.02 0.03 0.05 0.11 0.33 0.32 0.21
0.00 0.00 0.00 0.00 0.00 0.00 0.00 0.00 0.00 0.00 0.00 0.00 0.00 0.00 0.00 0.00 0.00 0.00 0.00 0.00 0.00 0.00 0.00 0.00 0.00 0.00 0.00 0.00 0.00 0.00 0.00 0.00 0.00 0.00 0.01 0.05 0.03 0.03 0.12 0.32 0.38 0.18 0.13
0.00 0.00 0.00 0.00 0.00 0.00 0.00 0.00 0.00 0.00 0.00 0.00 0.00 0.00 0.00 0.00 0.00 0.00 0.00 0.00 0.00 0.00 0.00 0.00 0.00 0.00 0.00 0.00 0.00 0.00 0.01 0.01 0.00 0.02 0.02 0.03 0.03 0.09 0.33 0.25 0.23 0.25 0.17
0.00 0.00 0.00 0.00 0.00 0.00 0.00 0.00 0.00 0.00 0.00 0.00 0.00 0.00 0.00 0.00 0.00 0.00 0.00 0.00 0.00 0.00 0.00 0.00 0.00 0.00 0.00 0.00 0.00 0.00 0.02 0.03 0.14 0.11 0.03 0.03 0.14 0.33 0.19 0.15 0.19 0.22 0.26
0.00 0.00 0.00 0.00 0.00 0.00 0.00 0.00 0.00 0.00 0.00 0.00 0.00 0.00 0.00 0.00 0.00 0.00 0.00 0.00 0.00 0.00 0.00 0.00 0.00 0.00 0.00 0.00 0.00 0.01 0.03 0.06 0.10 0.04 0.02 0.09 0.22 0.08 0.05 0.09 0.17 0.31 0.30
0.00 0.00 0.00 0.00 0.00 0.00 0.00 0.00 0.00 0.00 0.00 0.00 0.00 0.00 0.00 0.00 0.00 0.00 0.00 0.00 0.00 0.00 0.00 0.00 0.00 0.00 0.00 0.00 0.00 0.00 0.07 0.09 0.07 0.04 0.16 0.15 0.03 0.03 0.04 0.10 0.17 0.16 0.15
0.00 0.00 0.00 0.00 0.00 0.00 0.00 0.00 0.00 0.00 0.00 0.00 0.00 0.00 0.00 0.00 0.00 0.00 0.00 0.00 0.00 0.00 0.00 0.00 0.00 0.00 0.00 0.00 0.00 0.03 0.05 0.04 0.08 0.17 0.14 0.02 0.03 0.05 0.06 0.08 0.07 0.07 0.17
0.00 0.00 0.00 0.00 0.00 0.00 0.00 0.00 0.00 0.00 0.00 0.00 0.00 0.00 0.00 0.00 0.00 0.00 0.00 0.00 0.00 0.00 0.00 0.00 0.01 0.01 0.01 0.01 0.04 0.06 0.05 0.09 0.16 0.07 0.01 0.01 0.02 0.02 0.02 0.04 0.06 0.11 0.24
0.00 0.00 0.00 0.00 0.00 0.00 0.00 0.00 0.00 0.00 0.00 0.00 0.00 0.00 0.00 0.00 0.00 0.00 0.00 0.00 0.00 0.00 0.00 0.00 0.01 0.01 0.02 0.03 0.05 0.05 0.11 0.15 0.07 0.05 0.03 0.04 0.05 0.08 0.09 0.11 0.15 0.20 0.31

GFSMW_prec_precacc_045.txt.gz
Total_Precipitation_Accumulation
0.00 0.00 0.00 0.00 0.00 0.00 0.00 0.00 0.00 0.00 0.00 0.00 0.00 0.00 0.02 0.05 0.05 0.01 0.02 0.02 0.01 0.01 0.00 0.00 0.00 0.00 0.00 0.00 0.00 0.00 0.00 0.00 0.00 0.00 0.00 0.00 0.00 0.00 0.00 0.00 0.00 0.00 0.00
0.00 0.00 0.00 0.00 0.00 0.00 0.00 0.00 0.00 0.00 0.00 0.00 0.00 0.00 0.10 0.12 0.11 0.03 0.02 0.04 0.02 0.00 0.00 0.00 0.00 0.00 0.00 0.00 0.00 0.00 0.00 0.00 0.00 0.01 0.02 0.02 0.00 0.00 0.00 0.00 0.00 0.00 0.00
0.00 0.00 0.00 0.00 0.00 0.00 0.00 0.00 0.00 0.00 0.00 0.00 0.00 0.02 0.09 0.09 0.05 0.03 0.03 0.02 0.01 0.00 0.00 0.00 0.00 0.00 0.00 0.00 0.00 0.00 0.00 0.01 0.01 0.00 0.04 0.07 0.03 0.02 0.00 0.00 0.00 0.00 0.00
0.00 0.00 0.00 0.00 0.00 0.00 0.00 0.00 0.00 0.00 0.00 0.00 0.00 0.01 0.07 0.09 0.05 0.04 0.03 0.02 0.01 0.00 0.00 0.00 0.00 0.00 0.00 0.00 0.00 0.00 0.01 0.02 0.03 0.02 0.01 0.04 0.06 0.09 0.06 0.01 0.01 0.01 0.01
0.00 0.00 0.00 0.00 0.00 0.00 0.00 0.00 0.00 0.00 0.00 0.00 0.00 0.00 0.05 0.08 0.04 0.02 0.01 0.01 0.00 0.00 0.00 0.00 0.00 0.00 0.00 0.00 0.00 0.01 0.02 0.03 0.03 0.03 0.04 0.04 0.05 0.07 0.11 0.10 0.02 0.01 0.01
0.00 0.00 0.00 0.00 0.00 0.00 0.00 0.00 0.00 0.00 0.00 0.00 0.00 0.01 0.02 0.03 0.01 0.01 0.00 0.00 0.00 0.00 0.00 0.00 0.00 0.00 0.00 0.00 0.01 0.02 0.03 0.03 0.06 0.08 0.08 0.11 0.16 0.14 0.17 0.15 0.07 0.05 0.02
0.00 0.00 0.00 0.00 0.00 0.00 0.00 0.00 0.00 0.00 0.00 0.00 0.00 0.00 0.00 0.00 0.00 0.00 0.00 0.00 0.00 0.00 0.00 0.00 0.00 0.00 0.00 0.00 0.01 0.03 0.03 0.04 0.08 0.12 0.14 0.13 0.14 0.14 0.18 0.24 0.17 0.15 0.09
0.00 0.00 0.00 0.00 0.00 0.00 0.00 0.00 0.00 0.00 0.00 0.00 0.00 0.00 0.00 0.00 0.00 0.00 0.00 0.00 0.00 0.00 0.00 0.00 0.00 0.00 0.00 0.00 0.01 0.03 0.04 0.06 0.09 0.11 0.12 0.15 0.14 0.15 0.20 0.26 0.29 0.21 0.11
0.00 0.00 0.00 0.00 0.00 0.00 0.00 0.00 0.00 0.00 0.00 0.00 0.00 0.00 0.00 0.00 0.00 0.00 0.00 0.00 0.00 0.00 0.00 0.00 0.00 0.00 0.00 0.00 0.00 0.01 0.02 0.04 0.08 0.09 0.12 0.15 0.15 0.18 0.18 0.23 0.28 0.37 0.27
0.00 0.00 0.00 0.00 0.00 0.00 0.00 0.00 0.00 0.00 0.00 0.00 0.00 0.00 0.00 0.00 0.00 0.00 0.00 0.00 0.00 0.00 0.00 0.00 0.00 0.00 0.00 0.00 0.00 0.00 0.01 0.02 0.04 0.07 0.09 0.10 0.13 0.16 0.17 0.18 0.17 0.23 0.29
0.00 0.00 0.00 0.00 0.00 0.00 0.00 0.00 0.00 0.00 0.00 0.00 0.00 0.00 0.00 0.00 0.00 0.00 0.00 0.00 0.00 0.00 0.00 0.00 0.00 0.00 0.00 0.00 0.00 0.00 0.00 0.00 0.02 0.04 0.08 0.09 0.11 0.11 0.10 0.10 0.11 0.15 0.22
0.00 0.00 0.00 0.00 0.00 0.00 0.00 0.00 0.00 0.00 0.00 0.00 0.00 0.00 0.00 0.00 0.00 0.00 0.00 0.00 0.00 0.00 0.00 0.00 0.00 0.00 0.00 0.00 0.00 0.00 0.00 0.00 0.00 0.01 0.05 0.07 0.09 0.11 0.11 0.10 0.10 0.13 0.15
0.00 0.00 0.00 0.00 0.00 0.00 0.00 0.00 0.00 0.00 0.00 0.00 0.00 0.00 0.00 0.00 0.00 0.00 0.00 0.00 0.00 0.00 0.00 0.00 0.00 0.00 0.00 0.00 0.00 0.00 0.00 0.00 0.00 0.00 0.02 0.03 0.06 0.07 0.06 0.07 0.08 0.13 0.22
0.00 0.00 0.00 0.00 0.00 0.00 0.00 0.00 0.00 0.00 0.00 0.00 0.00 0.00 0.00 0.00 0.00 0.00 0.00 0.00 0.00 0.00 0.00 0.00 0.00 0.00 0.00 0.00 0.00 0.00 0.00 0.00 0.00 0.00 0.00 0.01 0.01 0.02 0.02 0.04 0.12 0.21 0.32
0.00 0.00 0.00 0.00 0.00 0.00 0.00 0.00 0.00 0.00 0.00 0.00 0.00 0.00 0.00 0.00 0.00 0.00 0.00 0.00 0.00 0.00 0.00 0.00 0.00 0.00 0.00 0.00 0.00 0.00 0.00 0.00 0.00 0.00 0.00 0.00 0.00 0.00 0.04 0.10 0.15 0.31 0.39
0.00 0.00 0.00 0.00 0.00 0.00 0.00 0.00 0.00 0.00 0.00 0.00 0.00 0.00 0.00 0.00 0.00 0.00 0.00 0.00 0.00 0.00 0.00 0.00 0.00 0.00 0.00 0.00 0.00 0.00 0.00 0.00 0.00 0.00 0.00 0.00 0.00 0.00 0.04 0.10 0.18 0.32 0.62
0.00 0.00 0.00 0.00 0.00 0.00 0.00 0.00 0.00 0.00 0.00 0.00 0.00 0.00 0.00 0.00 0.00 0.00 0.00 0.00 0.00 0.00 0.00 0.00 0.00 0.00 0.00 0.00 0.00 0.00 0.00 0.00 0.00 0.00 0.00 0.00 0.00 0.01 0.03 0.08 0.16 0.31 0.58
0.00 0.00 0.00 0.00 0.00 0.00 0.00 0.00 0.00 0.00 0.00 0.00 0.00 0.00 0.00 0.00 0.00 0.00 0.00 0.00 0.00 0.00 0.00 0.00 0.00 0.00 0.00 0.00 0.00 0.00 0.00 0.00 0.00 0.00 0.00 0.01 0.02 0.03 0.06 0.13 0.37 0.33 0.21
0.00 0.00 0.00 0.00 0.00 0.00 0.00 0.00 0.00 0.00 0.00 0.00 0.00 0.00 0.00 0.00 0.00 0.00 0.00 0.00 0.00 0.00 0.00 0.00 0.00 0.00 0.00 0.00 0.00 0.00 0.00 0.00 0.00 0.00 0.01 0.05 0.03 0.03 0.13 0.34 0.39 0.18 0.13
0.00 0.00 0.00 0.00 0.00 0.00 0.00 0.00 0.00 0.00 0.00 0.00 0.00 0.00 0.00 0.00 0.00 0.00 0.00 0.00 0.00 0.00 0.00 0.00 0.00 0.00 0.00 0.00 0.00 0.00 0.01 0.01 0.00 0.02 0.02 0.03 0.04 0.10 0.35 0.25 0.23 0.25 0.17
0.00 0.00 0.00 0.00 0.00 0.00 0.00 0.00 0.00 0.00 0.00 0.00 0.00 0.00 0.00 0.00 0.00 0.00 0.00 0.00 0.00 0.00 0.00 0.00 0.00 0.00 0.00 0.00 0.00 0.00 0.02 0.03 0.14 0.11 0.03 0.03 0.14 0.34 0.20 0.15 0.19 0.22 0.27
0.00 0.00 0.00 0.00 0.00 0.00 0.00 0.00 0.00 0.00 0.00 0.00 0.00 0.00 0.00 0.00 0.00 0.00 0.00 0.00 0.00 0.00 0.00 0.00 0.00 0.00 0.00 0.00 0.00 0.01 0.03 0.06 0.10 0.04 0.02 0.09 0.22 0.08 0.05 0.09 0.18 0.32 0.31
0.00 0.00 0.00 0.00 0.00 0.00 0.00 0.00 0.00 0.00 0.00 0.00 0.00 0.00 0.00 0.00 0.00 0.00 0.00 0.00 0.00 0.00 0.00 0.00 0.00 0.00 0.00 0.00 0.00 0.00 0.07 0.09 0.07 0.05 0.16 0.15 0.03 0.03 0.04 0.10 0.17 0.16 0.15
0.00 0.00 0.00 0.00 0.00 0.00 0.00 0.00 0.00 0.00 0.00 0.00 0.00 0.00 0.00 0.00 0.00 0.00 0.00 0.00 0.00 0.00 0.00 0.00 0.00 0.00 0.00 0.00 0.00 0.03 0.05 0.04 0.08 0.17 0.14 0.02 0.03 0.05 0.06 0.08 0.07 0.07 0.17
0.00 0.00 0.00 0.00 0.00 0.00 0.00 0.00 0.00 0.00 0.00 0.00 0.00 0.00 0.00 0.00 0.00 0.00 0.00 0.00 0.00 0.00 0.00 0.00 0.01 0.01 0.01 0.01 0.04 0.06 0.05 0.09 0.16 0.07 0.01 0.01 0.02 0.02 0.02 0.04 0.06 0.11 0.24
0.00 0.00 0.00 0.00 0.00 0.00 0.00 0.00 0.00 0.00 0.00 0.00 0.00 0.00 0.00 0.00 0.00 0.00 0.00 0.00 0.00 0.00 0.00 0.00 0.01 0.01 0.02 0.03 0.05 0.05 0.11 0.15 0.07 0.05 0.03 0.04 0.05 0.08 0.09 0.11 0.15 0.20 0.31

GFSMW_prec_precacc_048.txt.gz
Total_Precipitation_Accumulation
0.00 0.00 0.00 0.00 0.00 0.00 0.00 0.00 0.00 0.00 0.00 0.00 0.00 0.00 0.02 0.06 0.13 0.19 0.15 0.08 0.03 0.01 0.00 0.00 0.00 0.00 0.00 0.00 0.00 0.00 0.00 0.00 0.00 0.00 0.00 0.00 0.00 0.00 0.00 0.00 0.00 0.00 0.00
0.00 0.00 0.00 0.00 0.00 0.00 0.00 0.00 0.00 0.00 0.00 0.00 0.00 0.00 0.10 0.16 0.23 0.19 0.13 0.13 0.07 0.02 0.00 0.00 0.00 0.00 0.00 0.00 0.00 0.00 0.00 0.00 0.00 0.01 0.02 0.02 0.00 0.00 0.00 0.00 0.00 0.00 0.00
0.00 0.00 0.00 0.00 0.00 0.00 0.00 0.00 0.00 0.00 0.00 0.00 0.00 0.02 0.10 0.11 0.09 0.06 0.06 0.05 0.03 0.01 0.00 0.00 0.00 0.00 0.00 0.00 0.00 0.00 0.00 0.01 0.01 0.00 0.04 0.07 0.03 0.02 0.00 0.00 0.00 0.00 0.00
0.00 0.00 0.00 0.00 0.00 0.00 0.00 0.00 0.00 0.00 0.00 0.00 0.00 0.01 0.07 0.10 0.07 0.07 0.05 0.05 0.03 0.01 0.00 0.00 0.00 0.00 0.00 0.00 0.00 0.00 0.01 0.02 0.03 0.02 0.01 0.04 0.06 0.09 0.06 0.01 0.01 0.01 0.01
0.00 0.00 0.00 0.00 0.00 0.00 0.00 0.00 0.00 0.00 0.00 0.00 0.00 0.00 0.06 0.09 0.06 0.03 0.03 0.03 0.02 0.01 0.00 0.00 0.00 0.00 0.00 0.00 0.00 0.01 0.02 0.03 0.03 0.03 0.04 0.04 0.05 0.07 0.11 0.10 0.02 0.01 0.01
0.00 0.00 0.00 0.00 0.00 0.00 0.00 0.00 0.00 0.00 0.00 0.00 0.00 0.01 0.03 0.06 0.05 0.04 0.03 0.02 0.02 0.01 0.00 0.00 0.00 0.00 0.00 0.00 0.01 0.02 0.03 0.03 0.06 0.08 0.08 0.11 0.16 0.14 0.17 0.15 0.07 0.05 0.02
0.00 0.00 0.00 0.00 0.00 0.00 0.00 0.00 0.00 0.00 0.00 0.00 0.00 0.00 0.00 0.01 0.03 0.03 0.02 0.01 0.00 0.00 0.00 0.00 0.00 0.00 0.00 0.00 0.01 0.03 0.03 0.04 0.08 0.12 0.14 0.13 0.14 0.14 0.18 0.24 0.17 0.15 0.09
0.00 0.00 0.00 0.00 0.00 0.00 0.00 0.00 0.00 0.00 0.00 0.00 0.00 0.00 0.00 0.00 0.00 0.00 0.00 0.00 0.00 0.00 0.00 0.00 0.00 0.00 0.00 0.00 0.01 0.03 0.04 0.06 0.09 0.11 0.12 0.15 0.14 0.15 0.20 0.26 0.29 0.21 0.11
0.00 0.00 0.00 0.00 0.00 0.00 0.00 0.00 0.00 0.00 0.00 0.00 0.00 0.00 0.00 0.00 0.00 0.00 0.00 0.00 0.00 0.00 0.00 0.00 0.00 0.00 0.00 0.00 0.00 0.01 0.02 0.04 0.08 0.09 0.12 0.15 0.15 0.18 0.18 0.23 0.28 0.37 0.27
0.00 0.00 0.00 0.00 0.00 0.00 0.00 0.00 0.00 0.00 0.00 0.00 0.00 0.00 0.00 0.00 0.00 0.00 0.00 0.00 0.00 0.00 0.00 0.00 0.00 0.00 0.00 0.00 0.00 0.00 0.01 0.02 0.04 0.07 0.09 0.10 0.13 0.16 0.17 0.18 0.17 0.23 0.29
0.00 0.00 0.00 0.00 0.00 0.00 0.00 0.00 0.00 0.00 0.00 0.00 0.00 0.00 0.00 0.00 0.00 0.00 0.00 0.00 0.00 0.00 0.00 0.00 0.00 0.00 0.00 0.00 0.00 0.00 0.00 0.00 0.02 0.04 0.08 0.09 0.11 0.11 0.10 0.10 0.11 0.15 0.22
0.00 0.00 0.00 0.00 0.00 0.00 0.00 0.00 0.00 0.00 0.00 0.00 0.00 0.00 0.00 0.00 0.00 0.00 0.00 0.00 0.00 0.00 0.00 0.00 0.00 0.00 0.00 0.00 0.00 0.00 0.00 0.00 0.00 0.01 0.05 0.07 0.09 0.11 0.11 0.10 0.10 0.13 0.15
0.00 0.00 0.00 0.00 0.00 0.00 0.00 0.00 0.00 0.00 0.00 0.00 0.00 0.00 0.00 0.00 0.00 0.00 0.00 0.00 0.00 0.00 0.00 0.00 0.00 0.00 0.00 0.00 0.00 0.00 0.00 0.00 0.00 0.00 0.02 0.03 0.06 0.07 0.06 0.07 0.08 0.13 0.22
0.00 0.00 0.00 0.00 0.00 0.00 0.00 0.00 0.00 0.00 0.00 0.00 0.00 0.00 0.00 0.00 0.00 0.00 0.00 0.00 0.00 0.00 0.00 0.00 0.00 0.00 0.00 0.00 0.00 0.00 0.00 0.00 0.00 0.00 0.00 0.01 0.01 0.02 0.02 0.04 0.13 0.21 0.32
0.00 0.00 0.00 0.00 0.00 0.00 0.00 0.00 0.00 0.00 0.00 0.00 0.00 0.00 0.00 0.00 0.00 0.00 0.00 0.00 0.00 0.00 0.00 0.00 0.00 0.00 0.00 0.00 0.00 0.00 0.00 0.00 0.00 0.00 0.00 0.00 0.00 0.00 0.04 0.10 0.15 0.31 0.40
0.01 0.00 0.00 0.00 0.00 0.00 0.00 0.00 0.00 0.00 0.00 0.00 0.00 0.00 0.00 0.00 0.00 0.00 0.00 0.00 0.00 0.00 0.00 0.00 0.00 0.00 0.00 0.00 0.00 0.00 0.00 0.00 0.00 0.00 0.00 0.00 0.00 0.00 0.04 0.10 0.18 0.33 0.63
0.01 0.01 0.00 0.00 0.00 0.00 0.00 0.00 0.00 0.00 0.00 0.00 0.00 0.00 0.00 0.00 0.00 0.00 0.00 0.00 0.00 0.00 0.00 0.00 0.00 0.00 0.00 0.00 0.00 0.00 0.00 0.00 0.00 0.00 0.00 0.00 0.00 0.01 0.03 0.08 0.16 0.32 0.60
0.01 0.01 0.00 0.00 0.00 0.00 0.00 0.00 0.00 0.00 0.00 0.00 0.00 0.00 0.00 0.00 0.00 0.00 0.00 0.00 0.00 0.00 0.00 0.00 0.00 0.00 0.00 0.00 0.00 0.00 0.00 0.00 0.00 0.00 0.00 0.01 0.02 0.03 0.06 0.13 0.39 0.34 0.21
0.00 0.00 0.00 0.00 0.00 0.00 0.00 0.00 0.00 0.00 0.00 0.00 0.00 0.00 0.00 0.00 0.00 0.00 0.00 0.00 0.00 0.00 0.00 0.00 0.00 0.00 0.00 0.00 0.00 0.00 0.00 0.00 0.00 0.00 0.01 0.05 0.03 0.03 0.13 0.36 0.40 0.19 0.13
0.00 0.00 0.00 0.00 0.00 0.00 0.00 0.00 0.00 0.00 0.00 0.00 0.00 0.00 0.00 0.00 0.00 0.00 0.00 0.00 0.00 0.00 0.00 0.00 0.00 0.00 0.00 0.00 0.00 0.00 0.01 0.01 0.00 0.02 0.02 0.03 0.04 0.10 0.36 0.26 0.23 0.26 0.17
0.00 0.00 0.00 0.00 0.00 0.00 0.00 0.00 0.00 0.00 0.00 0.00 0.00 0.00 0.00 0.00 0.00 0.00 0.00 0.00 0.00 0.00 0.00 0.00 0.00 0.00 0.00 0.00 0.00 0.00 0.02 0.03 0.14 0.11 0.03 0.03 0.14 0.34 0.20 0.15 0.19 0.22 0.27
0.00 0.00 0.00 0.00 0.00 0.00 0.00 0.00 0.00 0.00 0.00 0.00 0.00 0.00 0.00 0.00 0.00 0.00 0.00 0.00 0.00 0.00 0.00 0.00 0.00 0.00 0.00 0.00 0.00 0.01 0.03 0.07 0.10 0.05 0.02 0.09 0.23 0.08 0.05 0.09 0.18 0.32 0.31
0.00 0.00 0.00 0.00 0.00 0.00 0.00 0.00 0.00 0.00 0.00 0.00 0.00 0.00 0.00 0.00 0.00 0.00 0.00 0.00 0.00 0.00 0.00 0.00 0.00 0.00 0.00 0.00 0.00 0.00 0.07 0.09 0.07 0.05 0.16 0.15 0.03 0.03 0.04 0.10 0.17 0.16 0.15
0.00 0.00 0.00 0.00 0.00 0.00 0.00 0.00 0.00 0.00 0.00 0.00 0.00 0.00 0.00 0.00 0.00 0.00 0.00 0.00 0.00 0.00 0.00 0.00 0.00 0.00 0.00 0.00 0.00 0.03 0.05 0.04 0.08 0.17 0.14 0.02 0.03 0.05 0.06 0.08 0.07 0.07 0.17
0.00 0.00 0.00 0.00 0.00 0.00 0.00 0.00 0.00 0.00 0.00 0.00 0.00 0.00 0.00 0.00 0.00 0.00 0.00 0.00 0.00 0.00 0.00 0.00 0.01 0.01 0.01 0.01 0.04 0.06 0.05 0.09 0.16 0.07 0.01 0.01 0.02 0.02 0.02 0.04 0.06 0.11 0.24
0.00 0.00 0.00 0.00 0.00 0.00 0.00 0.00 0.00 0.00 0.00 0.00 0.00 0.00 0.00 0.00 0.00 0.00 0.00 0.00 0.00 0.00 0.00 0.00 0.01 0.01 0.02 0.03 0.05 0.05 0.12 0.15 0.07 0.05 0.03 0.04 0.05 0.08 0.09 0.11 0.15 0.20 0.31

GFSMW_prec_precacc_051.txt.gz
Total_Precipitation_Accumulation
0.00 0.00 0.00 0.00 0.00 0.00 0.00 0.00 0.00 0.00 0.00 0.00 0.00 0.00 0.02 0.07 0.17 0.24 0.21 0.13 0.06 0.02 0.01 0.00 0.00 0.00 0.00 0.00 0.00 0.00 0.00 0.00 0.00 0.00 0.00 0.00 0.00 0.00 0.00 0.00 0.00 0.00 0.00
0.00 0.00 0.00 0.00 0.00 0.00 0.00 0.00 0.00 0.00 0.00 0.00 0.00 0.00 0.10 0.16 0.28 0.27 0.19 0.17 0.18 0.10 0.04 0.01 0.00 0.00 0.00 0.00 0.00 0.00 0.00 0.00 0.00 0.01 0.02 0.02 0.00 0.00 0.00 0.00 0.00 0.00 0.00
0.00 0.00 0.00 0.00 0.00 0.00 0.00 0.00 0.00 0.00 0.00 0.00 0.00 0.02 0.10 0.11 0.10 0.09 0.10 0.09 0.10 0.08 0.04 0.01 0.01 0.00 0.00 0.00 0.00 0.00 0.00 0.01 0.01 0.00 0.04 0.07 0.03 0.02 0.00 0.00 0.00 0.00 0.00
0.00 0.00 0.00 0.00 0.00 0.00 0.00 0.00 0.00 0.00 0.00 0.00 0.00 0.01 0.07 0.10 0.08 0.10 0.08 0.08 0.06 0.04 0.02 0.00 0.00 0.00 0.00 0.00 0.00 0.00 0.01 0.02 0.03 0.02 0.01 0.04 0.06 0.09 0.06 0.01 0.01 0.01 0.01
0.00 0.00 0.00 0.00 0.00 0.00 0.00 0.00 0.00 0.00 0.00 0.00 0.00 0.00 0.06 0.09 0.06 0.04 0.04 0.04 0.03 0.02 0.02 0.01 0.00 0.00 0.00 0.00 0.00 0.01 0.02 0.03 0.03 0.03 0.04 0.04 0.05 0.07 0.11 0.10 0.02 0.01 0.01
0.00 0.00 0.00 0.00 0.00 0.00 0.00 0.00 0.00 0.00 0.00 0.00 0.00 0.01 0.03 0.06 0.05 0.04 0.04 0.04 0.03 0.02 0.01 0.00 0.00 0.00 0.00 0.00 0.01 0.02 0.03 0.03 0.06 0.08 0.08 0.11 0.16 0.14 0.17 0.15 0.07 0.05 0.02
0.00 0.00 0.00 0.00 0.00 0.00 0.00 0.00 0.00 0.00 0.00 0.00 0.00 0.00 0.00 0.01 0.03 0.03 0.04 0.03 0.02 0.01 0.00 0.00 0.00 0.00 0.00 0.00 0.01 0.03 0.03 0.04 0.08 0.12 0.14 0.13 0.14 0.14 0.18 0.24 0.17 0.15 0.09
0.00 0.00 0.00 0.00 0.00 0.00 0.00 0.00 0.00 0.00 0.00 0.00 0.00 0.00 0.00 0.00 0.01 0.01 0.00 0.00 0.00 0.00 0.00 0.00 0.00 0.00 0.00 0.00 0.01 0.03 0.04 0.06 0.09 0.11 0.12 0.15 0.14 0.15 0.20 0.26 0.29 0.21 0.11
0.00 0.00 0.00 0.00 0.00 0.00 0.00 0.00 0.00 0.00 0.00 0.00 0.00 0.00 0.00 0.00 0.00 0.00 0.00 0.00 0.00 0.00 0.00 0.00 0.00 0.00 0.00 0.00 0.00 0.01 0.02 0.04 0.08 0.09 0.12 0.15 0.15 0.18 0.18 0.23 0.28 0.37 0.27
0.00 0.00 0.00 0.00 0.00 0.00 0.00 0.00 0.00 0.00 0.00 0.00 0.00 0.00 0.00 0.00 0.00 0.00 0.00 0.00 0.00 0.00 0.00 0.00 0.00 0.00 0.00 0.00 0.00 0.00 0.01 0.02 0.04 0.07 0.09 0.10 0.13 0.16 0.17 0.18 0.17 0.23 0.29
0.00 0.00 0.00 0.00 0.00 0.00 0.00 0.00 0.00 0.00 0.00 0.00 0.00 0.00 0.00 0.00 0.00 0.00 0.00 0.00 0.00 0.00 0.00 0.00 0.00 0.00 0.00 0.00 0.00 0.00 0.00 0.00 0.02 0.04 0.08 0.09 0.11 0.11 0.10 0.10 0.11 0.15 0.22
0.00 0.00 0.00 0.00 0.00 0.00 0.00 0.00 0.00 0.00 0.00 0.00 0.00 0.00 0.00 0.00 0.00 0.00 0.00 0.00 0.00 0.00 0.00 0.00 0.00 0.00 0.00 0.00 0.00 0.00 0.00 0.00 0.00 0.01 0.05 0.07 0.09 0.11 0.11 0.10 0.10 0.13 0.15
0.00 0.00 0.00 0.00 0.00 0.00 0.00 0.00 0.00 0.00 0.00 0.00 0.00 0.00 0.00 0.00 0.00 0.00 0.00 0.00 0.00 0.00 0.00 0.00 0.00 0.00 0.00 0.00 0.00 0.00 0.00 0.00 0.00 0.00 0.02 0.03 0.06 0.07 0.06 0.07 0.08 0.13 0.22
0.00 0.00 0.00 0.00 0.00 0.00 0.00 0.00 0.00 0.00 0.00 0.00 0.00 0.00 0.00 0.00 0.00 0.00 0.00 0.00 0.00 0.00 0.00 0.00 0.00 0.00 0.00 0.00 0.00 0.00 0.00 0.00 0.00 0.00 0.00 0.01 0.01 0.02 0.02 0.04 0.13 0.21 0.32
0.00 0.00 0.00 0.00 0.00 0.00 0.00 0.00 0.00 0.00 0.00 0.00 0.00 0.00 0.00 0.00 0.00 0.00 0.00 0.00 0.00 0.00 0.00 0.00 0.00 0.00 0.00 0.00 0.00 0.00 0.00 0.00 0.00 0.00 0.00 0.00 0.00 0.00 0.04 0.10 0.15 0.32 0.40
0.01 0.00 0.00 0.00 0.00 0.00 0.00 0.00 0.00 0.00 0.00 0.00 0.00 0.00 0.00 0.00 0.00 0.00 0.00 0.00 0.00 0.00 0.00 0.00 0.00 0.00 0.00 0.00 0.00 0.00 0.00 0.00 0.00 0.00 0.00 0.00 0.00 0.00 0.04 0.10 0.18 0.33 0.64
0.01 0.01 0.00 0.00 0.00 0.00 0.00 0.00 0.00 0.00 0.00 0.00 0.00 0.00 0.00 0.00 0.00 0.00 0.00 0.00 0.00 0.00 0.00 0.00 0.00 0.00 0.00 0.00 0.00 0.00 0.00 0.00 0.00 0.00 0.00 0.00 0.00 0.01 0.03 0.08 0.16 0.33 0.61
0.02 0.01 0.00 0.00 0.00 0.00 0.00 0.01 0.00 0.00 0.00 0.00 0.00 0.00 0.00 0.00 0.00 0.00 0.00 0.00 0.00 0.00 0.00 0.00 0.00 0.00 0.00 0.00 0.00 0.00 0.00 0.00 0.00 0.00 0.00 0.01 0.02 0.03 0.06 0.14 0.39 0.35 0.21
0.01 0.01 0.00 0.00 0.01 0.01 0.01 0.01 0.00 0.00 0.00 0.00 0.00 0.00 0.00 0.00 0.00 0.00 0.00 0.00 0.00 0.00 0.00 0.00 0.00 0.00 0.00 0.00 0.00 0.00 0.00 0.00 0.00 0.00 0.01 0.05 0.03 0.03 0.13 0.36 0.41 0.19 0.13
0.00 0.01 0.00 0.01 0.03 0.02 0.02 0.03 0.02 0.01 0.00 0.00 0.00 0.00 0.00 0.00 0.00 0.00 0.00 0.00 0.00 0.00 0.00 0.00 0.00 0.00 0.00 0.00 0.00 0.00 0.01 0.01 0.00 0.02 0.02 0.03 0.04 0.10 0.36 0.26 0.23 0.26 0.17
0.01 0.02 0.03 0.03 0.07 0.05 0.04 0.02 0.01 0.00 0.00 0.00 0.00 0.00 0.00 0.00 0.00 0.00 0.00 0.00 0.00 0.00 0.00 0.00 0.00 0.00 0.00 0.00 0.00 0.00 0.02 0.03 0.14 0.11 0.03 0.03 0.14 0.34 0.20 0.16 0.19 0.22 0.27
0.02 0.01 0.01 0.00 0.00 0.00 0.00 0.00 0.00 0.00 0.00 0.00 0.00 0.00 0.00 0.00 0.00 0.00 0.00 0.00 0.00 0.00 0.00 0.00 0.00 0.00 0.00 0.00 0.00 0.01 0.03 0.07 0.10 0.05 0.02 0.09 0.23 0.08 0.05 0.09 0.18 0.32 0.31
0.01 0.00 0.01 0.00 0.00 0.00 0.00 0.00 0.00 0.00 0.00 0.00 0.00 0.00 0.00 0.00 0.00 0.00 0.00 0.00 0.00 0.00 0.00 0.00 0.00 0.00 0.00 0.00 0.00 0.00 0.07 0.09 0.07 0.05 0.16 0.15 0.03 0.03 0.04 0.10 0.17 0.16 0.15
0.00 0.00 0.00 0.00 0.00 0.00 0.00 0.00 0.00 0.00 0.00 0.00 0.00 0.00 0.00 0.00 0.00 0.00 0.00 0.00 0.00 0.00 0.00 0.00 0.00 0.00 0.00 0.00 0.00 0.03 0.05 0.04 0.08 0.17 0.14 0.02 0.03 0.05 0.06 0.08 0.07 0.07 0.17
0.00 0.00 0.00 0.00 0.00 0.00 0.00 0.00 0.00 0.00 0.00 0.00 0.00 0.00 0.00 0.00 0.00 0.00 0.00 0.00 0.00 0.00 0.00 0.00 0.01 0.01 0.01 0.01 0.04 0.06 0.05 0.09 0.16 0.07 0.01 0.01 0.02 0.02 0.02 0.04 0.06 0.11 0.24
0.00 0.00 0.00 0.00 0.00 0.00 0.00 0.00 0.00 0.00 0.00 0.00 0.00 0.00 0.00 0.00 0.00 0.00 0.00 0.00 0.00 0.00 0.00 0.00 0.01 0.01 0.02 0.03 0.05 0.05 0.12 0.15 0.07 0.05 0.03 0.04 0.05 0.08 0.09 0.11 0.15 0.20 0.31

GFSMW_prec_precacc_054.txt.gz
Total_Precipitation_Accumulation
0.00 0.00 0.00 0.00 0.00 0.00 0.00 0.00 0.00 0.00 0.00 0.00 0.00 0.01 0.03 0.07 0.17 0.25 0.22 0.16 0.07 0.03 0.01 0.00 0.00 0.00 0.00 0.00 0.00 0.00 0.00 0.00 0.00 0.00 0.00 0.00 0.00 0.00 0.00 0.00 0.00 0.00 0.00
0.00 0.00 0.00 0.00 0.00 0.00 0.00 0.00 0.00 0.00 0.00 0.00 0.00 0.01 0.13 0.16 0.28 0.27 0.21 0.21 0.19 0.13 0.05 0.02 0.01 0.00 0.00 0.00 0.00 0.00 0.00 0.00 0.00 0.01 0.02 0.02 0.00 0.00 0.00 0.00 0.00 0.00 0.00
0.00 0.00 0.00 0.00 0.00 0.00 0.00 0.00 0.00 0.00 0.00 0.00 0.00 0.02 0.10 0.11 0.11 0.11 0.11 0.11 0.12 0.12 0.08 0.04 0.02 0.02 0.02 0.01 0.00 0.00 0.00 0.01 0.01 0.00 0.04 0.07 0.03 0.02 0.00 0.00 0.00 0.00 0.00
0.00 0.00 0.00 0.00 0.00 0.00 0.00 0.00 0.00 0.00 0.00 0.00 0.00 0.01 0.07 0.10 0.11 0.13 0.09 0.09 0.06 0.05 0.03 0.03 0.02 0.01 0.00 0.00 0.00 0.00 0.01 0.02 0.03 0.02 0.01 0.04 0.06 0.09 0.06 0.01 0.01 0.01 0.01
0.00 0.00 0.00 0.00 0.00 0.00 0.00 0.00 0.00 0.00 0.00 0.00 0.00 0.00 0.06 0.10 0.07 0.04 0.04 0.05 0.04 0.03 0.02 0.01 0.01 0.00 0.00 0.00 0.00 0.01 0.02 0.03 0.03 0.03 0.04 0.04 0.05 0.07 0.11 0.10 0.02 0.01 0.01
0.00 0.00 0.00 0.00 0.00 0.00 0.00 0.00 0.00 0.00 0.00 0.00 0.00 0.01 0.03 0.06 0.05 0.04 0.04 0.04 0.04 0.03 0.01 0.01 0.01 0.00 0.00 0.00 0.01 0.02 0.03 0.03 0.06 0.08 0.08 0.11 0.16 0.14 0.17 0.15 0.07 0.05 0.02
0.00 0.00 0.00 0.00 0.00 0.00 0.00 0.00 0.00 0.00 0.00 0.00 0.00 0.00 0.00 0.01 0.03 0.03 0.04 0.03 0.03 0.02 0.01 0.01 0.01 0.01 0.00 0.00 0.01 0.03 0.03 0.04 0.08 0.12 0.14 0.13 0.14 0.14 0.18 0.24 0.17 0.15 0.09
0.00 0.00 0.00 0.00 0.00 0.00 0.00 0.00 0.00 0.00 0.00 0.00 0.00 0.00 0.00 0.00 0.01 0.01 0.00 0.01 0.01 0.00 0.00 0.00 0.00 0.00 0.00 0.00 0.01 0.03 0.04 0.06 0.09 0.11 0.12 0.15 0.14 0.15 0.20 0.26 0.29 0.21 0.11
0.00 0.00 0.00 0.00 0.00 0.00 0.00 0.00 0.00 0.00 0.00 0.00 0.00 0.00 0.00 0.00 0.00 0.00 0.00 0.00 0.00 0.00 0.00 0.00 0.00 0.00 0.00 0.00 0.00 0.01 0.02 0.04 0.08 0.09 0.12 0.15 0.15 0.18 0.18 0.23 0.28 0.37 0.27
0.00 0.00 0.00 0.00 0.00 0.00 0.00 0.00 0.00 0.00 0.00 0.00 0.00 0.00 0.00 0.00 0.01 0.00 0.00 0.00 0.00 0.00 0.00 0.00 0.00 0.00 0.00 0.00 0.00 0.00 0.01 0.02 0.04 0.07 0.09 0.10 0.13 0.16 0.17 0.18 0.17 0.23 0.29
0.00 0.00 0.00 0.00 0.00 0.00 0.00 0.00 0.00 0.00 0.00 0.00 0.00 0.00 0.00 0.00 0.00 0.00 0.00 0.00 0.00 0.00 0.00 0.00 0.00 0.00 0.00 0.00 0.00 0.00 0.00 0.00 0.02 0.04 0.08 0.09 0.11 0.11 0.10 0.10 0.11 0.15 0.22
0.00 0.00 0.00 0.00 0.00 0.00 0.00 0.00 0.00 0.00 0.00 0.00 0.00 0.00 0.00 0.00 0.00 0.00 0.00 0.00 0.00 0.00 0.00 0.00 0.00 0.00 0.00 0.00 0.00 0.00 0.00 0.00 0.00 0.01 0.05 0.07 0.09 0.11 0.11 0.10 0.10 0.13 0.15
0.00 0.00 0.00 0.00 0.00 0.00 0.00 0.00 0.00 0.00 0.00 0.00 0.00 0.00 0.00 0.00 0.00 0.00 0.00 0.00 0.00 0.00 0.00 0.00 0.00 0.00 0.00 0.00 0.00 0.00 0.00 0.00 0.00 0.00 0.02 0.03 0.06 0.07 0.06 0.07 0.08 0.13 0.22
0.00 0.00 0.02 0.01 0.00 0.00 0.01 0.01 0.00 0.00 0.00 0.00 0.00 0.00 0.00 0.00 0.00 0.00 0.00 0.00 0.00 0.00 0.00 0.00 0.00 0.00 0.00 0.00 0.00 0.00 0.00 0.00 0.00 0.00 0.00 0.01 0.01 0.02 0.02 0.04 0.13 0.21 0.32
0.00 0.00 0.14 0.14 0.03 0.02 0.01 0.00 0.00 0.00 0.00 0.00 0.01 0.01 0.00 0.00 0.00 0.00 0.00 0.00 0.00 0.00 0.00 0.00 0.00 0.00 0.00 0.00 0.00 0.00 0.00 0.00 0.00 0.00 0.00 0.00 0.00 0.00 0.04 0.10 0.15 0.32 0.40
0.01 0.00 0.02 0.10 0.03 0.00 0.00 0.00 0.00 0.00 0.00 0.01 0.02 0.02 0.01 0.00 0.00 0.00 0.00 0.00 0.00 0.00 0.00 0.00 0.00 0.00 0.00 0.00 0.00 0.00 0.00 0.00 0.00 0.00 0.00 0.00 0.00 0.00 0.04 0.10 0.18 0.33 0.64
0.01 0.01 0.00 0.00 0.00 0.00 0.00 0.00 0.00 0.00 0.01 0.01 0.01 0.01 0.01 0.00 0.00 0.00 0.00 0.00 0.00 0.00 0.00 0.00 0.00 0.00 0.00 0.00 0.00 0.00 0.00 0.00 0.00 0.00 0.00 0.00 0.00 0.01 0.03 0.08 0.16 0.33 0.61
0.02 0.01 0.00 0.00 0.00 0.00 0.00 0.01 0.01 0.01 0.01 0.01 0.02 0.01 0.00 0.00 0.00 0.00 0.00 0.00 0.00 0.00 0.00 0.00 0.00 0.00 0.00 0.00 0.00 0.00 0.00 0.00 0.00 0.00 0.00 0.01 0.02 0.03 0.06 0.14 0.39 0.35 0.21
0.01 0.01 0.00 0.00 0.01 0.01 0.01 0.02 0.01 0.01 0.01 0.01 0.00 0.00 0.00 0.00 0.00 0.00 0.00 0.00 0.00 0.00 0.00 0.00 0.00 0.00 0.00 0.00 0.00 0.00 0.00 0.00 0.00 0.00 0.01 0.05 0.03 0.03 0.13 0.36 0.41 0.19 0.13
0.02 0.01 0.00 0.01 0.03 0.03 0.03 0.05 0.04 0.04 0.08 0.03 0.00 0.00 0.00 0.00 0.00 0.00 0.00 0.00 0.00 0.00 0.00 0.00 0.00 0.00 0.00 0.00 0.00 0.00 0.01 0.01 0.00 0.02 0.02 0.03 0.04 0.10 0.36 0.27 0.24 0.26 0.17
0.12 0.07 0.07 0.08 0.17 0.15 0.20 0.24 0.15 0.09 0.06 0.03 0.01 0.00 0.00 0.00 0.00 0.00 0.00 0.00 0.00 0.00 0.00 0.00 0.00 0.00 0.00 0.00 0.00 0.00 0.02 0.03 0.14 0.11 0.03 0.03 0.14 0.35 0.21 0.16 0.19 0.22 0.27
0.17 0.32 0.25 0.25 0.38 0.33 0.34 0.25 0.13 0.06 0.02 0.01 0.00 0.00 0.00 0.00 0.00 0.00 0.00 0.00 0.00 0.00 0.00 0.00 0.00 0.00 0.00 0.00 0.00 0.01 0.03 0.07 0.10 0.05 0.02 0.09 0.23 0.08 0.05 0.09 0.18 0.32 0.31
0.01 0.02 0.03 0.04 0.05 0.06 0.03 0.01 0.00 0.00 0.00 0.00 0.00 0.00 0.00 0.00 0.00 0.00 0.00 0.00 0.00 0.00 0.00 0.00 0.00 0.00 0.00 0.00 0.00 0.00 0.07 0.09 0.07 0.05 0.16 0.15 0.03 0.03 0.04 0.10 0.17 0.16 0.15
0.00 0.00 0.00 0.00 0.00 0.00 0.00 0.00 0.00 0.00 0.00 0.00 0.00 0.00 0.00 0.00 0.00 0.00 0.00 0.00 0.00 0.00 0.00 0.00 0.00 0.00 0.00 0.00 0.00 0.03 0.05 0.04 0.08 0.17 0.14 0.02 0.03 0.05 0.06 0.08 0.07 0.07 0.17
0.00 0.00 0.00 0.00 0.00 0.00 0.00 0.00 0.00 0.00 0.00 0.00 0.00 0.00 0.00 0.00 0.00 0.00 0.00 0.00 0.00 0.00 0.00 0.00 0.01 0.01 0.01 0.01 0.04 0.06 0.05 0.09 0.16 0.07 0.01 0.01 0.02 0.02 0.02 0.04 0.06 0.11 0.24
0.00 0.00 0.00 0.00 0.00 0.00 0.00 0.00 0.00 0.00 0.00 0.00 0.00 0.00 0.00 0.00 0.00 0.00 0.00 0.00 0.00 0.00 0.00 0.00 0.01 0.01 0.02 0.03 0.05 0.05 0.12 0.16 0.07 0.05 0.03 0.04 0.05 0.08 0.09 0.11 0.15 0.20 0.32

GFSMW_prec_precacc_060.txt.gz
Total_Precipitation_Accumulation
0.00 0.00 0.00 0.00 0.00 0.00 0.00 0.00 0.00 0.01 0.06 0.05 0.03 0.12 0.15 0.13 0.18 0.26 0.23 0.16 0.07 0.03 0.01 0.00 0.00 0.00 0.00 0.00 0.00 0.00 0.00 0.00 0.00 0.00 0.00 0.00 0.00 0.00 0.00 0.00 0.00 0.00 0.00
0.00 0.00 0.00 0.00 0.00 0.00 0.00 0.00 0.00 0.00 0.00 0.01 0.04 0.12 0.34 0.33 0.45 0.35 0.22 0.22 0.22 0.21 0.06 0.02 0.01 0.00 0.00 0.00 0.00 0.00 0.00 0.00 0.00 0.01 0.02 0.02 0.00 0.00 0.00 0.00 0.00 0.00 0.00
0.00 0.00 0.00 0.00 0.00 0.00 0.00 0.00 0.00 0.00 0.00 0.01 0.03 0.10 0.28 0.28 0.24 0.19 0.15 0.13 0.15 0.26 0.14 0.05 0.04 0.05 0.05 0.02 0.01 0.01 0.01 0.02 0.01 0.00 0.04 0.07 0.03 0.02 0.00 0.00 0.00 0.00 0.00
0.00 0.00 0.00 0.00 0.00 0.00 0.00 0.00 0.00 0.00 0.00 0.00 0.01 0.02 0.11 0.17 0.16 0.22 0.26 0.20 0.16 0.19 0.14 0.10 0.07 0.06 0.04 0.03 0.02 0.01 0.02 0.02 0.03 0.02 0.01 0.04 0.06 0.09 0.06 0.01 0.01 0.01 0.01
0.00 0.00 0.00 0.00 0.00 0.00 0.00 0.00 0.00 0.00 0.00 0.00 0.00 0.01 0.13 0.16 0.17 0.18 0.16 0.18 0.18 0.13 0.13 0.11 0.06 0.05 0.04 0.02 0.02 0.02 0.03 0.03 0.03 0.03 0.04 0.04 0.05 0.07 0.11 0.10 0.02 0.01 0.01
0.00 0.00 0.00 0.00 0.00 0.00 0.00 0.00 0.00 0.00 0.00 0.00 0.00 0.01 0.04 0.11 0.13 0.09 0.09 0.15 0.15 0.10 0.07 0.06 0.06 0.04 0.03 0.02 0.02 0.03 0.03 0.03 0.06 0.08 0.08 0.11 0.16 0.14 0.17 0.15 0.07 0.05 0.02
0.00 0.00 0.00 0.00 0.00 0.00 0.00 0.00 0.00 0.00 0.00 0.00 0.01 0.01 0.01 0.05 0.07 0.08 0.09 0.11 0.11 0.09 0.06 0.06 0.04 0.03 0.02 0.02 0.02 0.04 0.04 0.04 0.08 0.12 0.14 0.13 0.14 0.14 0.18 0.24 0.17 0.15 0.09
0.00 0.00 0.00 0.00 0.00 0.00 0.00 0.00 0.00 0.00 0.00 0.00 0.00 0.00 0.03 0.04 0.06 0.06 0.07 0.06 0.08 0.08 0.06 0.05 0.04 0.02 0.01 0.01 0.01 0.03 0.04 0.06 0.09 0.11 0.12 0.15 0.14 0.15 0.20 0.26 0.29 0.21 0.11
0.00 0.00 0.00 0.00 0.00 0.00 0.00 0.00 0.00 0.00 0.00 0.03 0.02 0.01 0.02 0.04 0.06 0.09 0.09 0.07 0.06 0.07 0.05 0.05 0.03 0.01 0.01 0.01 0.01 0.01 0.02 0.04 0.08 0.09 0.12 0.15 0.15 0.18 0.18 0.23 0.28 0.37 0.27
0.00 0.00 0.00 0.00 0.00 0.00 0.00 0.00 0.00 0.00 0.01 0.01 0.00 0.01 0.03 0.05 0.06 0.05 0.06 0.07 0.06 0.04 0.05 0.03 0.01 0.01 0.01 0.00 0.00 0.01 0.01 0.02 0.04 0.07 0.09 0.10 0.13 0.16 0.17 0.18 0.17 0.23 0.29
0.00 0.00 0.00 0.00 0.00 0.00 0.00 0.00 0.00 0.00 0.01 0.00 0.00 0.02 0.03 0.04 0.06 0.04 0.03 0.02 0.02 0.02 0.01 0.00 0.00 0.00 0.00 0.00 0.00 0.00 0.00 0.00 0.02 0.04 0.08 0.09 0.11 0.11 0.10 0.10 0.11 0.15 0.22
0.00 0.00 0.00 0.00 0.00 0.00 0.00 0.00 0.00 0.00 0.00 0.00 0.00 0.01 0.02 0.04 0.04 0.03 0.02 0.01 0.01 0.01 0.00 0.00 0.00 0.00 0.00 0.00 0.00 0.00 0.00 0.00 0.00 0.01 0.05 0.07 0.09 0.11 0.11 0.10 0.10 0.13 0.15
0.00 0.00 0.00 0.00 0.00 0.00 0.00 0.00 0.01 0.00 0.00 0.00 0.00 0.00 0.00 0.00 0.00 0.00 0.00 0.00 0.01 0.00 0.01 0.00 0.00 0.00 0.00 0.00 0.00 0.00 0.00 0.00 0.00 0.00 0.02 0.03 0.06 0.07 0.06 0.07 0.08 0.13 0.22
0.00 0.00 0.02 0.01 0.00 0.00 0.01 0.02 0.01 0.01 0.01 0.01 0.01 0.01 0.01 0.01 0.00 0.00 0.00 0.01 0.02 0.01 0.00 0.00 0.00 0.00 0.00 0.00 0.00 0.00 0.00 0.00 0.00 0.00 0.00 0.01 0.01 0.02 0.02 0.04 0.13 0.21 0.32
0.00 0.00 0.14 0.18 0.03 0.02 0.01 0.01 0.02 0.03 0.03 0.03 0.02 0.02 0.01 0.01 0.01 0.01 0.01 0.01 0.01 0.00 0.01 0.01 0.00 0.00 0.00 0.00 0.00 0.00 0.00 0.00 0.00 0.00 0.00 0.00 0.00 0.00 0.04 0.10 0.15 0.32 0.40
0.01 0.00 0.02 0.20 0.16 0.02 0.01 0.03 0.03 0.04 0.07 0.06 0.04 0.03 0.02 0.02 0.01 0.02 0.01 0.01 0.01 0.02 0.03 0.03 0.04 0.02 0.01 0.00 0.00 0.00 0.00 0.00 0.00 0.00 0.00 0.00 0.00 0.00 0.04 0.10 0.18 0.33 0.64
0.01 0.01 0.00 0.00 0.04 0.17 0.12 0.12 0.13 0.18 0.15 0.09 0.04 0.02 0.03 0.06 0.05 0.05 0.03 0.03 0.04 0.05 0.08 0.06 0.03 0.01 0.00 0.00 0.00 0.00 0.00 0.00 0.00 0.00 0.00 0.00 0.00 0.01 0.03 0.08 0.16 0.33 0.61
0.02 0.01 0.00 0.00 0.00 0.00 0.01 0.02 0.03 0.04 0.04 0.02 0.04 0.03 0.09 0.23 0.27 0.17 0.21 0.08 0.08 0.08 0.04 0.01 0.00 0.00 0.00 0.00 0.00 0.00 0.00 0.00 0.00 0.00 0.00 0.01 0.02 0.03 0.06 0.14 0.39 0.35 0.21
0.01 0.01 0.00 0.00 0.01 0.01 0.01 0.02 0.02 0.02 0.02 0.01 0.02 0.07 0.35 0.44 0.36 0.18 0.27 0.16 0.08 0.04 0.01 0.00 0.00 0.00 0.00 0.00 0.00 0.00 0.00 0.00 0.00 0.00 0.01 0.05 0.03 0.03 0.13 0.37 0.41 0.19 0.13
0.02 0.01 0.00 0.01 0.03 0.03 0.03 0.05 0.04 0.05 0.12 0.09 0.06 0.26 0.63 0.42 0.22 0.05 0.02 0.03 0.02 0.01 0.00 0.00 0.00 0.00 0.00 0.00 0.00 0.00 0.01 0.01 0.00 0.02 0.02 0.03 0.04 0.10 0.36 0.27 0.24 0.26 0.17
0.15 0.08 0.07 0.08 0.18 0.15 0.21 0.27 0.22 0.35 0.44 0.26 0.18 0.27 0.29 0.22 0.07 0.02 0.01 0.01 0.00 0.00 0.00 0.00 0.00 0.00 0.00 0.00 0.00 0.00 0.02 0.03 0.14 0.11 0.03 0.03 0.14 0.35 0.21 0.16 0.19 0.22 0.27
0.35 0.50 0.30 0.37 0.54 0.56 0.74 0.74 0.68 0.65 0.54 0.35 0.24 0.17 0.10 0.06 0.05 0.02 0.01 0.01 0.00 0.00 0.00 0.00 0.00 0.00 0.00 0.00 0.00 0.01 0.03 0.07 0.10 0.05 0.02 0.09 0.23 0.09 0.05 0.09 0.18 0.32 0.31
0.03 0.18 0.11 0.17 0.23 0.30 0.35 0.47 0.38 0.30 0.28 0.19 0.13 0.09 0.07 0.06 0.03 0.01 0.01 0.00 0.00 0.00 0.00 0.00 0.00 0.00 0.00 0.00 0.00 0.00 0.07 0.09 0.07 0.05 0.16 0.15 0.03 0.03 0.04 0.10 0.17 0.16 0.15
0.01 0.01 0.02 0.01 0.03 0.04 0.07 0.09 0.03 0.03 0.04 0.05 0.04 0.02 0.01 0.00 0.00 0.00 0.00 0.00 0.00 0.00 0.00 0.00 0.00 0.00 0.00 0.00 0.00 0.03 0.05 0.04 0.08 0.17 0.14 0.02 0.03 0.05 0.06 0.08 0.07 0.07 0.17
0.00 0.01 0.00 0.00 0.00 0.00 0.00 0.00 0.00 0.00 0.00 0.00 0.00 0.00 0.00 0.00 0.00 0.00 0.00 0.00 0.00 0.00 0.00 0.00 0.01 0.01 0.01 0.01 0.04 0.06 0.05 0.09 0.16 0.07 0.01 0.01 0.02 0.02 0.02 0.04 0.06 0.11 0.24
0.00 0.00 0.00 0.00 0.00 0.00 0.00 0.00 0.00 0.00 0.00 0.00 0.00 0.00 0.00 0.00 0.00 0.00 0.00 0.00 0.00 0.00 0.00 0.00 0.01 0.01 0.02 0.03 0.05 0.05 0.12 0.16 0.07 0.05 0.03 0.04 0.05 0.08 0.09 0.11 0.15 0.20 0.32

GFSMW_prec_precacc_063.txt.gz
Total_Precipitation_Accumulation
0.00 0.00 0.00 0.00 0.00 0.00 0.00 0.00 0.00 0.01 0.07 0.06 0.04 0.16 0.21 0.18 0.20 0.27 0.24 0.19 0.08 0.04 0.02 0.00 0.00 0.00 0.00 0.00 0.00 0.00 0.00 0.00 0.00 0.00 0.00 0.00 0.00 0.00 0.00 0.00 0.00 0.00 0.00
0.00 0.00 0.00 0.00 0.00 0.00 0.00 0.00 0.00 0.00 0.00 0.01 0.04 0.14 0.41 0.39 0.48 0.42 0.27 0.23 0.22 0.25 0.09 0.03 0.01 0.00 0.00 0.00 0.00 0.00 0.00 0.00 0.00 0.01 0.02 0.02 0.00 0.00 0.00 0.00 0.00 0.00 0.00
0.00 0.00 0.00 0.00 0.00 0.00 0.00 0.00 0.00 0.00 0.00 0.01 0.06 0.13 0.32 0.34 0.29 0.22 0.16 0.13 0.20 0.38 0.21 0.06 0.05 0.05 0.07 0.07 0.03 0.02 0.02 0.03 0.01 0.00 0.04 0.07 0.03 0.02 0.00 0.00 0.00 0.00 0.00
0.00 0.00 0.00 0.00 0.00 0.00 0.00 0.00 0.00 0.00 0.00 0.00 0.02 0.03 0.11 0.17 0.16 0.23 0.30 0.22 0.22 0.35 0.24 0.14 0.10 0.09 0.10 0.11 0.09 0.04 0.02 0.03 0.04 0.03 0.01 0.04 0.06 0.09 0.06 0.01 0.01 0.01 0.01
0.00 0.00 0.00 0.00 0.00 0.00 0.00 0.00 0.00 0.00 0.00 0.00 0.00 0.02 0.14 0.16 0.18 0.21 0.20 0.21 0.24 0.24 0.24 0.19 0.10 0.11 0.15 0.10 0.08 0.07 0.04 0.03 0.04 0.04 0.04 0.04 0.05 0.07 0.11 0.10 0.02 0.01 0.01
0.00 0.00 0.00 0.00 0.00 0.00 0.00 0.00 0.00 0.00 0.00 0.00 0.00 0.01 0.04 0.13 0.18 0.14 0.13 0.17 0.18 0.15 0.13 0.14 0.15 0.10 0.09 0.08 0.07 0.06 0.04 0.03 0.06 0.08 0.08 0.11 0.16 0.14 0.17 0.15 0.07 0.05 0.02
0.00 0.00 0.00 0.00 0.00 0.00 0.00 0.00 0.00 0.00 0.00 0.00 0.01 0.01 0.01 0.05 0.08 0.09 0.10 0.12 0.12 0.10 0.08 0.12 0.12 0.10 0.07 0.06 0.05 0.04 0.04 0.04 0.08 0.12 0.14 0.13 0.14 0.14 0.18 0.24 0.17 0.15 0.09
0.00 0.00 0.00 0.00 0.00 0.00 0.00 0.00 0.00 0.00 0.00 0.00 0.00 0.00 0.03 0.04 0.06 0.08 0.08 0.08 0.09 0.11 0.09 0.09 0.09 0.07 0.06 0.04 0.03 0.04 0.04 0.06 0.09 0.11 0.12 0.15 0.14 0.15 0.20 0.26 0.29 0.21 0.11
0.00 0.00 0.00 0.00 0.00 0.00 0.00 0.00 0.00 0.00 0.00 0.03 0.02 0.01 0.02 0.04 0.06 0.09 0.11 0.10 0.10 0.11 0.09 0.10 0.08 0.06 0.03 0.02 0.01 0.02 0.02 0.04 0.08 0.09 0.12 0.15 0.15 0.18 0.18 0.23 0.28 0.37 0.27
0.00 0.00 0.00 0.00 0.00 0.00 0.00 0.00 0.00 0.00 0.01 0.01 0.00 0.01 0.03 0.05 0.06 0.06 0.07 0.09 0.10 0.08 0.09 0.07 0.04 0.02 0.01 0.01 0.01 0.01 0.01 0.02 0.04 0.07 0.09 0.10 0.13 0.16 0.17 0.18 0.17 0.23 0.29
0.00 0.00 0.00 0.00 0.00 0.00 0.00 0.00 0.00 0.00 0.01 0.00 0.00 0.02 0.03 0.04 0.06 0.04 0.04 0.05 0.05 0.05 0.04 0.03 0.01 0.00 0.00 0.00 0.00 0.00 0.00 0.00 0.02 0.04 0.08 0.09 0.11 0.11 0.10 0.10 0.11 0.15 0.22
0.00 0.00 0.00 0.00 0.00 0.00 0.00 0.00 0.00 0.00 0.00 0.00 0.00 0.01 0.02 0.04 0.05 0.05 0.03 0.02 0.02 0.01 0.01 0.00 0.01 0.01 0.00 0.00 0.00 0.00 0.00 0.00 0.00 0.01 0.05 0.07 0.09 0.11 0.11 0.10 0.10 0.13 0.15
0.00 0.00 0.00 0.00 0.00 0.00 0.00 0.00 0.01 0.00 0.00 0.00 0.00 0.00 0.00 0.00 0.01 0.01 0.02 0.02 0.02 0.01 0.01 0.01 0.01 0.00 0.00 0.00 0.00 0.00 0.00 0.01 0.01 0.01 0.02 0.03 0.06 0.07 0.06 0.07 0.08 0.13 0.22
0.00 0.00 0.02 0.01 0.00 0.00 0.01 0.02 0.01 0.01 0.01 0.01 0.01 0.01 0.02 0.02 0.01 0.01 0.01 0.01 0.02 0.01 0.00 0.00 0.00 0.00 0.00 0.00 0.01 0.02 0.04 0.03 0.01 0.00 0.00 0.01 0.01 0.02 0.02 0.04 0.13 0.21 0.32
0.00 0.00 0.14 0.18 0.03 0.02 0.01 0.01 0.02 0.03 0.03 0.03 0.03 0.04 0.03 0.02 0.02 0.01 0.01 0.01 0.01 0.00 0.01 0.01 0.00 0.01 0.01 0.01 0.02 0.02 0.02 0.00 0.01 0.01 0.01 0.00 0.00 0.00 0.04 0.10 0.15 0.32 0.40
0.01 0.00 0.02 0.20 0.16 0.02 0.01 0.03 0.03 0.04 0.07 0.06 0.05 0.03 0.02 0.02 0.01 0.02 0.01 0.01 0.01 0.03 0.03 0.04 0.06 0.08 0.10 0.14 0.10 0.03 0.01 0.00 0.01 0.01 0.00 0.00 0.00 0.00 0.04 0.10 0.18 0.33 0.64
0.01 0.01 0.00 0.00 0.04 0.17 0.12 0.12 0.14 0.21 0.19 0.12 0.07 0.04 0.03 0.07 0.06 0.06 0.05 0.05 0.05 0.07 0.10 0.14 0.14 0.10 0.08 0.07 0.04 0.02 0.01 0.01 0.00 0.00 0.00 0.00 0.00 0.01 0.03 0.08 0.16 0.33 0.61
0.02 0.01 0.00 0.00 0.00 0.00 0.01 0.02 0.04 0.07 0.19 0.19 0.22 0.13 0.13 0.26 0.30 0.26 0.30 0.14 0.15 0.15 0.17 0.19 0.21 0.16 0.09 0.03 0.01 0.00 0.00 0.00 0.00 0.00 0.00 0.01 0.02 0.03 0.06 0.14 0.39 0.35 0.21
0.01 0.01 0.00 0.00 0.01 0.01 0.01 0.02 0.03 0.05 0.03 0.07 0.10 0.14 0.38 0.51 0.47 0.30 0.47 0.43 0.29 0.28 0.23 0.17 0.11 0.04 0.00 0.00 0.00 0.00 0.00 0.00 0.00 0.00 0.01 0.05 0.03 0.03 0.13 0.37 0.41 0.19 0.13
0.02 0.01 0.00 0.01 0.03 0.03 0.03 0.05 0.04 0.05 0.12 0.09 0.06 0.27 0.69 0.56 0.44 0.22 0.37 0.43 0.28 0.14 0.08 0.04 0.02 0.00 0.00 0.00 0.00 0.00 0.01 0.01 0.00 0.02 0.02 0.03 0.04 0.10 0.36 0.27 0.24 0.26 0.17
0.15 0.08 0.07 0.08 0.18 0.15 0.21 0.27 0.22 0.35 0.44 0.27 0.22 0.41 0.47 0.45 0.34 0.19 0.13 0.07 0.04 0.02 0.01 0.00 0.00 0.00 0.00 0.00 0.00 0.00 0.02 0.03 0.14 0.11 0.03 0.03 0.14 0.35 0.21 0.16 0.19 0.22 0.27
0.35 0.50 0.30 0.37 0.54 0.56 0.74 0.74 0.68 0.66 0.57 0.41 0.35 0.30 0.22 0.20 0.18 0.06 0.02 0.01 0.01 0.00 0.00 0.00 0.00 0.00 0.00 0.00 0.00 0.01 0.03 0.07 0.10 0.05 0.02 0.09 0.23 0.09 0.05 0.09 0.18 0.32 0.31
0.03 0.18 0.11 0.17 0.23 0.30 0.35 0.48 0.40 0.33 0.32 0.22 0.16 0.11 0.09 0.07 0.04 0.02 0.01 0.00 0.00 0.00 0.00 0.00 0.00 0.00 0.00 0.00 0.00 0.00 0.07 0.09 0.07 0.05 0.16 0.15 0.03 0.03 0.04 0.10 0.17 0.16 0.15
0.01 0.01 0.02 0.01 0.03 0.05 0.08 0.10 0.03 0.04 0.06 0.06 0.05 0.04 0.02 0.00 0.00 0.00 0.00 0.00 0.00 0.00 0.00 0.00 0.00 0.00 0.00 0.00 0.00 0.03 0.05 0.04 0.08 0.17 0.14 0.02 0.03 0.05 0.06 0.08 0.07 0.07 0.17
0.00 0.01 0.00 0.00 0.00 0.00 0.00 0.00 0.00 0.00 0.00 0.00 0.00 0.00 0.00 0.00 0.00 0.00 0.00 0.00 0.00 0.00 0.00 0.00 0.01 0.01 0.01 0.01 0.04 0.06 0.05 0.09 0.16 0.07 0.01 0.01 0.02 0.02 0.02 0.04 0.06 0.11 0.24
0.00 0.00 0.00 0.00 0.00 0.00 0.00 0.00 0.00 0.00 0.00 0.00 0.00 0.00 0.00 0.00 0.00 0.00 0.00 0.00 0.00 0.00 0.00 0.00 0.01 0.01 0.02 0.03 0.05 0.05 0.12 0.16 0.07 0.05 0.03 0.04 0.05 0.08 0.09 0.11 0.15 0.20 0.32

GFSMW_prec_precacc_066.txt.gz
Total_Precipitation_Accumulation
0.00 0.00 0.00 0.00 0.00 0.00 0.00 0.00 0.00 0.01 0.07 0.06 0.04 0.17 0.21 0.19 0.21 0.32 0.26 0.19 0.08 0.05 0.03 0.00 0.00 0.00 0.00 0.00 0.00 0.00 0.00 0.00 0.00 0.00 0.00 0.00 0.00 0.00 0.00 0.00 0.00 0.00 0.00
0.00 0.00 0.00 0.00 0.00 0.00 0.00 0.00 0.00 0.00 0.00 0.01 0.04 0.14 0.42 0.40 0.49 0.50 0.30 0.24 0.26 0.30 0.12 0.03 0.01 0.00 0.00 0.00 0.00 0.00 0.00 0.00 0.00 0.01 0.02 0.02 0.00 0.00 0.00 0.00 0.00 0.00 0.00
0.00 0.00 0.00 0.00 0.00 0.00 0.00 0.00 0.00 0.00 0.00 0.01 0.06 0.13 0.32 0.34 0.29 0.23 0.16 0.13 0.30 0.50 0.25 0.09 0.06 0.05 0.07 0.07 0.03 0.05 0.05 0.04 0.02 0.01 0.04 0.07 0.03 0.02 0.00 0.00 0.00 0.00 0.00
0.00 0.00 0.00 0.00 0.00 0.00 0.00 0.00 0.00 0.00 0.00 0.00 0.02 0.03 0.11 0.17 0.16 0.23 0.31 0.25 0.31 0.47 0.30 0.17 0.12 0.10 0.12 0.13 0.15 0.12 0.11 0.09 0.06 0.04 0.02 0.04 0.06 0.09 0.06 0.01 0.01 0.01 0.01
0.00 0.00 0.00 0.00 0.00 0.00 0.00 0.00 0.00 0.00 0.00 0.00 0.00 0.02 0.14 0.17 0.18 0.21 0.20 0.23 0.26 0.28 0.28 0.22 0.13 0.13 0.19 0.15 0.13 0.11 0.09 0.07 0.06 0.05 0.05 0.05 0.05 0.07 0.11 0.10 0.02 0.01 0.01
0.00 0.00 0.00 0.00 0.00 0.00 0.00 0.00 0.00 0.00 0.00 0.00 0.00 0.01 0.04 0.13 0.18 0.15 0.16 0.20 0.20 0.16 0.16 0.17 0.19 0.14 0.12 0.12 0.09 0.08 0.06 0.05 0.07 0.09 0.09 0.12 0.16 0.14 0.17 0.15 0.07 0.05 0.02
0.00 0.00 0.00 0.00 0.00 0.00 0.00 0.00 0.00 0.00 0.00 0.00 0.01 0.01 0.01 0.05 0.09 0.10 0.11 0.14 0.14 0.11 0.09 0.15 0.16 0.15 0.13 0.10 0.07 0.07 0.05 0.05 0.09 0.13 0.14 0.13 0.14 0.14 0.18 0.24 0.17 0.15 0.09
0.00 0.00 0.00 0.00 0.00 0.00 0.00 0.00 0.00 0.00 0.00 0.00 0.00 0.00 0.03 0.04 0.07 0.08 0.08 0.10 0.13 0.14 0.14 0.13 0.14 0.12 0.12 0.09 0.06 0.06 0.05 0.07 0.10 0.11 0.12 0.15 0.14 0.15 0.20 0.26 0.29 0.21 0.11
0.00 0.00 0.00 0.00 0.00 0.00 0.00 0.00 0.00 0.00 0.00 0.03 0.02 0.01 0.02 0.04 0.06 0.09 0.11 0.11 0.11 0.13 0.16 0.16 0.14 0.11 0.07 0.05 0.03 0.03 0.03 0.05 0.08 0.09 0.12 0.15 0.15 0.18 0.18 0.23 0.28 0.37 0.27
0.00 0.00 0.00 0.00 0.00 0.00 0.00 0.00 0.00 0.00 0.01 0.01 0.00 0.01 0.03 0.05 0.06 0.06 0.07 0.09 0.11 0.09 0.12 0.11 0.09 0.06 0.04 0.02 0.01 0.01 0.01 0.02 0.04 0.07 0.09 0.10 0.13 0.16 0.17 0.18 0.17 0.23 0.29
0.00 0.00 0.00 0.00 0.00 0.00 0.00 0.00 0.00 0.00 0.01 0.00 0.00 0.02 0.03 0.04 0.06 0.04 0.04 0.05 0.05 0.05 0.05 0.05 0.05 0.04 0.02 0.01 0.00 0.00 0.00 0.00 0.02 0.04 0.08 0.09 0.11 0.11 0.10 0.10 0.11 0.15 0.22
0.00 0.00 0.00 0.00 0.00 0.00 0.00 0.00 0.00 0.00 0.00 0.00 0.00 0.01 0.02 0.04 0.05 0.05 0.03 0.03 0.03 0.02 0.01 0.01 0.01 0.01 0.01 0.01 0.01 0.02 0.02 0.02 0.01 0.01 0.05 0.07 0.09 0.11 0.11 0.10 0.10 0.13 0.15
0.00 0.00 0.00 0.00 0.00 0.00 0.00 0.00 0.01 0.00 0.00 0.00 0.00 0.00 0.00 0.00 0.01 0.01 0.02 0.03 0.03 0.01 0.01 0.01 0.01 0.00 0.00 0.00 0.00 0.01 0.02 0.03 0.03 0.03 0.06 0.06 0.08 0.09 0.07 0.07 0.08 0.13 0.22
0.00 0.00 0.02 0.01 0.00 0.00 0.01 0.02 0.01 0.01 0.01 0.01 0.01 0.01 0.02 0.02 0.01 0.01 0.01 0.02 0.02 0.02 0.01 0.01 0.00 0.00 0.00 0.00 0.01 0.02 0.05 0.06 0.05 0.05 0.06 0.06 0.04 0.03 0.02 0.04 0.13 0.21 0.32
0.00 0.00 0.14 0.18 0.03 0.02 0.01 0.01 0.02 0.03 0.03 0.03 0.03 0.04 0.03 0.02 0.02 0.01 0.01 0.01 0.01 0.00 0.01 0.01 0.01 0.01 0.01 0.03 0.04 0.06 0.08 0.06 0.06 0.05 0.04 0.04 0.02 0.01 0.04 0.10 0.15 0.32 0.40
0.01 0.00 0.02 0.20 0.16 0.02 0.01 0.03 0.03 0.04 0.07 0.06 0.05 0.03 0.02 0.02 0.02 0.02 0.01 0.01 0.02 0.03 0.04 0.05 0.06 0.09 0.12 0.19 0.18 0.13 0.10 0.09 0.07 0.06 0.04 0.02 0.01 0.01 0.04 0.10 0.18 0.33 0.64
0.01 0.01 0.00 0.00 0.04 0.17 0.12 0.12 0.14 0.21 0.19 0.12 0.07 0.04 0.04 0.10 0.08 0.07 0.05 0.05 0.05 0.07 0.11 0.15 0.16 0.16 0.18 0.22 0.17 0.14 0.11 0.10 0.09 0.05 0.02 0.00 0.00 0.01 0.03 0.08 0.16 0.33 0.61
0.02 0.01 0.00 0.00 0.00 0.00 0.01 0.02 0.04 0.07 0.19 0.19 0.24 0.16 0.18 0.30 0.49 0.35 0.38 0.17 0.16 0.16 0.22 0.26 0.30 0.32 0.27 0.21 0.13 0.08 0.06 0.04 0.01 0.00 0.00 0.01 0.02 0.03 0.06 0.14 0.39 0.35 0.21
0.01 0.01 0.00 0.00 0.01 0.01 0.01 0.02 0.03 0.05 0.03 0.07 0.11 0.15 0.44 0.54 0.48 0.31 0.48 0.44 0.34 0.39 0.34 0.31 0.24 0.15 0.10 0.08 0.04 0.02 0.01 0.00 0.00 0.00 0.01 0.05 0.03 0.03 0.13 0.37 0.41 0.19 0.13
0.02 0.01 0.00 0.01 0.03 0.03 0.03 0.05 0.04 0.05 0.12 0.09 0.06 0.27 0.70 0.56 0.44 0.23 0.40 0.49 0.38 0.25 0.19 0.14 0.10 0.08 0.04 0.02 0.01 0.01 0.01 0.01 0.00 0.02 0.02 0.03 0.04 0.10 0.37 0.27 0.24 0.26 0.17
0.15 0.08 0.07 0.08 0.18 0.15 0.21 0.27 0.22 0.35 0.44 0.27 0.22 0.42 0.47 0.46 0.36 0.27 0.26 0.20 0.15 0.09 0.05 0.03 0.02 0.01 0.01 0.00 0.00 0.00 0.02 0.03 0.14 0.11 0.03 0.03 0.14 0.35 0.21 0.16 0.19 0.22 0.27
0.35 0.50 0.30 0.37 0.54 0.56 0.74 0.74 0.68 0.66 0.57 0.41 0.35 0.31 0.25 0.24 0.24 0.11 0.05 0.02 0.01 0.01 0.01 0.00 0.00 0.00 0.00 0.00 0.00 0.01 0.03 0.07 0.10 0.05 0.02 0.09 0.23 0.09 0.05 0.09 0.18 0.32 0.31
0.03 0.18 0.11 0.17 0.23 0.30 0.35 0.48 0.40 0.33 0.32 0.22 0.16 0.12 0.10 0.09 0.06 0.03 0.02 0.01 0.00 0.00 0.00 0.00 0.00 0.00 0.00 0.00 0.00 0.00 0.07 0.09 0.07 0.05 0.16 0.15 0.03 0.03 0.04 0.10 0.17 0.16 0.15
0.01 0.01 0.02 0.01 0.03 0.05 0.08 0.10 0.03 0.04 0.06 0.06 0.06 0.04 0.02 0.00 0.00 0.00 0.00 0.00 0.00 0.00 0.00 0.00 0.00 0.00 0.00 0.00 0.00 0.03 0.05 0.04 0.08 0.17 0.14 0.02 0.03 0.05 0.06 0.08 0.07 0.07 0.17
0.00 0.01 0.00 0.00 0.00 0.00 0.00 0.00 0.00 0.00 0.00 0.00 0.00 0.00 0.00 0.00 0.00 0.00 0.00 0.00 0.00 0.00 0.00 0.00 0.01 0.01 0.01 0.01 0.04 0.06 0.05 0.09 0.16 0.07 0.01 0.01 0.02 0.02 0.02 0.04 0.06 0.11 0.24
0.00 0.00 0.00 0.00 0.00 0.00 0.00 0.00 0.00 0.00 0.00 0.00 0.00 0.00 0.00 0.00 0.00 0.00 0.00 0.00 0.00 0.00 0.00 0.00 0.01 0.01 0.02 0.03 0.05 0.05 0.12 0.16 0.07 0.05 0.03 0.04 0.05 0.08 0.09 0.11 0.15 0.20 0.32

GFSMW_prec_precacc_069.txt.gz
Total_Precipitation_Accumulation
0.00 0.00 0.00 0.00 0.00 0.00 0.00 0.00 0.00 0.01 0.07 0.06 0.04 0.17 0.22 0.22 0.21 0.34 0.31 0.22 0.09 0.05 0.03 0.00 0.00 0.00 0.00 0.00 0.00 0.00 0.00 0.00 0.00 0.00 0.00 0.00 0.00 0.00 0.00 0.00 0.00 0.00 0.00
0.00 0.00 0.00 0.00 0.00 0.00 0.00 0.00 0.00 0.00 0.00 0.01 0.04 0.14 0.44 0.41 0.50 0.53 0.31 0.26 0.27 0.30 0.12 0.03 0.01 0.00 0.00 0.00 0.00 0.00 0.00 0.00 0.00 0.01 0.02 0.02 0.00 0.00 0.00 0.00 0.00 0.00 0.00
0.00 0.00 0.00 0.00 0.00 0.00 0.00 0.00 0.00 0.00 0.00 0.01 0.06 0.13 0.32 0.34 0.30 0.23 0.16 0.13 0.30 0.51 0.25 0.09 0.06 0.05 0.07 0.07 0.03 0.05 0.05 0.05 0.02 0.01 0.04 0.07 0.03 0.02 0.00 0.00 0.00 0.00 0.00
0.00 0.00 0.00 0.00 0.00 0.00 0.00 0.00 0.00 0.00 0.00 0.00 0.02 0.03 0.11 0.17 0.16 0.23 0.31 0.25 0.31 0.49 0.31 0.19 0.16 0.12 0.13 0.14 0.16 0.12 0.11 0.12 0.09 0.05 0.02 0.04 0.06 0.09 0.06 0.01 0.01 0.01 0.01
0.00 0.00 0.00 0.00 0.00 0.00 0.00 0.00 0.00 0.00 0.00 0.00 0.00 0.02 0.14 0.17 0.18 0.21 0.20 0.23 0.26 0.29 0.30 0.24 0.18 0.15 0.21 0.17 0.15 0.12 0.10 0.09 0.08 0.07 0.06 0.05 0.06 0.07 0.11 0.10 0.02 0.01 0.01
0.00 0.00 0.00 0.00 0.00 0.00 0.00 0.00 0.00 0.00 0.00 0.00 0.00 0.01 0.04 0.13 0.18 0.15 0.16 0.20 0.21 0.19 0.20 0.20 0.22 0.16 0.13 0.13 0.12 0.10 0.08 0.06 0.09 0.10 0.09 0.12 0.16 0.14 0.17 0.15 0.07 0.05 0.02
0.00 0.00 0.00 0.00 0.00 0.00 0.00 0.00 0.00 0.00 0.00 0.00 0.01 0.01 0.01 0.05 0.09 0.10 0.11 0.14 0.14 0.12 0.12 0.18 0.19 0.17 0.16 0.13 0.11 0.10 0.08 0.07 0.11 0.14 0.14 0.13 0.14 0.15 0.20 0.25 0.17 0.15 0.09
0.00 0.00 0.00 0.00 0.00 0.00 0.00 0.00 0.00 0.00 0.00 0.00 0.00 0.00 0.03 0.04 0.07 0.08 0.08 0.10 0.14 0.15 0.16 0.18 0.23 0.21 0.19 0.15 0.10 0.10 0.09 0.10 0.12 0.13 0.13 0.16 0.14 0.15 0.20 0.26 0.29 0.21 0.11
0.00 0.00 0.00 0.00 0.00 0.00 0.00 0.00 0.00 0.00 0.00 0.03 0.02 0.01 0.02 0.04 0.06 0.09 0.11 0.11 0.11 0.14 0.18 0.19 0.20 0.19 0.16 0.13 0.09 0.07 0.05 0.06 0.09 0.10 0.12 0.15 0.15 0.18 0.19 0.25 0.29 0.37 0.27
0.00 0.00 0.00 0.00 0.00 0.00 0.00 0.00 0.00 0.00 0.01 0.01 0.00 0.01 0.03 0.05 0.06 0.06 0.07 0.09 0.11 0.09 0.12 0.11 0.10 0.10 0.09 0.08 0.07 0.04 0.02 0.02 0.04 0.07 0.09 0.10 0.13 0.16 0.18 0.18 0.17 0.23 0.29
0.00 0.00 0.00 0.00 0.00 0.00 0.00 0.00 0.00 0.00 0.01 0.00 0.00 0.02 0.03 0.04 0.06 0.04 0.04 0.05 0.05 0.05 0.05 0.05 0.05 0.04 0.03 0.02 0.02 0.01 0.00 0.00 0.02 0.04 0.08 0.10 0.11 0.12 0.11 0.11 0.14 0.17 0.25
0.00 0.00 0.00 0.00 0.00 0.00 0.00 0.00 0.00 0.00 0.00 0.00 0.00 0.01 0.02 0.04 0.05 0.05 0.03 0.03 0.03 0.02 0.01 0.01 0.01 0.01 0.01 0.01 0.01 0.02 0.02 0.02 0.03 0.05 0.12 0.15 0.20 0.23 0.20 0.18 0.15 0.14 0.16
0.00 0.00 0.00 0.00 0.00 0.00 0.00 0.00 0.01 0.00 0.00 0.00 0.00 0.00 0.00 0.00 0.01 0.01 0.02 0.03 0.03 0.01 0.01 0.01 0.01 0.00 0.00 0.00 0.00 0.01 0.03 0.04 0.06 0.09 0.13 0.14 0.16 0.18 0.15 0.11 0.10 0.14 0.23
0.00 0.00 0.02 0.01 0.00 0.00 0.01 0.02 0.01 0.01 0.01 0.01 0.01 0.01 0.02 0.02 0.01 0.01 0.01 0.02 0.02 0.02 0.01 0.01 0.00 0.00 0.00 0.00 0.01 0.02 0.05 0.06 0.07 0.08 0.11 0.14 0.16 0.13 0.08 0.08 0.15 0.23 0.33
0.00 0.00 0.14 0.18 0.03 0.02 0.01 0.01 0.02 0.03 0.03 0.03 0.03 0.04 0.03 0.02 0.02 0.01 0.01 0.01 0.02 0.01 0.01 0.02 0.02 0.01 0.01 0.03 0.05 0.07 0.10 0.14 0.16 0.19 0.19 0.16 0.09 0.05 0.06 0.12 0.16 0.32 0.40
0.01 0.00 0.02 0.20 0.16 0.02 0.01 0.03 0.03 0.04 0.07 0.06 0.05 0.03 0.03 0.02 0.02 0.02 0.01 0.01 0.02 0.03 0.06 0.08 0.09 0.11 0.13 0.21 0.19 0.15 0.14 0.17 0.20 0.17 0.12 0.08 0.06 0.04 0.06 0.11 0.18 0.33 0.64
0.01 0.01 0.00 0.00 0.04 0.17 0.12 0.12 0.14 0.21 0.19 0.12 0.07 0.04 0.04 0.10 0.09 0.10 0.07 0.06 0.06 0.08 0.12 0.19 0.23 0.25 0.24 0.27 0.24 0.20 0.17 0.16 0.12 0.09 0.07 0.04 0.02 0.02 0.03 0.08 0.16 0.33 0.61
0.02 0.01 0.00 0.00 0.00 0.00 0.01 0.02 0.04 0.07 0.19 0.19 0.24 0.16 0.18 0.31 0.55 0.45 0.42 0.38 0.26 0.19 0.22 0.26 0.30 0.34 0.31 0.27 0.18 0.14 0.13 0.10 0.07 0.04 0.01 0.01 0.02 0.03 0.06 0.14 0.39 0.35 0.21
0.01 0.01 0.00 0.00 0.01 0.01 0.01 0.02 0.03 0.05 0.03 0.08 0.11 0.15 0.44 0.54 0.49 0.31 0.49 0.48 0.37 0.41 0.41 0.36 0.30 0.23 0.14 0.09 0.08 0.07 0.06 0.04 0.02 0.01 0.01 0.05 0.03 0.03 0.13 0.37 0.41 0.19 0.13
0.02 0.01 0.00 0.01 0.03 0.03 0.03 0.05 0.04 0.05 0.12 0.09 0.07 0.27 0.70 0.56 0.44 0.23 0.40 0.50 0.38 0.28 0.25 0.21 0.14 0.10 0.07 0.05 0.03 0.03 0.03 0.02 0.01 0.02 0.02 0.03 0.04 0.10 0.37 0.27 0.24 0.26 0.17
0.15 0.08 0.07 0.08 0.18 0.15 0.21 0.27 0.22 0.35 0.44 0.27 0.22 0.42 0.47 0.46 0.36 0.28 0.30 0.27 0.24 0.14 0.10 0.09 0.05 0.03 0.02 0.01 0.00 0.01 0.02 0.03 0.14 0.11 0.03 0.03 0.14 0.35 0.21 0.16 0.19 0.22 0.27
0.35 0.50 0.30 0.37 0.54 0.56 0.74 0.74 0.68 0.66 0.57 0.41 0.35 0.32 0.26 0.25 0.25 0.12 0.09 0.05 0.03 0.02 0.01 0.01 0.01 0.00 0.00 0.00 0.00 0.01 0.03 0.07 0.10 0.05 0.02 0.09 0.23 0.09 0.05 0.09 0.18 0.32 0.31
0.03 0.18 0.11 0.17 0.23 0.30 0.35 0.48 0.40 0.33 0.32 0.22 0.16 0.12 0.11 0.09 0.06 0.03 0.03 0.02 0.01 0.00 0.00 0.00 0.00 0.00 0.00 0.00 0.00 0.00 0.07 0.09 0.07 0.05 0.16 0.15 0.03 0.03 0.04 0.10 0.17 0.16 0.15
0.01 0.01 0.02 0.01 0.03 0.05 0.08 0.10 0.03 0.04 0.06 0.06 0.06 0.04 0.02 0.01 0.00 0.00 0.00 0.00 0.00 0.00 0.00 0.00 0.00 0.00 0.00 0.00 0.00 0.03 0.05 0.04 0.08 0.17 0.14 0.02 0.03 0.05 0.06 0.08 0.07 0.07 0.17
0.00 0.01 0.00 0.00 0.00 0.00 0.00 0.00 0.00 0.00 0.00 0.00 0.00 0.00 0.00 0.00 0.00 0.00 0.00 0.00 0.00 0.00 0.00 0.00 0.01 0.01 0.01 0.01 0.04 0.06 0.05 0.09 0.16 0.07 0.01 0.01 0.02 0.02 0.02 0.04 0.06 0.11 0.24
0.00 0.00 0.00 0.00 0.00 0.00 0.00 0.00 0.00 0.00 0.00 0.00 0.00 0.00 0.00 0.00 0.00 0.00 0.00 0.00 0.00 0.00 0.00 0.00 0.01 0.01 0.02 0.03 0.05 0.05 0.12 0.16 0.07 0.05 0.03 0.04 0.05 0.08 0.09 0.11 0.15 0.20 0.32

GFSMW_prec_precacc_072.txt.gz
Total_Precipitation_Accumulation
0.00 0.00 0.00 0.00 0.00 0.00 0.00 0.00 0.00 0.01 0.07 0.06 0.05 0.18 0.22 0.22 0.22 0.37 0.33 0.24 0.09 0.06 0.03 0.00 0.00 0.00 0.00 0.00 0.00 0.00 0.00 0.00 0.00 0.00 0.00 0.00 0.00 0.00 0.00 0.00 0.00 0.00 0.00
0.00 0.00 0.00 0.00 0.00 0.00 0.00 0.00 0.00 0.00 0.00 0.01 0.04 0.14 0.44 0.41 0.50 0.54 0.31 0.26 0.28 0.31 0.13 0.03 0.01 0.00 0.00 0.00 0.00 0.00 0.00 0.00 0.00 0.01 0.02 0.02 0.00 0.00 0.00 0.00 0.00 0.00 0.00
0.00 0.00 0.00 0.00 0.00 0.00 0.00 0.00 0.00 0.00 0.00 0.01 0.06 0.13 0.32 0.34 0.30 0.23 0.16 0.13 0.32 0.52 0.25 0.15 0.09 0.05 0.07 0.07 0.03 0.05 0.05 0.05 0.02 0.01 0.04 0.07 0.03 0.02 0.00 0.00 0.00 0.00 0.00
0.00 0.00 0.00 0.00 0.00 0.00 0.00 0.00 0.00 0.00 0.00 0.00 0.02 0.03 0.11 0.17 0.16 0.23 0.31 0.25 0.32 0.49 0.35 0.27 0.24 0.16 0.14 0.15 0.16 0.12 0.11 0.12 0.09 0.05 0.02 0.04 0.06 0.09 0.06 0.01 0.01 0.01 0.01
0.00 0.00 0.00 0.00 0.00 0.00 0.00 0.00 0.00 0.00 0.00 0.00 0.00 0.02 0.14 0.17 0.18 0.21 0.20 0.23 0.26 0.29 0.34 0.29 0.22 0.18 0.24 0.20 0.16 0.13 0.10 0.09 0.08 0.07 0.06 0.05 0.06 0.07 0.11 0.10 0.02 0.01 0.01
0.00 0.00 0.00 0.00 0.00 0.00 0.00 0.00 0.00 0.00 0.00 0.00 0.00 0.01 0.04 0.13 0.18 0.15 0.16 0.20 0.21 0.20 0.22 0.23 0.25 0.19 0.15 0.15 0.14 0.14 0.11 0.09 0.10 0.11 0.09 0.12 0.16 0.14 0.17 0.15 0.07 0.05 0.02
0.00 0.00 0.00 0.00 0.00 0.00 0.00 0.00 0.00 0.00 0.00 0.00 0.01 0.01 0.01 0.05 0.09 0.10 0.11 0.14 0.14 0.12 0.12 0.19 0.21 0.20 0.19 0.18 0.16 0.15 0.13 0.11 0.13 0.16 0.15 0.14 0.14 0.15 0.20 0.25 0.17 0.16 0.09
0.00 0.00 0.00 0.00 0.00 0.00 0.00 0.00 0.00 0.00 0.00 0.00 0.00 0.00 0.03 0.04 0.07 0.08 0.08 0.10 0.14 0.15 0.16 0.18 0.23 0.24 0.24 0.20 0.16 0.15 0.14 0.14 0.16 0.15 0.14 0.16 0.14 0.16 0.21 0.29 0.32 0.24 0.13
0.00 0.00 0.00 0.00 0.00 0.00 0.00 0.00 0.00 0.00 0.00 0.03 0.02 0.01 0.02 0.04 0.06 0.09 0.11 0.11 0.11 0.14 0.18 0.20 0.20 0.21 0.20 0.19 0.17 0.15 0.12 0.11 0.13 0.12 0.12 0.15 0.16 0.19 0.22 0.27 0.31 0.40 0.29
0.00 0.00 0.00 0.00 0.00 0.00 0.00 0.00 0.00 0.00 0.01 0.01 0.00 0.01 0.03 0.05 0.06 0.06 0.07 0.09 0.11 0.10 0.12 0.11 0.10 0.10 0.10 0.10 0.10 0.10 0.10 0.09 0.11 0.11 0.09 0.10 0.13 0.16 0.19 0.20 0.20 0.26 0.32
0.00 0.00 0.00 0.00 0.00 0.00 0.00 0.00 0.00 0.00 0.01 0.00 0.00 0.02 0.03 0.04 0.06 0.04 0.04 0.05 0.05 0.05 0.05 0.05 0.05 0.04 0.03 0.02 0.02 0.02 0.02 0.02 0.06 0.12 0.16 0.18 0.13 0.13 0.13 0.15 0.20 0.29 0.42
0.00 0.00 0.00 0.00 0.00 0.00 0.00 0.00 0.00 0.00 0.00 0.00 0.00 0.01 0.02 0.04 0.05 0.05 0.03 0.03 0.03 0.02 0.01 0.01 0.01 0.01 0.01 0.01 0.01 0.02 0.02 0.02 0.03 0.06 0.14 0.19 0.25 0.27 0.30 0.35 0.38 0.38 0.34
0.00 0.00 0.00 0.00 0.00 0.00 0.00 0.00 0.01 0.00 0.00 0.00 0.00 0.00 0.00 0.00 0.01 0.01 0.02 0.03 0.03 0.01 0.01 0.01 0.01 0.00 0.00 0.00 0.00 0.01 0.03 0.05 0.07 0.09 0.14 0.16 0.20 0.25 0.25 0.24 0.24 0.22 0.26
0.00 0.00 0.02 0.01 0.00 0.00 0.01 0.02 0.01 0.01 0.01 0.01 0.01 0.01 0.02 0.02 0.01 0.01 0.01 0.02 0.02 0.02 0.01 0.01 0.01 0.00 0.00 0.01 0.02 0.03 0.06 0.07 0.07 0.08 0.12 0.17 0.22 0.20 0.16 0.14 0.18 0.24 0.34
0.00 0.00 0.14 0.18 0.03 0.02 0.01 0.01 0.02 0.03 0.03 0.03 0.03 0.04 0.03 0.02 0.02 0.02 0.01 0.01 0.02 0.01 0.01 0.02 0.02 0.02 0.02 0.05 0.07 0.08 0.10 0.14 0.17 0.21 0.23 0.21 0.16 0.10 0.09 0.13 0.16 0.32 0.41
0.01 0.00 0.02 0.20 0.16 0.02 0.01 0.03 0.03 0.04 0.07 0.06 0.05 0.03 0.03 0.02 0.02 0.02 0.01 0.01 0.02 0.03 0.07 0.10 0.13 0.14 0.17 0.26 0.23 0.19 0.17 0.17 0.20 0.20 0.15 0.10 0.08 0.05 0.06 0.11 0.18 0.33 0.65
0.01 0.01 0.00 0.00 0.04 0.17 0.12 0.12 0.14 0.21 0.19 0.12 0.07 0.05 0.05 0.10 0.09 0.10 0.07 0.06 0.06 0.08 0.13 0.22 0.34 0.44 0.55 0.60 0.44 0.30 0.26 0.20 0.14 0.10 0.07 0.05 0.03 0.03 0.04 0.08 0.16 0.33 0.61
0.02 0.01 0.00 0.00 0.00 0.00 0.01 0.02 0.04 0.07 0.19 0.19 0.24 0.16 0.18 0.31 0.55 0.45 0.42 0.38 0.31 0.24 0.27 0.29 0.31 0.41 0.43 0.37 0.25 0.18 0.14 0.11 0.07 0.04 0.02 0.02 0.02 0.03 0.06 0.14 0.39 0.35 0.21
0.01 0.01 0.00 0.00 0.01 0.01 0.01 0.02 0.03 0.05 0.03 0.08 0.11 0.15 0.44 0.54 0.49 0.31 0.49 0.48 0.39 0.43 0.48 0.45 0.36 0.30 0.21 0.14 0.10 0.07 0.06 0.05 0.03 0.01 0.01 0.05 0.03 0.03 0.13 0.37 0.41 0.19 0.13
0.02 0.01 0.00 0.01 0.03 0.03 0.03 0.05 0.04 0.05 0.12 0.09 0.07 0.27 0.70 0.56 0.44 0.23 0.40 0.50 0.38 0.29 0.30 0.28 0.20 0.13 0.08 0.06 0.04 0.04 0.04 0.03 0.01 0.02 0.02 0.03 0.04 0.10 0.37 0.27 0.24 0.26 0.17
0.15 0.08 0.07 0.08 0.18 0.15 0.21 0.27 0.22 0.35 0.44 0.27 0.22 0.42 0.47 0.46 0.36 0.28 0.30 0.28 0.26 0.16 0.11 0.12 0.08 0.04 0.02 0.01 0.00 0.01 0.02 0.03 0.14 0.11 0.03 0.03 0.14 0.35 0.21 0.16 0.19 0.22 0.27
0.35 0.50 0.30 0.37 0.54 0.56 0.74 0.74 0.68 0.66 0.57 0.41 0.35 0.32 0.26 0.25 0.25 0.12 0.09 0.06 0.03 0.02 0.02 0.01 0.01 0.00 0.00 0.00 0.00 0.01 0.03 0.07 0.10 0.05 0.02 0.09 0.23 0.09 0.05 0.09 0.18 0.32 0.31
0.03 0.18 0.11 0.17 0.23 0.30 0.35 0.48 0.40 0.33 0.32 0.22 0.16 0.12 0.11 0.10 0.06 0.03 0.03 0.02 0.01 0.00 0.00 0.00 0.00 0.00 0.00 0.00 0.00 0.00 0.07 0.09 0.07 0.05 0.16 0.15 0.03 0.03 0.04 0.10 0.17 0.16 0.15
0.01 0.01 0.02 0.01 0.03 0.05 0.08 0.10 0.03 0.04 0.06 0.06 0.06 0.04 0.02 0.01 0.00 0.00 0.00 0.00 0.00 0.00 0.00 0.00 0.00 0.00 0.00 0.00 0.00 0.03 0.05 0.04 0.08 0.17 0.14 0.02 0.03 0.05 0.06 0.08 0.07 0.07 0.17
0.00 0.01 0.00 0.00 0.00 0.00 0.00 0.00 0.00 0.00 0.00 0.00 0.00 0.00 0.00 0.00 0.00 0.00 0.00 0.00 0.00 0.00 0.00 0.00 0.01 0.01 0.01 0.01 0.04 0.06 0.05 0.09 0.16 0.07 0.01 0.01 0.02 0.02 0.02 0.04 0.06 0.11 0.24
0.00 0.00 0.00 0.00 0.00 0.00 0.00 0.00 0.00 0.00 0.00 0.00 0.00 0.00 0.00 0.00 0.00 0.00 0.00 0.00 0.00 0.00 0.00 0.00 0.01 0.01 0.02 0.03 0.05 0.05 0.12 0.16 0.07 0.05 0.03 0.04 0.05 0.08 0.09 0.11 0.15 0.20 0.32

GFSMW_prec_precacc_075.txt.gz
Total_Precipitation_Accumulation
0.00 0.00 0.00 0.00 0.00 0.00 0.00 0.00 0.00 0.01 0.07 0.07 0.05 0.18 0.24 0.26 0.22 0.37 0.33 0.24 0.09 0.06 0.03 0.00 0.00 0.00 0.00 0.00 0.00 0.00 0.00 0.00 0.00 0.00 0.00 0.00 0.00 0.00 0.00 0.00 0.00 0.00 0.00
0.00 0.00 0.00 0.00 0.00 0.00 0.00 0.00 0.00 0.00 0.00 0.01 0.05 0.14 0.46 0.41 0.52 0.54 0.32 0.26 0.28 0.31 0.13 0.04 0.01 0.00 0.00 0.00 0.00 0.00 0.00 0.00 0.00 0.01 0.02 0.02 0.00 0.00 0.00 0.00 0.00 0.00 0.00
0.00 0.00 0.00 0.00 0.00 0.00 0.00 0.00 0.00 0.00 0.00 0.01 0.06 0.13 0.32 0.34 0.30 0.23 0.16 0.13 0.32 0.52 0.26 0.17 0.10 0.05 0.07 0.07 0.03 0.05 0.05 0.05 0.02 0.01 0.04 0.07 0.03 0.02 0.00 0.00 0.00 0.00 0.00
0.00 0.00 0.00 0.00 0.00 0.00 0.00 0.00 0.00 0.00 0.00 0.00 0.02 0.03 0.11 0.17 0.16 0.23 0.31 0.25 0.32 0.49 0.35 0.28 0.24 0.16 0.14 0.15 0.16 0.12 0.11 0.12 0.09 0.05 0.02 0.04 0.06 0.09 0.06 0.01 0.01 0.01 0.01
0.00 0.00 0.00 0.00 0.00 0.00 0.00 0.00 0.00 0.00 0.00 0.00 0.00 0.02 0.14 0.17 0.18 0.21 0.20 0.23 0.26 0.29 0.35 0.30 0.27 0.18 0.25 0.21 0.16 0.14 0.11 0.09 0.08 0.07 0.06 0.05 0.06 0.07 0.11 0.10 0.02 0.01 0.01
0.00 0.00 0.00 0.00 0.00 0.00 0.00 0.00 0.00 0.00 0.00 0.00 0.00 0.01 0.04 0.13 0.18 0.15 0.16 0.20 0.21 0.20 0.22 0.23 0.26 0.22 0.19 0.18 0.18 0.17 0.13 0.11 0.11 0.11 0.10 0.13 0.16 0.14 0.18 0.16 0.07 0.05 0.02
0.00 0.00 0.00 0.00 0.00 0.00 0.00 0.00 0.00 0.00 0.00 0.00 0.01 0.01 0.01 0.05 0.09 0.10 0.11 0.14 0.14 0.12 0.12 0.19 0.22 0.20 0.21 0.21 0.19 0.18 0.15 0.14 0.15 0.18 0.17 0.15 0.15 0.16 0.21 0.26 0.18 0.16 0.09
0.00 0.00 0.00 0.00 0.00 0.00 0.00 0.00 0.00 0.00 0.00 0.00 0.00 0.00 0.03 0.04 0.07 0.08 0.08 0.10 0.14 0.15 0.16 0.18 0.24 0.24 0.24 0.21 0.17 0.17 0.16 0.17 0.20 0.19 0.16 0.18 0.16 0.16 0.22 0.29 0.33 0.27 0.18
0.00 0.00 0.00 0.00 0.00 0.00 0.00 0.00 0.00 0.00 0.00 0.03 0.02 0.01 0.02 0.04 0.06 0.09 0.11 0.11 0.12 0.15 0.18 0.20 0.21 0.21 0.20 0.20 0.18 0.17 0.15 0.15 0.17 0.16 0.17 0.21 0.20 0.24 0.28 0.38 0.43 0.54 0.43
0.00 0.00 0.00 0.00 0.00 0.00 0.00 0.00 0.00 0.00 0.01 0.01 0.00 0.01 0.03 0.05 0.06 0.06 0.07 0.09 0.11 0.10 0.12 0.12 0.11 0.11 0.10 0.10 0.11 0.12 0.12 0.13 0.16 0.21 0.26 0.28 0.32 0.35 0.38 0.33 0.25 0.30 0.39
0.00 0.00 0.00 0.00 0.00 0.00 0.00 0.00 0.00 0.00 0.01 0.00 0.00 0.02 0.03 0.04 0.06 0.04 0.04 0.05 0.05 0.05 0.05 0.06 0.06 0.05 0.04 0.03 0.03 0.05 0.06 0.08 0.12 0.16 0.22 0.27 0.33 0.41 0.45 0.50 0.52 0.52 0.59
0.00 0.00 0.00 0.00 0.00 0.00 0.00 0.00 0.00 0.00 0.00 0.00 0.00 0.01 0.02 0.04 0.05 0.05 0.03 0.03 0.03 0.02 0.01 0.01 0.01 0.01 0.01 0.01 0.02 0.03 0.04 0.04 0.05 0.08 0.16 0.21 0.28 0.36 0.42 0.47 0.47 0.44 0.41
0.00 0.00 0.00 0.00 0.00 0.00 0.00 0.00 0.01 0.00 0.00 0.00 0.00 0.00 0.00 0.00 0.01 0.01 0.02 0.03 0.03 0.01 0.01 0.01 0.01 0.00 0.00 0.00 0.00 0.01 0.04 0.06 0.08 0.11 0.16 0.17 0.21 0.25 0.25 0.24 0.25 0.26 0.31
0.00 0.00 0.02 0.01 0.00 0.00 0.01 0.02 0.01 0.01 0.01 0.01 0.01 0.01 0.02 0.02 0.01 0.01 0.01 0.02 0.02 0.02 0.01 0.01 0.01 0.00 0.00 0.01 0.02 0.04 0.07 0.09 0.09 0.10 0.13 0.17 0.22 0.21 0.17 0.15 0.19 0.24 0.34
0.00 0.00 0.14 0.18 0.03 0.02 0.01 0.01 0.02 0.03 0.03 0.03 0.03 0.04 0.03 0.02 0.02 0.02 0.01 0.01 0.02 0.01 0.01 0.02 0.02 0.02 0.02 0.05 0.07 0.08 0.12 0.16 0.18 0.22 0.24 0.22 0.17 0.11 0.09 0.13 0.16 0.32 0.41
0.01 0.00 0.02 0.20 0.16 0.02 0.01 0.03 0.03 0.04 0.07 0.06 0.05 0.03 0.03 0.02 0.02 0.02 0.01 0.01 0.02 0.03 0.07 0.10 0.13 0.14 0.17 0.29 0.26 0.24 0.23 0.25 0.28 0.28 0.21 0.12 0.08 0.05 0.07 0.11 0.18 0.33 0.65
0.01 0.01 0.00 0.00 0.04 0.17 0.12 0.12 0.14 0.21 0.19 0.12 0.07 0.05 0.05 0.10 0.09 0.10 0.07 0.06 0.06 0.08 0.13 0.22 0.35 0.54 0.70 0.79 0.73 0.64 0.57 0.47 0.31 0.20 0.12 0.07 0.04 0.03 0.04 0.08 0.16 0.33 0.61
0.02 0.01 0.00 0.00 0.00 0.00 0.01 0.02 0.04 0.07 0.19 0.19 0.24 0.16 0.18 0.31 0.55 0.45 0.42 0.38 0.31 0.24 0.27 0.30 0.32 0.41 0.46 0.40 0.30 0.24 0.18 0.12 0.08 0.05 0.02 0.02 0.02 0.03 0.06 0.14 0.39 0.35 0.21
0.01 0.01 0.00 0.00 0.01 0.01 0.01 0.02 0.03 0.05 0.03 0.08 0.11 0.15 0.44 0.54 0.49 0.31 0.49 0.48 0.39 0.43 0.48 0.46 0.37 0.30 0.21 0.14 0.10 0.07 0.06 0.05 0.03 0.01 0.01 0.05 0.03 0.03 0.13 0.37 0.41 0.19 0.13
0.02 0.01 0.00 0.01 0.03 0.03 0.03 0.05 0.04 0.05 0.12 0.09 0.07 0.27 0.70 0.56 0.44 0.23 0.40 0.50 0.38 0.29 0.30 0.29 0.20 0.14 0.08 0.06 0.04 0.04 0.05 0.03 0.01 0.02 0.02 0.03 0.04 0.10 0.37 0.27 0.24 0.26 0.17
0.15 0.08 0.07 0.08 0.18 0.15 0.21 0.27 0.22 0.35 0.44 0.27 0.22 0.42 0.47 0.46 0.36 0.28 0.30 0.28 0.26 0.16 0.11 0.12 0.08 0.04 0.02 0.01 0.00 0.01 0.02 0.03 0.14 0.11 0.03 0.03 0.14 0.35 0.21 0.16 0.19 0.22 0.27
0.35 0.50 0.30 0.37 0.54 0.56 0.74 0.74 0.68 0.66 0.57 0.41 0.35 0.32 0.26 0.25 0.25 0.12 0.09 0.06 0.03 0.02 0.02 0.01 0.01 0.00 0.00 0.00 0.00 0.01 0.03 0.07 0.10 0.05 0.02 0.09 0.23 0.09 0.05 0.09 0.18 0.32 0.31
0.03 0.18 0.11 0.17 0.23 0.30 0.35 0.48 0.40 0.33 0.32 0.22 0.16 0.12 0.11 0.10 0.06 0.03 0.03 0.02 0.01 0.00 0.00 0.00 0.00 0.00 0.00 0.00 0.00 0.00 0.07 0.09 0.07 0.05 0.16 0.15 0.03 0.03 0.04 0.10 0.17 0.16 0.15
0.01 0.01 0.02 0.01 0.03 0.05 0.08 0.10 0.03 0.04 0.06 0.06 0.06 0.04 0.02 0.01 0.00 0.00 0.00 0.00 0.00 0.00 0.00 0.00 0.00 0.00 0.00 0.00 0.00 0.03 0.05 0.04 0.08 0.17 0.14 0.02 0.03 0.05 0.06 0.08 0.07 0.07 0.17
0.00 0.01 0.00 0.00 0.00 0.00 0.00 0.00 0.00 0.00 0.00 0.00 0.00 0.00 0.00 0.00 0.00 0.00 0.00 0.00 0.00 0.00 0.00 0.00 0.01 0.01 0.01 0.01 0.04 0.06 0.05 0.09 0.16 0.07 0.01 0.01 0.02 0.02 0.02 0.04 0.06 0.11 0.24
0.00 0.00 0.00 0.00 0.00 0.00 0.00 0.00 0.00 0.00 0.00 0.00 0.00 0.00 0.00 0.00 0.00 0.00 0.00 0.00 0.00 0.00 0.00 0.00 0.01 0.01 0.02 0.03 0.05 0.05 0.12 0.16 0.07 0.05 0.03 0.04 0.05 0.08 0.09 0.11 0.15 0.20 0.32

GFSMW_prec_precacc_078.txt.gz
Total_Precipitation_Accumulation
0.00 0.00 0.00 0.00 0.00 0.00 0.00 0.02 0.03 0.04 0.08 0.08 0.07 0.19 0.26 0.27 0.22 0.37 0.33 0.24 0.09 0.06 0.03 0.00 0.00 0.00 0.00 0.00 0.00 0.00 0.00 0.00 0.00 0.00 0.00 0.00 0.00 0.00 0.00 0.00 0.00 0.00 0.00
0.00 0.00 0.00 0.00 0.00 0.00 0.00 0.00 0.00 0.01 0.02 0.03 0.07 0.16 0.49 0.42 0.54 0.55 0.32 0.26 0.28 0.31 0.13 0.04 0.01 0.00 0.00 0.00 0.00 0.00 0.00 0.00 0.00 0.01 0.02 0.02 0.00 0.00 0.00 0.00 0.00 0.00 0.00
0.00 0.00 0.00 0.00 0.00 0.00 0.00 0.00 0.00 0.00 0.00 0.01 0.06 0.14 0.33 0.35 0.30 0.23 0.18 0.14 0.33 0.53 0.27 0.17 0.10 0.05 0.07 0.07 0.03 0.05 0.05 0.05 0.02 0.01 0.04 0.07 0.03 0.02 0.00 0.00 0.00 0.00 0.00
0.00 0.00 0.00 0.00 0.00 0.00 0.00 0.00 0.00 0.00 0.00 0.00 0.02 0.03 0.11 0.17 0.16 0.23 0.31 0.26 0.33 0.51 0.40 0.31 0.25 0.17 0.15 0.15 0.16 0.12 0.11 0.12 0.10 0.05 0.02 0.04 0.06 0.09 0.06 0.01 0.01 0.01 0.01
0.00 0.00 0.00 0.00 0.00 0.00 0.00 0.00 0.00 0.00 0.00 0.00 0.00 0.02 0.14 0.17 0.18 0.21 0.20 0.23 0.26 0.30 0.37 0.34 0.33 0.21 0.26 0.24 0.19 0.15 0.12 0.10 0.09 0.08 0.08 0.06 0.06 0.07 0.11 0.10 0.02 0.01 0.01
0.00 0.00 0.00 0.00 0.00 0.00 0.00 0.00 0.00 0.00 0.00 0.00 0.00 0.01 0.04 0.13 0.18 0.15 0.16 0.20 0.21 0.20 0.22 0.24 0.28 0.25 0.23 0.23 0.22 0.21 0.14 0.12 0.13 0.12 0.12 0.15 0.18 0.15 0.18 0.16 0.07 0.05 0.02
0.00 0.00 0.00 0.00 0.00 0.00 0.00 0.00 0.00 0.00 0.00 0.00 0.01 0.01 0.01 0.05 0.09 0.10 0.11 0.14 0.14 0.12 0.12 0.19 0.22 0.20 0.22 0.23 0.20 0.21 0.17 0.15 0.17 0.20 0.18 0.17 0.18 0.18 0.24 0.29 0.19 0.16 0.09
0.00 0.00 0.00 0.00 0.00 0.00 0.00 0.00 0.00 0.00 0.00 0.00 0.00 0.00 0.03 0.04 0.07 0.08 0.08 0.10 0.14 0.15 0.16 0.18 0.24 0.25 0.25 0.22 0.18 0.19 0.18 0.20 0.24 0.24 0.20 0.19 0.17 0.20 0.25 0.31 0.35 0.31 0.22
0.00 0.00 0.00 0.00 0.00 0.00 0.00 0.00 0.00 0.00 0.00 0.03 0.02 0.01 0.02 0.04 0.06 0.09 0.11 0.11 0.12 0.15 0.18 0.20 0.21 0.21 0.21 0.21 0.20 0.19 0.17 0.18 0.21 0.21 0.22 0.24 0.23 0.27 0.31 0.41 0.56 0.79 0.83
0.00 0.00 0.00 0.00 0.00 0.00 0.00 0.00 0.00 0.00 0.01 0.01 0.00 0.01 0.03 0.05 0.06 0.06 0.07 0.09 0.11 0.10 0.12 0.12 0.12 0.12 0.11 0.11 0.13 0.15 0.16 0.19 0.21 0.27 0.32 0.34 0.36 0.40 0.44 0.47 0.51 0.65 0.80
0.00 0.00 0.00 0.00 0.00 0.00 0.00 0.00 0.00 0.00 0.01 0.00 0.00 0.02 0.03 0.04 0.06 0.04 0.04 0.05 0.05 0.05 0.05 0.06 0.06 0.05 0.04 0.03 0.04 0.07 0.09 0.13 0.18 0.22 0.29 0.33 0.36 0.47 0.56 0.63 0.74 0.83 0.91
0.00 0.00 0.00 0.00 0.00 0.00 0.00 0.00 0.00 0.00 0.00 0.00 0.00 0.01 0.02 0.04 0.05 0.05 0.03 0.03 0.03 0.02 0.01 0.01 0.01 0.01 0.01 0.01 0.02 0.03 0.04 0.05 0.06 0.10 0.19 0.26 0.33 0.42 0.47 0.51 0.50 0.48 0.45
0.00 0.00 0.00 0.00 0.00 0.00 0.00 0.00 0.01 0.00 0.00 0.00 0.00 0.00 0.00 0.00 0.01 0.01 0.02 0.03 0.03 0.01 0.01 0.01 0.01 0.00 0.00 0.00 0.00 0.01 0.04 0.06 0.08 0.12 0.18 0.19 0.23 0.28 0.27 0.26 0.27 0.27 0.31
0.00 0.00 0.02 0.01 0.00 0.00 0.01 0.02 0.01 0.01 0.01 0.01 0.01 0.01 0.02 0.02 0.01 0.01 0.01 0.02 0.02 0.02 0.01 0.01 0.01 0.00 0.00 0.01 0.02 0.04 0.07 0.09 0.09 0.10 0.13 0.18 0.23 0.24 0.20 0.16 0.19 0.24 0.34
0.00 0.00 0.14 0.18 0.03 0.02 0.01 0.01 0.02 0.03 0.03 0.03 0.03 0.04 0.03 0.02 0.02 0.02 0.01 0.01 0.02 0.01 0.01 0.02 0.02 0.02 0.02 0.05 0.07 0.08 0.12 0.16 0.19 0.22 0.26 0.26 0.23 0.16 0.14 0.15 0.17 0.32 0.41
0.01 0.00 0.02 0.20 0.16 0.02 0.01 0.03 0.03 0.04 0.07 0.06 0.05 0.03 0.03 0.02 0.02 0.02 0.01 0.01 0.02 0.03 0.07 0.10 0.13 0.14 0.17 0.29 0.26 0.24 0.26 0.30 0.33 0.34 0.31 0.26 0.21 0.14 0.12 0.13 0.19 0.34 0.65
0.01 0.01 0.00 0.00 0.04 0.17 0.12 0.12 0.14 0.21 0.19 0.12 0.07 0.05 0.05 0.10 0.09 0.10 0.07 0.06 0.06 0.08 0.13 0.22 0.35 0.54 0.70 0.79 0.74 0.65 0.64 0.65 0.52 0.33 0.22 0.12 0.08 0.06 0.05 0.09 0.16 0.33 0.61
0.02 0.01 0.00 0.00 0.00 0.00 0.01 0.02 0.04 0.07 0.19 0.19 0.24 0.16 0.18 0.31 0.55 0.45 0.42 0.38 0.31 0.24 0.27 0.30 0.32 0.41 0.46 0.40 0.30 0.24 0.18 0.13 0.09 0.05 0.02 0.02 0.02 0.04 0.06 0.14 0.39 0.35 0.21
0.01 0.01 0.00 0.00 0.01 0.01 0.01 0.02 0.03 0.05 0.03 0.08 0.11 0.15 0.44 0.54 0.49 0.31 0.49 0.48 0.39 0.43 0.48 0.46 0.37 0.30 0.21 0.14 0.10 0.07 0.06 0.05 0.03 0.01 0.01 0.05 0.03 0.03 0.13 0.37 0.41 0.19 0.13
0.02 0.01 0.00 0.01 0.03 0.03 0.03 0.05 0.04 0.05 0.12 0.09 0.07 0.27 0.70 0.56 0.44 0.23 0.40 0.50 0.38 0.29 0.30 0.29 0.20 0.14 0.08 0.06 0.04 0.04 0.05 0.03 0.01 0.02 0.02 0.03 0.04 0.10 0.37 0.27 0.24 0.26 0.17
0.15 0.08 0.07 0.08 0.18 0.15 0.21 0.27 0.22 0.35 0.44 0.27 0.22 0.42 0.47 0.46 0.36 0.28 0.30 0.28 0.26 0.16 0.11 0.12 0.08 0.04 0.02 0.01 0.00 0.01 0.02 0.03 0.14 0.11 0.03 0.03 0.14 0.35 0.21 0.16 0.19 0.22 0.27
0.35 0.50 0.30 0.37 0.54 0.56 0.74 0.74 0.68 0.66 0.57 0.41 0.35 0.32 0.26 0.25 0.25 0.12 0.09 0.06 0.03 0.02 0.02 0.01 0.01 0.00 0.00 0.00 0.00 0.01 0.03 0.07 0.10 0.05 0.02 0.09 0.23 0.09 0.05 0.09 0.18 0.32 0.31
0.03 0.18 0.11 0.17 0.23 0.30 0.35 0.48 0.40 0.33 0.32 0.22 0.16 0.12 0.11 0.10 0.06 0.03 0.03 0.02 0.01 0.00 0.00 0.00 0.00 0.00 0.00 0.00 0.00 0.00 0.07 0.09 0.07 0.05 0.16 0.15 0.03 0.03 0.04 0.10 0.17 0.16 0.15
0.01 0.01 0.02 0.01 0.03 0.05 0.08 0.10 0.03 0.04 0.06 0.06 0.06 0.04 0.02 0.01 0.00 0.00 0.00 0.00 0.00 0.00 0.00 0.00 0.00 0.00 0.00 0.00 0.00 0.03 0.05 0.04 0.08 0.17 0.14 0.02 0.03 0.05 0.06 0.08 0.07 0.07 0.17
0.00 0.01 0.00 0.00 0.00 0.00 0.00 0.00 0.00 0.00 0.00 0.00 0.00 0.00 0.00 0.00 0.00 0.00 0.00 0.00 0.00 0.00 0.00 0.00 0.01 0.01 0.01 0.01 0.04 0.06 0.05 0.09 0.16 0.07 0.01 0.01 0.02 0.02 0.02 0.04 0.06 0.11 0.24
0.00 0.00 0.00 0.00 0.00 0.00 0.00 0.00 0.00 0.00 0.00 0.00 0.00 0.00 0.00 0.00 0.00 0.00 0.00 0.00 0.00 0.00 0.00 0.00 0.01 0.01 0.02 0.03 0.05 0.05 0.12 0.16 0.07 0.05 0.03 0.04 0.05 0.08 0.09 0.11 0.15 0.20 0.32

GFSMW_prec_precacc_081.txt.gz
Total_Precipitation_Accumulation
0.00 0.00 0.00 0.00 0.00 0.00 0.03 0.04 0.04 0.05 0.09 0.09 0.07 0.19 0.27 0.28 0.26 0.40 0.33 0.24 0.09 0.06 0.03 0.00 0.00 0.00 0.00 0.00 0.00 0.00 0.00 0.00 0.00 0.00 0.00 0.00 0.00 0.00 0.00 0.00 0.00 0.00 0.00
0.00 0.00 0.00 0.00 0.00 0.00 0.00 0.01 0.02 0.04 0.07 0.07 0.11 0.17 0.53 0.48 0.57 0.56 0.32 0.26 0.29 0.31 0.13 0.04 0.01 0.00 0.00 0.00 0.00 0.00 0.00 0.00 0.00 0.01 0.02 0.02 0.00 0.00 0.00 0.00 0.00 0.00 0.00
0.00 0.00 0.00 0.00 0.00 0.00 0.00 0.00 0.00 0.00 0.01 0.07 0.15 0.19 0.35 0.37 0.31 0.24 0.19 0.15 0.36 0.57 0.28 0.17 0.10 0.05 0.07 0.07 0.03 0.05 0.05 0.05 0.02 0.01 0.04 0.07 0.03 0.02 0.00 0.00 0.00 0.00 0.00
0.00 0.00 0.00 0.00 0.00 0.00 0.00 0.00 0.00 0.00 0.00 0.00 0.02 0.04 0.11 0.17 0.16 0.23 0.34 0.31 0.38 0.55 0.44 0.33 0.26 0.17 0.15 0.15 0.17 0.13 0.12 0.12 0.10 0.05 0.02 0.04 0.06 0.09 0.06 0.01 0.01 0.01 0.01
0.00 0.00 0.00 0.00 0.00 0.00 0.00 0.00 0.00 0.00 0.00 0.00 0.00 0.02 0.14 0.17 0.18 0.21 0.20 0.23 0.27 0.31 0.40 0.39 0.38 0.23 0.27 0.24 0.19 0.16 0.12 0.10 0.09 0.08 0.08 0.07 0.06 0.07 0.11 0.10 0.03 0.02 0.01
0.00 0.00 0.00 0.00 0.00 0.00 0.00 0.00 0.00 0.00 0.00 0.00 0.00 0.01 0.04 0.13 0.18 0.15 0.16 0.20 0.21 0.20 0.22 0.24 0.28 0.27 0.25 0.25 0.23 0.22 0.15 0.13 0.13 0.12 0.13 0.18 0.24 0.19 0.21 0.17 0.08 0.06 0.03
0.00 0.00 0.00 0.00 0.00 0.00 0.00 0.00 0.00 0.00 0.00 0.00 0.01 0.01 0.01 0.05 0.09 0.10 0.11 0.14 0.14 0.12 0.12 0.19 0.22 0.21 0.22 0.23 0.22 0.23 0.19 0.18 0.21 0.24 0.21 0.21 0.23 0.24 0.30 0.36 0.22 0.18 0.10
0.00 0.00 0.00 0.00 0.00 0.00 0.00 0.00 0.00 0.00 0.00 0.00 0.00 0.00 0.03 0.04 0.07 0.08 0.08 0.10 0.14 0.15 0.16 0.18 0.24 0.25 0.25 0.23 0.19 0.21 0.20 0.23 0.30 0.31 0.28 0.24 0.22 0.25 0.31 0.38 0.41 0.35 0.25
0.00 0.00 0.00 0.00 0.00 0.00 0.00 0.00 0.00 0.00 0.00 0.03 0.02 0.01 0.02 0.04 0.06 0.09 0.11 0.11 0.12 0.15 0.18 0.20 0.21 0.21 0.21 0.21 0.20 0.20 0.18 0.19 0.24 0.26 0.29 0.32 0.29 0.31 0.35 0.45 0.60 0.85 0.89
0.00 0.00 0.00 0.00 0.00 0.00 0.00 0.00 0.00 0.00 0.01 0.01 0.00 0.01 0.03 0.05 0.06 0.06 0.07 0.09 0.11 0.10 0.12 0.12 0.12 0.12 0.11 0.12 0.13 0.15 0.17 0.19 0.22 0.29 0.36 0.41 0.44 0.47 0.50 0.53 0.57 0.73 0.92
0.00 0.00 0.00 0.00 0.00 0.00 0.00 0.00 0.00 0.00 0.01 0.00 0.00 0.02 0.03 0.04 0.06 0.04 0.04 0.05 0.05 0.05 0.05 0.06 0.06 0.05 0.04 0.04 0.05 0.07 0.09 0.14 0.19 0.24 0.32 0.37 0.41 0.51 0.59 0.66 0.79 0.91 0.99
0.00 0.00 0.00 0.00 0.00 0.00 0.00 0.00 0.00 0.00 0.00 0.00 0.00 0.01 0.02 0.04 0.05 0.05 0.03 0.03 0.03 0.02 0.01 0.01 0.01 0.01 0.01 0.01 0.02 0.03 0.04 0.05 0.07 0.11 0.20 0.27 0.34 0.43 0.48 0.53 0.54 0.54 0.52
0.00 0.00 0.00 0.00 0.00 0.00 0.00 0.00 0.01 0.00 0.00 0.00 0.00 0.00 0.00 0.00 0.01 0.01 0.02 0.03 0.03 0.01 0.01 0.01 0.01 0.00 0.00 0.00 0.00 0.01 0.04 0.06 0.08 0.12 0.18 0.19 0.23 0.29 0.28 0.28 0.29 0.31 0.36
0.00 0.00 0.02 0.01 0.00 0.00 0.01 0.02 0.01 0.01 0.01 0.01 0.01 0.01 0.02 0.02 0.01 0.01 0.01 0.02 0.02 0.02 0.01 0.01 0.01 0.00 0.00 0.01 0.02 0.04 0.07 0.09 0.09 0.10 0.13 0.18 0.23 0.24 0.21 0.19 0.24 0.27 0.35
0.00 0.00 0.14 0.18 0.03 0.02 0.01 0.01 0.02 0.03 0.03 0.03 0.03 0.04 0.03 0.02 0.02 0.02 0.01 0.01 0.02 0.01 0.01 0.02 0.02 0.02 0.02 0.05 0.07 0.08 0.12 0.16 0.19 0.22 0.26 0.26 0.26 0.21 0.20 0.21 0.20 0.34 0.41
0.01 0.00 0.02 0.20 0.16 0.02 0.01 0.03 0.03 0.04 0.07 0.06 0.05 0.03 0.03 0.02 0.02 0.02 0.01 0.01 0.02 0.03 0.07 0.10 0.13 0.14 0.17 0.29 0.26 0.24 0.26 0.30 0.33 0.34 0.31 0.28 0.25 0.18 0.16 0.16 0.20 0.34 0.65
0.01 0.01 0.00 0.00 0.04 0.17 0.12 0.12 0.14 0.21 0.19 0.12 0.07 0.05 0.05 0.10 0.09 0.10 0.07 0.06 0.06 0.08 0.13 0.22 0.35 0.54 0.70 0.79 0.74 0.65 0.64 0.65 0.52 0.33 0.23 0.14 0.08 0.06 0.05 0.09 0.16 0.33 0.61
0.02 0.01 0.00 0.00 0.00 0.00 0.01 0.02 0.04 0.07 0.19 0.19 0.24 0.16 0.18 0.31 0.55 0.45 0.42 0.38 0.31 0.24 0.27 0.30 0.32 0.41 0.46 0.40 0.30 0.24 0.18 0.13 0.09 0.05 0.02 0.02 0.02 0.04 0.06 0.14 0.39 0.35 0.21
0.01 0.01 0.00 0.00 0.01 0.01 0.01 0.02 0.03 0.05 0.03 0.08 0.11 0.15 0.44 0.54 0.49 0.31 0.49 0.48 0.39 0.43 0.48 0.46 0.37 0.30 0.21 0.14 0.10 0.07 0.06 0.05 0.03 0.01 0.01 0.05 0.03 0.03 0.13 0.37 0.41 0.19 0.13
0.02 0.01 0.00 0.01 0.03 0.03 0.03 0.05 0.04 0.05 0.12 0.09 0.07 0.27 0.70 0.56 0.44 0.23 0.40 0.50 0.38 0.29 0.30 0.29 0.20 0.14 0.08 0.06 0.04 0.04 0.05 0.03 0.01 0.02 0.02 0.03 0.04 0.10 0.37 0.27 0.24 0.26 0.17
0.15 0.08 0.07 0.08 0.18 0.15 0.21 0.27 0.22 0.35 0.44 0.27 0.22 0.43 0.48 0.46 0.36 0.28 0.30 0.28 0.26 0.16 0.11 0.12 0.08 0.04 0.02 0.01 0.00 0.01 0.02 0.03 0.14 0.11 0.03 0.03 0.14 0.35 0.21 0.16 0.19 0.22 0.27
0.35 0.50 0.30 0.37 0.54 0.56 0.74 0.74 0.68 0.66 0.57 0.41 0.35 0.32 0.26 0.25 0.25 0.12 0.09 0.06 0.03 0.02 0.02 0.01 0.01 0.00 0.00 0.00 0.00 0.01 0.03 0.07 0.10 0.05 0.02 0.09 0.23 0.09 0.05 0.09 0.18 0.32 0.31
0.03 0.18 0.11 0.17 0.23 0.30 0.35 0.48 0.40 0.33 0.32 0.22 0.16 0.12 0.11 0.10 0.06 0.03 0.03 0.02 0.01 0.00 0.00 0.00 0.00 0.00 0.00 0.00 0.00 0.00 0.07 0.09 0.07 0.05 0.16 0.15 0.03 0.03 0.04 0.10 0.17 0.16 0.15
0.01 0.01 0.02 0.01 0.03 0.05 0.08 0.10 0.03 0.04 0.06 0.06 0.06 0.04 0.02 0.01 0.00 0.00 0.00 0.00 0.00 0.00 0.00 0.00 0.00 0.00 0.00 0.00 0.00 0.03 0.05 0.04 0.08 0.17 0.14 0.02 0.03 0.05 0.06 0.08 0.07 0.07 0.17
0.00 0.01 0.00 0.00 0.00 0.00 0.00 0.00 0.00 0.00 0.00 0.00 0.00 0.00 0.00 0.00 0.00 0.00 0.00 0.00 0.00 0.00 0.00 0.00 0.01 0.01 0.01 0.01 0.04 0.06 0.05 0.09 0.16 0.07 0.01 0.01 0.02 0.02 0.02 0.04 0.06 0.11 0.24
0.00 0.00 0.00 0.00 0.00 0.00 0.00 0.00 0.00 0.00 0.00 0.00 0.00 0.00 0.00 0.00 0.00 0.00 0.00 0.00 0.00 0.00 0.00 0.00 0.01 0.01 0.02 0.03 0.05 0.05 0.12 0.16 0.07 0.05 0.03 0.04 0.05 0.08 0.09 0.11 0.15 0.20 0.32

GFSMW_prec_precacc_084.txt.gz
Total_Precipitation_Accumulation
0.00 0.00 0.00 0.00 0.00 0.00 0.03 0.04 0.04 0.06 0.09 0.09 0.07 0.19 0.27 0.28 0.26 0.40 0.33 0.24 0.09 0.06 0.03 0.00 0.00 0.00 0.00 0.00 0.00 0.00 0.00 0.00 0.00 0.00 0.00 0.00 0.00 0.00 0.00 0.00 0.00 0.00 0.00
0.00 0.00 0.00 0.00 0.00 0.00 0.00 0.01 0.02 0.06 0.10 0.08 0.11 0.20 0.57 0.51 0.58 0.56 0.32 0.26 0.29 0.31 0.13 0.04 0.01 0.00 0.00 0.00 0.00 0.00 0.00 0.00 0.00 0.01 0.02 0.02 0.00 0.00 0.00 0.00 0.00 0.00 0.00
0.00 0.00 0.00 0.00 0.00 0.00 0.00 0.00 0.00 0.00 0.02 0.17 0.22 0.26 0.43 0.39 0.32 0.24 0.20 0.21 0.38 0.58 0.28 0.17 0.10 0.06 0.07 0.07 0.03 0.05 0.05 0.05 0.02 0.01 0.04 0.07 0.03 0.02 0.00 0.00 0.00 0.00 0.00
0.00 0.00 0.00 0.00 0.00 0.00 0.00 0.00 0.00 0.00 0.00 0.02 0.05 0.05 0.11 0.18 0.16 0.29 0.40 0.33 0.39 0.57 0.46 0.34 0.26 0.18 0.15 0.15 0.17 0.13 0.12 0.12 0.10 0.05 0.02 0.04 0.06 0.09 0.06 0.01 0.01 0.01 0.01
0.00 0.00 0.00 0.00 0.00 0.00 0.00 0.00 0.00 0.00 0.00 0.00 0.00 0.03 0.15 0.18 0.20 0.21 0.21 0.23 0.27 0.32 0.42 0.43 0.40 0.23 0.27 0.24 0.19 0.16 0.12 0.10 0.09 0.08 0.09 0.08 0.07 0.07 0.12 0.10 0.04 0.04 0.02
0.00 0.00 0.00 0.00 0.00 0.00 0.00 0.00 0.00 0.00 0.00 0.00 0.00 0.01 0.04 0.14 0.19 0.16 0.16 0.21 0.21 0.20 0.22 0.24 0.30 0.30 0.27 0.25 0.24 0.23 0.16 0.14 0.14 0.14 0.13 0.20 0.26 0.22 0.24 0.20 0.10 0.08 0.04
0.00 0.00 0.00 0.00 0.00 0.00 0.00 0.00 0.00 0.00 0.00 0.00 0.01 0.01 0.01 0.05 0.09 0.10 0.11 0.14 0.14 0.12 0.12 0.20 0.22 0.21 0.22 0.24 0.22 0.24 0.22 0.23 0.26 0.29 0.27 0.26 0.27 0.28 0.35 0.42 0.27 0.21 0.13
0.00 0.00 0.00 0.00 0.00 0.00 0.00 0.00 0.00 0.00 0.00 0.00 0.00 0.00 0.03 0.04 0.07 0.08 0.08 0.10 0.14 0.15 0.16 0.19 0.25 0.26 0.25 0.23 0.20 0.21 0.21 0.25 0.34 0.37 0.32 0.27 0.25 0.30 0.36 0.44 0.48 0.42 0.30
0.00 0.00 0.00 0.00 0.00 0.00 0.00 0.00 0.00 0.00 0.00 0.03 0.02 0.01 0.02 0.04 0.06 0.09 0.11 0.11 0.12 0.15 0.18 0.20 0.21 0.22 0.21 0.21 0.20 0.20 0.18 0.19 0.24 0.26 0.30 0.33 0.31 0.35 0.41 0.51 0.67 0.96 0.97
0.00 0.00 0.00 0.00 0.00 0.00 0.00 0.00 0.00 0.00 0.01 0.01 0.00 0.01 0.03 0.05 0.06 0.06 0.07 0.09 0.11 0.10 0.12 0.12 0.12 0.12 0.11 0.12 0.13 0.15 0.17 0.20 0.23 0.30 0.36 0.42 0.45 0.49 0.54 0.58 0.62 0.77 0.95
0.00 0.00 0.00 0.00 0.00 0.00 0.00 0.00 0.00 0.00 0.01 0.00 0.00 0.02 0.03 0.04 0.06 0.04 0.04 0.05 0.05 0.05 0.05 0.06 0.06 0.05 0.04 0.04 0.05 0.07 0.09 0.15 0.19 0.24 0.32 0.38 0.42 0.52 0.60 0.67 0.80 0.92 1.00
0.00 0.00 0.00 0.00 0.00 0.00 0.00 0.00 0.00 0.00 0.00 0.00 0.00 0.01 0.02 0.04 0.05 0.05 0.03 0.03 0.03 0.02 0.01 0.01 0.01 0.01 0.01 0.01 0.02 0.03 0.04 0.06 0.07 0.11 0.20 0.27 0.34 0.43 0.48 0.53 0.54 0.54 0.53
0.00 0.00 0.00 0.00 0.00 0.00 0.00 0.00 0.01 0.00 0.00 0.00 0.00 0.00 0.00 0.00 0.01 0.01 0.02 0.03 0.03 0.01 0.01 0.01 0.01 0.00 0.00 0.00 0.00 0.02 0.04 0.06 0.09 0.12 0.18 0.19 0.23 0.29 0.28 0.28 0.29 0.31 0.36
0.00 0.00 0.02 0.01 0.00 0.00 0.01 0.02 0.01 0.01 0.01 0.01 0.01 0.01 0.02 0.02 0.01 0.01 0.01 0.02 0.02 0.02 0.01 0.01 0.01 0.00 0.00 0.01 0.02 0.04 0.07 0.09 0.09 0.10 0.13 0.18 0.23 0.24 0.21 0.20 0.24 0.28 0.36
0.00 0.00 0.14 0.18 0.03 0.02 0.01 0.01 0.02 0.03 0.03 0.03 0.03 0.04 0.03 0.02 0.02 0.02 0.01 0.01 0.02 0.01 0.01 0.02 0.02 0.02 0.02 0.05 0.07 0.08 0.12 0.16 0.19 0.22 0.26 0.27 0.26 0.22 0.20 0.21 0.21 0.34 0.41
0.01 0.00 0.02 0.20 0.16 0.02 0.01 0.03 0.03 0.04 0.07 0.06 0.05 0.03 0.03 0.02 0.02 0.02 0.01 0.01 0.02 0.03 0.07 0.10 0.13 0.14 0.17 0.29 0.26 0.24 0.26 0.30 0.33 0.34 0.31 0.29 0.25 0.18 0.16 0.16 0.20 0.34 0.65
0.01 0.01 0.00 0.00 0.04 0.17 0.12 0.12 0.14 0.21 0.19 0.12 0.07 0.05 0.05 0.10 0.09 0.10 0.07 0.06 0.06 0.08 0.13 0.22 0.35 0.54 0.70 0.79 0.74 0.65 0.64 0.65 0.52 0.33 0.23 0.14 0.08 0.06 0.05 0.09 0.16 0.33 0.61
0.02 0.01 0.00 0.00 0.00 0.00 0.01 0.02 0.04 0.07 0.19 0.19 0.24 0.16 0.18 0.31 0.55 0.45 0.42 0.39 0.31 0.24 0.27 0.30 0.32 0.41 0.46 0.41 0.30 0.24 0.18 0.13 0.09 0.05 0.02 0.02 0.02 0.04 0.06 0.14 0.39 0.35 0.21
0.01 0.01 0.00 0.00 0.01 0.01 0.01 0.02 0.03 0.05 0.03 0.08 0.11 0.15 0.44 0.54 0.49 0.31 0.49 0.48 0.39 0.43 0.48 0.46 0.37 0.30 0.21 0.14 0.10 0.07 0.06 0.05 0.03 0.01 0.01 0.05 0.03 0.03 0.13 0.37 0.41 0.19 0.13
0.02 0.01 0.00 0.01 0.03 0.03 0.03 0.05 0.04 0.05 0.12 0.09 0.07 0.28 0.70 0.56 0.45 0.23 0.40 0.50 0.38 0.29 0.30 0.29 0.20 0.14 0.08 0.06 0.04 0.04 0.05 0.03 0.01 0.02 0.02 0.03 0.04 0.10 0.37 0.27 0.24 0.26 0.17
0.15 0.08 0.07 0.08 0.18 0.15 0.21 0.27 0.22 0.35 0.44 0.27 0.22 0.43 0.48 0.47 0.37 0.28 0.30 0.28 0.26 0.16 0.11 0.12 0.08 0.04 0.02 0.01 0.00 0.01 0.02 0.03 0.14 0.11 0.03 0.03 0.14 0.35 0.21 0.16 0.19 0.22 0.27
0.35 0.50 0.30 0.37 0.54 0.56 0.74 0.74 0.68 0.66 0.57 0.41 0.36 0.32 0.26 0.25 0.25 0.12 0.09 0.06 0.03 0.02 0.02 0.01 0.01 0.00 0.00 0.00 0.00 0.01 0.03 0.07 0.10 0.05 0.02 0.09 0.23 0.09 0.05 0.09 0.18 0.32 0.31
0.03 0.18 0.11 0.17 0.23 0.30 0.35 0.48 0.40 0.33 0.32 0.22 0.16 0.12 0.11 0.10 0.06 0.03 0.03 0.02 0.01 0.00 0.00 0.00 0.00 0.00 0.00 0.00 0.00 0.00 0.07 0.09 0.07 0.05 0.16 0.15 0.03 0.03 0.04 0.10 0.17 0.16 0.15
0.01 0.01 0.02 0.01 0.03 0.05 0.08 0.10 0.03 0.04 0.06 0.06 0.06 0.04 0.02 0.01 0.00 0.00 0.00 0.00 0.00 0.00 0.00 0.00 0.00 0.00 0.00 0.00 0.00 0.03 0.05 0.04 0.08 0.17 0.14 0.02 0.03 0.05 0.06 0.08 0.07 0.07 0.17
0.00 0.01 0.00 0.00 0.00 0.00 0.00 0.00 0.00 0.00 0.00 0.00 0.00 0.00 0.00 0.00 0.00 0.00 0.00 0.00 0.00 0.00 0.00 0.00 0.01 0.01 0.01 0.01 0.04 0.06 0.05 0.09 0.16 0.07 0.01 0.01 0.02 0.02 0.02 0.04 0.06 0.11 0.24
0.00 0.00 0.00 0.00 0.00 0.00 0.00 0.00 0.00 0.00 0.00 0.00 0.00 0.00 0.00 0.00 0.00 0.00 0.00 0.00 0.00 0.00 0.00 0.00 0.01 0.01 0.02 0.03 0.05 0.05 0.12 0.16 0.07 0.05 0.03 0.04 0.05 0.08 0.09 0.11 0.15 0.20 0.32

GFSMW_prec_precacc_087.txt.gz
Total_Precipitation_Accumulation
0.00 0.01 0.03 0.02 0.00 0.00 0.03 0.05 0.05 0.11 0.12 0.09 0.08 0.21 0.27 0.28 0.26 0.40 0.33 0.24 0.09 0.06 0.03 0.00 0.00 0.00 0.00 0.00 0.00 0.00 0.00 0.00 0.00 0.00 0.00 0.00 0.00 0.00 0.00 0.00 0.00 0.00 0.00
0.00 0.00 0.00 0.00 0.00 0.00 0.00 0.01 0.02 0.09 0.11 0.09 0.12 0.22 0.58 0.51 0.58 0.56 0.32 0.26 0.29 0.31 0.13 0.04 0.01 0.00 0.00 0.00 0.00 0.00 0.00 0.00 0.00 0.01 0.02 0.02 0.00 0.00 0.00 0.00 0.00 0.00 0.00
0.00 0.00 0.00 0.00 0.00 0.00 0.00 0.00 0.01 0.02 0.06 0.20 0.25 0.28 0.45 0.39 0.32 0.24 0.24 0.27 0.40 0.59 0.29 0.17 0.10 0.06 0.07 0.07 0.03 0.05 0.05 0.05 0.02 0.01 0.04 0.07 0.03 0.02 0.00 0.00 0.00 0.00 0.00
0.00 0.00 0.00 0.00 0.00 0.00 0.00 0.00 0.02 0.03 0.05 0.08 0.07 0.06 0.14 0.19 0.16 0.32 0.55 0.39 0.39 0.57 0.47 0.35 0.28 0.19 0.15 0.15 0.17 0.13 0.12 0.12 0.10 0.05 0.02 0.04 0.06 0.09 0.06 0.01 0.01 0.01 0.01
0.00 0.00 0.00 0.00 0.00 0.00 0.00 0.00 0.01 0.03 0.02 0.04 0.04 0.09 0.15 0.19 0.22 0.24 0.23 0.24 0.28 0.34 0.51 0.47 0.42 0.24 0.27 0.25 0.20 0.16 0.13 0.11 0.10 0.08 0.09 0.08 0.07 0.08 0.12 0.10 0.04 0.04 0.02
0.00 0.00 0.00 0.00 0.00 0.00 0.00 0.00 0.00 0.00 0.00 0.01 0.01 0.04 0.06 0.18 0.24 0.20 0.21 0.27 0.25 0.22 0.24 0.26 0.32 0.33 0.28 0.25 0.24 0.23 0.16 0.14 0.14 0.14 0.14 0.21 0.28 0.22 0.24 0.21 0.11 0.09 0.05
0.00 0.00 0.00 0.00 0.00 0.00 0.00 0.00 0.00 0.00 0.00 0.00 0.01 0.01 0.01 0.05 0.09 0.11 0.12 0.15 0.14 0.13 0.13 0.20 0.22 0.21 0.22 0.24 0.23 0.25 0.23 0.24 0.28 0.32 0.31 0.30 0.28 0.31 0.37 0.45 0.30 0.23 0.14
0.00 0.00 0.00 0.00 0.00 0.00 0.00 0.00 0.00 0.00 0.00 0.00 0.00 0.00 0.03 0.04 0.07 0.08 0.08 0.10 0.14 0.15 0.16 0.19 0.25 0.26 0.26 0.23 0.20 0.22 0.22 0.26 0.36 0.39 0.34 0.28 0.26 0.31 0.38 0.46 0.51 0.44 0.33
0.00 0.00 0.00 0.00 0.00 0.00 0.00 0.00 0.00 0.00 0.00 0.03 0.02 0.01 0.02 0.04 0.06 0.09 0.11 0.11 0.12 0.15 0.18 0.20 0.21 0.22 0.21 0.21 0.20 0.20 0.18 0.19 0.24 0.27 0.30 0.33 0.31 0.36 0.42 0.52 0.69 0.98 1.00
0.00 0.00 0.00 0.00 0.00 0.00 0.00 0.00 0.00 0.00 0.01 0.01 0.00 0.01 0.03 0.05 0.06 0.06 0.07 0.09 0.11 0.10 0.12 0.12 0.12 0.12 0.11 0.12 0.13 0.15 0.17 0.20 0.23 0.30 0.36 0.42 0.46 0.50 0.54 0.58 0.63 0.78 0.98
0.00 0.00 0.00 0.00 0.00 0.00 0.00 0.00 0.00 0.00 0.01 0.00 0.00 0.02 0.03 0.04 0.06 0.04 0.04 0.05 0.05 0.05 0.05 0.06 0.06 0.05 0.04 0.04 0.05 0.07 0.09 0.15 0.20 0.24 0.33 0.38 0.42 0.52 0.60 0.67 0.80 0.92 1.00
0.00 0.00 0.00 0.00 0.00 0.00 0.00 0.00 0.00 0.00 0.00 0.00 0.00 0.01 0.02 0.04 0.05 0.05 0.03 0.03 0.03 0.02 0.01 0.01 0.01 0.01 0.01 0.01 0.02 0.03 0.04 0.06 0.07 0.11 0.20 0.27 0.34 0.43 0.48 0.53 0.54 0.54 0.53
0.00 0.00 0.00 0.00 0.00 0.00 0.00 0.00 0.01 0.00 0.00 0.00 0.00 0.00 0.00 0.00 0.01 0.01 0.02 0.03 0.03 0.01 0.01 0.01 0.01 0.00 0.00 0.00 0.00 0.02 0.04 0.06 0.09 0.12 0.18 0.19 0.23 0.29 0.28 0.28 0.29 0.31 0.36
0.00 0.00 0.02 0.01 0.00 0.00 0.01 0.02 0.01 0.01 0.01 0.01 0.01 0.01 0.02 0.02 0.01 0.01 0.01 0.02 0.02 0.02 0.01 0.01 0.01 0.00 0.00 0.01 0.02 0.04 0.07 0.09 0.09 0.10 0.13 0.18 0.23 0.24 0.21 0.20 0.24 0.28 0.36
0.00 0.00 0.14 0.18 0.03 0.02 0.01 0.01 0.02 0.03 0.03 0.03 0.03 0.04 0.03 0.02 0.02 0.02 0.01 0.01 0.02 0.01 0.01 0.02 0.02 0.02 0.02 0.05 0.07 0.08 0.12 0.16 0.19 0.22 0.26 0.27 0.26 0.22 0.20 0.21 0.21 0.34 0.41
0.01 0.00 0.02 0.20 0.16 0.02 0.01 0.03 0.03 0.04 0.07 0.06 0.05 0.03 0.03 0.02 0.02 0.02 0.01 0.01 0.02 0.03 0.07 0.10 0.13 0.14 0.17 0.29 0.26 0.24 0.26 0.30 0.33 0.34 0.31 0.29 0.25 0.18 0.16 0.16 0.20 0.34 0.65
0.01 0.01 0.00 0.00 0.04 0.17 0.12 0.12 0.14 0.21 0.19 0.12 0.07 0.05 0.05 0.10 0.09 0.10 0.07 0.06 0.06 0.08 0.13 0.22 0.35 0.54 0.70 0.79 0.74 0.65 0.64 0.65 0.52 0.33 0.23 0.14 0.08 0.06 0.05 0.09 0.16 0.33 0.61
0.02 0.01 0.00 0.00 0.00 0.00 0.01 0.02 0.04 0.07 0.19 0.19 0.24 0.16 0.18 0.31 0.55 0.45 0.42 0.39 0.31 0.24 0.27 0.30 0.32 0.41 0.46 0.41 0.30 0.24 0.18 0.13 0.09 0.05 0.02 0.02 0.02 0.04 0.06 0.14 0.39 0.35 0.21
0.01 0.01 0.00 0.00 0.01 0.01 0.01 0.02 0.03 0.05 0.03 0.08 0.11 0.15 0.44 0.54 0.49 0.31 0.49 0.48 0.39 0.43 0.48 0.46 0.37 0.30 0.21 0.14 0.10 0.07 0.06 0.05 0.03 0.01 0.01 0.05 0.03 0.03 0.13 0.37 0.41 0.19 0.13
0.02 0.01 0.00 0.01 0.03 0.03 0.03 0.05 0.04 0.05 0.12 0.09 0.07 0.28 0.70 0.56 0.45 0.23 0.40 0.50 0.38 0.29 0.30 0.29 0.20 0.14 0.08 0.06 0.04 0.04 0.05 0.03 0.01 0.02 0.02 0.03 0.04 0.10 0.37 0.27 0.24 0.26 0.17
0.15 0.08 0.07 0.08 0.18 0.15 0.21 0.27 0.22 0.35 0.44 0.27 0.22 0.43 0.48 0.47 0.37 0.28 0.30 0.28 0.26 0.16 0.11 0.12 0.08 0.04 0.02 0.01 0.00 0.01 0.02 0.03 0.14 0.11 0.03 0.03 0.14 0.35 0.21 0.16 0.19 0.22 0.27
0.35 0.50 0.30 0.37 0.54 0.56 0.74 0.74 0.68 0.66 0.57 0.41 0.36 0.32 0.26 0.25 0.25 0.12 0.09 0.06 0.03 0.02 0.02 0.01 0.01 0.00 0.00 0.00 0.00 0.01 0.03 0.07 0.10 0.05 0.02 0.09 0.23 0.09 0.05 0.09 0.18 0.32 0.31
0.03 0.18 0.11 0.17 0.23 0.30 0.35 0.48 0.40 0.33 0.32 0.22 0.16 0.12 0.11 0.10 0.06 0.03 0.03 0.02 0.01 0.00 0.00 0.00 0.00 0.00 0.00 0.00 0.00 0.00 0.07 0.09 0.07 0.05 0.16 0.15 0.03 0.03 0.04 0.10 0.17 0.16 0.15
0.02 0.01 0.02 0.01 0.03 0.05 0.08 0.10 0.03 0.04 0.06 0.06 0.06 0.04 0.02 0.01 0.00 0.00 0.00 0.00 0.00 0.00 0.00 0.00 0.00 0.00 0.00 0.00 0.00 0.03 0.05 0.04 0.08 0.17 0.14 0.02 0.03 0.05 0.06 0.08 0.07 0.07 0.17
0.00 0.01 0.00 0.00 0.00 0.00 0.00 0.00 0.00 0.00 0.00 0.00 0.00 0.00 0.00 0.00 0.00 0.00 0.00 0.00 0.00 0.00 0.00 0.00 0.01 0.01 0.01 0.01 0.04 0.06 0.05 0.09 0.16 0.07 0.01 0.01 0.02 0.02 0.02 0.04 0.06 0.11 0.24
0.00 0.00 0.00 0.00 0.00 0.00 0.00 0.00 0.00 0.00 0.00 0.00 0.00 0.00 0.00 0.00 0.00 0.00 0.00 0.00 0.00 0.00 0.00 0.00 0.01 0.01 0.02 0.03 0.05 0.05 0.12 0.16 0.07 0.05 0.03 0.04 0.05 0.08 0.09 0.11 0.15 0.20 0.32

GFSMW_prec_precacc_090.txt.gz
Total_Precipitation_Accumulation
0.00 0.01 0.06 0.07 0.08 0.05 0.04 0.07 0.13 0.19 0.17 0.11 0.08 0.22 0.28 0.28 0.26 0.40 0.33 0.24 0.09 0.06 0.03 0.00 0.00 0.00 0.00 0.00 0.00 0.00 0.00 0.00 0.00 0.00 0.00 0.00 0.00 0.00 0.00 0.00 0.00 0.00 0.00
0.00 0.00 0.01 0.02 0.02 0.03 0.01 0.01 0.06 0.18 0.16 0.14 0.21 0.31 0.66 0.53 0.58 0.56 0.32 0.26 0.29 0.31 0.13 0.04 0.01 0.00 0.00 0.00 0.00 0.00 0.00 0.00 0.00 0.01 0.02 0.02 0.00 0.00 0.00 0.00 0.00 0.00 0.00
0.00 0.00 0.00 0.00 0.02 0.02 0.00 0.00 0.01 0.05 0.11 0.26 0.31 0.31 0.50 0.40 0.34 0.28 0.25 0.28 0.41 0.59 0.29 0.17 0.10 0.06 0.07 0.07 0.03 0.05 0.05 0.05 0.02 0.01 0.04 0.07 0.03 0.02 0.00 0.00 0.00 0.00 0.00
0.00 0.00 0.00 0.00 0.00 0.00 0.00 0.00 0.03 0.05 0.05 0.11 0.09 0.08 0.15 0.20 0.20 0.38 0.64 0.47 0.41 0.58 0.48 0.36 0.30 0.21 0.17 0.16 0.19 0.14 0.13 0.12 0.10 0.05 0.02 0.04 0.06 0.09 0.06 0.01 0.01 0.01 0.01
0.00 0.00 0.00 0.00 0.00 0.00 0.00 0.00 0.04 0.05 0.03 0.06 0.07 0.12 0.18 0.22 0.27 0.27 0.28 0.32 0.35 0.41 0.67 0.57 0.45 0.26 0.33 0.28 0.22 0.18 0.15 0.12 0.10 0.09 0.09 0.08 0.08 0.08 0.12 0.11 0.04 0.04 0.02
0.00 0.00 0.00 0.00 0.00 0.00 0.00 0.00 0.00 0.02 0.02 0.04 0.06 0.13 0.12 0.23 0.26 0.24 0.31 0.33 0.31 0.32 0.31 0.35 0.44 0.46 0.31 0.30 0.28 0.24 0.16 0.14 0.14 0.14 0.14 0.21 0.28 0.23 0.25 0.21 0.11 0.10 0.06
0.00 0.00 0.00 0.00 0.00 0.00 0.00 0.00 0.00 0.00 0.02 0.03 0.04 0.08 0.05 0.05 0.09 0.13 0.15 0.17 0.16 0.14 0.17 0.23 0.24 0.22 0.24 0.25 0.24 0.25 0.23 0.24 0.28 0.32 0.31 0.31 0.29 0.32 0.39 0.46 0.30 0.24 0.15
0.00 0.00 0.00 0.00 0.00 0.00 0.00 0.00 0.00 0.00 0.01 0.01 0.00 0.01 0.03 0.04 0.07 0.08 0.08 0.10 0.14 0.15 0.16 0.19 0.25 0.26 0.26 0.23 0.20 0.22 0.22 0.26 0.36 0.39 0.34 0.28 0.26 0.32 0.39 0.47 0.53 0.47 0.35
0.00 0.00 0.00 0.00 0.00 0.00 0.00 0.00 0.00 0.00 0.00 0.03 0.02 0.01 0.02 0.04 0.06 0.09 0.11 0.11 0.12 0.15 0.18 0.20 0.21 0.22 0.21 0.21 0.20 0.20 0.18 0.19 0.24 0.27 0.30 0.33 0.31 0.36 0.42 0.53 0.69 0.99 1.00
0.00 0.00 0.00 0.00 0.00 0.00 0.00 0.00 0.00 0.00 0.01 0.01 0.00 0.01 0.03 0.05 0.06 0.06 0.07 0.09 0.11 0.10 0.12 0.12 0.12 0.12 0.11 0.12 0.14 0.16 0.17 0.20 0.23 0.30 0.36 0.42 0.46 0.50 0.54 0.59 0.63 0.78 0.98
0.00 0.00 0.00 0.00 0.00 0.00 0.00 0.00 0.00 0.00 0.01 0.00 0.00 0.02 0.03 0.04 0.06 0.04 0.04 0.05 0.05 0.05 0.05 0.06 0.06 0.05 0.04 0.04 0.05 0.07 0.09 0.15 0.20 0.24 0.33 0.38 0.42 0.52 0.60 0.67 0.80 0.92 1.00
0.00 0.00 0.00 0.00 0.00 0.00 0.00 0.00 0.00 0.00 0.00 0.00 0.00 0.01 0.02 0.04 0.05 0.05 0.03 0.03 0.03 0.02 0.01 0.01 0.01 0.01 0.01 0.01 0.02 0.03 0.04 0.06 0.07 0.11 0.20 0.27 0.34 0.43 0.48 0.53 0.54 0.54 0.53
0.00 0.00 0.00 0.00 0.00 0.00 0.00 0.00 0.01 0.00 0.00 0.00 0.00 0.00 0.00 0.00 0.01 0.01 0.02 0.03 0.03 0.01 0.01 0.01 0.01 0.00 0.00 0.00 0.00 0.02 0.04 0.06 0.09 0.12 0.18 0.19 0.23 0.29 0.28 0.28 0.29 0.31 0.36
0.00 0.00 0.02 0.01 0.00 0.00 0.01 0.02 0.01 0.01 0.01 0.01 0.01 0.01 0.02 0.02 0.01 0.01 0.01 0.02 0.02 0.02 0.01 0.01 0.01 0.00 0.00 0.01 0.02 0.04 0.07 0.09 0.09 0.10 0.13 0.18 0.23 0.24 0.21 0.20 0.24 0.28 0.36
0.00 0.00 0.14 0.18 0.03 0.02 0.01 0.01 0.02 0.03 0.03 0.03 0.03 0.04 0.03 0.02 0.02 0.02 0.01 0.01 0.02 0.01 0.01 0.02 0.02 0.02 0.02 0.05 0.07 0.08 0.12 0.16 0.19 0.22 0.26 0.27 0.26 0.22 0.20 0.21 0.21 0.34 0.41
0.01 0.00 0.02 0.20 0.16 0.02 0.01 0.03 0.03 0.04 0.07 0.06 0.05 0.03 0.03 0.02 0.02 0.02 0.01 0.01 0.02 0.03 0.07 0.10 0.13 0.14 0.17 0.30 0.26 0.24 0.26 0.30 0.33 0.34 0.31 0.29 0.25 0.18 0.16 0.16 0.20 0.34 0.65
0.01 0.01 0.00 0.00 0.04 0.17 0.12 0.12 0.14 0.21 0.19 0.12 0.07 0.05 0.05 0.10 0.09 0.10 0.07 0.06 0.06 0.08 0.13 0.22 0.35 0.54 0.70 0.79 0.74 0.66 0.64 0.65 0.52 0.33 0.23 0.14 0.08 0.06 0.05 0.09 0.16 0.33 0.61
0.02 0.01 0.00 0.00 0.00 0.00 0.01 0.02 0.04 0.07 0.19 0.19 0.24 0.16 0.18 0.31 0.55 0.45 0.42 0.39 0.31 0.24 0.27 0.30 0.32 0.41 0.46 0.41 0.30 0.24 0.18 0.13 0.09 0.05 0.02 0.02 0.02 0.04 0.06 0.14 0.39 0.35 0.21
0.01 0.01 0.00 0.00 0.01 0.01 0.01 0.02 0.03 0.05 0.03 0.08 0.11 0.15 0.44 0.54 0.49 0.31 0.49 0.48 0.39 0.44 0.48 0.46 0.37 0.30 0.21 0.14 0.10 0.07 0.06 0.05 0.03 0.01 0.01 0.05 0.03 0.03 0.13 0.37 0.41 0.19 0.13
0.02 0.01 0.00 0.01 0.03 0.03 0.03 0.05 0.04 0.05 0.12 0.09 0.07 0.28 0.70 0.56 0.45 0.23 0.40 0.50 0.39 0.29 0.30 0.29 0.20 0.14 0.08 0.06 0.04 0.04 0.05 0.03 0.01 0.02 0.02 0.03 0.04 0.10 0.37 0.27 0.24 0.26 0.17
0.15 0.08 0.07 0.08 0.18 0.15 0.21 0.27 0.22 0.35 0.44 0.27 0.22 0.43 0.48 0.47 0.37 0.28 0.30 0.28 0.26 0.16 0.12 0.12 0.08 0.04 0.02 0.01 0.00 0.01 0.02 0.03 0.14 0.11 0.03 0.03 0.14 0.35 0.21 0.16 0.19 0.22 0.27
0.35 0.50 0.30 0.37 0.54 0.56 0.74 0.74 0.68 0.66 0.57 0.41 0.36 0.32 0.26 0.25 0.26 0.12 0.09 0.06 0.03 0.02 0.02 0.01 0.01 0.00 0.00 0.00 0.00 0.01 0.03 0.07 0.10 0.05 0.02 0.09 0.23 0.09 0.05 0.09 0.18 0.32 0.31
0.03 0.18 0.11 0.17 0.23 0.30 0.35 0.48 0.40 0.33 0.32 0.22 0.16 0.12 0.11 0.10 0.07 0.03 0.03 0.02 0.01 0.00 0.00 0.00 0.00 0.00 0.00 0.00 0.00 0.00 0.07 0.09 0.07 0.05 0.16 0.15 0.03 0.03 0.04 0.10 0.17 0.16 0.15
0.03 0.02 0.03 0.02 0.03 0.05 0.08 0.10 0.03 0.04 0.06 0.06 0.06 0.04 0.02 0.02 0.00 0.00 0.00 0.00 0.00 0.00 0.00 0.00 0.00 0.00 0.00 0.00 0.00 0.03 0.05 0.04 0.08 0.17 0.14 0.02 0.03 0.05 0.06 0.08 0.07 0.07 0.17
0.10 0.04 0.02 0.01 0.00 0.00 0.00 0.00 0.00 0.00 0.00 0.00 0.00 0.00 0.00 0.01 0.00 0.00 0.00 0.00 0.00 0.00 0.00 0.00 0.01 0.01 0.01 0.01 0.04 0.06 0.05 0.09 0.16 0.07 0.01 0.01 0.02 0.02 0.02 0.04 0.06 0.11 0.24
0.01 0.00 0.00 0.00 0.00 0.00 0.00 0.00 0.00 0.00 0.00 0.00 0.00 0.00 0.00 0.00 0.00 0.00 0.00 0.00 0.00 0.00 0.00 0.00 0.01 0.01 0.02 0.03 0.05 0.05 0.12 0.16 0.07 0.05 0.03 0.04 0.05 0.08 0.09 0.11 0.15 0.20 0.32

GFSMW_prec_precacc_093.txt.gz
Total_Precipitation_Accumulation
0.00 0.01 0.06 0.08 0.09 0.07 0.05 0.22 0.30 0.36 0.35 0.20 0.15 0.23 0.28 0.28 0.26 0.40 0.33 0.24 0.09 0.06 0.03 0.00 0.00 0.00 0.00 0.00 0.00 0.00 0.00 0.00 0.00 0.00 0.00 0.00 0.00 0.00 0.00 0.00 0.00 0.00 0.00
0.00 0.00 0.01 0.03 0.04 0.05 0.04 0.11 0.18 0.29 0.33 0.35 0.42 0.50 0.81 0.63 0.63 0.57 0.32 0.26 0.29 0.31 0.13 0.04 0.01 0.00 0.00 0.00 0.00 0.00 0.00 0.00 0.00 0.01 0.02 0.02 0.00 0.00 0.00 0.00 0.00 0.00 0.00
0.00 0.00 0.00 0.01 0.03 0.03 0.01 0.03 0.09 0.14 0.18 0.36 0.46 0.48 0.69 0.52 0.41 0.30 0.26 0.29 0.41 0.59 0.29 0.17 0.10 0.06 0.07 0.07 0.03 0.05 0.05 0.05 0.02 0.01 0.04 0.07 0.03 0.02 0.00 0.00 0.00 0.00 0.00
0.00 0.00 0.00 0.00 0.00 0.00 0.01 0.01 0.06 0.10 0.12 0.19 0.20 0.17 0.21 0.26 0.26 0.48 0.75 0.58 0.47 0.60 0.50 0.40 0.34 0.23 0.19 0.18 0.24 0.18 0.15 0.13 0.11 0.05 0.02 0.04 0.06 0.09 0.06 0.01 0.01 0.01 0.01
0.00 0.00 0.00 0.00 0.00 0.00 0.00 0.01 0.05 0.10 0.08 0.14 0.17 0.20 0.28 0.33 0.38 0.39 0.37 0.44 0.47 0.49 0.77 0.62 0.47 0.30 0.41 0.37 0.29 0.22 0.18 0.14 0.10 0.09 0.09 0.08 0.08 0.08 0.12 0.12 0.04 0.04 0.02
0.00 0.00 0.00 0.00 0.00 0.00 0.00 0.00 0.00 0.03 0.05 0.08 0.10 0.19 0.23 0.35 0.32 0.29 0.38 0.38 0.38 0.35 0.34 0.44 0.48 0.48 0.32 0.31 0.31 0.26 0.16 0.15 0.14 0.14 0.14 0.21 0.28 0.23 0.25 0.22 0.12 0.12 0.08
0.00 0.00 0.00 0.00 0.00 0.00 0.00 0.00 0.00 0.00 0.03 0.04 0.09 0.13 0.09 0.07 0.12 0.17 0.16 0.17 0.16 0.14 0.19 0.25 0.26 0.25 0.24 0.26 0.25 0.25 0.23 0.24 0.28 0.32 0.31 0.31 0.29 0.32 0.39 0.47 0.32 0.25 0.15
0.00 0.00 0.00 0.00 0.00 0.00 0.00 0.00 0.00 0.00 0.01 0.02 0.02 0.02 0.06 0.05 0.07 0.09 0.08 0.10 0.14 0.15 0.16 0.19 0.25 0.26 0.26 0.23 0.20 0.22 0.22 0.26 0.36 0.39 0.34 0.28 0.26 0.32 0.40 0.48 0.54 0.48 0.35
0.00 0.00 0.00 0.00 0.00 0.00 0.00 0.00 0.00 0.00 0.00 0.03 0.02 0.02 0.03 0.05 0.06 0.09 0.11 0.11 0.12 0.15 0.18 0.20 0.21 0.22 0.21 0.21 0.20 0.20 0.18 0.19 0.24 0.27 0.30 0.33 0.31 0.36 0.42 0.53 0.69 0.99 1.00
0.00 0.00 0.00 0.00 0.00 0.00 0.00 0.00 0.00 0.00 0.01 0.01 0.00 0.01 0.03 0.05 0.06 0.06 0.07 0.09 0.11 0.10 0.12 0.12 0.12 0.12 0.11 0.12 0.14 0.16 0.17 0.20 0.23 0.30 0.36 0.42 0.46 0.50 0.54 0.59 0.63 0.78 0.98
0.00 0.00 0.00 0.00 0.00 0.00 0.00 0.00 0.00 0.00 0.01 0.00 0.00 0.02 0.03 0.04 0.06 0.04 0.04 0.05 0.05 0.05 0.05 0.06 0.06 0.05 0.04 0.04 0.05 0.08 0.10 0.16 0.20 0.24 0.33 0.38 0.42 0.52 0.60 0.67 0.80 0.92 1.00
0.00 0.00 0.00 0.00 0.00 0.00 0.00 0.00 0.00 0.00 0.00 0.00 0.00 0.01 0.02 0.04 0.05 0.05 0.03 0.03 0.03 0.02 0.01 0.01 0.01 0.01 0.01 0.01 0.02 0.03 0.05 0.07 0.07 0.11 0.20 0.27 0.34 0.43 0.48 0.53 0.54 0.54 0.53
0.00 0.00 0.00 0.00 0.00 0.00 0.00 0.00 0.01 0.00 0.00 0.00 0.00 0.00 0.00 0.00 0.01 0.01 0.02 0.03 0.03 0.01 0.01 0.01 0.01 0.00 0.00 0.00 0.00 0.02 0.04 0.06 0.09 0.12 0.18 0.19 0.23 0.29 0.28 0.28 0.29 0.31 0.36
0.00 0.00 0.02 0.01 0.00 0.00 0.01 0.02 0.01 0.01 0.01 0.01 0.01 0.01 0.02 0.02 0.01 0.01 0.01 0.02 0.02 0.02 0.01 0.01 0.01 0.00 0.00 0.01 0.02 0.04 0.07 0.09 0.09 0.10 0.13 0.18 0.23 0.24 0.21 0.20 0.24 0.28 0.36
0.00 0.00 0.14 0.18 0.03 0.02 0.01 0.01 0.02 0.03 0.03 0.03 0.03 0.04 0.03 0.02 0.02 0.02 0.01 0.01 0.02 0.01 0.01 0.02 0.02 0.02 0.02 0.05 0.07 0.08 0.12 0.16 0.19 0.22 0.26 0.27 0.26 0.22 0.20 0.21 0.21 0.34 0.41
0.01 0.00 0.02 0.20 0.16 0.02 0.01 0.03 0.03 0.04 0.07 0.06 0.05 0.03 0.03 0.02 0.02 0.02 0.01 0.01 0.02 0.03 0.07 0.10 0.13 0.14 0.17 0.30 0.26 0.24 0.26 0.30 0.33 0.34 0.31 0.29 0.25 0.18 0.16 0.16 0.20 0.34 0.65
0.01 0.01 0.00 0.00 0.04 0.17 0.12 0.12 0.14 0.21 0.19 0.12 0.07 0.05 0.05 0.10 0.09 0.10 0.07 0.06 0.06 0.08 0.13 0.22 0.35 0.54 0.70 0.79 0.74 0.66 0.64 0.65 0.52 0.33 0.23 0.14 0.08 0.06 0.05 0.09 0.16 0.33 0.61
0.02 0.01 0.00 0.00 0.00 0.00 0.01 0.02 0.04 0.07 0.19 0.19 0.24 0.16 0.18 0.31 0.55 0.45 0.42 0.39 0.31 0.24 0.27 0.30 0.32 0.41 0.46 0.41 0.30 0.24 0.18 0.13 0.09 0.05 0.02 0.02 0.02 0.04 0.06 0.14 0.39 0.35 0.21
0.01 0.01 0.00 0.00 0.01 0.01 0.01 0.02 0.03 0.05 0.03 0.08 0.11 0.15 0.44 0.54 0.49 0.31 0.49 0.48 0.39 0.44 0.48 0.46 0.37 0.30 0.21 0.15 0.10 0.07 0.06 0.05 0.03 0.01 0.01 0.05 0.03 0.03 0.13 0.37 0.41 0.19 0.13
0.02 0.01 0.00 0.01 0.03 0.03 0.03 0.05 0.04 0.05 0.12 0.09 0.07 0.28 0.70 0.56 0.45 0.23 0.40 0.50 0.39 0.30 0.30 0.29 0.20 0.14 0.08 0.06 0.04 0.04 0.05 0.03 0.01 0.02 0.02 0.03 0.04 0.10 0.37 0.27 0.24 0.26 0.17
0.15 0.08 0.07 0.08 0.18 0.15 0.21 0.27 0.22 0.35 0.44 0.27 0.22 0.43 0.48 0.47 0.37 0.28 0.30 0.28 0.26 0.16 0.12 0.13 0.08 0.04 0.02 0.01 0.00 0.01 0.02 0.03 0.14 0.11 0.03 0.03 0.14 0.35 0.21 0.16 0.19 0.22 0.27
0.35 0.50 0.30 0.37 0.54 0.56 0.74 0.74 0.68 0.66 0.57 0.41 0.36 0.32 0.26 0.25 0.26 0.12 0.09 0.06 0.03 0.02 0.02 0.01 0.01 0.00 0.00 0.00 0.00 0.01 0.03 0.07 0.10 0.05 0.02 0.09 0.23 0.09 0.05 0.09 0.18 0.32 0.31
0.03 0.18 0.11 0.17 0.23 0.30 0.36 0.48 0.41 0.33 0.32 0.22 0.16 0.12 0.11 0.10 0.07 0.03 0.03 0.02 0.01 0.01 0.00 0.00 0.00 0.00 0.00 0.00 0.00 0.00 0.07 0.09 0.07 0.05 0.16 0.15 0.03 0.03 0.04 0.10 0.17 0.16 0.15
0.04 0.02 0.03 0.02 0.04 0.06 0.09 0.10 0.03 0.04 0.06 0.06 0.06 0.04 0.03 0.02 0.00 0.00 0.00 0.00 0.00 0.00 0.00 0.00 0.00 0.00 0.00 0.00 0.00 0.03 0.05 0.04 0.08 0.17 0.14 0.02 0.03 0.05 0.06 0.08 0.07 0.07 0.17
0.12 0.10 0.06 0.03 0.03 0.02 0.02 0.02 0.01 0.00 0.00 0.00 0.00 0.00 0.00 0.01 0.00 0.00 0.00 0.00 0.00 0.00 0.00 0.00 0.01 0.01 0.01 0.01 0.04 0.06 0.05 0.09 0.16 0.07 0.01 0.01 0.02 0.02 0.02 0.04 0.06 0.11 0.24
0.01 0.01 0.02 0.01 0.00 0.01 0.00 0.00 0.00 0.00 0.00 0.00 0.00 0.00 0.00 0.00 0.00 0.00 0.01 0.01 0.00 0.00 0.00 0.00 0.01 0.01 0.02 0.03 0.05 0.05 0.12 0.16 0.07 0.05 0.03 0.04 0.05 0.08 0.09 0.11 0.15 0.20 0.32

GFSMW_prec_precacc_096.txt.gz
Total_Precipitation_Accumulation
0.00 0.01 0.07 0.09 0.10 0.13 0.08 0.24 0.51 0.51 0.43 0.27 0.27 0.37 0.35 0.30 0.27 0.40 0.33 0.24 0.09 0.06 0.03 0.00 0.00 0.00 0.00 0.00 0.00 0.00 0.00 0.00 0.00 0.00 0.00 0.00 0.00 0.00 0.00 0.00 0.00 0.00 0.00
0.00 0.00 0.01 0.03 0.06 0.15 0.08 0.18 0.35 0.47 0.47 0.47 0.61 0.72 1.04 0.85 0.85 0.71 0.32 0.26 0.29 0.31 0.13 0.04 0.01 0.00 0.00 0.00 0.00 0.00 0.00 0.00 0.00 0.01 0.02 0.02 0.00 0.00 0.00 0.00 0.00 0.00 0.00
0.01 0.00 0.00 0.01 0.04 0.09 0.07 0.05 0.12 0.15 0.24 0.46 0.55 0.59 0.87 0.73 0.65 0.49 0.39 0.34 0.41 0.59 0.29 0.17 0.10 0.06 0.07 0.07 0.03 0.05 0.05 0.05 0.02 0.01 0.04 0.07 0.03 0.02 0.00 0.00 0.00 0.00 0.00
0.00 0.00 0.00 0.00 0.00 0.01 0.03 0.05 0.16 0.17 0.15 0.23 0.26 0.24 0.26 0.33 0.31 0.57 0.90 0.80 0.62 0.70 0.57 0.44 0.36 0.24 0.19 0.18 0.24 0.19 0.16 0.13 0.11 0.06 0.02 0.05 0.06 0.09 0.06 0.01 0.01 0.01 0.01
0.00 0.00 0.00 0.00 0.00 0.00 0.00 0.01 0.07 0.16 0.12 0.18 0.25 0.30 0.33 0.37 0.42 0.44 0.48 0.61 0.60 0.60 0.87 0.73 0.56 0.38 0.47 0.41 0.31 0.25 0.20 0.15 0.12 0.11 0.11 0.09 0.08 0.08 0.12 0.13 0.04 0.04 0.02
0.00 0.00 0.00 0.00 0.00 0.00 0.00 0.00 0.01 0.08 0.09 0.13 0.15 0.24 0.29 0.44 0.40 0.34 0.45 0.44 0.49 0.44 0.40 0.50 0.52 0.52 0.37 0.36 0.35 0.29 0.18 0.16 0.16 0.15 0.14 0.21 0.28 0.23 0.25 0.22 0.13 0.12 0.08
0.00 0.00 0.00 0.00 0.00 0.00 0.00 0.00 0.00 0.01 0.06 0.10 0.14 0.19 0.16 0.16 0.20 0.28 0.28 0.29 0.27 0.24 0.31 0.36 0.35 0.33 0.32 0.31 0.28 0.27 0.25 0.25 0.28 0.32 0.31 0.31 0.29 0.32 0.39 0.47 0.32 0.25 0.16
0.00 0.00 0.00 0.00 0.00 0.00 0.00 0.00 0.00 0.00 0.02 0.07 0.10 0.10 0.12 0.11 0.14 0.17 0.17 0.18 0.21 0.21 0.20 0.21 0.27 0.28 0.29 0.26 0.21 0.22 0.22 0.26 0.36 0.39 0.34 0.28 0.26 0.32 0.40 0.48 0.54 0.48 0.36
0.00 0.00 0.00 0.00 0.00 0.00 0.00 0.00 0.00 0.00 0.00 0.04 0.06 0.05 0.08 0.08 0.10 0.13 0.14 0.15 0.14 0.16 0.19 0.20 0.21 0.22 0.21 0.21 0.20 0.20 0.18 0.19 0.24 0.27 0.30 0.33 0.31 0.36 0.42 0.53 0.69 0.99 1.01
0.00 0.00 0.00 0.00 0.00 0.00 0.00 0.00 0.00 0.00 0.01 0.01 0.00 0.02 0.05 0.07 0.08 0.07 0.07 0.09 0.11 0.10 0.12 0.12 0.12 0.12 0.11 0.12 0.14 0.16 0.17 0.20 0.23 0.30 0.36 0.42 0.46 0.50 0.54 0.59 0.63 0.78 0.98
0.00 0.00 0.00 0.00 0.00 0.00 0.00 0.00 0.00 0.00 0.01 0.00 0.00 0.02 0.03 0.04 0.06 0.04 0.04 0.05 0.05 0.05 0.05 0.06 0.06 0.05 0.04 0.04 0.05 0.08 0.10 0.16 0.21 0.25 0.33 0.38 0.42 0.52 0.60 0.67 0.80 0.92 1.00
0.00 0.00 0.00 0.00 0.00 0.00 0.00 0.00 0.00 0.00 0.00 0.00 0.00 0.01 0.02 0.04 0.05 0.05 0.03 0.03 0.03 0.02 0.01 0.01 0.01 0.01 0.01 0.01 0.02 0.03 0.05 0.07 0.09 0.13 0.22 0.27 0.34 0.43 0.48 0.53 0.54 0.54 0.53
0.00 0.00 0.00 0.00 0.00 0.00 0.00 0.00 0.01 0.00 0.00 0.00 0.00 0.00 0.00 0.00 0.01 0.01 0.02 0.03 0.03 0.01 0.01 0.01 0.01 0.00 0.00 0.00 0.00 0.02 0.04 0.06 0.09 0.13 0.18 0.19 0.23 0.29 0.28 0.28 0.29 0.31 0.36
0.00 0.00 0.02 0.01 0.00 0.00 0.01 0.02 0.01 0.01 0.01 0.01 0.01 0.01 0.02 0.02 0.01 0.01 0.01 0.02 0.02 0.02 0.01 0.01 0.01 0.00 0.00 0.01 0.02 0.04 0.07 0.09 0.09 0.10 0.13 0.18 0.23 0.24 0.21 0.20 0.24 0.28 0.36
0.00 0.00 0.14 0.18 0.03 0.02 0.01 0.01 0.02 0.03 0.03 0.03 0.03 0.04 0.03 0.02 0.02 0.02 0.01 0.01 0.02 0.01 0.01 0.02 0.02 0.02 0.02 0.05 0.07 0.08 0.12 0.16 0.19 0.22 0.26 0.27 0.26 0.22 0.20 0.21 0.21 0.34 0.41
0.01 0.00 0.02 0.20 0.16 0.02 0.01 0.03 0.03 0.04 0.07 0.06 0.05 0.03 0.03 0.02 0.02 0.02 0.01 0.01 0.02 0.03 0.07 0.10 0.13 0.14 0.17 0.30 0.26 0.24 0.26 0.30 0.33 0.34 0.31 0.29 0.25 0.18 0.16 0.16 0.20 0.34 0.65
0.01 0.01 0.00 0.00 0.04 0.17 0.12 0.12 0.14 0.21 0.19 0.12 0.07 0.05 0.05 0.10 0.09 0.10 0.07 0.06 0.06 0.08 0.13 0.22 0.35 0.54 0.70 0.79 0.74 0.66 0.64 0.65 0.52 0.33 0.23 0.14 0.08 0.06 0.05 0.09 0.16 0.33 0.61
0.02 0.01 0.00 0.00 0.00 0.00 0.01 0.02 0.04 0.07 0.19 0.19 0.24 0.16 0.18 0.31 0.55 0.45 0.42 0.39 0.31 0.24 0.27 0.30 0.32 0.41 0.46 0.42 0.31 0.25 0.18 0.13 0.09 0.05 0.02 0.02 0.02 0.04 0.06 0.14 0.39 0.35 0.21
0.01 0.01 0.00 0.00 0.01 0.01 0.01 0.02 0.03 0.05 0.03 0.08 0.11 0.15 0.44 0.54 0.49 0.31 0.49 0.48 0.39 0.44 0.48 0.46 0.37 0.30 0.22 0.15 0.11 0.08 0.06 0.05 0.03 0.01 0.01 0.05 0.03 0.03 0.13 0.37 0.41 0.19 0.13
0.02 0.01 0.00 0.01 0.03 0.03 0.03 0.05 0.04 0.05 0.12 0.09 0.07 0.28 0.70 0.56 0.45 0.23 0.40 0.50 0.39 0.30 0.30 0.29 0.20 0.14 0.08 0.06 0.04 0.04 0.05 0.03 0.01 0.02 0.02 0.03 0.04 0.10 0.37 0.27 0.24 0.26 0.17
0.15 0.08 0.07 0.08 0.18 0.15 0.21 0.27 0.22 0.35 0.44 0.27 0.22 0.43 0.48 0.47 0.37 0.28 0.30 0.28 0.26 0.16 0.12 0.13 0.08 0.04 0.02 0.01 0.00 0.01 0.02 0.03 0.14 0.11 0.03 0.03 0.14 0.35 0.21 0.16 0.19 0.22 0.27
0.35 0.50 0.30 0.37 0.54 0.56 0.74 0.74 0.68 0.66 0.57 0.41 0.36 0.32 0.26 0.25 0.26 0.12 0.09 0.06 0.03 0.02 0.02 0.02 0.01 0.00 0.00 0.00 0.00 0.01 0.03 0.07 0.10 0.05 0.02 0.09 0.23 0.09 0.05 0.09 0.18 0.32 0.31
0.03 0.18 0.11 0.17 0.23 0.30 0.36 0.48 0.41 0.33 0.32 0.22 0.17 0.13 0.12 0.10 0.07 0.03 0.03 0.02 0.01 0.01 0.00 0.00 0.00 0.00 0.00 0.00 0.00 0.00 0.07 0.09 0.07 0.05 0.16 0.15 0.03 0.03 0.04 0.10 0.17 0.16 0.15
0.04 0.02 0.03 0.02 0.04 0.06 0.09 0.11 0.04 0.04 0.06 0.06 0.06 0.04 0.03 0.03 0.01 0.00 0.00 0.00 0.00 0.00 0.00 0.00 0.01 0.00 0.00 0.00 0.00 0.03 0.05 0.04 0.08 0.17 0.14 0.02 0.03 0.05 0.06 0.08 0.07 0.07 0.17
0.12 0.10 0.06 0.04 0.03 0.03 0.03 0.03 0.03 0.03 0.02 0.01 0.01 0.00 0.01 0.02 0.01 0.01 0.00 0.00 0.00 0.01 0.00 0.00 0.01 0.01 0.01 0.01 0.04 0.06 0.05 0.09 0.16 0.07 0.01 0.01 0.02 0.02 0.02 0.04 0.06 0.11 0.24
0.01 0.01 0.02 0.02 0.02 0.01 0.00 0.00 0.00 0.00 0.00 0.01 0.00 0.00 0.00 0.01 0.01 0.01 0.01 0.01 0.01 0.01 0.00 0.00 0.01 0.01 0.02 0.03 0.05 0.05 0.12 0.16 0.07 0.05 0.03 0.04 0.05 0.08 0.09 0.11 0.15 0.20 0.32

GFSMW_prec_precacc_099.txt.gz
Total_Precipitation_Accumulation
0.00 0.01 0.07 0.09 0.10 0.13 0.09 0.25 0.53 0.63 0.56 0.38 0.34 0.43 0.37 0.35 0.35 0.44 0.34 0.24 0.09 0.06 0.03 0.00 0.00 0.00 0.00 0.00 0.00 0.00 0.00 0.00 0.00 0.00 0.00 0.00 0.00 0.00 0.00 0.00 0.00 0.00 0.00
0.00 0.00 0.01 0.03 0.06 0.17 0.09 0.23 0.39 0.55 0.63 0.58 0.64 0.78 1.13 0.92 0.92 0.86 0.39 0.30 0.30 0.31 0.13 0.04 0.01 0.00 0.00 0.00 0.00 0.00 0.00 0.00 0.00 0.01 0.02 0.02 0.00 0.00 0.00 0.00 0.00 0.00 0.00
0.01 0.00 0.00 0.01 0.04 0.10 0.13 0.23 0.23 0.16 0.31 0.67 0.70 0.65 0.96 0.86 0.78 0.64 0.48 0.40 0.45 0.59 0.29 0.17 0.10 0.06 0.07 0.07 0.03 0.05 0.05 0.05 0.02 0.01 0.04 0.07 0.03 0.02 0.00 0.00 0.00 0.00 0.00
0.00 0.00 0.00 0.00 0.00 0.01 0.08 0.19 0.31 0.28 0.20 0.28 0.33 0.29 0.31 0.38 0.35 0.58 0.92 0.87 0.80 0.84 0.65 0.54 0.40 0.25 0.19 0.18 0.24 0.19 0.16 0.13 0.11 0.06 0.02 0.05 0.06 0.09 0.06 0.01 0.01 0.01 0.01
0.00 0.00 0.00 0.00 0.00 0.00 0.01 0.05 0.20 0.34 0.20 0.22 0.26 0.32 0.38 0.42 0.46 0.48 0.52 0.65 0.67 0.70 0.99 0.85 0.65 0.40 0.49 0.43 0.32 0.29 0.23 0.17 0.14 0.11 0.11 0.10 0.08 0.09 0.13 0.13 0.04 0.04 0.02
0.00 0.00 0.00 0.00 0.00 0.00 0.00 0.00 0.05 0.21 0.28 0.20 0.16 0.27 0.35 0.51 0.49 0.42 0.54 0.53 0.56 0.48 0.44 0.54 0.55 0.54 0.40 0.44 0.46 0.35 0.25 0.27 0.23 0.19 0.15 0.21 0.29 0.23 0.25 0.22 0.13 0.12 0.08
0.00 0.00 0.00 0.00 0.00 0.00 0.00 0.00 0.00 0.04 0.16 0.19 0.17 0.20 0.18 0.20 0.28 0.39 0.39 0.41 0.38 0.35 0.38 0.39 0.40 0.37 0.33 0.31 0.30 0.29 0.29 0.28 0.31 0.37 0.35 0.31 0.30 0.32 0.39 0.47 0.32 0.25 0.16
0.00 0.00 0.00 0.00 0.00 0.00 0.01 0.01 0.00 0.00 0.03 0.12 0.20 0.15 0.17 0.18 0.20 0.26 0.27 0.32 0.36 0.38 0.35 0.26 0.30 0.33 0.36 0.31 0.25 0.26 0.30 0.33 0.41 0.43 0.36 0.29 0.26 0.32 0.40 0.48 0.54 0.48 0.36
0.00 0.00 0.00 0.00 0.00 0.00 0.00 0.00 0.00 0.00 0.00 0.05 0.08 0.09 0.10 0.16 0.16 0.16 0.18 0.19 0.19 0.22 0.26 0.26 0.24 0.23 0.24 0.25 0.23 0.22 0.20 0.20 0.25 0.27 0.30 0.33 0.31 0.36 0.42 0.53 0.69 0.99 1.01
0.00 0.00 0.00 0.00 0.00 0.00 0.00 0.00 0.00 0.00 0.01 0.01 0.00 0.02 0.07 0.10 0.10 0.09 0.09 0.12 0.13 0.11 0.13 0.12 0.12 0.12 0.11 0.12 0.14 0.16 0.18 0.20 0.23 0.30 0.37 0.43 0.46 0.50 0.54 0.59 0.63 0.78 0.98
0.00 0.00 0.00 0.00 0.00 0.00 0.00 0.00 0.00 0.00 0.01 0.00 0.00 0.02 0.03 0.05 0.07 0.05 0.05 0.06 0.06 0.06 0.05 0.06 0.06 0.05 0.04 0.04 0.05 0.08 0.10 0.16 0.21 0.26 0.33 0.39 0.43 0.54 0.61 0.68 0.80 0.92 1.00
0.00 0.00 0.00 0.00 0.00 0.00 0.00 0.00 0.00 0.00 0.00 0.00 0.00 0.01 0.02 0.04 0.05 0.05 0.03 0.03 0.03 0.02 0.01 0.01 0.01 0.01 0.01 0.01 0.02 0.03 0.05 0.07 0.09 0.13 0.22 0.28 0.35 0.43 0.48 0.53 0.54 0.54 0.53
0.00 0.00 0.00 0.00 0.00 0.00 0.00 0.00 0.01 0.00 0.00 0.00 0.00 0.00 0.00 0.00 0.01 0.01 0.02 0.03 0.03 0.01 0.01 0.01 0.01 0.00 0.00 0.00 0.00 0.02 0.04 0.06 0.09 0.13 0.19 0.20 0.24 0.30 0.29 0.28 0.29 0.31 0.36
0.00 0.00 0.02 0.01 0.00 0.00 0.01 0.02 0.01 0.01 0.01 0.01 0.01 0.01 0.02 0.02 0.01 0.01 0.01 0.02 0.02 0.02 0.01 0.01 0.01 0.00 0.00 0.01 0.02 0.04 0.07 0.09 0.09 0.10 0.13 0.18 0.23 0.24 0.21 0.20 0.24 0.28 0.36
0.00 0.00 0.14 0.18 0.03 0.02 0.01 0.01 0.02 0.03 0.03 0.03 0.03 0.04 0.03 0.02 0.02 0.02 0.01 0.01 0.02 0.01 0.01 0.02 0.02 0.02 0.02 0.05 0.07 0.08 0.12 0.16 0.19 0.22 0.26 0.27 0.26 0.22 0.20 0.21 0.21 0.34 0.41
0.01 0.00 0.02 0.20 0.16 0.02 0.01 0.03 0.03 0.04 0.07 0.06 0.05 0.03 0.03 0.02 0.02 0.02 0.01 0.01 0.02 0.03 0.07 0.10 0.13 0.14 0.17 0.30 0.26 0.24 0.26 0.30 0.33 0.34 0.31 0.29 0.25 0.18 0.16 0.16 0.20 0.34 0.65
0.01 0.01 0.00 0.00 0.04 0.17 0.12 0.12 0.14 0.21 0.19 0.12 0.07 0.05 0.05 0.10 0.09 0.10 0.07 0.06 0.06 0.08 0.13 0.22 0.35 0.54 0.70 0.79 0.74 0.66 0.64 0.65 0.52 0.33 0.23 0.14 0.08 0.06 0.05 0.09 0.16 0.33 0.61
0.02 0.01 0.00 0.00 0.00 0.00 0.01 0.02 0.04 0.07 0.19 0.19 0.24 0.16 0.18 0.31 0.55 0.45 0.42 0.39 0.31 0.24 0.27 0.30 0.32 0.41 0.46 0.42 0.31 0.25 0.18 0.13 0.09 0.05 0.02 0.02 0.02 0.04 0.06 0.14 0.39 0.35 0.21
0.01 0.01 0.00 0.00 0.01 0.01 0.01 0.02 0.03 0.05 0.03 0.08 0.11 0.15 0.44 0.54 0.49 0.31 0.49 0.48 0.39 0.44 0.48 0.46 0.37 0.30 0.22 0.16 0.11 0.08 0.06 0.05 0.03 0.01 0.01 0.05 0.03 0.03 0.13 0.37 0.41 0.19 0.13
0.02 0.01 0.00 0.01 0.03 0.03 0.03 0.05 0.04 0.05 0.12 0.09 0.07 0.28 0.70 0.56 0.45 0.23 0.40 0.50 0.39 0.30 0.30 0.29 0.20 0.14 0.08 0.07 0.04 0.04 0.05 0.03 0.01 0.02 0.02 0.03 0.04 0.10 0.37 0.27 0.24 0.26 0.17
0.15 0.08 0.07 0.08 0.18 0.15 0.21 0.27 0.22 0.35 0.44 0.27 0.22 0.43 0.48 0.47 0.37 0.28 0.30 0.28 0.26 0.16 0.12 0.13 0.08 0.04 0.03 0.02 0.01 0.01 0.02 0.03 0.14 0.11 0.03 0.03 0.14 0.35 0.21 0.16 0.19 0.22 0.27
0.35 0.50 0.30 0.37 0.54 0.56 0.74 0.74 0.68 0.66 0.57 0.41 0.36 0.32 0.26 0.25 0.26 0.12 0.09 0.06 0.03 0.02 0.02 0.02 0.01 0.00 0.00 0.00 0.00 0.01 0.03 0.07 0.10 0.05 0.02 0.09 0.23 0.09 0.05 0.09 0.18 0.32 0.31
0.03 0.18 0.11 0.17 0.23 0.30 0.36 0.48 0.41 0.33 0.32 0.22 0.17 0.13 0.12 0.10 0.07 0.03 0.03 0.02 0.01 0.01 0.00 0.00 0.00 0.00 0.00 0.00 0.00 0.00 0.07 0.09 0.07 0.05 0.16 0.15 0.03 0.03 0.04 0.10 0.17 0.16 0.15
0.04 0.02 0.03 0.02 0.04 0.06 0.09 0.11 0.04 0.04 0.06 0.06 0.06 0.04 0.03 0.03 0.01 0.00 0.00 0.00 0.00 0.00 0.01 0.01 0.01 0.00 0.00 0.00 0.00 0.03 0.05 0.04 0.08 0.17 0.14 0.02 0.03 0.05 0.06 0.08 0.07 0.07 0.17
0.12 0.10 0.06 0.04 0.03 0.03 0.03 0.03 0.03 0.03 0.02 0.02 0.01 0.01 0.01 0.03 0.01 0.01 0.01 0.01 0.00 0.01 0.01 0.00 0.01 0.01 0.01 0.01 0.04 0.06 0.05 0.09 0.16 0.07 0.01 0.01 0.02 0.02 0.02 0.04 0.06 0.11 0.24
0.01 0.01 0.02 0.02 0.02 0.01 0.00 0.00 0.00 0.00 0.00 0.01 0.00 0.01 0.00 0.01 0.01 0.01 0.02 0.03 0.01 0.02 0.01 0.01 0.01 0.01 0.02 0.03 0.05 0.05 0.12 0.16 0.07 0.05 0.03 0.04 0.05 0.08 0.09 0.11 0.15 0.20 0.32

GFSMW_prec_precacc_102.txt.gz
Total_Precipitation_Accumulation
0.00 0.01 0.07 0.09 0.11 0.14 0.09 0.25 0.54 0.65 0.66 0.54 0.44 0.48 0.39 0.36 0.37 0.47 0.37 0.29 0.10 0.06 0.03 0.00 0.00 0.00 0.00 0.00 0.00 0.00 0.00 0.00 0.00 0.00 0.00 0.00 0.00 0.00 0.00 0.00 0.00 0.00 0.00
0.00 0.00 0.01 0.03 0.06 0.17 0.09 0.23 0.40 0.61 0.66 0.67 0.73 0.85 1.17 0.96 0.95 0.91 0.50 0.39 0.38 0.37 0.14 0.04 0.01 0.00 0.00 0.00 0.00 0.00 0.00 0.00 0.00 0.01 0.02 0.02 0.00 0.00 0.00 0.00 0.00 0.00 0.00
0.01 0.00 0.00 0.01 0.04 0.10 0.13 0.24 0.27 0.20 0.34 0.79 0.88 0.81 1.08 0.91 0.84 0.69 0.57 0.55 0.67 0.73 0.38 0.20 0.10 0.06 0.07 0.07 0.03 0.05 0.05 0.05 0.02 0.01 0.04 0.07 0.03 0.02 0.00 0.00 0.00 0.00 0.00
0.00 0.00 0.00 0.00 0.00 0.01 0.08 0.20 0.31 0.32 0.30 0.44 0.56 0.52 0.42 0.41 0.43 0.70 0.99 0.94 1.04 1.16 0.89 0.66 0.43 0.28 0.21 0.18 0.24 0.19 0.16 0.14 0.11 0.06 0.03 0.05 0.06 0.11 0.06 0.01 0.01 0.01 0.01
0.00 0.00 0.00 0.00 0.00 0.00 0.01 0.06 0.20 0.35 0.22 0.24 0.32 0.40 0.42 0.45 0.48 0.51 0.58 0.74 0.73 0.77 1.12 1.03 0.82 0.56 0.63 0.53 0.39 0.42 0.32 0.20 0.16 0.13 0.14 0.18 0.13 0.12 0.16 0.14 0.05 0.04 0.02
0.00 0.00 0.00 0.00 0.00 0.00 0.00 0.00 0.05 0.21 0.30 0.27 0.26 0.40 0.47 0.60 0.54 0.43 0.55 0.55 0.59 0.49 0.45 0.57 0.60 0.61 0.47 0.57 0.63 0.50 0.37 0.37 0.28 0.23 0.18 0.24 0.32 0.27 0.26 0.23 0.13 0.13 0.08
0.00 0.00 0.00 0.00 0.00 0.00 0.00 0.00 0.00 0.04 0.20 0.27 0.21 0.24 0.25 0.29 0.37 0.46 0.43 0.45 0.45 0.44 0.46 0.44 0.43 0.39 0.35 0.33 0.33 0.33 0.31 0.30 0.32 0.43 0.41 0.34 0.32 0.35 0.40 0.48 0.32 0.25 0.16
0.00 0.00 0.00 0.00 0.00 0.00 0.01 0.01 0.00 0.00 0.04 0.14 0.21 0.16 0.17 0.19 0.22 0.28 0.29 0.35 0.42 0.47 0.55 0.63 0.55 0.41 0.39 0.32 0.26 0.26 0.31 0.34 0.45 0.47 0.40 0.31 0.27 0.33 0.40 0.48 0.54 0.48 0.36
0.00 0.00 0.00 0.00 0.00 0.00 0.00 0.00 0.00 0.00 0.01 0.09 0.13 0.15 0.16 0.24 0.19 0.21 0.19 0.19 0.19 0.23 0.29 0.37 0.47 0.40 0.34 0.32 0.27 0.23 0.21 0.22 0.27 0.28 0.30 0.33 0.31 0.36 0.42 0.53 0.69 0.99 1.01
0.00 0.00 0.00 0.00 0.00 0.00 0.00 0.00 0.00 0.00 0.01 0.03 0.06 0.05 0.11 0.22 0.19 0.16 0.12 0.16 0.15 0.13 0.15 0.13 0.12 0.13 0.14 0.15 0.16 0.18 0.18 0.21 0.23 0.31 0.38 0.43 0.46 0.50 0.54 0.59 0.63 0.79 0.98
0.00 0.00 0.00 0.00 0.00 0.00 0.00 0.00 0.00 0.00 0.01 0.00 0.00 0.02 0.05 0.08 0.09 0.08 0.09 0.11 0.10 0.08 0.08 0.08 0.08 0.06 0.05 0.04 0.05 0.08 0.10 0.16 0.21 0.26 0.34 0.39 0.43 0.54 0.62 0.70 0.82 0.93 1.01
0.00 0.00 0.00 0.00 0.00 0.00 0.00 0.00 0.00 0.00 0.00 0.00 0.00 0.01 0.02 0.04 0.05 0.06 0.04 0.03 0.03 0.02 0.01 0.01 0.01 0.01 0.01 0.01 0.02 0.03 0.05 0.07 0.09 0.13 0.22 0.29 0.36 0.45 0.49 0.54 0.55 0.55 0.53
0.00 0.00 0.00 0.00 0.00 0.00 0.00 0.00 0.01 0.00 0.00 0.00 0.00 0.00 0.00 0.00 0.01 0.01 0.02 0.03 0.03 0.01 0.01 0.01 0.01 0.00 0.00 0.00 0.00 0.02 0.04 0.06 0.09 0.13 0.19 0.20 0.24 0.31 0.30 0.30 0.31 0.32 0.36
0.00 0.00 0.02 0.01 0.00 0.00 0.01 0.02 0.01 0.01 0.01 0.01 0.01 0.01 0.02 0.02 0.01 0.01 0.01 0.02 0.02 0.02 0.01 0.01 0.01 0.00 0.00 0.01 0.02 0.04 0.07 0.09 0.09 0.10 0.13 0.19 0.23 0.24 0.21 0.21 0.25 0.29 0.36
0.00 0.00 0.14 0.18 0.03 0.02 0.01 0.01 0.02 0.03 0.03 0.03 0.03 0.04 0.03 0.02 0.02 0.02 0.01 0.01 0.02 0.01 0.01 0.02 0.02 0.02 0.02 0.05 0.07 0.08 0.12 0.16 0.19 0.22 0.26 0.27 0.27 0.23 0.20 0.21 0.21 0.34 0.41
0.01 0.00 0.02 0.20 0.16 0.02 0.01 0.03 0.03 0.04 0.07 0.06 0.05 0.03 0.03 0.02 0.02 0.02 0.01 0.01 0.02 0.03 0.07 0.10 0.13 0.14 0.17 0.30 0.26 0.24 0.26 0.30 0.33 0.34 0.31 0.29 0.26 0.18 0.16 0.16 0.20 0.34 0.65
0.01 0.01 0.00 0.00 0.04 0.17 0.12 0.12 0.14 0.21 0.19 0.12 0.07 0.05 0.05 0.10 0.09 0.10 0.07 0.06 0.06 0.08 0.13 0.22 0.35 0.54 0.70 0.79 0.74 0.66 0.64 0.65 0.52 0.33 0.23 0.15 0.09 0.07 0.05 0.09 0.16 0.33 0.61
0.02 0.01 0.00 0.00 0.00 0.00 0.01 0.02 0.04 0.07 0.19 0.19 0.24 0.16 0.18 0.31 0.55 0.45 0.42 0.39 0.31 0.24 0.27 0.30 0.32 0.41 0.46 0.42 0.31 0.25 0.18 0.13 0.09 0.05 0.02 0.02 0.02 0.04 0.06 0.14 0.39 0.35 0.21
0.01 0.01 0.00 0.00 0.01 0.01 0.01 0.02 0.03 0.05 0.03 0.08 0.11 0.15 0.44 0.54 0.49 0.31 0.49 0.48 0.39 0.44 0.48 0.46 0.37 0.30 0.22 0.16 0.11 0.08 0.06 0.05 0.04 0.01 0.01 0.05 0.03 0.03 0.13 0.37 0.41 0.19 0.13
0.02 0.01 0.00 0.01 0.03 0.03 0.03 0.05 0.04 0.05 0.12 0.09 0.07 0.28 0.70 0.56 0.45 0.23 0.40 0.50 0.39 0.30 0.30 0.29 0.20 0.14 0.08 0.07 0.05 0.04 0.05 0.03 0.01 0.02 0.02 0.03 0.04 0.10 0.37 0.27 0.24 0.26 0.17
0.15 0.08 0.07 0.08 0.18 0.15 0.21 0.27 0.22 0.35 0.44 0.27 0.22 0.43 0.48 0.47 0.37 0.28 0.30 0.28 0.26 0.16 0.12 0.13 0.08 0.04 0.03 0.02 0.01 0.01 0.02 0.03 0.14 0.11 0.03 0.03 0.14 0.35 0.21 0.16 0.19 0.22 0.27
0.35 0.50 0.30 0.37 0.54 0.56 0.74 0.74 0.68 0.66 0.57 0.41 0.36 0.32 0.26 0.25 0.26 0.12 0.09 0.06 0.03 0.02 0.02 0.02 0.01 0.00 0.00 0.00 0.00 0.01 0.03 0.07 0.10 0.05 0.02 0.09 0.23 0.09 0.05 0.09 0.18 0.32 0.31
0.03 0.18 0.11 0.17 0.23 0.30 0.36 0.48 0.41 0.33 0.32 0.22 0.17 0.13 0.12 0.10 0.07 0.03 0.03 0.02 0.01 0.01 0.01 0.00 0.00 0.00 0.00 0.00 0.00 0.00 0.07 0.09 0.07 0.05 0.16 0.15 0.03 0.03 0.04 0.10 0.17 0.16 0.15
0.04 0.02 0.03 0.02 0.04 0.06 0.09 0.11 0.04 0.04 0.06 0.06 0.06 0.04 0.03 0.03 0.01 0.00 0.00 0.00 0.00 0.00 0.01 0.01 0.01 0.01 0.00 0.00 0.00 0.03 0.05 0.04 0.08 0.17 0.14 0.02 0.03 0.05 0.06 0.08 0.07 0.07 0.17
0.12 0.10 0.06 0.04 0.03 0.03 0.03 0.03 0.03 0.03 0.02 0.02 0.01 0.01 0.01 0.03 0.01 0.01 0.01 0.01 0.01 0.02 0.01 0.00 0.01 0.02 0.02 0.01 0.04 0.06 0.05 0.09 0.16 0.07 0.01 0.01 0.02 0.02 0.02 0.04 0.06 0.11 0.24
0.01 0.01 0.02 0.02 0.02 0.01 0.00 0.00 0.00 0.00 0.00 0.01 0.01 0.01 0.01 0.01 0.01 0.01 0.02 0.04 0.02 0.02 0.01 0.01 0.01 0.02 0.03 0.04 0.05 0.05 0.12 0.16 0.07 0.05 0.03 0.04 0.05 0.08 0.09 0.11 0.15 0.20 0.32

GFSMW_prec_precacc_105.txt.gz
Total_Precipitation_Accumulation
0.00 0.03 0.08 0.11 0.11 0.21 0.27 0.38 0.59 0.73 0.91 0.75 0.56 0.53 0.43 0.42 0.39 0.48 0.38 0.30 0.10 0.06 0.03 0.00 0.00 0.00 0.00 0.00 0.00 0.00 0.00 0.00 0.00 0.00 0.00 0.00 0.00 0.00 0.00 0.00 0.00 0.00 0.00
0.00 0.01 0.01 0.03 0.06 0.17 0.13 0.27 0.41 0.63 0.71 0.87 1.00 1.05 1.27 1.09 1.02 0.93 0.52 0.44 0.44 0.38 0.14 0.04 0.01 0.00 0.00 0.00 0.00 0.00 0.00 0.00 0.00 0.01 0.02 0.02 0.00 0.00 0.00 0.00 0.00 0.00 0.00
0.02 0.00 0.00 0.01 0.04 0.10 0.14 0.24 0.30 0.21 0.34 0.89 1.00 0.98 1.24 1.10 1.06 0.84 0.61 0.60 0.72 0.78 0.50 0.29 0.10 0.06 0.07 0.07 0.03 0.05 0.05 0.05 0.02 0.01 0.04 0.07 0.03 0.02 0.00 0.00 0.00 0.00 0.00
0.00 0.00 0.00 0.00 0.00 0.01 0.09 0.22 0.33 0.33 0.31 0.44 0.56 0.59 0.64 0.63 0.55 0.85 1.12 1.05 1.10 1.22 1.01 0.85 0.50 0.30 0.23 0.20 0.25 0.20 0.16 0.14 0.11 0.06 0.03 0.05 0.06 0.11 0.06 0.01 0.01 0.01 0.01
0.00 0.00 0.00 0.00 0.00 0.00 0.02 0.09 0.29 0.44 0.28 0.26 0.32 0.44 0.48 0.53 0.56 0.60 0.66 0.87 0.87 0.91 1.27 1.19 1.15 1.05 0.84 0.58 0.46 0.48 0.40 0.27 0.20 0.15 0.16 0.20 0.15 0.12 0.16 0.14 0.05 0.04 0.02
0.00 0.00 0.00 0.00 0.00 0.00 0.00 0.01 0.08 0.26 0.32 0.28 0.30 0.47 0.53 0.70 0.65 0.55 0.64 0.62 0.68 0.57 0.52 0.63 0.65 0.78 0.66 0.71 0.78 0.61 0.47 0.48 0.36 0.31 0.22 0.27 0.34 0.28 0.27 0.24 0.15 0.13 0.08
0.00 0.00 0.00 0.00 0.00 0.00 0.00 0.00 0.01 0.04 0.20 0.27 0.22 0.26 0.27 0.32 0.40 0.50 0.49 0.52 0.52 0.52 0.56 0.53 0.48 0.41 0.37 0.37 0.37 0.36 0.34 0.35 0.37 0.45 0.43 0.36 0.34 0.39 0.43 0.48 0.34 0.26 0.16
0.00 0.00 0.00 0.00 0.00 0.00 0.01 0.01 0.00 0.00 0.04 0.14 0.21 0.16 0.18 0.19 0.22 0.29 0.30 0.36 0.44 0.50 0.61 0.74 0.71 0.52 0.48 0.37 0.31 0.31 0.34 0.37 0.48 0.52 0.47 0.36 0.31 0.35 0.41 0.48 0.55 0.49 0.36
0.00 0.00 0.00 0.00 0.00 0.00 0.00 0.00 0.00 0.00 0.01 0.09 0.13 0.15 0.16 0.24 0.19 0.21 0.19 0.19 0.19 0.23 0.29 0.38 0.49 0.43 0.36 0.34 0.31 0.28 0.25 0.24 0.28 0.30 0.33 0.36 0.33 0.36 0.42 0.54 0.70 1.01 1.02
0.00 0.00 0.00 0.00 0.00 0.00 0.00 0.00 0.00 0.00 0.01 0.03 0.06 0.05 0.11 0.22 0.19 0.17 0.12 0.16 0.15 0.13 0.15 0.13 0.13 0.13 0.14 0.15 0.16 0.18 0.19 0.21 0.24 0.31 0.38 0.44 0.47 0.50 0.55 0.60 0.64 0.80 1.00
0.00 0.00 0.00 0.00 0.00 0.00 0.00 0.00 0.00 0.00 0.01 0.00 0.00 0.03 0.05 0.08 0.10 0.08 0.09 0.12 0.13 0.13 0.12 0.11 0.12 0.08 0.06 0.05 0.06 0.09 0.11 0.17 0.21 0.26 0.34 0.39 0.43 0.54 0.62 0.70 0.83 0.94 1.02
0.00 0.00 0.00 0.00 0.00 0.00 0.00 0.00 0.00 0.00 0.00 0.00 0.00 0.01 0.03 0.04 0.06 0.06 0.04 0.04 0.04 0.03 0.02 0.02 0.02 0.01 0.01 0.01 0.02 0.04 0.05 0.08 0.09 0.13 0.22 0.29 0.36 0.45 0.49 0.54 0.55 0.55 0.54
0.00 0.00 0.00 0.00 0.00 0.00 0.00 0.00 0.01 0.00 0.00 0.00 0.00 0.00 0.00 0.00 0.01 0.01 0.02 0.03 0.03 0.01 0.01 0.01 0.01 0.00 0.00 0.00 0.00 0.02 0.04 0.06 0.09 0.13 0.19 0.20 0.24 0.31 0.30 0.30 0.31 0.32 0.37
0.00 0.00 0.02 0.01 0.00 0.00 0.01 0.02 0.01 0.01 0.01 0.01 0.01 0.01 0.02 0.02 0.01 0.01 0.01 0.02 0.02 0.02 0.01 0.01 0.01 0.00 0.00 0.01 0.02 0.04 0.07 0.09 0.09 0.10 0.13 0.19 0.23 0.24 0.21 0.21 0.25 0.29 0.37
0.00 0.00 0.14 0.18 0.03 0.02 0.01 0.01 0.02 0.03 0.03 0.03 0.03 0.04 0.03 0.02 0.02 0.02 0.01 0.01 0.02 0.01 0.01 0.02 0.02 0.02 0.02 0.05 0.07 0.08 0.12 0.16 0.19 0.22 0.26 0.27 0.27 0.23 0.20 0.21 0.21 0.34 0.41
0.01 0.00 0.02 0.20 0.16 0.02 0.01 0.03 0.03 0.04 0.07 0.06 0.05 0.03 0.03 0.02 0.02 0.02 0.01 0.01 0.02 0.03 0.07 0.10 0.13 0.14 0.17 0.30 0.26 0.24 0.26 0.30 0.33 0.34 0.31 0.29 0.26 0.19 0.16 0.17 0.21 0.35 0.65
0.01 0.01 0.00 0.00 0.04 0.17 0.12 0.12 0.14 0.21 0.19 0.12 0.07 0.05 0.05 0.10 0.09 0.10 0.07 0.06 0.06 0.08 0.13 0.22 0.35 0.54 0.70 0.79 0.74 0.66 0.64 0.65 0.52 0.33 0.23 0.15 0.09 0.07 0.05 0.09 0.16 0.33 0.61
0.02 0.01 0.00 0.00 0.00 0.00 0.01 0.02 0.04 0.07 0.19 0.19 0.24 0.16 0.18 0.31 0.55 0.45 0.42 0.39 0.31 0.24 0.27 0.30 0.32 0.41 0.46 0.42 0.31 0.25 0.18 0.13 0.09 0.05 0.02 0.02 0.03 0.04 0.06 0.14 0.39 0.35 0.21
0.01 0.01 0.00 0.00 0.01 0.01 0.01 0.02 0.03 0.05 0.03 0.08 0.11 0.15 0.44 0.54 0.49 0.31 0.49 0.48 0.39 0.44 0.48 0.46 0.37 0.30 0.22 0.16 0.11 0.08 0.06 0.05 0.04 0.02 0.02 0.05 0.03 0.04 0.14 0.37 0.41 0.19 0.13
0.02 0.01 0.00 0.01 0.03 0.03 0.03 0.05 0.04 0.05 0.12 0.09 0.07 0.28 0.70 0.56 0.45 0.23 0.40 0.50 0.39 0.30 0.30 0.29 0.20 0.14 0.08 0.07 0.05 0.04 0.05 0.03 0.02 0.02 0.03 0.04 0.04 0.11 0.37 0.27 0.24 0.26 0.17
0.15 0.08 0.07 0.08 0.18 0.15 0.21 0.27 0.22 0.35 0.44 0.27 0.22 0.43 0.48 0.47 0.37 0.28 0.30 0.28 0.26 0.16 0.12 0.13 0.08 0.04 0.03 0.02 0.01 0.01 0.02 0.03 0.14 0.11 0.03 0.03 0.15 0.35 0.21 0.16 0.19 0.22 0.27
0.35 0.50 0.30 0.37 0.54 0.56 0.74 0.74 0.68 0.66 0.57 0.41 0.36 0.32 0.26 0.25 0.26 0.12 0.09 0.06 0.03 0.02 0.02 0.02 0.01 0.00 0.00 0.00 0.01 0.01 0.03 0.07 0.10 0.05 0.02 0.10 0.23 0.09 0.05 0.09 0.18 0.32 0.31
0.03 0.18 0.11 0.17 0.23 0.30 0.36 0.48 0.41 0.33 0.32 0.22 0.17 0.13 0.12 0.10 0.07 0.03 0.03 0.02 0.01 0.01 0.01 0.01 0.00 0.00 0.00 0.00 0.01 0.01 0.07 0.09 0.07 0.05 0.16 0.15 0.03 0.03 0.04 0.10 0.17 0.16 0.15
0.04 0.02 0.03 0.02 0.04 0.06 0.09 0.11 0.04 0.04 0.06 0.06 0.06 0.04 0.03 0.03 0.01 0.00 0.00 0.00 0.00 0.00 0.01 0.01 0.01 0.01 0.00 0.00 0.00 0.03 0.05 0.04 0.08 0.17 0.14 0.02 0.03 0.05 0.06 0.08 0.07 0.07 0.17
0.12 0.10 0.06 0.04 0.03 0.03 0.03 0.03 0.03 0.03 0.02 0.02 0.01 0.01 0.01 0.03 0.01 0.01 0.01 0.01 0.01 0.02 0.01 0.00 0.01 0.02 0.02 0.01 0.05 0.06 0.05 0.09 0.16 0.07 0.01 0.01 0.02 0.02 0.02 0.04 0.06 0.11 0.24
0.01 0.01 0.02 0.02 0.02 0.01 0.00 0.00 0.00 0.00 0.00 0.01 0.01 0.01 0.01 0.01 0.01 0.01 0.02 0.04 0.02 0.02 0.01 0.01 0.02 0.02 0.03 0.04 0.05 0.05 0.12 0.16 0.07 0.05 0.03 0.04 0.05 0.08 0.09 0.11 0.15 0.20 0.32

GFSMW_prec_precacc_108.txt.gz
Total_Precipitation_Accumulation
0.06 0.10 0.19 0.22 0.25 0.37 0.41 0.61 0.85 1.00 1.02 0.94 1.09 1.08 0.59 0.44 0.40 0.48 0.38 0.30 0.10 0.06 0.03 0.00 0.00 0.00 0.00 0.00 0.00 0.00 0.00 0.00 0.00 0.00 0.00 0.00 0.00 0.00 0.00 0.00 0.00 0.00 0.00
0.04 0.08 0.10 0.12 0.26 0.29 0.18 0.33 0.54 0.81 0.83 1.00 1.26 1.83 1.71 1.35 1.10 0.98 0.56 0.44 0.45 0.39 0.14 0.04 0.01 0.00 0.00 0.00 0.00 0.00 0.00 0.00 0.00 0.01 0.02 0.02 0.00 0.00 0.00 0.00 0.00 0.00 0.00
0.04 0.03 0.06 0.08 0.12 0.14 0.15 0.25 0.42 0.55 0.67 1.14 1.23 1.28 1.59 1.40 1.22 0.90 0.67 0.67 0.81 0.83 0.52 0.31 0.11 0.06 0.07 0.07 0.03 0.05 0.05 0.05 0.02 0.01 0.04 0.07 0.03 0.02 0.00 0.00 0.00 0.00 0.00
0.03 0.02 0.04 0.02 0.01 0.02 0.09 0.22 0.36 0.40 0.71 0.74 0.83 0.75 0.76 0.86 0.78 1.06 1.36 1.16 1.13 1.24 1.04 0.91 0.54 0.30 0.25 0.24 0.26 0.20 0.16 0.14 0.11 0.06 0.03 0.05 0.06 0.11 0.06 0.01 0.01 0.01 0.01
0.01 0.02 0.01 0.00 0.00 0.00 0.02 0.09 0.32 0.50 0.41 0.48 0.57 0.63 0.71 0.71 0.68 0.77 0.78 0.90 0.91 0.96 1.33 1.29 1.27 1.13 1.01 0.76 0.57 0.55 0.46 0.31 0.23 0.16 0.16 0.20 0.15 0.12 0.16 0.14 0.05 0.04 0.02
0.00 0.00 0.01 0.00 0.00 0.01 0.03 0.03 0.11 0.34 0.38 0.29 0.33 0.54 0.67 0.86 0.79 0.70 0.82 0.79 0.83 0.75 0.65 0.75 0.85 1.09 1.23 1.07 1.04 0.81 0.61 0.61 0.46 0.38 0.26 0.29 0.35 0.28 0.27 0.24 0.15 0.13 0.08
0.00 0.00 0.00 0.00 0.00 0.01 0.01 0.02 0.03 0.06 0.22 0.28 0.22 0.26 0.29 0.38 0.49 0.63 0.63 0.66 0.65 0.63 0.66 0.66 0.61 0.51 0.46 0.47 0.51 0.64 0.69 0.46 0.41 0.48 0.45 0.38 0.36 0.42 0.46 0.50 0.34 0.26 0.16
0.00 0.00 0.00 0.00 0.00 0.00 0.02 0.03 0.01 0.02 0.05 0.14 0.21 0.16 0.18 0.19 0.22 0.29 0.30 0.36 0.44 0.50 0.61 0.75 0.73 0.58 0.56 0.53 0.50 0.52 0.57 0.53 0.56 0.58 0.52 0.40 0.35 0.41 0.48 0.54 0.59 0.50 0.36
0.00 0.00 0.00 0.00 0.00 0.00 0.00 0.00 0.01 0.01 0.01 0.09 0.13 0.15 0.16 0.24 0.19 0.21 0.19 0.19 0.19 0.23 0.29 0.38 0.49 0.43 0.37 0.36 0.34 0.35 0.36 0.37 0.38 0.37 0.39 0.43 0.41 0.41 0.49 0.63 0.77 1.05 1.03
0.00 0.00 0.00 0.00 0.00 0.00 0.00 0.00 0.00 0.01 0.02 0.03 0.06 0.05 0.11 0.22 0.19 0.17 0.12 0.16 0.15 0.13 0.15 0.13 0.13 0.13 0.14 0.15 0.17 0.18 0.19 0.22 0.24 0.32 0.39 0.45 0.50 0.58 0.60 0.63 0.67 0.82 1.02
0.00 0.00 0.00 0.00 0.00 0.00 0.00 0.00 0.00 0.00 0.01 0.00 0.00 0.03 0.05 0.08 0.10 0.08 0.09 0.12 0.13 0.13 0.12 0.11 0.12 0.08 0.06 0.05 0.06 0.10 0.13 0.19 0.23 0.28 0.35 0.40 0.44 0.54 0.62 0.70 0.83 0.94 1.03
0.00 0.00 0.00 0.00 0.00 0.00 0.00 0.00 0.00 0.00 0.00 0.00 0.00 0.01 0.03 0.05 0.06 0.06 0.04 0.04 0.04 0.04 0.02 0.02 0.02 0.02 0.01 0.01 0.02 0.05 0.09 0.11 0.12 0.14 0.22 0.29 0.36 0.45 0.49 0.54 0.55 0.55 0.54
0.00 0.00 0.00 0.00 0.00 0.00 0.00 0.00 0.01 0.00 0.00 0.00 0.00 0.00 0.00 0.00 0.01 0.02 0.02 0.03 0.03 0.02 0.02 0.01 0.02 0.01 0.00 0.00 0.00 0.02 0.04 0.06 0.09 0.13 0.19 0.20 0.24 0.31 0.30 0.30 0.31 0.32 0.37
0.00 0.00 0.02 0.01 0.00 0.00 0.01 0.02 0.01 0.01 0.01 0.01 0.01 0.01 0.02 0.02 0.01 0.01 0.01 0.02 0.02 0.02 0.01 0.02 0.01 0.00 0.00 0.01 0.02 0.04 0.07 0.09 0.09 0.10 0.13 0.19 0.23 0.24 0.21 0.21 0.25 0.29 0.37
0.00 0.00 0.14 0.18 0.03 0.02 0.01 0.01 0.02 0.03 0.03 0.03 0.03 0.04 0.03 0.02 0.02 0.02 0.01 0.01 0.02 0.01 0.01 0.02 0.02 0.02 0.02 0.05 0.07 0.08 0.12 0.16 0.19 0.22 0.26 0.27 0.27 0.23 0.20 0.21 0.21 0.34 0.42
0.01 0.00 0.02 0.20 0.16 0.02 0.01 0.03 0.03 0.04 0.07 0.06 0.05 0.03 0.03 0.02 0.02 0.02 0.01 0.01 0.02 0.03 0.07 0.10 0.13 0.14 0.17 0.30 0.26 0.24 0.26 0.30 0.33 0.34 0.31 0.29 0.26 0.19 0.17 0.17 0.21 0.36 0.66
0.01 0.01 0.00 0.00 0.04 0.17 0.12 0.12 0.14 0.21 0.19 0.12 0.07 0.05 0.05 0.10 0.09 0.10 0.07 0.06 0.06 0.08 0.13 0.22 0.35 0.54 0.70 0.79 0.74 0.66 0.64 0.65 0.52 0.33 0.23 0.15 0.09 0.07 0.05 0.09 0.16 0.34 0.62
0.02 0.01 0.00 0.00 0.00 0.00 0.01 0.02 0.04 0.07 0.19 0.19 0.24 0.16 0.18 0.31 0.55 0.45 0.42 0.39 0.31 0.24 0.27 0.30 0.32 0.41 0.46 0.42 0.31 0.25 0.18 0.13 0.09 0.05 0.02 0.02 0.03 0.04 0.06 0.14 0.40 0.35 0.21
0.01 0.01 0.00 0.00 0.01 0.01 0.01 0.02 0.03 0.05 0.03 0.08 0.11 0.15 0.44 0.54 0.49 0.31 0.49 0.48 0.39 0.44 0.48 0.46 0.37 0.30 0.22 0.16 0.11 0.08 0.06 0.05 0.04 0.02 0.02 0.06 0.03 0.05 0.14 0.37 0.41 0.19 0.14
0.02 0.01 0.00 0.01 0.03 0.03 0.03 0.05 0.04 0.05 0.12 0.09 0.07 0.28 0.70 0.56 0.45 0.23 0.40 0.50 0.39 0.30 0.30 0.29 0.20 0.14 0.08 0.07 0.05 0.04 0.05 0.03 0.02 0.02 0.03 0.05 0.04 0.12 0.37 0.27 0.24 0.26 0.17
0.15 0.08 0.07 0.08 0.18 0.15 0.21 0.27 0.22 0.35 0.44 0.27 0.22 0.43 0.48 0.47 0.37 0.28 0.30 0.28 0.26 0.16 0.12 0.13 0.08 0.04 0.03 0.02 0.02 0.01 0.02 0.03 0.14 0.11 0.03 0.04 0.16 0.36 0.21 0.16 0.19 0.23 0.27
0.35 0.50 0.30 0.37 0.54 0.56 0.74 0.74 0.68 0.66 0.57 0.41 0.36 0.32 0.26 0.25 0.26 0.12 0.09 0.06 0.03 0.02 0.02 0.02 0.01 0.00 0.00 0.00 0.01 0.01 0.03 0.07 0.10 0.05 0.02 0.10 0.24 0.09 0.05 0.09 0.18 0.32 0.31
0.03 0.18 0.11 0.17 0.23 0.30 0.36 0.48 0.41 0.33 0.32 0.22 0.17 0.13 0.12 0.10 0.07 0.03 0.03 0.02 0.01 0.01 0.01 0.01 0.00 0.00 0.00 0.00 0.01 0.01 0.07 0.09 0.07 0.05 0.16 0.15 0.03 0.03 0.04 0.10 0.17 0.16 0.15
0.04 0.02 0.03 0.02 0.04 0.06 0.09 0.11 0.04 0.04 0.06 0.06 0.06 0.04 0.03 0.03 0.01 0.00 0.00 0.00 0.00 0.01 0.01 0.01 0.01 0.01 0.00 0.00 0.00 0.04 0.05 0.05 0.08 0.17 0.14 0.02 0.03 0.05 0.06 0.08 0.07 0.07 0.17
0.12 0.10 0.06 0.04 0.03 0.03 0.03 0.03 0.03 0.03 0.02 0.02 0.01 0.01 0.01 0.03 0.01 0.01 0.01 0.01 0.01 0.02 0.01 0.00 0.01 0.02 0.02 0.02 0.07 0.07 0.05 0.09 0.16 0.07 0.01 0.01 0.02 0.02 0.02 0.04 0.06 0.11 0.24
0.01 0.01 0.02 0.02 0.02 0.01 0.00 0.00 0.00 0.00 0.00 0.01 0.01 0.01 0.01 0.01 0.01 0.01 0.02 0.04 0.02 0.02 0.01 0.01 0.02 0.02 0.03 0.05 0.06 0.06 0.12 0.16 0.07 0.05 0.03 0.04 0.05 0.08 0.09 0.11 0.15 0.20 0.32

GFSMW_prec_precacc_111.txt.gz
Total_Precipitation_Accumulation
0.06 0.11 0.21 0.36 0.48 0.68 0.76 0.94 1.19 1.37 1.32 1.07 1.11 1.10 0.60 0.45 0.40 0.48 0.38 0.30 0.10 0.06 0.03 0.00 0.00 0.00 0.00 0.00 0.00 0.00 0.00 0.00 0.00 0.00 0.00 0.00 0.00 0.00 0.00 0.00 0.00 0.00 0.00
0.05 0.09 0.12 0.20 0.51 0.53 0.41 0.62 0.81 1.11 1.18 1.32 1.50 1.93 1.84 1.46 1.18 1.07 0.58 0.45 0.45 0.39 0.14 0.04 0.01 0.00 0.00 0.00 0.00 0.00 0.00 0.00 0.00 0.01 0.02 0.02 0.00 0.00 0.00 0.00 0.00 0.00 0.00
0.06 0.04 0.09 0.13 0.27 0.40 0.51 0.47 0.65 0.84 1.05 1.49 1.62 1.52 1.77 1.57 1.35 1.06 0.86 0.78 0.85 0.83 0.52 0.31 0.11 0.06 0.07 0.07 0.03 0.05 0.05 0.05 0.02 0.01 0.04 0.07 0.03 0.02 0.00 0.00 0.00 0.00 0.00
0.05 0.03 0.05 0.05 0.03 0.13 0.49 0.59 0.63 0.59 0.95 1.13 1.33 1.19 0.92 0.93 0.87 1.18 1.52 1.27 1.19 1.26 1.07 0.92 0.55 0.31 0.25 0.24 0.26 0.20 0.16 0.14 0.11 0.06 0.03 0.05 0.06 0.11 0.06 0.01 0.01 0.01 0.01
0.02 0.03 0.03 0.03 0.02 0.09 0.41 0.46 0.52 0.67 0.51 0.74 1.27 1.53 1.35 1.04 0.83 0.96 1.02 1.12 1.03 1.04 1.47 1.43 1.38 1.17 1.04 0.78 0.60 0.59 0.48 0.33 0.26 0.18 0.17 0.21 0.15 0.12 0.16 0.14 0.05 0.04 0.02
0.01 0.01 0.03 0.04 0.02 0.05 0.12 0.31 0.23 0.50 0.50 0.36 0.49 0.79 0.98 1.39 1.27 1.12 1.14 1.10 1.07 0.97 0.89 0.92 0.95 1.16 1.33 1.28 1.20 0.97 0.72 0.67 0.55 0.47 0.32 0.32 0.36 0.29 0.27 0.24 0.15 0.13 0.08
0.01 0.00 0.00 0.01 0.01 0.03 0.03 0.06 0.07 0.12 0.31 0.40 0.35 0.37 0.45 0.60 0.78 0.94 1.01 0.99 0.94 0.88 0.90 0.88 0.78 0.66 0.59 0.61 0.62 0.73 0.79 0.77 0.73 0.75 0.66 0.50 0.45 0.47 0.47 0.50 0.35 0.28 0.17
0.01 0.00 0.00 0.00 0.00 0.01 0.02 0.04 0.04 0.04 0.07 0.19 0.26 0.23 0.30 0.35 0.34 0.38 0.38 0.43 0.50 0.57 0.68 0.83 0.78 0.62 0.60 0.54 0.52 0.56 0.64 0.72 0.88 0.96 0.98 0.81 0.61 0.53 0.55 0.59 0.65 0.56 0.39
0.00 0.00 0.00 0.00 0.00 0.00 0.01 0.02 0.03 0.04 0.04 0.12 0.15 0.16 0.19 0.28 0.21 0.21 0.19 0.19 0.19 0.23 0.29 0.38 0.49 0.43 0.37 0.36 0.34 0.35 0.37 0.41 0.46 0.49 0.57 0.65 0.59 0.56 0.60 0.71 0.85 1.17 1.09
0.00 0.00 0.00 0.00 0.00 0.01 0.02 0.03 0.02 0.03 0.04 0.05 0.07 0.05 0.11 0.22 0.19 0.17 0.12 0.16 0.15 0.13 0.15 0.13 0.13 0.13 0.14 0.15 0.17 0.18 0.19 0.23 0.25 0.32 0.41 0.48 0.56 0.68 0.75 0.78 0.81 0.98 1.10
0.00 0.00 0.00 0.01 0.00 0.00 0.01 0.01 0.02 0.02 0.04 0.03 0.01 0.03 0.05 0.08 0.10 0.08 0.09 0.12 0.13 0.13 0.12 0.11 0.12 0.08 0.06 0.05 0.06 0.10 0.13 0.19 0.23 0.29 0.37 0.41 0.45 0.55 0.64 0.72 0.87 0.98 1.04
0.00 0.00 0.00 0.00 0.00 0.00 0.00 0.01 0.01 0.02 0.01 0.01 0.01 0.02 0.03 0.05 0.06 0.06 0.04 0.04 0.04 0.04 0.02 0.02 0.02 0.02 0.01 0.01 0.02 0.05 0.09 0.12 0.13 0.15 0.24 0.29 0.36 0.45 0.49 0.54 0.55 0.55 0.54
0.00 0.00 0.00 0.00 0.00 0.00 0.00 0.01 0.01 0.00 0.00 0.00 0.00 0.01 0.00 0.00 0.01 0.02 0.02 0.03 0.03 0.02 0.02 0.02 0.02 0.01 0.01 0.00 0.00 0.02 0.04 0.07 0.10 0.13 0.19 0.20 0.24 0.31 0.30 0.30 0.31 0.32 0.37
0.00 0.00 0.02 0.01 0.00 0.01 0.01 0.02 0.01 0.01 0.01 0.01 0.01 0.01 0.02 0.02 0.01 0.01 0.01 0.02 0.02 0.02 0.01 0.02 0.01 0.00 0.00 0.01 0.02 0.04 0.07 0.09 0.09 0.10 0.13 0.19 0.23 0.24 0.21 0.21 0.26 0.29 0.38
0.00 0.00 0.14 0.18 0.03 0.03 0.01 0.01 0.02 0.03 0.03 0.03 0.03 0.04 0.03 0.02 0.02 0.02 0.01 0.01 0.02 0.01 0.01 0.02 0.02 0.02 0.02 0.05 0.07 0.08 0.12 0.16 0.19 0.22 0.26 0.27 0.27 0.23 0.20 0.21 0.21 0.34 0.42
0.01 0.00 0.02 0.21 0.17 0.03 0.01 0.03 0.03 0.04 0.07 0.06 0.05 0.03 0.03 0.02 0.02 0.02 0.01 0.01 0.02 0.03 0.07 0.10 0.13 0.14 0.17 0.30 0.26 0.24 0.26 0.30 0.33 0.34 0.31 0.29 0.26 0.19 0.17 0.17 0.21 0.36 0.66
0.01 0.01 0.00 0.00 0.04 0.17 0.12 0.12 0.14 0.21 0.19 0.12 0.07 0.05 0.05 0.10 0.09 0.10 0.07 0.06 0.06 0.08 0.13 0.22 0.35 0.54 0.70 0.79 0.74 0.66 0.64 0.65 0.52 0.33 0.23 0.15 0.09 0.07 0.05 0.09 0.17 0.34 0.63
0.02 0.01 0.00 0.00 0.00 0.00 0.01 0.02 0.04 0.07 0.19 0.19 0.24 0.16 0.18 0.31 0.55 0.45 0.42 0.39 0.31 0.24 0.27 0.30 0.32 0.41 0.46 0.42 0.31 0.25 0.18 0.13 0.09 0.05 0.02 0.02 0.03 0.04 0.06 0.14 0.40 0.35 0.22
0.01 0.01 0.00 0.00 0.01 0.01 0.01 0.02 0.03 0.05 0.03 0.08 0.11 0.15 0.44 0.54 0.49 0.31 0.49 0.48 0.39 0.44 0.48 0.46 0.37 0.30 0.22 0.16 0.11 0.08 0.06 0.05 0.04 0.02 0.02 0.06 0.03 0.05 0.14 0.37 0.41 0.19 0.14
0.02 0.01 0.00 0.01 0.03 0.03 0.03 0.05 0.04 0.05 0.12 0.09 0.07 0.28 0.70 0.56 0.45 0.23 0.40 0.50 0.39 0.30 0.30 0.29 0.20 0.14 0.08 0.07 0.05 0.04 0.05 0.03 0.02 0.02 0.03 0.05 0.04 0.12 0.37 0.27 0.24 0.26 0.17
0.15 0.08 0.07 0.08 0.18 0.15 0.21 0.27 0.22 0.35 0.44 0.27 0.22 0.43 0.48 0.47 0.37 0.28 0.30 0.28 0.26 0.16 0.12 0.13 0.08 0.04 0.03 0.02 0.02 0.01 0.02 0.03 0.14 0.11 0.03 0.04 0.16 0.36 0.22 0.16 0.19 0.23 0.27
0.35 0.50 0.30 0.37 0.54 0.56 0.74 0.74 0.68 0.66 0.57 0.41 0.36 0.32 0.26 0.25 0.26 0.12 0.09 0.06 0.03 0.02 0.02 0.02 0.01 0.00 0.00 0.00 0.01 0.01 0.03 0.07 0.10 0.05 0.02 0.10 0.24 0.09 0.05 0.09 0.18 0.32 0.31
0.03 0.18 0.11 0.17 0.23 0.30 0.36 0.48 0.41 0.33 0.32 0.22 0.17 0.13 0.12 0.10 0.07 0.03 0.03 0.02 0.01 0.01 0.01 0.01 0.00 0.00 0.00 0.00 0.01 0.01 0.07 0.09 0.07 0.05 0.16 0.15 0.03 0.03 0.04 0.10 0.17 0.16 0.15
0.04 0.02 0.03 0.02 0.04 0.06 0.09 0.11 0.04 0.04 0.06 0.06 0.06 0.04 0.03 0.03 0.01 0.00 0.00 0.00 0.00 0.01 0.01 0.01 0.01 0.01 0.00 0.00 0.00 0.04 0.06 0.05 0.08 0.17 0.14 0.02 0.03 0.05 0.06 0.08 0.07 0.07 0.17
0.12 0.10 0.06 0.04 0.03 0.03 0.03 0.03 0.03 0.03 0.02 0.02 0.01 0.01 0.01 0.03 0.01 0.01 0.01 0.01 0.01 0.02 0.01 0.00 0.01 0.02 0.02 0.02 0.07 0.07 0.05 0.09 0.16 0.07 0.01 0.01 0.02 0.02 0.02 0.04 0.06 0.11 0.24
0.01 0.01 0.02 0.02 0.02 0.01 0.00 0.00 0.00 0.00 0.00 0.01 0.01 0.01 0.01 0.01 0.01 0.01 0.02 0.04 0.02 0.02 0.01 0.01 0.02 0.02 0.03 0.05 0.06 0.06 0.12 0.16 0.07 0.05 0.03 0.04 0.05 0.08 0.09 0.11 0.15 0.20 0.32

GFSMW_prec_precacc_114.txt.gz
Total_Precipitation_Accumulation
0.06 0.12 0.22 0.41 0.93 1.21 1.25 1.23 1.34 1.50 1.50 1.13 1.14 1.10 0.60 0.45 0.40 0.48 0.38 0.30 0.10 0.06 0.03 0.00 0.00 0.00 0.00 0.00 0.00 0.00 0.00 0.00 0.00 0.00 0.00 0.00 0.00 0.00 0.00 0.00 0.00 0.00 0.00
0.05 0.09 0.12 0.22 0.61 1.05 1.16 1.36 1.01 1.24 1.35 1.35 1.54 1.94 1.84 1.46 1.18 1.07 0.58 0.45 0.45 0.39 0.14 0.04 0.01 0.00 0.00 0.00 0.00 0.00 0.00 0.00 0.00 0.01 0.02 0.02 0.00 0.00 0.00 0.00 0.00 0.00 0.00
0.06 0.04 0.09 0.14 0.30 0.56 0.86 1.64 1.25 1.05 1.23 1.56 1.72 1.57 1.78 1.57 1.36 1.06 0.86 0.80 0.85 0.83 0.52 0.31 0.11 0.06 0.07 0.07 0.04 0.05 0.05 0.06 0.03 0.01 0.04 0.07 0.03 0.02 0.00 0.00 0.00 0.00 0.00
0.05 0.03 0.05 0.05 0.04 0.18 0.62 1.31 1.26 0.97 1.35 1.50 1.48 1.35 1.00 0.96 0.90 1.21 1.57 1.32 1.24 1.28 1.08 0.94 0.57 0.34 0.26 0.26 0.28 0.21 0.18 0.16 0.13 0.06 0.03 0.05 0.06 0.11 0.06 0.01 0.01 0.01 0.01
0.03 0.03 0.03 0.03 0.02 0.12 0.55 0.95 0.98 1.05 1.25 2.06 1.95 2.22 2.00 1.34 1.02 1.09 1.16 1.26 1.09 1.08 1.51 1.50 1.48 1.30 1.11 0.81 0.65 0.62 0.51 0.36 0.28 0.20 0.18 0.22 0.15 0.12 0.16 0.14 0.05 0.04 0.02
0.01 0.01 0.03 0.04 0.02 0.09 0.19 0.88 0.96 1.17 1.31 1.55 1.85 2.23 2.41 2.29 1.91 1.41 1.30 1.28 1.20 1.04 1.01 1.08 1.10 1.29 1.42 1.33 1.22 1.00 0.75 0.69 0.56 0.48 0.35 0.36 0.40 0.31 0.29 0.25 0.15 0.14 0.08
0.01 0.03 0.00 0.01 0.01 0.05 0.08 0.17 0.71 0.93 1.14 0.96 0.81 0.98 1.08 1.10 1.15 1.35 1.38 1.37 1.31 1.31 1.33 1.17 1.05 0.92 0.72 0.67 0.67 0.77 0.82 0.81 0.78 0.78 0.77 0.71 0.72 0.76 0.72 0.69 0.44 0.30 0.18
0.03 0.02 0.00 0.00 0.00 0.07 0.10 0.08 0.20 0.41 0.46 0.46 0.44 0.36 0.44 0.54 0.61 0.59 0.65 0.65 0.72 0.83 1.13 1.07 0.94 0.80 0.77 0.65 0.58 0.60 0.70 0.81 0.97 1.06 1.15 1.08 1.02 1.09 1.10 1.06 1.00 0.79 0.55
0.02 0.01 0.00 0.00 0.00 0.05 0.10 0.08 0.06 0.11 0.15 0.24 0.28 0.29 0.31 0.39 0.32 0.34 0.36 0.38 0.35 0.38 0.40 0.46 0.55 0.46 0.40 0.37 0.35 0.35 0.37 0.42 0.48 0.51 0.59 0.67 0.65 0.70 0.78 0.94 1.09 1.41 1.24
0.01 0.00 0.00 0.00 0.00 0.07 0.08 0.08 0.07 0.06 0.09 0.11 0.15 0.16 0.22 0.31 0.25 0.19 0.13 0.17 0.17 0.14 0.15 0.13 0.13 0.13 0.14 0.15 0.17 0.18 0.19 0.23 0.25 0.32 0.41 0.48 0.57 0.72 0.82 0.90 0.95 1.17 1.36
0.00 0.00 0.00 0.01 0.01 0.09 0.06 0.04 0.03 0.04 0.06 0.06 0.05 0.10 0.11 0.10 0.10 0.09 0.09 0.12 0.13 0.13 0.12 0.11 0.12 0.08 0.06 0.05 0.06 0.10 0.13 0.19 0.23 0.29 0.37 0.42 0.45 0.56 0.66 0.76 0.93 1.08 1.16
0.00 0.00 0.00 0.00 0.03 0.03 0.01 0.01 0.02 0.03 0.01 0.02 0.03 0.03 0.04 0.05 0.06 0.06 0.04 0.04 0.04 0.04 0.02 0.02 0.02 0.02 0.01 0.01 0.02 0.05 0.09 0.12 0.13 0.15 0.24 0.29 0.36 0.45 0.49 0.54 0.55 0.55 0.54
0.00 0.00 0.00 0.00 0.01 0.02 0.01 0.01 0.02 0.01 0.01 0.01 0.01 0.01 0.01 0.00 0.01 0.02 0.02 0.03 0.03 0.02 0.02 0.02 0.02 0.01 0.01 0.00 0.00 0.02 0.04 0.07 0.10 0.13 0.19 0.20 0.24 0.31 0.30 0.30 0.31 0.32 0.37
0.00 0.00 0.02 0.01 0.00 0.01 0.01 0.02 0.02 0.02 0.03 0.03 0.02 0.03 0.02 0.02 0.01 0.01 0.01 0.02 0.02 0.02 0.01 0.02 0.01 0.00 0.00 0.01 0.02 0.04 0.07 0.09 0.09 0.10 0.13 0.19 0.23 0.24 0.21 0.21 0.26 0.29 0.38
0.00 0.00 0.14 0.18 0.03 0.03 0.01 0.01 0.02 0.03 0.03 0.03 0.04 0.04 0.03 0.02 0.02 0.02 0.01 0.01 0.02 0.01 0.01 0.02 0.02 0.02 0.02 0.05 0.07 0.08 0.12 0.16 0.19 0.22 0.26 0.27 0.27 0.23 0.20 0.21 0.21 0.34 0.42
0.01 0.00 0.02 0.21 0.17 0.03 0.01 0.03 0.03 0.04 0.07 0.06 0.05 0.03 0.03 0.02 0.02 0.02 0.01 0.01 0.02 0.03 0.07 0.10 0.13 0.14 0.17 0.30 0.26 0.24 0.26 0.30 0.33 0.34 0.31 0.29 0.26 0.19 0.17 0.17 0.21 0.36 0.66
0.01 0.01 0.00 0.00 0.05 0.17 0.12 0.12 0.14 0.21 0.19 0.12 0.07 0.05 0.05 0.10 0.09 0.10 0.07 0.06 0.06 0.08 0.13 0.22 0.35 0.54 0.70 0.79 0.74 0.66 0.64 0.65 0.52 0.33 0.23 0.15 0.09 0.07 0.05 0.09 0.17 0.34 0.63
0.02 0.01 0.00 0.00 0.00 0.00 0.01 0.02 0.04 0.07 0.19 0.19 0.24 0.16 0.18 0.31 0.55 0.45 0.42 0.39 0.31 0.24 0.27 0.30 0.32 0.41 0.46 0.42 0.31 0.25 0.18 0.13 0.09 0.05 0.02 0.02 0.03 0.04 0.06 0.14 0.40 0.35 0.22
0.01 0.01 0.00 0.00 0.01 0.01 0.01 0.02 0.03 0.05 0.03 0.08 0.11 0.15 0.44 0.54 0.49 0.31 0.49 0.48 0.39 0.44 0.48 0.46 0.37 0.30 0.22 0.16 0.11 0.08 0.06 0.05 0.04 0.02 0.02 0.06 0.03 0.05 0.14 0.37 0.41 0.19 0.14
0.02 0.01 0.00 0.01 0.03 0.03 0.03 0.05 0.04 0.05 0.12 0.09 0.07 0.28 0.70 0.56 0.45 0.23 0.40 0.50 0.39 0.30 0.30 0.29 0.20 0.14 0.08 0.07 0.05 0.04 0.05 0.03 0.02 0.02 0.03 0.05 0.04 0.12 0.37 0.27 0.24 0.26 0.17
0.15 0.08 0.07 0.08 0.18 0.15 0.21 0.27 0.22 0.35 0.44 0.27 0.22 0.43 0.48 0.47 0.37 0.28 0.30 0.28 0.26 0.16 0.12 0.13 0.08 0.04 0.03 0.02 0.02 0.01 0.02 0.03 0.14 0.11 0.03 0.04 0.16 0.36 0.22 0.16 0.19 0.23 0.27
0.35 0.50 0.30 0.37 0.54 0.56 0.74 0.74 0.68 0.66 0.57 0.41 0.36 0.32 0.26 0.25 0.26 0.12 0.09 0.06 0.03 0.02 0.02 0.02 0.01 0.00 0.00 0.00 0.01 0.01 0.03 0.07 0.10 0.05 0.02 0.10 0.24 0.09 0.06 0.09 0.18 0.32 0.31
0.03 0.18 0.11 0.17 0.23 0.30 0.36 0.48 0.41 0.33 0.32 0.22 0.17 0.13 0.12 0.10 0.07 0.03 0.03 0.02 0.01 0.01 0.01 0.01 0.00 0.00 0.00 0.00 0.01 0.01 0.07 0.09 0.07 0.05 0.16 0.15 0.03 0.03 0.04 0.10 0.17 0.16 0.15
0.04 0.02 0.03 0.02 0.04 0.06 0.09 0.11 0.04 0.04 0.06 0.06 0.06 0.04 0.03 0.03 0.01 0.00 0.00 0.00 0.00 0.01 0.01 0.01 0.01 0.01 0.00 0.00 0.00 0.04 0.06 0.05 0.09 0.17 0.14 0.02 0.03 0.05 0.06 0.08 0.07 0.07 0.17
0.12 0.10 0.06 0.04 0.03 0.03 0.03 0.03 0.03 0.03 0.02 0.02 0.01 0.01 0.01 0.03 0.01 0.01 0.01 0.01 0.01 0.02 0.01 0.00 0.01 0.02 0.02 0.02 0.07 0.07 0.05 0.09 0.16 0.07 0.01 0.01 0.02 0.02 0.02 0.04 0.06 0.11 0.24
0.01 0.01 0.02 0.02 0.02 0.01 0.00 0.00 0.00 0.00 0.00 0.01 0.01 0.01 0.01 0.01 0.01 0.01 0.02 0.04 0.02 0.02 0.01 0.01 0.02 0.02 0.03 0.05 0.06 0.06 0.12 0.16 0.07 0.05 0.03 0.04 0.05 0.08 0.09 0.11 0.15 0.20 0.32

GFSMW_prec_precacc_117.txt.gz
Total_Precipitation_Accumulation
0.09 0.13 0.23 0.58 1.68 2.72 2.44 1.56 1.39 1.51 1.52 1.13 1.14 1.10 0.60 0.45 0.40 0.48 0.38 0.30 0.10 0.06 0.03 0.00 0.00 0.00 0.00 0.00 0.00 0.00 0.00 0.00 0.00 0.00 0.00 0.00 0.00 0.00 0.00 0.00 0.00 0.00 0.00
0.06 0.11 0.13 0.24 0.94 2.08 2.57 1.78 1.26 1.36 1.40 1.38 1.55 1.94 1.84 1.46 1.18 1.07 0.58 0.45 0.45 0.39 0.14 0.04 0.01 0.00 0.00 0.00 0.00 0.00 0.00 0.00 0.00 0.01 0.02 0.02 0.00 0.00 0.00 0.00 0.00 0.00 0.00
0.06 0.06 0.10 0.14 0.40 0.92 2.07 2.18 1.62 1.29 1.30 1.61 1.77 1.58 1.79 1.57 1.36 1.06 0.86 0.80 0.85 0.83 0.52 0.31 0.11 0.06 0.07 0.07 0.04 0.05 0.06 0.07 0.03 0.02 0.04 0.07 0.03 0.02 0.00 0.00 0.00 0.00 0.00
0.05 0.03 0.07 0.05 0.08 0.31 1.02 1.96 1.70 1.43 1.59 1.64 1.60 1.46 1.09 0.98 0.90 1.21 1.57 1.32 1.24 1.28 1.08 0.94 0.57 0.34 0.27 0.28 0.31 0.26 0.21 0.16 0.14 0.07 0.03 0.05 0.06 0.11 0.06 0.01 0.01 0.01 0.01
0.03 0.03 0.03 0.03 0.04 0.21 0.70 1.21 1.30 1.80 1.68 2.67 2.44 2.47 2.19 1.42 1.03 1.10 1.17 1.28 1.12 1.09 1.54 1.53 1.52 1.34 1.18 0.90 0.73 0.69 0.52 0.38 0.29 0.20 0.19 0.22 0.15 0.12 0.16 0.14 0.05 0.04 0.02
0.02 0.03 0.03 0.04 0.05 0.15 0.30 1.05 1.20 1.61 1.60 2.67 4.24 3.59 2.86 2.47 2.00 1.46 1.37 1.37 1.31 1.12 1.07 1.14 1.16 1.34 1.49 1.40 1.27 1.03 0.76 0.70 0.57 0.48 0.35 0.36 0.41 0.32 0.31 0.30 0.19 0.17 0.10
0.02 0.03 0.01 0.02 0.06 0.14 0.18 0.27 0.85 1.16 1.46 1.38 2.42 3.21 2.87 1.99 1.65 1.59 1.53 1.51 1.47 1.49 1.49 1.30 1.12 0.98 0.83 0.79 0.77 0.83 0.84 0.82 0.79 0.81 0.80 0.78 0.78 0.86 0.85 0.87 0.67 0.49 0.29
0.05 0.04 0.01 0.01 0.03 0.10 0.11 0.09 0.22 0.50 0.82 0.90 1.08 1.00 1.33 1.52 1.54 1.32 1.03 0.85 0.91 1.06 1.37 1.33 1.10 0.93 0.93 0.78 0.69 0.71 0.78 0.87 1.02 1.12 1.19 1.12 1.05 1.15 1.27 1.28 1.20 0.94 0.64
0.06 0.03 0.01 0.01 0.03 0.08 0.12 0.08 0.07 0.15 0.40 0.60 0.74 0.67 0.54 0.72 0.76 0.82 0.73 0.58 0.51 0.58 0.62 0.70 0.73 0.62 0.54 0.49 0.47 0.47 0.44 0.43 0.48 0.51 0.59 0.68 0.67 0.71 0.81 1.00 1.17 1.47 1.28
0.05 0.03 0.05 0.00 0.01 0.09 0.11 0.10 0.09 0.08 0.16 0.27 0.31 0.35 0.42 0.50 0.54 0.38 0.24 0.24 0.23 0.19 0.23 0.22 0.21 0.22 0.22 0.22 0.21 0.19 0.19 0.23 0.25 0.32 0.41 0.48 0.58 0.73 0.83 0.92 0.98 1.21 1.41
0.01 0.02 0.02 0.01 0.01 0.14 0.09 0.06 0.05 0.04 0.08 0.09 0.11 0.19 0.24 0.21 0.23 0.23 0.17 0.16 0.16 0.15 0.14 0.14 0.13 0.08 0.06 0.05 0.06 0.10 0.13 0.19 0.23 0.29 0.37 0.42 0.45 0.56 0.66 0.76 0.94 1.08 1.17
0.00 0.00 0.00 0.01 0.04 0.07 0.05 0.03 0.05 0.04 0.03 0.05 0.07 0.10 0.07 0.09 0.10 0.08 0.06 0.05 0.05 0.04 0.02 0.02 0.02 0.02 0.01 0.01 0.02 0.05 0.09 0.12 0.13 0.15 0.24 0.29 0.36 0.45 0.49 0.54 0.55 0.55 0.54
0.00 0.00 0.00 0.00 0.04 0.12 0.05 0.03 0.02 0.01 0.02 0.04 0.02 0.03 0.03 0.02 0.02 0.02 0.02 0.03 0.03 0.02 0.02 0.02 0.02 0.01 0.01 0.00 0.00 0.02 0.04 0.07 0.10 0.13 0.19 0.20 0.24 0.31 0.30 0.30 0.31 0.32 0.37
0.00 0.00 0.02 0.01 0.01 0.05 0.06 0.05 0.03 0.02 0.04 0.05 0.03 0.03 0.03 0.03 0.01 0.01 0.01 0.02 0.02 0.02 0.01 0.02 0.01 0.00 0.00 0.01 0.02 0.04 0.07 0.09 0.09 0.10 0.13 0.19 0.23 0.24 0.21 0.21 0.26 0.29 0.38
0.00 0.00 0.14 0.18 0.03 0.03 0.03 0.04 0.03 0.04 0.04 0.05 0.05 0.05 0.05 0.03 0.02 0.02 0.01 0.01 0.02 0.01 0.01 0.02 0.02 0.02 0.02 0.05 0.07 0.08 0.12 0.16 0.19 0.22 0.26 0.27 0.27 0.23 0.20 0.21 0.21 0.34 0.42
0.01 0.00 0.02 0.21 0.17 0.03 0.02 0.03 0.03 0.04 0.07 0.08 0.06 0.04 0.03 0.02 0.02 0.02 0.01 0.01 0.02 0.03 0.07 0.10 0.13 0.14 0.17 0.30 0.26 0.24 0.26 0.30 0.33 0.34 0.31 0.29 0.26 0.19 0.17 0.17 0.21 0.36 0.66
0.01 0.01 0.00 0.00 0.05 0.17 0.12 0.12 0.14 0.21 0.19 0.12 0.07 0.05 0.05 0.10 0.09 0.10 0.07 0.06 0.06 0.08 0.13 0.22 0.35 0.54 0.70 0.79 0.74 0.66 0.64 0.65 0.52 0.33 0.23 0.15 0.09 0.07 0.05 0.09 0.17 0.34 0.63
0.02 0.01 0.00 0.00 0.00 0.00 0.01 0.02 0.04 0.07 0.19 0.19 0.24 0.16 0.18 0.31 0.55 0.45 0.42 0.39 0.31 0.24 0.27 0.30 0.32 0.41 0.46 0.42 0.31 0.25 0.18 0.13 0.09 0.05 0.02 0.02 0.03 0.04 0.06 0.14 0.40 0.35 0.22
0.01 0.01 0.00 0.00 0.01 0.01 0.01 0.02 0.03 0.05 0.03 0.08 0.11 0.15 0.44 0.54 0.49 0.31 0.49 0.48 0.39 0.44 0.48 0.46 0.37 0.30 0.22 0.16 0.11 0.08 0.06 0.05 0.04 0.02 0.02 0.06 0.03 0.05 0.14 0.37 0.41 0.19 0.14
0.02 0.01 0.00 0.01 0.03 0.03 0.03 0.05 0.04 0.05 0.12 0.09 0.07 0.28 0.70 0.56 0.45 0.23 0.40 0.50 0.39 0.30 0.30 0.29 0.20 0.14 0.08 0.07 0.05 0.04 0.05 0.03 0.02 0.02 0.03 0.05 0.04 0.12 0.37 0.27 0.24 0.26 0.17
0.15 0.08 0.07 0.08 0.18 0.15 0.21 0.27 0.22 0.35 0.44 0.27 0.22 0.43 0.48 0.47 0.37 0.28 0.30 0.28 0.26 0.16 0.12 0.13 0.08 0.04 0.03 0.02 0.02 0.01 0.02 0.03 0.14 0.11 0.03 0.04 0.16 0.36 0.22 0.16 0.19 0.23 0.27
0.35 0.50 0.30 0.37 0.54 0.56 0.74 0.74 0.68 0.66 0.57 0.41 0.36 0.32 0.26 0.25 0.26 0.12 0.09 0.06 0.03 0.02 0.02 0.02 0.01 0.00 0.00 0.00 0.01 0.01 0.03 0.07 0.10 0.05 0.02 0.10 0.24 0.09 0.06 0.09 0.18 0.32 0.31
0.03 0.18 0.11 0.17 0.23 0.30 0.36 0.48 0.41 0.33 0.32 0.22 0.17 0.13 0.12 0.10 0.07 0.03 0.03 0.02 0.01 0.01 0.01 0.01 0.00 0.00 0.00 0.00 0.01 0.01 0.07 0.09 0.07 0.05 0.16 0.15 0.03 0.03 0.04 0.10 0.17 0.16 0.15
0.04 0.02 0.03 0.02 0.04 0.06 0.09 0.11 0.04 0.04 0.06 0.06 0.06 0.04 0.03 0.03 0.01 0.00 0.00 0.00 0.00 0.01 0.01 0.01 0.01 0.01 0.00 0.00 0.00 0.04 0.06 0.05 0.09 0.17 0.14 0.03 0.03 0.05 0.06 0.08 0.07 0.07 0.17
0.12 0.10 0.07 0.04 0.03 0.03 0.03 0.03 0.03 0.03 0.02 0.02 0.01 0.01 0.01 0.03 0.01 0.01 0.01 0.01 0.01 0.02 0.01 0.00 0.01 0.02 0.02 0.02 0.07 0.07 0.05 0.09 0.16 0.07 0.01 0.01 0.02 0.02 0.02 0.04 0.06 0.11 0.24
0.01 0.01 0.02 0.02 0.02 0.01 0.00 0.00 0.00 0.00 0.00 0.01 0.01 0.01 0.01 0.01 0.01 0.01 0.02 0.04 0.02 0.02 0.01 0.01 0.02 0.02 0.03 0.05 0.06 0.06 0.12 0.16 0.08 0.05 0.03 0.04 0.05 0.08 0.09 0.11 0.15 0.20 0.32

GFSMW_prec_precacc_120.txt.gz
Total_Precipitation_Accumulation
0.09 0.13 0.23 0.59 1.79 3.10 3.63 3.30 2.79 1.69 1.57 1.15 1.14 1.10 0.60 0.45 0.40 0.48 0.38 0.30 0.10 0.06 0.03 0.00 0.00 0.00 0.00 0.00 0.00 0.00 0.00 0.00 0.00 0.00 0.00 0.00 0.00 0.00 0.00 0.00 0.00 0.00 0.00
0.06 0.11 0.13 0.24 1.00 2.31 3.33 2.94 2.63 2.02 1.48 1.40 1.55 1.94 1.84 1.46 1.18 1.07 0.58 0.45 0.45 0.39 0.14 0.04 0.01 0.00 0.00 0.00 0.00 0.00 0.00 0.00 0.00 0.01 0.02 0.02 0.00 0.00 0.00 0.00 0.00 0.00 0.00
0.06 0.06 0.10 0.14 0.41 1.05 2.98 3.51 2.50 2.03 1.50 1.67 1.83 1.61 1.79 1.58 1.36 1.06 0.86 0.80 0.85 0.83 0.52 0.31 0.11 0.06 0.07 0.07 0.04 0.05 0.06 0.07 0.03 0.02 0.04 0.07 0.03 0.02 0.00 0.00 0.00 0.00 0.00
0.05 0.03 0.07 0.05 0.10 0.39 1.64 3.82 2.97 1.92 1.82 1.77 1.67 1.49 1.11 0.98 0.90 1.21 1.57 1.32 1.24 1.28 1.08 0.94 0.57 0.34 0.27 0.28 0.31 0.26 0.21 0.16 0.14 0.07 0.03 0.05 0.06 0.11 0.06 0.01 0.01 0.01 0.01
0.03 0.03 0.03 0.04 0.05 0.27 0.89 2.19 2.61 3.00 2.39 2.95 2.53 2.51 2.26 1.49 1.03 1.10 1.17 1.28 1.12 1.09 1.54 1.53 1.52 1.34 1.18 0.91 0.74 0.71 0.54 0.38 0.30 0.21 0.19 0.22 0.15 0.12 0.17 0.14 0.05 0.05 0.03
0.02 0.03 0.04 0.06 0.07 0.20 0.37 1.36 1.69 2.24 2.68 3.47 4.56 3.79 2.97 2.58 2.10 1.47 1.37 1.37 1.31 1.12 1.07 1.14 1.16 1.35 1.51 1.44 1.31 1.05 0.79 0.76 0.61 0.49 0.35 0.36 0.41 0.33 0.33 0.31 0.20 0.20 0.14
0.03 0.04 0.02 0.05 0.11 0.16 0.23 0.36 0.98 1.34 1.94 1.98 3.28 3.75 3.53 2.31 1.84 1.69 1.57 1.51 1.48 1.50 1.51 1.32 1.15 1.02 0.85 0.80 0.78 0.85 0.87 0.84 0.81 0.81 0.81 0.78 0.79 0.88 0.87 0.87 0.68 0.52 0.35
0.08 0.06 0.02 0.04 0.05 0.10 0.15 0.17 0.28 0.55 0.98 1.12 1.48 1.43 1.80 2.14 2.26 1.80 1.23 0.96 0.97 1.12 1.43 1.38 1.12 0.94 0.94 0.82 0.73 0.75 0.81 0.90 1.04 1.14 1.21 1.12 1.05 1.15 1.28 1.29 1.21 0.96 0.67
0.16 0.07 0.03 0.02 0.03 0.08 0.13 0.09 0.12 0.17 0.43 0.67 0.94 0.91 0.76 1.01 1.29 1.75 1.76 0.88 0.66 0.73 0.80 0.85 0.82 0.67 0.59 0.55 0.53 0.53 0.55 0.56 0.59 0.59 0.61 0.68 0.67 0.71 0.82 1.01 1.17 1.47 1.28
0.20 0.05 0.08 0.02 0.02 0.09 0.11 0.10 0.10 0.09 0.17 0.33 0.45 0.56 0.59 0.63 0.78 0.88 0.98 0.95 0.47 0.35 0.44 0.45 0.37 0.31 0.31 0.34 0.32 0.29 0.24 0.26 0.30 0.36 0.41 0.48 0.58 0.73 0.83 0.93 0.99 1.21 1.41
0.20 0.07 0.12 0.09 0.05 0.14 0.09 0.06 0.05 0.04 0.08 0.09 0.17 0.33 0.36 0.32 0.41 0.43 0.44 0.48 0.50 0.32 0.27 0.27 0.30 0.21 0.14 0.15 0.17 0.18 0.16 0.20 0.23 0.29 0.37 0.42 0.45 0.56 0.66 0.76 0.94 1.08 1.18
0.16 0.08 0.13 0.19 0.10 0.08 0.06 0.03 0.05 0.04 0.03 0.05 0.07 0.11 0.09 0.14 0.16 0.15 0.14 0.16 0.15 0.16 0.12 0.09 0.10 0.08 0.05 0.05 0.04 0.06 0.09 0.12 0.13 0.15 0.24 0.29 0.36 0.45 0.49 0.54 0.55 0.55 0.54
0.10 0.10 0.13 0.17 0.12 0.17 0.08 0.04 0.05 0.01 0.02 0.04 0.02 0.03 0.03 0.03 0.04 0.05 0.07 0.06 0.12 0.09 0.04 0.02 0.03 0.02 0.01 0.00 0.00 0.02 0.04 0.07 0.10 0.13 0.19 0.20 0.24 0.31 0.30 0.30 0.31 0.32 0.37
0.04 0.08 0.10 0.09 0.05 0.12 0.13 0.07 0.05 0.04 0.05 0.05 0.03 0.04 0.04 0.04 0.01 0.02 0.02 0.02 0.03 0.03 0.01 0.02 0.01 0.00 0.00 0.01 0.02 0.04 0.07 0.09 0.09 0.10 0.13 0.19 0.23 0.24 0.21 0.21 0.26 0.29 0.38
0.00 0.03 0.18 0.20 0.04 0.04 0.04 0.06 0.05 0.06 0.05 0.06 0.06 0.06 0.05 0.04 0.02 0.02 0.01 0.01 0.02 0.01 0.01 0.02 0.02 0.02 0.02 0.05 0.07 0.08 0.12 0.16 0.19 0.22 0.26 0.27 0.27 0.23 0.20 0.21 0.21 0.34 0.42
0.01 0.00 0.02 0.22 0.18 0.03 0.02 0.04 0.04 0.06 0.08 0.08 0.06 0.04 0.03 0.03 0.02 0.02 0.01 0.01 0.02 0.03 0.07 0.10 0.13 0.14 0.17 0.30 0.26 0.24 0.26 0.30 0.33 0.34 0.31 0.29 0.26 0.19 0.17 0.17 0.21 0.36 0.66
0.01 0.01 0.00 0.00 0.05 0.18 0.13 0.15 0.15 0.21 0.20 0.12 0.07 0.05 0.05 0.10 0.09 0.10 0.07 0.06 0.06 0.08 0.13 0.22 0.35 0.54 0.70 0.79 0.74 0.66 0.64 0.65 0.52 0.33 0.23 0.15 0.09 0.07 0.05 0.09 0.17 0.34 0.63
0.02 0.01 0.00 0.00 0.00 0.00 0.01 0.02 0.04 0.07 0.19 0.19 0.24 0.16 0.18 0.31 0.55 0.45 0.42 0.39 0.31 0.24 0.27 0.30 0.32 0.41 0.46 0.42 0.31 0.25 0.18 0.13 0.09 0.05 0.02 0.02 0.03 0.04 0.06 0.14 0.40 0.35 0.22
0.01 0.01 0.00 0.00 0.01 0.01 0.01 0.02 0.03 0.05 0.04 0.08 0.11 0.15 0.44 0.54 0.49 0.31 0.49 0.48 0.39 0.44 0.48 0.46 0.37 0.30 0.22 0.16 0.11 0.08 0.06 0.05 0.04 0.02 0.02 0.06 0.03 0.05 0.14 0.37 0.41 0.19 0.14
0.02 0.01 0.00 0.01 0.03 0.03 0.03 0.05 0.04 0.05 0.12 0.09 0.07 0.28 0.70 0.56 0.45 0.23 0.40 0.50 0.39 0.30 0.30 0.29 0.20 0.14 0.08 0.07 0.05 0.04 0.05 0.03 0.02 0.02 0.03 0.05 0.04 0.12 0.37 0.27 0.24 0.26 0.17
0.15 0.08 0.07 0.08 0.18 0.15 0.21 0.27 0.22 0.35 0.44 0.27 0.22 0.43 0.48 0.47 0.37 0.28 0.30 0.28 0.26 0.16 0.12 0.13 0.08 0.04 0.03 0.02 0.02 0.01 0.02 0.03 0.14 0.11 0.03 0.04 0.16 0.36 0.22 0.16 0.19 0.23 0.27
0.35 0.50 0.30 0.37 0.54 0.56 0.74 0.74 0.68 0.66 0.57 0.41 0.36 0.32 0.26 0.25 0.26 0.12 0.09 0.06 0.03 0.02 0.02 0.02 0.01 0.00 0.00 0.00 0.01 0.01 0.03 0.07 0.10 0.05 0.02 0.10 0.24 0.09 0.06 0.09 0.18 0.32 0.31
0.03 0.18 0.11 0.17 0.23 0.30 0.36 0.48 0.41 0.33 0.32 0.22 0.17 0.13 0.12 0.10 0.07 0.03 0.03 0.02 0.01 0.01 0.01 0.01 0.00 0.00 0.00 0.00 0.01 0.01 0.07 0.09 0.07 0.05 0.16 0.15 0.03 0.03 0.04 0.10 0.17 0.16 0.15
0.04 0.02 0.03 0.02 0.04 0.06 0.09 0.11 0.04 0.04 0.06 0.06 0.06 0.04 0.03 0.03 0.01 0.00 0.00 0.00 0.00 0.01 0.01 0.01 0.01 0.01 0.00 0.00 0.00 0.04 0.06 0.05 0.09 0.17 0.14 0.03 0.03 0.05 0.06 0.08 0.07 0.07 0.17
0.12 0.10 0.07 0.04 0.03 0.03 0.03 0.03 0.03 0.03 0.02 0.02 0.01 0.01 0.01 0.03 0.01 0.01 0.01 0.01 0.01 0.02 0.01 0.00 0.01 0.02 0.02 0.02 0.07 0.07 0.05 0.09 0.16 0.07 0.01 0.01 0.02 0.02 0.02 0.04 0.06 0.11 0.24
0.01 0.01 0.02 0.02 0.02 0.01 0.00 0.00 0.00 0.00 0.00 0.01 0.01 0.01 0.01 0.01 0.01 0.01 0.02 0.04 0.02 0.02 0.01 0.01 0.02 0.02 0.03 0.05 0.06 0.06 0.12 0.16 0.08 0.05 0.03 0.04 0.05 0.08 0.09 0.11 0.15 0.20 0.32

GFSMW_prec_precacc_123.txt.gz
Total_Precipitation_Accumulation
0.09 0.13 0.23 0.59 1.79 3.12 3.81 3.69 3.19 2.63 2.35 1.25 1.16 1.10 0.60 0.45 0.40 0.48 0.38 0.30 0.10 0.06 0.03 0.00 0.00 0.00 0.00 0.00 0.00 0.00 0.00 0.00 0.00 0.00 0.00 0.00 0.00 0.00 0.00 0.00 0.00 0.00 0.00
0.06 0.11 0.13 0.24 1.00 2.32 3.43 3.21 3.21 2.98 2.88 1.75 1.57 1.94 1.84 1.46 1.18 1.07 0.58 0.45 0.45 0.39 0.14 0.04 0.01 0.00 0.00 0.00 0.00 0.00 0.00 0.00 0.00 0.01 0.02 0.02 0.00 0.00 0.00 0.00 0.00 0.00 0.00
0.06 0.06 0.10 0.14 0.41 1.05 3.03 3.72 2.92 2.57 2.52 2.63 1.94 1.62 1.80 1.58 1.36 1.06 0.86 0.80 0.85 0.83 0.52 0.31 0.11 0.06 0.07 0.07 0.04 0.05 0.06 0.07 0.03 0.02 0.04 0.07 0.03 0.02 0.00 0.00 0.00 0.00 0.00
0.05 0.03 0.07 0.05 0.10 0.39 1.66 3.97 3.39 2.46 2.54 2.47 1.99 1.53 1.11 0.98 0.90 1.21 1.57 1.32 1.24 1.28 1.08 0.94 0.57 0.34 0.27 0.28 0.31 0.26 0.21 0.16 0.14 0.07 0.03 0.05 0.06 0.11 0.07 0.01 0.01 0.01 0.01
0.03 0.03 0.03 0.04 0.08 0.29 0.93 2.34 2.95 3.74 3.22 3.54 2.87 2.60 2.30 1.51 1.04 1.10 1.17 1.28 1.12 1.09 1.54 1.53 1.52 1.34 1.18 0.91 0.74 0.71 0.54 0.38 0.30 0.21 0.19 0.22 0.15 0.12 0.18 0.15 0.05 0.05 0.03
0.02 0.03 0.04 0.08 0.12 0.26 0.42 1.44 2.05 2.95 3.86 4.48 4.91 3.89 3.03 2.61 2.11 1.47 1.37 1.37 1.31 1.12 1.07 1.14 1.16 1.35 1.51 1.44 1.31 1.05 0.80 0.76 0.61 0.50 0.36 0.37 0.42 0.35 0.36 0.32 0.20 0.20 0.14
0.03 0.04 0.03 0.10 0.20 0.22 0.27 0.40 1.19 1.76 2.70 3.64 4.47 3.94 3.64 2.34 1.87 1.71 1.58 1.52 1.48 1.50 1.51 1.32 1.15 1.02 0.86 0.81 0.78 0.85 0.87 0.84 0.81 0.83 0.84 0.80 0.80 0.88 0.87 0.88 0.68 0.52 0.35
0.08 0.07 0.07 0.11 0.17 0.16 0.21 0.19 0.35 0.68 1.25 1.99 2.96 2.41 2.04 2.26 2.31 1.86 1.25 0.96 0.97 1.12 1.43 1.38 1.12 0.94 0.94 0.82 0.73 0.75 0.81 0.91 1.05 1.15 1.22 1.14 1.05 1.15 1.28 1.30 1.22 0.97 0.67
0.18 0.13 0.15 0.12 0.15 0.14 0.15 0.13 0.16 0.21 0.48 0.95 1.45 1.56 1.37 1.40 1.57 1.94 1.94 0.92 0.67 0.73 0.81 0.86 0.82 0.67 0.59 0.55 0.53 0.54 0.56 0.61 0.67 0.65 0.66 0.71 0.68 0.72 0.82 1.01 1.17 1.47 1.29
0.37 0.18 0.14 0.07 0.09 0.14 0.13 0.14 0.16 0.17 0.22 0.40 0.56 0.73 0.80 0.83 1.10 1.18 1.40 1.38 0.58 0.40 0.48 0.48 0.38 0.31 0.32 0.35 0.35 0.32 0.28 0.31 0.36 0.46 0.50 0.55 0.60 0.73 0.83 0.93 0.99 1.21 1.42
0.41 0.17 0.14 0.11 0.06 0.16 0.10 0.08 0.09 0.08 0.10 0.12 0.18 0.34 0.43 0.45 0.52 0.58 0.70 1.03 0.97 0.51 0.34 0.32 0.33 0.26 0.19 0.17 0.22 0.25 0.24 0.26 0.26 0.30 0.37 0.42 0.45 0.56 0.66 0.76 0.94 1.08 1.18
0.40 0.21 0.17 0.19 0.11 0.09 0.07 0.04 0.06 0.05 0.04 0.06 0.08 0.11 0.09 0.16 0.21 0.18 0.21 0.41 0.64 0.69 0.32 0.19 0.17 0.16 0.14 0.12 0.16 0.12 0.16 0.16 0.14 0.15 0.24 0.29 0.36 0.45 0.49 0.54 0.55 0.55 0.54
0.44 0.46 0.22 0.22 0.17 0.19 0.08 0.05 0.05 0.01 0.03 0.04 0.03 0.03 0.04 0.04 0.06 0.06 0.09 0.10 0.27 0.43 0.28 0.16 0.12 0.08 0.08 0.08 0.06 0.06 0.05 0.07 0.10 0.13 0.19 0.20 0.24 0.31 0.30 0.30 0.31 0.32 0.37
0.39 0.58 0.43 0.24 0.18 0.16 0.14 0.08 0.05 0.04 0.05 0.05 0.03 0.04 0.05 0.04 0.02 0.03 0.02 0.04 0.09 0.08 0.04 0.05 0.03 0.01 0.01 0.03 0.03 0.04 0.07 0.09 0.09 0.10 0.13 0.19 0.23 0.24 0.21 0.21 0.26 0.29 0.38
0.34 0.52 0.74 0.48 0.14 0.08 0.07 0.06 0.05 0.06 0.06 0.06 0.06 0.06 0.05 0.05 0.03 0.02 0.02 0.03 0.08 0.05 0.01 0.02 0.02 0.02 0.02 0.05 0.07 0.08 0.12 0.16 0.19 0.22 0.26 0.27 0.27 0.23 0.20 0.21 0.21 0.34 0.42
0.11 0.27 0.24 0.35 0.22 0.04 0.02 0.04 0.04 0.06 0.09 0.08 0.06 0.04 0.03 0.03 0.02 0.02 0.01 0.01 0.02 0.03 0.07 0.10 0.13 0.14 0.17 0.30 0.26 0.24 0.26 0.30 0.33 0.34 0.31 0.29 0.26 0.19 0.17 0.17 0.21 0.36 0.66
0.01 0.01 0.03 0.05 0.11 0.20 0.14 0.15 0.15 0.21 0.20 0.12 0.07 0.05 0.05 0.10 0.09 0.10 0.07 0.06 0.06 0.08 0.13 0.22 0.35 0.54 0.70 0.79 0.74 0.66 0.64 0.65 0.52 0.33 0.23 0.15 0.09 0.07 0.05 0.09 0.17 0.34 0.63
0.02 0.01 0.00 0.00 0.00 0.01 0.01 0.02 0.04 0.07 0.19 0.19 0.24 0.16 0.18 0.31 0.55 0.45 0.42 0.39 0.31 0.24 0.27 0.30 0.32 0.41 0.46 0.42 0.31 0.25 0.18 0.13 0.09 0.05 0.02 0.02 0.03 0.04 0.06 0.14 0.40 0.35 0.22
0.01 0.01 0.00 0.00 0.01 0.01 0.02 0.02 0.03 0.05 0.04 0.08 0.11 0.15 0.44 0.54 0.49 0.31 0.49 0.48 0.39 0.44 0.48 0.46 0.37 0.30 0.22 0.16 0.11 0.08 0.06 0.05 0.04 0.02 0.02 0.06 0.03 0.05 0.14 0.37 0.41 0.19 0.14
0.02 0.01 0.00 0.01 0.03 0.03 0.03 0.05 0.04 0.06 0.13 0.09 0.07 0.28 0.70 0.56 0.45 0.23 0.40 0.50 0.39 0.30 0.30 0.29 0.20 0.14 0.08 0.07 0.05 0.04 0.05 0.03 0.02 0.02 0.03 0.05 0.04 0.12 0.37 0.27 0.24 0.26 0.17
0.15 0.08 0.07 0.08 0.18 0.15 0.21 0.27 0.22 0.35 0.45 0.27 0.23 0.43 0.48 0.47 0.37 0.28 0.30 0.28 0.26 0.16 0.12 0.13 0.08 0.04 0.03 0.02 0.02 0.01 0.02 0.03 0.14 0.11 0.03 0.04 0.16 0.36 0.22 0.16 0.19 0.23 0.27
0.35 0.50 0.30 0.37 0.54 0.56 0.74 0.74 0.68 0.66 0.57 0.41 0.36 0.32 0.26 0.25 0.26 0.12 0.09 0.06 0.03 0.02 0.02 0.02 0.01 0.00 0.00 0.00 0.01 0.01 0.03 0.07 0.10 0.05 0.02 0.10 0.24 0.09 0.06 0.09 0.18 0.32 0.31
0.03 0.18 0.11 0.17 0.23 0.30 0.36 0.48 0.41 0.33 0.32 0.22 0.17 0.13 0.12 0.10 0.07 0.03 0.03 0.02 0.01 0.01 0.01 0.01 0.00 0.00 0.00 0.00 0.01 0.01 0.07 0.09 0.07 0.05 0.16 0.15 0.03 0.03 0.04 0.10 0.17 0.16 0.15
0.04 0.02 0.03 0.02 0.04 0.06 0.09 0.11 0.04 0.04 0.06 0.06 0.06 0.04 0.03 0.03 0.01 0.00 0.00 0.00 0.00 0.01 0.01 0.01 0.01 0.01 0.00 0.00 0.00 0.04 0.06 0.05 0.09 0.17 0.14 0.03 0.03 0.05 0.06 0.08 0.07 0.07 0.17
0.12 0.10 0.07 0.04 0.03 0.03 0.03 0.03 0.03 0.03 0.02 0.02 0.01 0.01 0.01 0.03 0.01 0.01 0.01 0.01 0.01 0.02 0.01 0.00 0.01 0.02 0.02 0.02 0.07 0.07 0.05 0.09 0.16 0.07 0.01 0.01 0.02 0.02 0.02 0.04 0.06 0.11 0.24
0.01 0.01 0.02 0.02 0.02 0.01 0.00 0.00 0.00 0.00 0.00 0.01 0.01 0.02 0.01 0.01 0.01 0.01 0.02 0.04 0.02 0.02 0.01 0.01 0.02 0.02 0.03 0.05 0.06 0.06 0.12 0.16 0.08 0.05 0.03 0.04 0.05 0.08 0.09 0.11 0.15 0.20 0.32

GFSMW_prec_precacc_126.txt.gz
Total_Precipitation_Accumulation
0.09 0.13 0.23 0.59 1.79 3.12 3.81 3.70 3.26 2.84 2.81 2.03 1.64 1.40 0.78 0.47 0.40 0.48 0.39 0.30 0.11 0.06 0.03 0.00 0.00 0.00 0.00 0.00 0.00 0.00 0.00 0.00 0.00 0.00 0.00 0.00 0.00 0.00 0.00 0.00 0.00 0.00 0.00
0.06 0.11 0.13 0.24 1.00 2.32 3.43 3.23 3.32 3.20 3.39 2.72 2.23 2.22 1.87 1.46 1.18 1.07 0.58 0.45 0.45 0.39 0.14 0.04 0.01 0.00 0.00 0.00 0.00 0.00 0.00 0.00 0.00 0.01 0.02 0.02 0.00 0.00 0.00 0.00 0.00 0.00 0.00
0.06 0.06 0.10 0.14 0.41 1.05 3.03 3.73 3.03 2.76 2.99 3.46 2.83 1.92 1.83 1.58 1.36 1.06 0.87 0.80 0.85 0.83 0.52 0.31 0.11 0.06 0.07 0.07 0.04 0.05 0.06 0.07 0.03 0.02 0.04 0.07 0.04 0.02 0.00 0.00 0.00 0.00 0.00
0.05 0.03 0.07 0.05 0.10 0.39 1.66 3.99 3.45 2.59 2.88 2.93 3.00 2.09 1.26 1.00 0.90 1.21 1.57 1.32 1.24 1.28 1.08 0.94 0.57 0.34 0.27 0.28 0.31 0.26 0.21 0.16 0.14 0.07 0.03 0.05 0.06 0.11 0.07 0.02 0.02 0.01 0.01
0.03 0.03 0.03 0.04 0.08 0.29 0.93 2.36 2.98 3.82 3.48 3.84 3.49 3.29 2.63 1.54 1.04 1.10 1.17 1.28 1.12 1.10 1.54 1.53 1.52 1.34 1.18 0.91 0.74 0.71 0.54 0.38 0.30 0.22 0.19 0.22 0.15 0.12 0.18 0.15 0.05 0.05 0.03
0.02 0.03 0.04 0.08 0.12 0.26 0.45 1.47 2.07 3.00 3.98 4.63 5.25 4.15 3.21 2.65 2.11 1.48 1.38 1.37 1.31 1.12 1.07 1.14 1.16 1.35 1.51 1.44 1.31 1.05 0.80 0.76 0.61 0.50 0.36 0.37 0.42 0.35 0.36 0.32 0.20 0.20 0.14
0.03 0.04 0.03 0.10 0.22 0.24 0.30 0.41 1.20 1.77 2.76 3.76 5.13 4.74 3.94 2.39 1.87 1.71 1.58 1.52 1.48 1.50 1.51 1.32 1.15 1.02 0.86 0.81 0.78 0.85 0.87 0.84 0.81 0.83 0.84 0.81 0.80 0.88 0.87 0.88 0.68 0.52 0.35
0.09 0.08 0.07 0.12 0.22 0.24 0.25 0.19 0.35 0.68 1.27 2.09 3.35 3.36 2.78 2.35 2.34 1.87 1.25 0.96 0.98 1.12 1.43 1.38 1.12 0.94 0.95 0.82 0.73 0.75 0.81 0.91 1.05 1.15 1.22 1.14 1.06 1.15 1.28 1.30 1.22 0.97 0.67
0.18 0.13 0.18 0.23 0.31 0.22 0.19 0.13 0.17 0.22 0.49 0.99 1.62 2.21 2.45 1.74 1.67 1.99 1.96 0.93 0.67 0.74 0.82 0.86 0.83 0.67 0.59 0.55 0.53 0.54 0.56 0.61 0.67 0.65 0.66 0.71 0.69 0.72 0.83 1.01 1.17 1.47 1.29
0.39 0.27 0.31 0.26 0.30 0.20 0.15 0.15 0.16 0.17 0.23 0.42 0.62 0.96 1.54 1.72 1.70 1.32 1.47 1.40 0.58 0.41 0.49 0.49 0.39 0.32 0.32 0.35 0.35 0.32 0.28 0.31 0.36 0.46 0.52 0.55 0.61 0.73 0.83 0.93 0.99 1.21 1.42
0.53 0.53 0.30 0.35 0.30 0.28 0.15 0.12 0.13 0.11 0.12 0.13 0.20 0.39 0.60 0.83 1.19 1.31 0.98 1.14 1.02 0.54 0.37 0.34 0.35 0.27 0.19 0.17 0.22 0.25 0.24 0.26 0.27 0.31 0.38 0.43 0.46 0.56 0.66 0.76 0.94 1.08 1.18
0.77 0.44 0.30 0.42 0.40 0.34 0.16 0.11 0.12 0.07 0.06 0.07 0.09 0.11 0.10 0.19 0.31 0.67 0.75 0.75 0.85 0.81 0.39 0.24 0.20 0.17 0.15 0.12 0.16 0.13 0.16 0.16 0.14 0.16 0.24 0.29 0.36 0.45 0.49 0.54 0.55 0.55 0.54
0.72 0.53 0.30 0.34 0.33 0.38 0.21 0.09 0.08 0.03 0.03 0.05 0.04 0.04 0.05 0.05 0.07 0.13 0.24 0.36 0.78 0.74 0.53 0.29 0.17 0.10 0.09 0.10 0.07 0.09 0.08 0.09 0.11 0.13 0.19 0.20 0.24 0.31 0.30 0.30 0.31 0.32 0.37
0.81 0.84 0.54 0.29 0.21 0.18 0.17 0.11 0.06 0.05 0.06 0.07 0.04 0.05 0.06 0.05 0.02 0.04 0.06 0.08 0.27 0.46 0.37 0.30 0.19 0.11 0.05 0.05 0.06 0.07 0.10 0.10 0.10 0.10 0.13 0.19 0.23 0.24 0.21 0.21 0.26 0.29 0.38
0.93 0.96 0.94 0.57 0.18 0.11 0.09 0.07 0.05 0.06 0.06 0.06 0.07 0.06 0.05 0.05 0.04 0.02 0.02 0.04 0.11 0.09 0.10 0.14 0.09 0.06 0.06 0.08 0.09 0.10 0.12 0.16 0.19 0.22 0.26 0.27 0.27 0.23 0.20 0.21 0.21 0.34 0.42
0.42 0.54 0.52 0.56 0.27 0.06 0.03 0.04 0.04 0.06 0.09 0.08 0.06 0.04 0.04 0.03 0.03 0.03 0.01 0.02 0.03 0.05 0.07 0.11 0.15 0.15 0.17 0.31 0.28 0.25 0.26 0.30 0.33 0.34 0.31 0.29 0.26 0.19 0.17 0.17 0.21 0.36 0.66
0.04 0.05 0.08 0.09 0.11 0.20 0.14 0.15 0.15 0.22 0.20 0.12 0.08 0.05 0.06 0.11 0.10 0.12 0.08 0.07 0.06 0.08 0.13 0.22 0.35 0.54 0.70 0.80 0.75 0.67 0.64 0.65 0.52 0.33 0.23 0.15 0.09 0.07 0.05 0.09 0.17 0.34 0.63
0.02 0.01 0.00 0.00 0.01 0.01 0.01 0.02 0.04 0.08 0.19 0.19 0.24 0.16 0.19 0.31 0.55 0.45 0.43 0.39 0.32 0.24 0.27 0.30 0.32 0.41 0.46 0.42 0.31 0.26 0.18 0.13 0.09 0.05 0.02 0.02 0.03 0.04 0.06 0.14 0.40 0.35 0.22
0.01 0.01 0.00 0.00 0.01 0.01 0.02 0.02 0.03 0.05 0.04 0.08 0.11 0.16 0.44 0.54 0.49 0.31 0.49 0.48 0.39 0.44 0.48 0.46 0.37 0.30 0.22 0.16 0.12 0.09 0.06 0.05 0.04 0.02 0.02 0.06 0.03 0.05 0.14 0.37 0.41 0.19 0.14
0.02 0.01 0.00 0.01 0.03 0.03 0.03 0.05 0.04 0.06 0.13 0.09 0.07 0.28 0.71 0.58 0.46 0.25 0.41 0.50 0.39 0.30 0.30 0.29 0.20 0.14 0.08 0.07 0.05 0.04 0.05 0.03 0.02 0.02 0.03 0.05 0.04 0.12 0.37 0.27 0.24 0.26 0.17
0.15 0.08 0.07 0.08 0.18 0.15 0.21 0.27 0.22 0.36 0.45 0.28 0.23 0.43 0.48 0.47 0.37 0.28 0.30 0.28 0.26 0.16 0.12 0.13 0.08 0.04 0.03 0.02 0.02 0.01 0.02 0.03 0.14 0.11 0.03 0.04 0.16 0.36 0.22 0.16 0.19 0.23 0.27
0.35 0.50 0.30 0.37 0.54 0.56 0.74 0.74 0.68 0.66 0.57 0.41 0.36 0.32 0.26 0.25 0.26 0.12 0.09 0.06 0.03 0.02 0.02 0.02 0.01 0.00 0.00 0.01 0.01 0.02 0.03 0.07 0.10 0.05 0.02 0.10 0.24 0.09 0.06 0.09 0.18 0.32 0.31
0.03 0.18 0.11 0.17 0.23 0.30 0.36 0.48 0.41 0.33 0.32 0.22 0.17 0.13 0.12 0.10 0.07 0.03 0.03 0.02 0.01 0.01 0.01 0.01 0.00 0.00 0.00 0.00 0.01 0.01 0.07 0.09 0.07 0.05 0.16 0.15 0.03 0.03 0.04 0.10 0.17 0.16 0.15
0.04 0.02 0.03 0.02 0.04 0.06 0.09 0.11 0.04 0.04 0.06 0.06 0.06 0.04 0.03 0.03 0.01 0.00 0.00 0.00 0.00 0.01 0.01 0.01 0.01 0.01 0.00 0.00 0.00 0.04 0.06 0.05 0.09 0.17 0.14 0.03 0.03 0.05 0.06 0.08 0.07 0.07 0.17
0.12 0.10 0.07 0.04 0.03 0.03 0.03 0.03 0.03 0.03 0.02 0.02 0.01 0.01 0.01 0.03 0.01 0.01 0.01 0.01 0.01 0.02 0.01 0.00 0.01 0.02 0.02 0.02 0.07 0.07 0.05 0.09 0.16 0.07 0.01 0.01 0.02 0.02 0.02 0.04 0.06 0.11 0.24
0.01 0.01 0.02 0.02 0.02 0.01 0.00 0.00 0.00 0.00 0.00 0.01 0.02 0.02 0.01 0.01 0.01 0.01 0.02 0.04 0.02 0.02 0.01 0.01 0.02 0.02 0.03 0.05 0.06 0.06 0.12 0.16 0.08 0.05 0.03 0.04 0.05 0.08 0.09 0.11 0.15 0.20 0.32

GFSMW_prec_precacc_129.txt.gz
Total_Precipitation_Accumulation
0.09 0.13 0.23 0.59 1.79 3.12 3.81 3.70 3.26 2.85 2.82 2.11 1.79 1.59 1.62 1.63 1.08 0.62 0.43 0.33 0.12 0.06 0.03 0.00 0.00 0.00 0.00 0.00 0.00 0.00 0.00 0.00 0.00 0.00 0.00 0.00 0.00 0.00 0.00 0.00 0.00 0.00 0.00
0.06 0.11 0.13 0.24 1.00 2.32 3.43 3.23 3.33 3.21 3.39 2.78 2.42 2.39 2.31 2.34 1.67 1.25 0.65 0.48 0.46 0.39 0.14 0.04 0.01 0.00 0.00 0.00 0.00 0.00 0.00 0.00 0.00 0.01 0.02 0.02 0.00 0.00 0.00 0.00 0.00 0.00 0.00
0.06 0.06 0.10 0.14 0.41 1.05 3.03 3.73 3.03 2.76 3.00 3.53 3.04 2.18 2.19 2.31 1.71 1.15 0.92 0.83 0.87 0.84 0.52 0.31 0.11 0.06 0.07 0.07 0.04 0.05 0.06 0.07 0.03 0.02 0.04 0.07 0.04 0.02 0.00 0.00 0.00 0.00 0.00
0.05 0.03 0.07 0.05 0.10 0.39 1.66 3.99 3.45 2.60 2.89 3.02 3.23 2.59 1.89 1.83 1.29 1.27 1.59 1.33 1.25 1.28 1.09 0.94 0.57 0.34 0.27 0.28 0.31 0.26 0.21 0.16 0.14 0.07 0.03 0.05 0.06 0.11 0.07 0.02 0.02 0.01 0.01
0.03 0.03 0.03 0.04 0.08 0.29 0.93 2.36 3.00 3.83 3.50 3.94 3.69 3.64 3.13 2.13 1.42 1.19 1.20 1.30 1.13 1.10 1.54 1.53 1.52 1.34 1.18 0.91 0.74 0.71 0.54 0.38 0.30 0.22 0.19 0.22 0.15 0.12 0.18 0.15 0.05 0.05 0.03
0.02 0.03 0.04 0.08 0.12 0.26 0.46 1.49 2.10 3.01 4.00 4.75 5.39 4.36 3.44 2.96 2.23 1.50 1.39 1.38 1.32 1.12 1.07 1.14 1.16 1.35 1.51 1.44 1.31 1.05 0.80 0.76 0.61 0.50 0.36 0.37 0.42 0.35 0.36 0.32 0.20 0.20 0.14
0.03 0.04 0.03 0.11 0.22 0.26 0.37 0.49 1.22 1.79 2.77 3.85 5.23 4.88 4.05 2.49 1.90 1.71 1.58 1.52 1.49 1.50 1.51 1.32 1.15 1.02 0.86 0.81 0.78 0.85 0.87 0.84 0.81 0.83 0.84 0.81 0.80 0.88 0.87 0.88 0.68 0.52 0.35
0.09 0.08 0.08 0.13 0.24 0.32 0.42 0.39 0.40 0.69 1.29 2.13 3.44 3.44 2.87 2.45 2.36 1.87 1.25 0.96 0.98 1.12 1.43 1.38 1.12 0.94 0.95 0.82 0.73 0.75 0.81 0.91 1.05 1.15 1.22 1.14 1.06 1.15 1.28 1.30 1.22 0.97 0.67
0.19 0.14 0.20 0.25 0.41 0.33 0.33 0.24 0.18 0.22 0.50 1.00 1.65 2.28 2.62 1.83 1.72 2.00 1.96 0.93 0.67 0.74 0.82 0.86 0.83 0.67 0.59 0.55 0.53 0.54 0.56 0.61 0.67 0.65 0.66 0.71 0.69 0.72 0.83 1.01 1.17 1.47 1.29
0.39 0.27 0.33 0.32 0.43 0.32 0.23 0.20 0.17 0.17 0.23 0.43 0.64 1.00 1.75 2.05 1.73 1.33 1.47 1.40 0.58 0.41 0.49 0.50 0.39 0.32 0.32 0.35 0.35 0.32 0.28 0.31 0.36 0.46 0.52 0.55 0.61 0.73 0.83 0.93 0.99 1.21 1.42
0.57 0.64 0.62 0.54 0.39 0.38 0.22 0.16 0.15 0.12 0.13 0.14 0.20 0.41 0.75 1.48 1.35 1.37 0.99 1.14 1.02 0.54 0.37 0.35 0.36 0.27 0.19 0.18 0.22 0.25 0.24 0.26 0.27 0.31 0.38 0.43 0.46 0.56 0.66 0.76 0.94 1.08 1.18
1.22 1.12 0.76 0.66 0.66 0.46 0.19 0.15 0.17 0.11 0.07 0.07 0.09 0.13 0.19 0.83 0.66 0.97 0.91 0.81 0.87 0.82 0.40 0.25 0.21 0.18 0.16 0.13 0.16 0.13 0.16 0.16 0.14 0.16 0.24 0.29 0.36 0.45 0.49 0.54 0.55 0.55 0.54
1.46 1.23 0.75 0.83 0.73 0.59 0.36 0.18 0.14 0.07 0.06 0.06 0.05 0.05 0.07 0.18 0.35 0.55 0.68 0.71 0.96 0.81 0.58 0.31 0.20 0.12 0.11 0.11 0.08 0.09 0.08 0.09 0.11 0.13 0.19 0.20 0.24 0.31 0.30 0.30 0.31 0.32 0.37
1.25 1.29 0.94 0.67 0.58 0.50 0.44 0.30 0.24 0.14 0.15 0.10 0.05 0.05 0.06 0.06 0.08 0.18 0.43 0.40 0.69 0.78 0.56 0.52 0.27 0.15 0.10 0.09 0.08 0.09 0.11 0.11 0.11 0.11 0.14 0.19 0.24 0.26 0.24 0.23 0.26 0.29 0.38
1.22 1.33 1.17 0.87 0.48 0.35 0.31 0.24 0.15 0.10 0.07 0.07 0.07 0.07 0.05 0.06 0.04 0.05 0.10 0.23 0.40 0.65 0.57 0.64 0.51 0.28 0.21 0.19 0.16 0.14 0.15 0.19 0.21 0.24 0.26 0.27 0.28 0.24 0.21 0.22 0.21 0.34 0.42
0.62 0.63 0.58 0.61 0.35 0.11 0.05 0.05 0.05 0.08 0.11 0.10 0.08 0.05 0.04 0.05 0.04 0.03 0.02 0.06 0.13 0.20 0.44 0.44 0.65 0.52 0.34 0.43 0.40 0.35 0.32 0.34 0.37 0.36 0.33 0.30 0.26 0.19 0.17 0.17 0.21 0.36 0.66
0.12 0.13 0.17 0.13 0.14 0.23 0.15 0.15 0.15 0.22 0.21 0.13 0.09 0.07 0.07 0.12 0.11 0.12 0.09 0.08 0.09 0.12 0.17 0.31 0.45 0.70 0.89 0.96 0.81 0.73 0.70 0.72 0.60 0.37 0.24 0.15 0.09 0.07 0.05 0.09 0.17 0.34 0.63
0.02 0.01 0.00 0.00 0.01 0.01 0.01 0.02 0.04 0.08 0.19 0.19 0.24 0.17 0.20 0.33 0.57 0.48 0.46 0.42 0.35 0.26 0.29 0.31 0.34 0.45 0.55 0.53 0.38 0.31 0.21 0.16 0.12 0.06 0.02 0.02 0.03 0.04 0.06 0.14 0.40 0.35 0.22
0.01 0.01 0.00 0.00 0.01 0.01 0.02 0.02 0.03 0.05 0.04 0.08 0.11 0.16 0.44 0.54 0.49 0.31 0.49 0.49 0.40 0.45 0.49 0.47 0.38 0.30 0.22 0.18 0.14 0.11 0.06 0.06 0.04 0.02 0.02 0.06 0.03 0.05 0.14 0.37 0.41 0.19 0.14
0.02 0.01 0.00 0.01 0.03 0.03 0.03 0.05 0.04 0.06 0.13 0.09 0.07 0.28 0.71 0.58 0.46 0.26 0.42 0.52 0.43 0.33 0.31 0.30 0.21 0.15 0.09 0.08 0.05 0.05 0.05 0.04 0.02 0.03 0.03 0.05 0.04 0.12 0.37 0.27 0.24 0.26 0.17
0.15 0.08 0.07 0.08 0.18 0.15 0.21 0.27 0.22 0.36 0.45 0.28 0.23 0.43 0.48 0.47 0.37 0.28 0.30 0.28 0.26 0.17 0.13 0.14 0.10 0.06 0.04 0.03 0.03 0.02 0.03 0.03 0.14 0.12 0.03 0.04 0.16 0.36 0.22 0.16 0.19 0.23 0.27
0.35 0.50 0.30 0.37 0.54 0.56 0.74 0.74 0.68 0.66 0.57 0.41 0.36 0.32 0.26 0.25 0.26 0.12 0.09 0.06 0.03 0.02 0.02 0.02 0.01 0.00 0.01 0.02 0.02 0.02 0.04 0.07 0.10 0.05 0.03 0.10 0.24 0.09 0.06 0.09 0.18 0.32 0.31
0.03 0.18 0.11 0.17 0.23 0.30 0.36 0.48 0.41 0.33 0.32 0.22 0.17 0.13 0.12 0.10 0.07 0.03 0.03 0.02 0.01 0.01 0.01 0.01 0.00 0.00 0.00 0.00 0.01 0.01 0.07 0.09 0.08 0.06 0.17 0.16 0.03 0.03 0.04 0.10 0.17 0.16 0.15
0.04 0.02 0.03 0.02 0.04 0.06 0.09 0.11 0.04 0.04 0.06 0.06 0.06 0.04 0.03 0.03 0.01 0.00 0.00 0.00 0.00 0.01 0.01 0.01 0.01 0.01 0.00 0.00 0.00 0.04 0.06 0.05 0.09 0.17 0.14 0.03 0.03 0.05 0.06 0.08 0.07 0.07 0.17
0.12 0.10 0.07 0.04 0.03 0.03 0.03 0.03 0.03 0.03 0.02 0.02 0.01 0.01 0.01 0.03 0.01 0.01 0.01 0.01 0.01 0.02 0.01 0.00 0.01 0.02 0.02 0.02 0.07 0.07 0.05 0.09 0.16 0.07 0.01 0.01 0.02 0.02 0.02 0.04 0.06 0.11 0.24
0.01 0.01 0.02 0.02 0.02 0.01 0.00 0.00 0.00 0.00 0.00 0.01 0.02 0.02 0.01 0.01 0.01 0.01 0.02 0.04 0.02 0.02 0.01 0.01 0.02 0.02 0.03 0.05 0.06 0.06 0.12 0.16 0.08 0.05 0.03 0.04 0.05 0.08 0.09 0.11 0.15 0.20 0.32

GFSMW_prec_precacc_132.txt.gz
Total_Precipitation_Accumulation
0.09 0.13 0.23 0.59 1.79 3.12 3.81 3.70 3.26 2.85 2.82 2.11 1.79 1.59 1.65 1.70 1.22 0.94 0.74 0.60 0.29 0.14 0.07 0.03 0.01 0.00 0.00 0.00 0.00 0.00 0.00 0.00 0.00 0.00 0.00 0.00 0.00 0.00 0.00 0.00 0.00 0.00 0.00
0.06 0.11 0.13 0.24 1.00 2.32 3.43 3.23 3.33 3.21 3.39 2.78 2.43 2.40 2.32 2.39 1.74 1.66 0.97 0.65 0.52 0.42 0.17 0.06 0.02 0.00 0.00 0.00 0.00 0.00 0.00 0.00 0.00 0.01 0.02 0.02 0.00 0.00 0.00 0.00 0.00 0.00 0.00
0.06 0.06 0.10 0.14 0.41 1.05 3.03 3.73 3.03 2.76 3.00 3.54 3.05 2.19 2.20 2.35 1.82 1.44 1.20 1.06 1.01 0.86 0.55 0.33 0.11 0.06 0.07 0.07 0.04 0.05 0.06 0.07 0.03 0.02 0.04 0.07 0.04 0.02 0.00 0.00 0.00 0.00 0.00
0.05 0.03 0.07 0.05 0.10 0.39 1.66 3.99 3.45 2.60 2.89 3.03 3.24 2.61 1.90 1.94 1.76 1.77 1.85 1.41 1.32 1.31 1.10 0.94 0.57 0.34 0.27 0.28 0.31 0.26 0.21 0.16 0.14 0.07 0.03 0.05 0.06 0.11 0.07 0.02 0.02 0.01 0.01
0.03 0.03 0.03 0.04 0.08 0.29 0.93 2.36 3.00 3.83 3.50 3.96 3.73 3.67 3.16 2.29 1.81 2.03 1.87 1.56 1.15 1.13 1.57 1.54 1.52 1.34 1.18 0.91 0.74 0.71 0.54 0.38 0.30 0.22 0.19 0.22 0.15 0.12 0.18 0.15 0.05 0.05 0.03
0.02 0.03 0.04 0.08 0.12 0.26 0.46 1.49 2.10 3.02 4.01 4.79 5.45 4.39 3.47 3.10 2.55 2.07 2.10 1.76 1.36 1.16 1.11 1.15 1.16 1.35 1.51 1.44 1.31 1.05 0.80 0.76 0.61 0.50 0.36 0.37 0.42 0.35 0.36 0.32 0.20 0.20 0.14
0.03 0.04 0.03 0.11 0.22 0.26 0.38 0.50 1.23 1.81 2.81 3.90 5.32 4.91 4.07 2.61 2.13 2.01 1.98 1.75 1.52 1.53 1.53 1.33 1.15 1.02 0.86 0.81 0.78 0.85 0.87 0.84 0.81 0.83 0.84 0.81 0.80 0.88 0.87 0.88 0.68 0.52 0.35
0.09 0.08 0.08 0.13 0.24 0.34 0.46 0.48 0.45 0.77 1.36 2.17 3.54 3.47 2.90 2.53 2.52 2.05 1.46 1.06 1.03 1.15 1.45 1.38 1.12 0.94 0.95 0.82 0.73 0.75 0.81 0.91 1.05 1.15 1.22 1.14 1.06 1.15 1.28 1.30 1.22 0.97 0.67
0.19 0.14 0.20 0.25 0.43 0.39 0.42 0.48 0.29 0.28 0.59 1.06 1.72 2.31 2.62 1.85 1.82 2.24 2.12 1.00 0.74 0.80 0.85 0.87 0.83 0.67 0.59 0.55 0.53 0.54 0.56 0.61 0.67 0.65 0.66 0.71 0.69 0.72 0.83 1.01 1.17 1.47 1.29
0.40 0.28 0.36 0.35 0.51 0.39 0.32 0.50 0.44 0.23 0.28 0.49 0.66 1.01 1.75 2.05 1.76 1.46 1.61 1.43 0.60 0.43 0.51 0.50 0.40 0.32 0.32 0.35 0.35 0.32 0.28 0.31 0.36 0.46 0.52 0.55 0.61 0.73 0.83 0.93 0.99 1.21 1.42
0.57 0.65 0.65 0.60 0.47 0.48 0.33 0.40 0.52 0.24 0.16 0.17 0.21 0.41 0.75 1.49 1.35 1.39 1.00 1.15 1.02 0.54 0.37 0.35 0.36 0.28 0.20 0.18 0.22 0.25 0.24 0.26 0.27 0.31 0.38 0.43 0.46 0.56 0.66 0.76 0.94 1.08 1.18
1.29 1.17 0.80 0.75 0.88 0.89 0.64 0.51 0.50 0.25 0.11 0.09 0.10 0.14 0.20 0.89 0.68 0.98 0.92 0.81 0.87 0.82 0.40 0.25 0.21 0.19 0.16 0.13 0.16 0.13 0.16 0.16 0.14 0.16 0.24 0.29 0.36 0.45 0.49 0.54 0.55 0.55 0.54
1.79 1.57 1.07 1.24 1.25 1.09 0.73 0.43 0.42 0.24 0.14 0.13 0.15 0.10 0.17 0.49 0.48 0.65 0.71 0.71 0.97 0.82 0.58 0.31 0.20 0.12 0.11 0.11 0.08 0.09 0.08 0.09 0.11 0.14 0.19 0.20 0.24 0.31 0.30 0.30 0.31 0.32 0.37
2.02 2.06 1.47 1.10 1.04 0.80 0.59 0.45 0.46 0.53 0.49 0.36 0.14 0.05 0.11 0.31 0.26 0.37 0.60 0.44 0.70 0.79 0.58 0.54 0.28 0.16 0.10 0.09 0.09 0.10 0.12 0.12 0.12 0.13 0.15 0.20 0.25 0.27 0.24 0.23 0.27 0.30 0.38
1.94 1.94 1.81 1.54 1.11 0.95 0.84 0.73 0.78 0.63 0.32 0.16 0.08 0.07 0.08 0.13 0.08 0.14 0.37 0.56 0.53 0.72 0.62 0.68 0.53 0.29 0.23 0.22 0.19 0.18 0.19 0.24 0.26 0.29 0.30 0.29 0.29 0.25 0.22 0.22 0.22 0.35 0.43
1.01 0.99 0.97 1.09 0.78 0.45 0.43 0.46 0.25 0.21 0.23 0.13 0.08 0.06 0.05 0.06 0.05 0.09 0.14 0.40 0.51 0.55 0.71 0.70 0.94 0.78 0.56 0.59 0.57 0.53 0.51 0.52 0.53 0.51 0.43 0.38 0.35 0.24 0.19 0.18 0.22 0.36 0.66
0.25 0.27 0.27 0.21 0.21 0.28 0.17 0.17 0.18 0.25 0.22 0.15 0.09 0.07 0.07 0.13 0.12 0.15 0.13 0.18 0.31 0.45 0.51 0.74 0.84 1.25 1.49 1.49 1.18 1.00 0.91 0.92 0.80 0.61 0.47 0.33 0.25 0.26 0.16 0.14 0.19 0.35 0.64
0.14 0.08 0.09 0.06 0.02 0.01 0.01 0.02 0.04 0.08 0.19 0.19 0.24 0.17 0.20 0.33 0.58 0.49 0.47 0.44 0.40 0.34 0.40 0.50 0.61 0.65 0.77 0.94 0.87 0.66 0.41 0.29 0.22 0.23 0.20 0.17 0.16 0.16 0.14 0.18 0.42 0.36 0.22
0.02 0.01 0.00 0.00 0.01 0.01 0.02 0.02 0.03 0.05 0.04 0.08 0.11 0.16 0.44 0.54 0.49 0.32 0.50 0.52 0.42 0.47 0.52 0.51 0.50 0.45 0.36 0.34 0.38 0.44 0.41 0.35 0.23 0.13 0.13 0.19 0.13 0.13 0.20 0.38 0.41 0.19 0.14
0.02 0.01 0.00 0.01 0.03 0.03 0.03 0.05 0.04 0.06 0.13 0.09 0.07 0.28 0.71 0.58 0.47 0.26 0.42 0.52 0.43 0.33 0.31 0.30 0.22 0.18 0.12 0.12 0.10 0.12 0.18 0.19 0.15 0.13 0.10 0.14 0.11 0.16 0.38 0.27 0.24 0.26 0.17
0.15 0.08 0.07 0.08 0.18 0.15 0.21 0.27 0.22 0.36 0.45 0.28 0.23 0.43 0.48 0.47 0.37 0.28 0.30 0.28 0.26 0.17 0.13 0.14 0.10 0.06 0.05 0.03 0.03 0.02 0.03 0.04 0.15 0.12 0.04 0.05 0.18 0.36 0.22 0.16 0.19 0.23 0.27
0.35 0.50 0.30 0.37 0.54 0.56 0.74 0.74 0.68 0.66 0.57 0.41 0.36 0.32 0.26 0.25 0.26 0.12 0.09 0.06 0.03 0.02 0.02 0.02 0.01 0.00 0.01 0.03 0.02 0.02 0.05 0.08 0.11 0.05 0.03 0.10 0.24 0.09 0.06 0.09 0.18 0.32 0.31
0.03 0.18 0.11 0.17 0.23 0.30 0.36 0.48 0.41 0.33 0.32 0.22 0.17 0.13 0.12 0.10 0.07 0.03 0.03 0.02 0.01 0.01 0.01 0.01 0.00 0.00 0.00 0.00 0.01 0.01 0.07 0.10 0.08 0.06 0.17 0.16 0.03 0.04 0.05 0.10 0.17 0.16 0.15
0.04 0.02 0.03 0.02 0.04 0.06 0.09 0.11 0.04 0.04 0.06 0.06 0.06 0.04 0.03 0.03 0.01 0.00 0.00 0.00 0.00 0.01 0.01 0.01 0.01 0.01 0.00 0.00 0.00 0.04 0.06 0.05 0.09 0.17 0.14 0.03 0.03 0.05 0.06 0.08 0.07 0.07 0.17
0.12 0.10 0.07 0.04 0.03 0.03 0.03 0.03 0.03 0.03 0.02 0.02 0.01 0.01 0.01 0.03 0.01 0.01 0.01 0.01 0.01 0.02 0.01 0.00 0.01 0.02 0.02 0.02 0.07 0.07 0.05 0.09 0.16 0.07 0.01 0.01 0.02 0.02 0.02 0.04 0.06 0.11 0.24
0.01 0.01 0.02 0.02 0.02 0.01 0.00 0.00 0.00 0.00 0.00 0.01 0.02 0.02 0.01 0.01 0.01 0.01 0.02 0.04 0.03 0.03 0.03 0.03 0.03 0.03 0.04 0.05 0.06 0.06 0.12 0.16 0.08 0.05 0.03 0.04 0.05 0.08 0.09 0.11 0.15 0.20 0.32

GFSMW_prec_precacc_135.txt.gz
Total_Precipitation_Accumulation
0.09 0.13 0.23 0.59 1.79 3.12 3.81 3.70 3.26 2.85 2.82 2.11 1.79 1.59 1.65 1.70 1.22 0.95 0.79 0.86 0.87 0.57 0.24 0.11 0.06 0.02 0.00 0.00 0.00 0.00 0.00 0.00 0.00 0.00 0.00 0.00 0.00 0.00 0.00 0.00 0.00 0.00 0.00
0.06 0.11 0.13 0.24 1.00 2.32 3.43 3.23 3.33 3.21 3.39 2.78 2.43 2.40 2.32 2.39 1.75 1.67 0.98 0.72 0.65 0.52 0.29 0.11 0.06 0.03 0.01 0.00 0.00 0.00 0.00 0.00 0.00 0.01 0.02 0.02 0.00 0.00 0.00 0.00 0.00 0.00 0.00
0.06 0.06 0.10 0.14 0.41 1.05 3.03 3.73 3.03 2.76 3.00 3.54 3.05 2.19 2.21 2.36 1.83 1.45 1.22 1.08 1.10 0.97 0.59 0.36 0.15 0.09 0.08 0.07 0.04 0.05 0.06 0.07 0.03 0.02 0.04 0.07 0.04 0.02 0.00 0.00 0.00 0.00 0.00
0.05 0.03 0.07 0.05 0.10 0.39 1.66 3.99 3.45 2.60 2.89 3.03 3.24 2.61 1.90 1.95 1.77 1.78 1.85 1.41 1.35 1.49 1.24 0.97 0.59 0.37 0.28 0.28 0.31 0.26 0.21 0.16 0.14 0.07 0.03 0.05 0.06 0.11 0.07 0.02 0.02 0.01 0.01
0.03 0.03 0.03 0.04 0.08 0.29 0.93 2.36 3.00 3.83 3.50 3.96 3.73 3.67 3.16 2.29 1.82 2.03 1.87 1.58 1.18 1.15 1.70 1.69 1.55 1.36 1.19 0.91 0.74 0.71 0.54 0.38 0.30 0.22 0.19 0.22 0.15 0.12 0.18 0.15 0.05 0.05 0.03
0.02 0.03 0.04 0.08 0.12 0.26 0.46 1.49 2.10 3.02 4.01 4.79 5.46 4.39 3.47 3.12 2.56 2.07 2.10 1.91 1.64 1.18 1.12 1.21 1.19 1.36 1.52 1.44 1.31 1.05 0.80 0.76 0.61 0.50 0.36 0.37 0.42 0.35 0.36 0.32 0.20 0.20 0.14
0.03 0.04 0.03 0.11 0.22 0.26 0.38 0.50 1.23 1.81 2.82 3.91 5.33 4.93 4.08 2.63 2.19 2.02 1.99 1.88 2.01 1.74 1.54 1.33 1.16 1.02 0.86 0.81 0.78 0.85 0.87 0.84 0.81 0.83 0.84 0.81 0.80 0.88 0.87 0.88 0.68 0.52 0.35
0.10 0.08 0.08 0.13 0.24 0.34 0.46 0.48 0.46 0.78 1.40 2.19 3.58 3.54 2.97 2.56 2.57 2.12 1.49 1.19 1.16 1.54 1.55 1.40 1.13 0.95 0.96 0.82 0.73 0.75 0.81 0.91 1.05 1.15 1.22 1.14 1.06 1.15 1.28 1.30 1.22 0.97 0.67
0.19 0.14 0.20 0.25 0.43 0.39 0.42 0.48 0.29 0.29 0.63 1.16 1.78 2.41 2.80 2.05 1.97 2.32 2.22 1.12 0.83 0.95 1.25 1.01 0.87 0.69 0.60 0.56 0.53 0.54 0.56 0.61 0.67 0.65 0.66 0.71 0.69 0.72 0.83 1.01 1.17 1.47 1.29
0.40 0.28 0.36 0.35 0.51 0.39 0.33 0.51 0.45 0.23 0.31 0.72 0.83 1.28 2.05 2.38 2.11 1.65 1.79 1.60 0.73 0.53 0.71 0.67 0.47 0.39 0.36 0.36 0.35 0.32 0.28 0.31 0.36 0.46 0.52 0.55 0.61 0.73 0.83 0.93 0.99 1.21 1.42
0.57 0.65 0.65 0.61 0.51 0.51 0.37 0.52 0.63 0.30 0.22 0.43 0.58 0.64 0.92 1.59 1.43 1.50 1.15 1.38 1.12 0.63 0.50 0.47 0.45 0.36 0.25 0.19 0.22 0.25 0.24 0.26 0.27 0.31 0.38 0.43 0.46 0.56 0.66 0.76 0.94 1.08 1.18
1.29 1.17 0.81 0.80 0.96 1.01 0.79 0.83 1.05 0.62 0.26 0.29 0.24 0.29 0.29 0.90 0.71 0.99 0.97 0.99 1.01 0.90 0.46 0.32 0.31 0.27 0.22 0.15 0.17 0.13 0.16 0.16 0.14 0.16 0.24 0.29 0.36 0.45 0.49 0.54 0.55 0.55 0.54
1.81 1.58 1.10 1.34 1.46 1.47 1.07 0.70 0.94 0.80 0.33 0.23 0.27 0.19 0.26 0.52 0.48 0.66 0.73 0.79 1.07 0.89 0.61 0.34 0.24 0.17 0.14 0.13 0.09 0.10 0.08 0.09 0.11 0.14 0.19 0.20 0.25 0.31 0.30 0.30 0.31 0.33 0.37
2.25 2.32 1.80 1.43 1.47 1.59 1.18 0.86 0.89 0.90 0.78 0.83 0.67 0.16 0.19 0.46 0.33 0.40 0.62 0.47 0.73 0.81 0.59 0.54 0.29 0.16 0.11 0.10 0.10 0.11 0.13 0.13 0.12 0.13 0.15 0.20 0.26 0.28 0.25 0.24 0.28 0.31 0.39
2.37 2.31 2.17 1.98 1.64 1.44 1.35 1.25 1.43 1.39 1.19 0.76 0.28 0.15 0.18 0.36 0.37 0.32 0.43 0.59 0.55 0.73 0.62 0.68 0.53 0.30 0.24 0.23 0.21 0.19 0.20 0.25 0.26 0.29 0.30 0.30 0.30 0.26 0.23 0.24 0.23 0.36 0.44
1.35 1.41 1.47 1.64 1.43 1.18 1.22 1.17 0.85 0.71 0.61 0.38 0.38 0.29 0.20 0.27 0.30 0.33 0.38 0.57 0.65 0.65 0.78 0.73 0.94 0.79 0.57 0.60 0.57 0.54 0.52 0.53 0.54 0.52 0.45 0.40 0.38 0.26 0.21 0.20 0.24 0.37 0.67
0.53 0.48 0.45 0.40 0.45 0.51 0.39 0.33 0.36 0.47 0.39 0.28 0.26 0.24 0.23 0.29 0.30 0.26 0.25 0.39 0.73 0.79 0.80 0.95 0.91 1.29 1.51 1.52 1.21 1.03 0.94 0.96 0.85 0.67 0.55 0.44 0.36 0.37 0.31 0.35 0.37 0.47 0.73
0.17 0.11 0.11 0.09 0.04 0.03 0.03 0.04 0.05 0.08 0.20 0.20 0.25 0.20 0.24 0.39 0.66 0.56 0.55 0.52 0.64 0.64 0.76 0.75 0.82 0.82 0.89 1.06 1.02 0.84 0.59 0.48 0.39 0.34 0.34 0.36 0.37 0.40 0.41 0.48 0.74 0.61 0.38
0.02 0.02 0.01 0.00 0.01 0.01 0.02 0.02 0.03 0.05 0.04 0.08 0.11 0.16 0.45 0.55 0.50 0.34 0.52 0.56 0.45 0.52 0.58 0.59 0.56 0.59 0.54 0.49 0.51 0.72 0.67 0.55 0.46 0.39 0.35 0.38 0.36 0.40 0.45 0.58 0.59 0.33 0.23
0.02 0.01 0.00 0.01 0.03 0.03 0.03 0.05 0.04 0.06 0.13 0.09 0.07 0.28 0.71 0.58 0.47 0.26 0.42 0.53 0.43 0.34 0.33 0.31 0.23 0.22 0.18 0.21 0.20 0.20 0.32 0.48 0.47 0.46 0.44 0.41 0.27 0.38 0.60 0.41 0.31 0.30 0.20
0.15 0.08 0.07 0.08 0.18 0.15 0.21 0.27 0.22 0.36 0.45 0.28 0.23 0.43 0.48 0.47 0.37 0.28 0.30 0.28 0.26 0.17 0.13 0.14 0.10 0.06 0.06 0.05 0.07 0.06 0.05 0.07 0.19 0.17 0.11 0.14 0.28 0.44 0.31 0.26 0.24 0.24 0.28
0.35 0.50 0.30 0.37 0.54 0.56 0.74 0.74 0.68 0.66 0.57 0.41 0.36 0.32 0.26 0.25 0.26 0.12 0.09 0.06 0.03 0.02 0.02 0.02 0.01 0.00 0.01 0.03 0.05 0.05 0.08 0.13 0.13 0.09 0.06 0.15 0.31 0.14 0.10 0.14 0.21 0.34 0.31
0.03 0.18 0.11 0.17 0.23 0.30 0.36 0.48 0.41 0.33 0.32 0.22 0.17 0.13 0.12 0.10 0.07 0.03 0.03 0.02 0.01 0.01 0.01 0.01 0.00 0.00 0.00 0.00 0.01 0.01 0.07 0.11 0.09 0.07 0.21 0.21 0.10 0.10 0.12 0.18 0.22 0.19 0.16
0.04 0.02 0.03 0.02 0.04 0.06 0.09 0.11 0.04 0.04 0.06 0.06 0.06 0.04 0.03 0.03 0.01 0.00 0.00 0.00 0.00 0.01 0.01 0.01 0.01 0.01 0.00 0.00 0.00 0.04 0.06 0.05 0.10 0.19 0.17 0.08 0.09 0.12 0.11 0.14 0.13 0.09 0.18
0.12 0.10 0.07 0.04 0.03 0.03 0.03 0.03 0.03 0.03 0.02 0.02 0.01 0.01 0.01 0.03 0.01 0.01 0.01 0.01 0.01 0.02 0.01 0.00 0.01 0.02 0.02 0.02 0.07 0.07 0.05 0.09 0.17 0.09 0.07 0.12 0.10 0.08 0.06 0.05 0.07 0.12 0.27
0.01 0.01 0.02 0.02 0.02 0.01 0.00 0.00 0.00 0.00 0.00 0.01 0.02 0.02 0.01 0.01 0.01 0.01 0.02 0.04 0.03 0.04 0.03 0.03 0.03 0.04 0.04 0.06 0.07 0.06 0.13 0.17 0.09 0.09 0.07 0.08 0.10 0.15 0.19 0.24 0.28 0.32 0.42

GFSMW_prec_precacc_138.txt.gz
Total_Precipitation_Accumulation
0.09 0.13 0.23 0.59 1.79 3.12 3.81 3.70 3.26 2.85 2.82 2.11 1.79 1.59 1.65 1.70 1.22 0.95 0.80 0.86 0.93 0.78 0.43 0.34 0.21 0.10 0.04 0.01 0.00 0.00 0.00 0.00 0.00 0.00 0.00 0.00 0.00 0.00 0.00 0.00 0.00 0.00 0.00
0.06 0.11 0.13 0.24 1.00 2.32 3.43 3.23 3.33 3.21 3.39 2.78 2.43 2.40 2.32 2.39 1.75 1.67 0.98 0.72 0.67 0.73 0.64 0.30 0.23 0.17 0.07 0.01 0.00 0.00 0.00 0.00 0.00 0.01 0.02 0.02 0.00 0.00 0.00 0.00 0.00 0.00 0.00
0.06 0.06 0.10 0.14 0.41 1.05 3.03 3.73 3.03 2.76 3.00 3.54 3.05 2.19 2.21 2.36 1.83 1.45 1.22 1.08 1.12 1.01 0.73 0.68 0.27 0.16 0.17 0.11 0.04 0.05 0.06 0.07 0.03 0.02 0.04 0.07 0.04 0.02 0.00 0.00 0.00 0.00 0.00
0.05 0.03 0.07 0.05 0.10 0.39 1.66 3.99 3.45 2.60 2.89 3.03 3.24 2.61 1.90 1.95 1.77 1.78 1.85 1.41 1.35 1.52 1.26 1.08 0.77 0.41 0.29 0.31 0.33 0.26 0.21 0.16 0.14 0.07 0.03 0.05 0.06 0.11 0.07 0.02 0.02 0.01 0.01
0.03 0.03 0.03 0.04 0.08 0.29 0.93 2.36 3.00 3.83 3.50 3.96 3.73 3.67 3.16 2.29 1.82 2.03 1.87 1.58 1.18 1.15 1.71 1.72 1.65 1.44 1.21 0.92 0.75 0.72 0.54 0.38 0.30 0.22 0.19 0.22 0.15 0.12 0.18 0.15 0.05 0.05 0.03
0.02 0.03 0.04 0.08 0.12 0.26 0.46 1.49 2.10 3.02 4.01 4.79 5.46 4.39 3.47 3.12 2.56 2.07 2.10 1.91 1.64 1.18 1.13 1.26 1.41 1.49 1.58 1.46 1.33 1.08 0.81 0.76 0.61 0.50 0.36 0.37 0.42 0.35 0.36 0.32 0.20 0.20 0.14
0.04 0.05 0.03 0.11 0.22 0.26 0.38 0.50 1.23 1.81 2.82 3.91 5.33 4.93 4.08 2.63 2.19 2.02 1.99 1.88 2.01 1.74 1.54 1.35 1.23 1.25 0.99 0.85 0.81 0.89 0.93 0.85 0.81 0.83 0.84 0.81 0.80 0.88 0.87 0.88 0.68 0.52 0.35
0.10 0.08 0.08 0.13 0.24 0.34 0.46 0.48 0.46 0.78 1.40 2.19 3.58 3.54 2.97 2.56 2.57 2.12 1.50 1.19 1.16 1.55 1.56 1.40 1.14 0.96 1.08 0.93 0.78 0.79 0.88 0.93 1.05 1.15 1.22 1.14 1.06 1.15 1.28 1.30 1.22 0.97 0.67
0.19 0.14 0.20 0.25 0.43 0.39 0.42 0.48 0.29 0.29 0.63 1.16 1.78 2.41 2.80 2.05 1.97 2.32 2.24 1.12 0.83 0.98 1.30 1.06 0.87 0.71 0.61 0.60 0.57 0.57 0.63 0.65 0.67 0.65 0.66 0.71 0.69 0.72 0.83 1.01 1.17 1.47 1.29
0.40 0.28 0.36 0.35 0.51 0.39 0.33 0.51 0.45 0.23 0.31 0.72 0.83 1.28 2.06 2.43 2.17 1.73 1.80 1.61 0.76 0.57 0.78 1.01 0.69 0.43 0.39 0.38 0.37 0.35 0.32 0.37 0.36 0.46 0.52 0.55 0.61 0.73 0.83 0.93 0.99 1.21 1.42
0.57 0.65 0.65 0.61 0.51 0.51 0.37 0.52 0.63 0.30 0.22 0.43 0.58 0.64 0.97 1.71 1.67 2.03 1.42 1.47 1.17 0.69 0.54 0.58 0.76 0.62 0.35 0.25 0.26 0.27 0.26 0.28 0.27 0.31 0.38 0.43 0.46 0.56 0.66 0.76 0.94 1.08 1.18
1.29 1.17 0.81 0.80 0.97 1.01 0.79 0.83 1.05 0.62 0.26 0.29 0.27 0.35 0.39 0.94 0.82 1.27 1.53 1.39 1.13 0.99 0.54 0.37 0.37 0.41 0.47 0.32 0.25 0.17 0.21 0.18 0.14 0.16 0.24 0.29 0.36 0.45 0.49 0.54 0.55 0.56 0.54
1.87 1.64 1.15 1.36 1.49 1.50 1.09 0.71 0.95 0.85 0.34 0.24 0.32 0.32 0.38 0.57 0.54 0.80 1.00 1.21 1.53 1.11 0.77 0.43 0.30 0.23 0.26 0.32 0.24 0.18 0.14 0.12 0.12 0.14 0.19 0.20 0.25 0.31 0.30 0.30 0.32 0.34 0.39
2.51 2.66 2.11 1.79 1.87 1.97 1.34 0.98 1.08 1.23 0.96 1.06 0.89 0.43 0.54 0.67 0.37 0.41 0.69 0.58 0.88 1.15 0.78 0.70 0.38 0.24 0.20 0.24 0.27 0.24 0.20 0.16 0.15 0.14 0.16 0.20 0.26 0.28 0.26 0.26 0.30 0.34 0.41
2.71 2.68 2.50 2.39 2.17 1.86 1.76 1.75 2.02 2.10 1.93 1.45 0.82 0.73 0.76 0.63 0.46 0.36 0.47 0.64 0.61 0.91 0.77 0.86 0.67 0.42 0.35 0.35 0.35 0.32 0.29 0.31 0.31 0.32 0.32 0.30 0.30 0.26 0.25 0.27 0.26 0.40 0.47
1.54 1.57 1.63 1.85 1.74 1.59 1.71 1.66 1.34 1.21 1.04 0.79 0.86 0.77 0.61 0.62 0.45 0.49 0.42 0.60 0.67 0.67 0.89 0.87 1.04 0.86 0.62 0.65 0.63 0.62 0.59 0.58 0.59 0.57 0.47 0.43 0.38 0.27 0.21 0.21 0.27 0.41 0.69
0.71 0.60 0.57 0.56 0.67 0.81 0.69 0.63 0.69 0.75 0.65 0.65 0.70 0.60 0.53 0.47 0.49 0.50 0.58 0.65 0.87 0.89 1.01 1.33 1.09 1.36 1.56 1.57 1.25 1.09 0.99 0.99 0.88 0.72 0.59 0.46 0.37 0.38 0.33 0.38 0.40 0.53 0.78
0.23 0.19 0.19 0.16 0.15 0.16 0.13 0.14 0.14 0.15 0.27 0.33 0.46 0.43 0.47 0.62 0.85 0.71 0.81 0.93 1.18 1.22 1.28 1.28 1.13 0.96 1.00 1.18 1.14 0.96 0.68 0.52 0.41 0.35 0.36 0.38 0.39 0.41 0.44 0.53 0.81 0.72 0.51
0.02 0.02 0.01 0.00 0.01 0.01 0.02 0.02 0.03 0.05 0.04 0.08 0.11 0.18 0.47 0.57 0.53 0.37 0.55 0.65 0.59 0.67 0.75 0.78 0.75 0.74 0.66 0.66 0.62 0.80 0.74 0.58 0.47 0.40 0.37 0.41 0.40 0.44 0.53 0.73 0.76 0.48 0.37
0.02 0.01 0.00 0.01 0.03 0.03 0.03 0.05 0.04 0.06 0.13 0.09 0.07 0.28 0.71 0.58 0.47 0.26 0.42 0.53 0.43 0.34 0.33 0.32 0.24 0.24 0.21 0.35 0.37 0.33 0.38 0.56 0.61 0.63 0.56 0.59 0.52 0.61 0.82 0.63 0.53 0.51 0.38
0.15 0.08 0.07 0.08 0.18 0.15 0.21 0.27 0.22 0.36 0.45 0.28 0.23 0.43 0.48 0.47 0.37 0.28 0.30 0.28 0.26 0.17 0.13 0.14 0.10 0.06 0.06 0.06 0.08 0.09 0.08 0.11 0.24 0.25 0.24 0.30 0.50 0.71 0.57 0.53 0.57 0.58 0.62
0.35 0.50 0.30 0.37 0.54 0.56 0.74 0.74 0.68 0.66 0.57 0.41 0.36 0.32 0.26 0.25 0.26 0.12 0.09 0.06 0.03 0.02 0.02 0.02 0.01 0.00 0.01 0.03 0.05 0.06 0.09 0.17 0.16 0.12 0.13 0.26 0.49 0.31 0.26 0.30 0.41 0.54 0.49
0.03 0.18 0.11 0.17 0.23 0.30 0.36 0.48 0.41 0.33 0.32 0.22 0.17 0.13 0.12 0.10 0.07 0.03 0.03 0.02 0.01 0.01 0.01 0.01 0.00 0.00 0.00 0.00 0.01 0.01 0.07 0.11 0.10 0.08 0.22 0.27 0.21 0.24 0.30 0.39 0.40 0.37 0.33
0.04 0.02 0.03 0.02 0.04 0.06 0.09 0.11 0.04 0.04 0.06 0.06 0.06 0.04 0.03 0.03 0.01 0.00 0.00 0.00 0.00 0.01 0.01 0.01 0.01 0.01 0.00 0.00 0.00 0.04 0.06 0.05 0.10 0.19 0.18 0.10 0.11 0.16 0.21 0.27 0.23 0.18 0.30
0.12 0.10 0.07 0.04 0.03 0.03 0.03 0.03 0.03 0.03 0.02 0.02 0.01 0.01 0.01 0.03 0.01 0.01 0.01 0.01 0.01 0.02 0.02 0.01 0.01 0.02 0.02 0.03 0.08 0.07 0.05 0.09 0.17 0.10 0.08 0.13 0.12 0.11 0.09 0.08 0.14 0.21 0.39
0.01 0.01 0.02 0.02 0.02 0.01 0.00 0.00 0.00 0.00 0.00 0.01 0.02 0.02 0.01 0.01 0.01 0.01 0.02 0.04 0.03 0.04 0.03 0.04 0.04 0.04 0.05 0.06 0.07 0.06 0.13 0.17 0.10 0.11 0.08 0.09 0.14 0.24 0.33 0.43 0.46 0.47 0.54

GFSMW_prec_precacc_141.txt.gz
Total_Precipitation_Accumulation
0.09 0.13 0.23 0.59 1.79 3.12 3.81 3.70 3.26 2.85 2.82 2.11 1.79 1.59 1.65 1.70 1.22 0.95 0.80 0.86 0.93 0.79 0.46 0.45 0.28 0.12 0.06 0.04 0.02 0.00 0.00 0.00 0.00 0.00 0.00 0.00 0.00 0.00 0.00 0.00 0.00 0.00 0.00
0.06 0.11 0.13 0.24 1.00 2.32 3.43 3.23 3.33 3.21 3.39 2.78 2.43 2.40 2.32 2.39 1.75 1.67 0.98 0.72 0.67 0.73 0.65 0.34 0.32 0.22 0.10 0.06 0.06 0.01 0.00 0.00 0.00 0.01 0.02 0.02 0.00 0.00 0.00 0.00 0.00 0.00 0.00
0.06 0.06 0.10 0.14 0.41 1.05 3.03 3.73 3.03 2.76 3.00 3.54 3.05 2.19 2.21 2.36 1.83 1.45 1.22 1.08 1.12 1.01 0.73 0.71 0.32 0.21 0.24 0.20 0.12 0.11 0.08 0.08 0.04 0.02 0.04 0.07 0.04 0.02 0.00 0.00 0.00 0.00 0.00
0.05 0.03 0.07 0.05 0.10 0.39 1.66 3.99 3.45 2.60 2.89 3.03 3.24 2.61 1.90 1.95 1.77 1.78 1.85 1.41 1.35 1.52 1.26 1.12 0.96 0.54 0.32 0.33 0.37 0.32 0.25 0.18 0.16 0.07 0.03 0.05 0.06 0.11 0.07 0.02 0.02 0.01 0.01
0.03 0.03 0.03 0.04 0.08 0.29 0.93 2.36 3.00 3.83 3.50 3.96 3.73 3.67 3.16 2.29 1.82 2.03 1.87 1.58 1.18 1.15 1.71 1.72 1.74 1.68 1.36 0.96 0.76 0.73 0.55 0.39 0.30 0.22 0.19 0.22 0.15 0.12 0.18 0.15 0.05 0.05 0.03
0.02 0.03 0.04 0.08 0.12 0.26 0.46 1.49 2.10 3.02 4.01 4.79 5.46 4.39 3.47 3.12 2.56 2.07 2.10 1.91 1.64 1.18 1.13 1.26 1.41 1.58 1.84 1.57 1.38 1.09 0.82 0.77 0.61 0.50 0.36 0.37 0.42 0.35 0.36 0.32 0.20 0.20 0.14
0.04 0.05 0.03 0.11 0.22 0.26 0.38 0.50 1.23 1.81 2.82 3.91 5.33 4.93 4.08 2.63 2.19 2.02 1.99 1.88 2.01 1.74 1.54 1.35 1.23 1.25 1.06 1.08 0.89 0.93 0.96 0.89 0.82 0.83 0.84 0.81 0.80 0.88 0.87 0.88 0.68 0.52 0.35
0.10 0.08 0.08 0.13 0.24 0.34 0.46 0.48 0.46 0.78 1.40 2.19 3.58 3.54 2.97 2.56 2.57 2.12 1.50 1.19 1.16 1.55 1.56 1.40 1.14 0.96 1.10 0.97 0.91 0.88 0.92 1.05 1.18 1.19 1.22 1.14 1.06 1.15 1.28 1.30 1.22 0.97 0.67
0.19 0.14 0.20 0.25 0.43 0.39 0.42 0.48 0.29 0.29 0.63 1.16 1.78 2.41 2.80 2.05 1.97 2.32 2.24 1.12 0.83 0.98 1.30 1.06 0.88 0.71 0.61 0.66 0.69 0.65 0.69 0.76 0.86 0.88 0.80 0.75 0.69 0.72 0.83 1.01 1.17 1.47 1.29
0.41 0.28 0.36 0.35 0.51 0.39 0.33 0.51 0.45 0.23 0.31 0.72 0.83 1.28 2.06 2.43 2.17 1.73 1.80 1.61 0.76 0.57 0.78 1.01 0.69 0.43 0.39 0.39 0.42 0.44 0.36 0.43 0.51 0.61 0.72 0.69 0.62 0.73 0.83 0.93 0.99 1.21 1.42
0.60 0.65 0.65 0.62 0.51 0.51 0.37 0.52 0.63 0.30 0.22 0.43 0.58 0.64 0.97 1.71 1.67 2.03 1.42 1.47 1.17 0.69 0.54 0.58 0.77 0.62 0.36 0.26 0.27 0.29 0.31 0.33 0.34 0.41 0.50 0.53 0.50 0.56 0.66 0.76 0.94 1.08 1.18
1.40 1.19 0.82 0.84 1.00 1.02 0.79 0.83 1.05 0.62 0.26 0.29 0.27 0.35 0.39 0.94 0.82 1.27 1.53 1.39 1.14 1.00 0.55 0.39 0.42 0.45 0.50 0.34 0.27 0.19 0.22 0.20 0.19 0.22 0.32 0.35 0.41 0.46 0.49 0.54 0.55 0.56 0.54
1.96 1.75 1.26 1.49 1.62 1.58 1.12 0.72 0.95 0.85 0.34 0.24 0.32 0.32 0.38 0.57 0.54 0.80 1.01 1.25 1.65 1.18 0.82 0.47 0.34 0.29 0.31 0.37 0.28 0.21 0.17 0.17 0.16 0.19 0.28 0.27 0.31 0.33 0.30 0.30 0.32 0.34 0.39
2.63 2.76 2.25 1.96 2.03 2.01 1.39 1.03 1.11 1.23 0.96 1.08 0.90 0.43 0.55 0.67 0.37 0.41 0.70 0.67 1.13 1.49 0.92 0.80 0.42 0.28 0.30 0.29 0.33 0.33 0.31 0.31 0.26 0.24 0.26 0.33 0.34 0.29 0.26 0.26 0.30 0.34 0.42
2.99 3.01 2.85 2.77 2.47 2.13 2.06 2.04 2.24 2.21 2.03 1.53 0.86 0.81 0.81 0.64 0.46 0.36 0.48 0.67 0.68 1.18 1.20 1.04 0.80 0.45 0.41 0.51 0.43 0.46 0.54 0.55 0.50 0.46 0.46 0.42 0.36 0.29 0.27 0.28 0.28 0.43 0.50
1.81 1.85 1.87 2.06 2.03 1.94 2.16 2.09 1.80 1.68 1.46 1.08 1.30 1.22 0.85 0.77 0.52 0.53 0.45 0.68 0.78 0.96 1.70 1.27 1.39 0.98 0.71 0.74 0.75 0.77 0.83 0.97 1.06 0.94 0.67 0.60 0.57 0.40 0.31 0.29 0.32 0.47 0.75
0.82 0.72 0.68 0.68 0.81 0.97 0.89 0.92 1.13 1.26 1.20 1.27 1.20 1.07 1.16 0.94 0.79 0.68 0.73 0.77 1.07 1.19 1.65 2.08 1.83 1.81 1.89 1.81 1.42 1.25 1.14 1.12 1.10 1.01 0.92 0.66 0.49 0.54 0.52 0.53 0.51 0.61 0.86
0.24 0.22 0.24 0.19 0.18 0.21 0.15 0.17 0.18 0.23 0.47 0.67 0.91 0.91 1.00 1.04 1.28 1.14 1.21 1.33 1.53 1.57 1.60 1.83 1.93 1.30 1.26 1.39 1.28 1.09 0.79 0.61 0.49 0.45 0.47 0.51 0.49 0.51 0.55 0.65 0.92 0.80 0.56
0.02 0.02 0.01 0.00 0.01 0.02 0.02 0.02 0.03 0.05 0.04 0.08 0.13 0.24 0.60 0.75 0.76 0.73 0.96 1.08 0.99 1.11 1.19 1.13 1.02 0.88 0.80 0.77 0.70 0.92 0.86 0.70 0.56 0.46 0.43 0.46 0.43 0.48 0.59 0.80 0.81 0.51 0.39
0.02 0.01 0.00 0.01 0.03 0.03 0.03 0.05 0.04 0.06 0.13 0.09 0.07 0.28 0.71 0.58 0.47 0.26 0.43 0.54 0.45 0.36 0.37 0.36 0.28 0.27 0.23 0.37 0.39 0.35 0.40 0.59 0.64 0.66 0.59 0.63 0.54 0.65 0.85 0.67 0.57 0.53 0.39
0.15 0.08 0.07 0.08 0.18 0.15 0.21 0.27 0.22 0.36 0.45 0.28 0.23 0.43 0.48 0.47 0.37 0.28 0.30 0.28 0.26 0.17 0.13 0.14 0.10 0.06 0.06 0.07 0.08 0.10 0.08 0.11 0.25 0.27 0.25 0.31 0.54 0.75 0.66 0.64 0.65 0.66 0.70
0.35 0.50 0.30 0.37 0.54 0.56 0.74 0.74 0.68 0.66 0.57 0.41 0.36 0.32 0.26 0.25 0.26 0.12 0.09 0.06 0.03 0.02 0.02 0.02 0.01 0.00 0.01 0.03 0.05 0.06 0.09 0.17 0.16 0.12 0.13 0.27 0.54 0.33 0.29 0.34 0.47 0.62 0.56
0.03 0.18 0.11 0.17 0.23 0.30 0.36 0.48 0.41 0.33 0.32 0.22 0.17 0.13 0.12 0.10 0.07 0.03 0.03 0.02 0.01 0.01 0.01 0.01 0.00 0.00 0.00 0.00 0.01 0.01 0.07 0.11 0.10 0.08 0.22 0.28 0.22 0.25 0.33 0.44 0.49 0.45 0.39
0.04 0.02 0.03 0.02 0.04 0.06 0.09 0.11 0.04 0.04 0.06 0.06 0.06 0.04 0.03 0.03 0.01 0.00 0.00 0.00 0.00 0.01 0.01 0.01 0.01 0.01 0.00 0.00 0.00 0.04 0.06 0.05 0.10 0.19 0.18 0.10 0.11 0.16 0.22 0.29 0.29 0.23 0.34
0.12 0.10 0.07 0.04 0.03 0.03 0.03 0.03 0.03 0.03 0.02 0.02 0.01 0.01 0.01 0.03 0.01 0.01 0.01 0.01 0.01 0.02 0.02 0.01 0.01 0.02 0.02 0.03 0.08 0.07 0.05 0.09 0.17 0.10 0.08 0.13 0.12 0.11 0.09 0.09 0.16 0.26 0.47
0.01 0.01 0.02 0.02 0.02 0.01 0.00 0.00 0.00 0.00 0.00 0.01 0.02 0.02 0.01 0.01 0.01 0.01 0.02 0.04 0.03 0.04 0.03 0.04 0.04 0.04 0.05 0.06 0.07 0.06 0.13 0.17 0.10 0.11 0.08 0.09 0.14 0.24 0.34 0.45 0.52 0.54 0.62

GFSMW_prec_precacc_144.txt.gz
Total_Precipitation_Accumulation
0.09 0.13 0.23 0.59 1.79 3.12 3.81 3.70 3.26 2.85 2.82 2.11 1.79 1.59 1.65 1.70 1.22 0.95 0.80 0.86 0.93 0.79 0.46 0.47 0.31 0.16 0.07 0.04 0.03 0.01 0.00 0.00 0.00 0.00 0.00 0.00 0.00 0.00 0.00 0.00 0.00 0.00 0.00
0.06 0.11 0.13 0.24 1.00 2.32 3.43 3.23 3.33 3.21 3.39 2.78 2.43 2.40 2.32 2.39 1.75 1.67 0.98 0.72 0.67 0.73 0.65 0.35 0.35 0.27 0.13 0.08 0.08 0.03 0.00 0.00 0.00 0.01 0.02 0.02 0.00 0.00 0.00 0.00 0.00 0.00 0.00
0.06 0.06 0.10 0.14 0.41 1.05 3.03 3.73 3.03 2.76 3.00 3.54 3.05 2.19 2.21 2.36 1.83 1.45 1.22 1.08 1.12 1.01 0.73 0.71 0.32 0.24 0.27 0.22 0.14 0.14 0.11 0.09 0.04 0.02 0.04 0.07 0.04 0.02 0.00 0.00 0.00 0.00 0.00
0.05 0.03 0.07 0.05 0.10 0.39 1.66 3.99 3.45 2.60 2.89 3.03 3.24 2.61 1.90 1.95 1.77 1.78 1.85 1.41 1.35 1.52 1.26 1.12 0.96 0.55 0.36 0.38 0.39 0.33 0.27 0.20 0.17 0.09 0.04 0.05 0.06 0.11 0.07 0.02 0.02 0.01 0.01
0.03 0.03 0.03 0.04 0.08 0.29 0.93 2.36 3.00 3.83 3.50 3.96 3.73 3.67 3.16 2.29 1.82 2.03 1.87 1.58 1.18 1.15 1.71 1.72 1.74 1.68 1.37 0.98 0.77 0.73 0.56 0.41 0.32 0.22 0.19 0.22 0.16 0.13 0.19 0.15 0.05 0.05 0.03
0.02 0.03 0.04 0.08 0.12 0.26 0.46 1.49 2.10 3.02 4.01 4.79 5.46 4.39 3.47 3.12 2.56 2.07 2.10 1.91 1.64 1.18 1.13 1.26 1.41 1.58 1.86 1.60 1.39 1.09 0.82 0.78 0.63 0.51 0.36 0.37 0.42 0.35 0.36 0.32 0.20 0.20 0.14
0.04 0.05 0.03 0.11 0.22 0.26 0.38 0.50 1.23 1.81 2.82 3.91 5.33 4.93 4.08 2.63 2.19 2.02 1.99 1.88 2.01 1.74 1.54 1.35 1.23 1.25 1.08 1.19 0.98 0.96 0.99 0.90 0.83 0.83 0.85 0.81 0.80 0.88 0.87 0.88 0.68 0.52 0.35
0.10 0.08 0.08 0.13 0.24 0.34 0.46 0.48 0.46 0.78 1.40 2.19 3.58 3.54 2.97 2.56 2.57 2.12 1.50 1.19 1.16 1.55 1.56 1.40 1.14 0.96 1.10 0.99 1.03 1.00 0.98 1.09 1.20 1.20 1.23 1.15 1.06 1.16 1.28 1.30 1.22 0.97 0.67
0.20 0.14 0.20 0.25 0.43 0.39 0.42 0.48 0.29 0.29 0.63 1.16 1.78 2.41 2.80 2.05 1.97 2.32 2.24 1.12 0.83 0.98 1.30 1.06 0.88 0.71 0.61 0.66 0.71 0.70 0.79 0.88 0.94 0.93 0.85 0.78 0.70 0.73 0.83 1.01 1.17 1.47 1.29
0.42 0.28 0.36 0.35 0.51 0.39 0.33 0.51 0.45 0.23 0.31 0.72 0.83 1.28 2.06 2.43 2.17 1.73 1.80 1.61 0.76 0.57 0.78 1.01 0.69 0.43 0.39 0.39 0.43 0.46 0.36 0.48 0.62 0.71 0.78 0.76 0.74 0.81 0.89 0.96 1.00 1.22 1.42
0.65 0.66 0.65 0.62 0.51 0.51 0.37 0.52 0.63 0.30 0.22 0.43 0.58 0.64 0.97 1.71 1.67 2.03 1.42 1.47 1.17 0.69 0.54 0.58 0.77 0.62 0.36 0.26 0.28 0.31 0.32 0.34 0.36 0.45 0.56 0.58 0.57 0.67 0.75 0.84 1.01 1.10 1.18
1.47 1.23 0.82 0.86 1.07 1.09 0.81 0.83 1.05 0.62 0.26 0.29 0.27 0.35 0.39 0.94 0.82 1.27 1.53 1.39 1.14 1.00 0.55 0.39 0.42 0.45 0.50 0.34 0.28 0.21 0.23 0.21 0.23 0.26 0.35 0.39 0.47 0.59 0.60 0.64 0.63 0.59 0.54
2.01 1.81 1.35 1.64 1.85 1.86 1.28 0.84 1.01 0.87 0.34 0.24 0.32 0.32 0.38 0.57 0.54 0.80 1.01 1.25 1.65 1.18 0.82 0.47 0.34 0.30 0.31 0.37 0.29 0.21 0.17 0.18 0.17 0.20 0.30 0.31 0.41 0.50 0.46 0.45 0.42 0.39 0.40
2.72 2.83 2.34 2.11 2.23 2.22 1.63 1.28 1.33 1.34 0.99 1.09 0.91 0.43 0.55 0.67 0.37 0.41 0.70 0.67 1.13 1.49 0.92 0.81 0.42 0.28 0.30 0.30 0.33 0.34 0.32 0.31 0.27 0.24 0.27 0.34 0.41 0.42 0.41 0.42 0.44 0.43 0.46
3.10 3.17 3.05 2.99 2.67 2.35 2.30 2.29 2.48 2.43 2.21 1.62 0.91 0.82 0.82 0.64 0.46 0.36 0.48 0.67 0.68 1.18 1.21 1.04 0.81 0.45 0.42 0.55 0.46 0.47 0.55 0.55 0.51 0.47 0.47 0.45 0.44 0.39 0.39 0.42 0.40 0.55 0.59
1.88 1.93 1.98 2.19 2.17 2.14 2.47 2.42 2.15 2.08 1.84 1.41 1.56 1.43 0.91 0.78 0.52 0.53 0.45 0.68 0.79 0.98 1.78 1.29 1.44 1.01 0.72 0.79 0.84 0.82 0.87 1.00 1.08 0.98 0.78 0.71 0.70 0.57 0.50 0.44 0.46 0.61 0.89
0.83 0.73 0.68 0.71 0.86 1.03 0.97 1.04 1.43 1.76 1.70 1.72 1.67 1.47 1.41 1.08 0.86 0.72 0.76 0.89 1.19 1.38 2.03 2.35 2.05 2.06 2.03 1.88 1.45 1.33 1.27 1.40 1.37 1.25 1.17 1.03 0.87 0.94 0.95 1.01 1.00 1.02 1.14
0.24 0.22 0.24 0.19 0.18 0.23 0.16 0.17 0.18 0.27 0.62 0.95 1.29 1.33 1.42 1.51 1.81 1.43 1.47 1.62 1.85 1.99 2.10 2.49 2.54 1.73 1.72 1.79 1.50 1.27 0.96 0.77 0.74 0.75 0.74 0.78 0.79 0.76 0.80 0.89 1.17 1.02 0.74
0.02 0.02 0.01 0.00 0.01 0.02 0.02 0.02 0.03 0.05 0.04 0.08 0.18 0.35 0.77 0.97 1.06 1.00 1.32 1.48 1.41 1.57 1.60 1.53 1.49 1.22 1.21 1.17 1.07 1.26 1.29 1.05 0.86 0.73 0.67 0.68 0.63 0.66 0.73 0.91 0.88 0.56 0.43
0.02 0.01 0.00 0.01 0.03 0.03 0.03 0.05 0.04 0.06 0.13 0.09 0.07 0.28 0.72 0.62 0.52 0.34 0.52 0.62 0.53 0.47 0.48 0.45 0.33 0.34 0.33 0.44 0.44 0.42 0.48 0.64 0.68 0.71 0.62 0.67 0.57 0.70 0.89 0.70 0.59 0.56 0.41
0.15 0.08 0.07 0.08 0.18 0.15 0.21 0.27 0.22 0.36 0.45 0.28 0.23 0.43 0.48 0.47 0.37 0.28 0.31 0.28 0.27 0.19 0.16 0.17 0.11 0.06 0.08 0.09 0.12 0.14 0.09 0.13 0.27 0.29 0.28 0.36 0.65 0.79 0.69 0.67 0.66 0.67 0.72
0.35 0.50 0.30 0.37 0.54 0.56 0.74 0.74 0.68 0.66 0.57 0.41 0.36 0.32 0.26 0.25 0.26 0.12 0.09 0.06 0.03 0.02 0.02 0.02 0.01 0.00 0.01 0.03 0.06 0.06 0.09 0.18 0.17 0.14 0.14 0.30 0.61 0.36 0.31 0.37 0.49 0.66 0.62
0.03 0.18 0.11 0.17 0.23 0.30 0.36 0.48 0.41 0.33 0.32 0.22 0.17 0.13 0.12 0.10 0.07 0.03 0.03 0.02 0.01 0.01 0.01 0.01 0.00 0.00 0.00 0.00 0.01 0.01 0.07 0.11 0.10 0.08 0.22 0.28 0.23 0.25 0.33 0.45 0.49 0.46 0.41
0.04 0.02 0.03 0.02 0.04 0.06 0.09 0.11 0.04 0.04 0.06 0.06 0.06 0.04 0.03 0.03 0.01 0.00 0.00 0.00 0.00 0.01 0.01 0.01 0.01 0.01 0.00 0.00 0.00 0.04 0.06 0.05 0.10 0.19 0.18 0.10 0.11 0.16 0.22 0.29 0.29 0.23 0.35
0.12 0.10 0.07 0.04 0.03 0.03 0.03 0.03 0.03 0.03 0.02 0.02 0.01 0.01 0.01 0.03 0.01 0.01 0.01 0.01 0.01 0.02 0.02 0.01 0.01 0.02 0.02 0.03 0.08 0.07 0.05 0.09 0.17 0.10 0.08 0.13 0.12 0.11 0.09 0.09 0.16 0.26 0.47
0.01 0.01 0.02 0.02 0.02 0.01 0.00 0.00 0.00 0.00 0.00 0.01 0.02 0.02 0.01 0.01 0.01 0.01 0.02 0.04 0.03 0.04 0.03 0.04 0.04 0.04 0.05 0.06 0.07 0.06 0.13 0.17 0.10 0.11 0.08 0.09 0.14 0.24 0.34 0.45 0.52 0.54 0.63